﻿<?xml version="1.0" encoding="utf-8"?><gpx creator="Garmin Desktop App" version="1.1" xsi:schemaLocation="http://www.topografix.com/GPX/1/1 http://www.topografix.com/GPX/1/1/gpx.xsd http://www.garmin.com/xmlschemas/WaypointExtension/v1 http://www8.garmin.com/xmlschemas/WaypointExtensionv1.xsd http://www.garmin.com/xmlschemas/TrackPointExtension/v1 http://www.garmin.com/xmlschemas/TrackPointExtensionv1.xsd http://www.garmin.com/xmlschemas/GpxExtensions/v3 http://www8.garmin.com/xmlschemas/GpxExtensionsv3.xsd http://www.garmin.com/xmlschemas/ActivityExtension/v1 http://www8.garmin.com/xmlschemas/ActivityExtensionv1.xsd http://www.garmin.com/xmlschemas/AdventuresExtensions/v1 http://www8.garmin.com/xmlschemas/AdventuresExtensionv1.xsd" xmlns="http://www.topografix.com/GPX/1/1" xmlns:xsi="http://www.w3.org/2001/XMLSchema-instance" xmlns:wptx1="http://www.garmin.com/xmlschemas/WaypointExtension/v1" xmlns:gpxtrx="http://www.garmin.com/xmlschemas/GpxExtensions/v3" xmlns:gpxtpx="http://www.garmin.com/xmlschemas/TrackPointExtension/v1" xmlns:gpxx="http://www.garmin.com/xmlschemas/GpxExtensions/v3" xmlns:trp="http://www.garmin.com/xmlschemas/TripExtensions/v1" xmlns:adv="http://www.garmin.com/xmlschemas/AdventuresExtensions/v1">

  <metadata>
    <link href="http://www.garmin.com">
      <text>Garmin International</text>
    </link>
    <time>2012-07-07T14:09:56Z</time>
    <bounds maxlat="46.196447275578976" maxlon="7.386647891253233" minlat="46.129428846761584" minlon="7.265368876978755" />
  </metadata>

  <trk>
    <name>Tracé actuel: 07 JUIL 2012 09:32</name>
    <extensions>
      <gpxx:TrackExtension>
        <gpxx:DisplayColor>DarkGray</gpxx:DisplayColor>
      </gpxx:TrackExtension>
    </extensions>
    <trkseg>
      <trkpt lat="46.182035431265831" lon="7.290534703060985">
        <ele>1342.6199999999999</ele>
        <time>2012-07-07T07:32:55Z</time>
      </trkpt>
      <trkpt lat="46.182034090161324" lon="7.290532356128097">
        <ele>1342.6199999999999</ele>
        <time>2012-07-07T07:32:56Z</time>
      </trkpt>
      <trkpt lat="46.181989833712578" lon="7.290457338094711">
        <ele>1343.0999999999999</ele>
        <time>2012-07-07T07:33:01Z</time>
      </trkpt>
      <trkpt lat="46.181994443759322" lon="7.29038693010807">
        <ele>1343.0999999999999</ele>
        <time>2012-07-07T07:33:04Z</time>
      </trkpt>
      <trkpt lat="46.182008776813745" lon="7.290368992835283">
        <ele>1343.5799999999999</ele>
        <time>2012-07-07T07:33:05Z</time>
      </trkpt>
      <trkpt lat="46.182029815390706" lon="7.290365556254983">
        <ele>1343.5799999999999</ele>
        <time>2012-07-07T07:33:06Z</time>
      </trkpt>
      <trkpt lat="46.182052027434111" lon="7.290371339768171">
        <ele>1343.5799999999999</ele>
        <time>2012-07-07T07:33:07Z</time>
      </trkpt>
      <trkpt lat="46.18207398802042" lon="7.290382152423263">
        <ele>1343.0999999999999</ele>
        <time>2012-07-07T07:33:08Z</time>
      </trkpt>
      <trkpt lat="46.182096200063825" lon="7.290398497134447">
        <ele>1343.0999999999999</ele>
        <time>2012-07-07T07:33:09Z</time>
      </trkpt>
      <trkpt lat="46.182119250297546" lon="7.290420290082693">
        <ele>1342.6199999999999</ele>
        <time>2012-07-07T07:33:10Z</time>
      </trkpt>
      <trkpt lat="46.182140791788697" lon="7.290447363629937">
        <ele>1342.6199999999999</ele>
        <time>2012-07-07T07:33:11Z</time>
      </trkpt>
      <trkpt lat="46.182159399613738" lon="7.290477538481355">
        <ele>1342.6199999999999</ele>
        <time>2012-07-07T07:33:12Z</time>
      </trkpt>
      <trkpt lat="46.182179264724255" lon="7.290513161569834">
        <ele>1342.1400000000001</ele>
        <time>2012-07-07T07:33:13Z</time>
      </trkpt>
      <trkpt lat="46.182466261088848" lon="7.291268622502685">
        <ele>1339.73</ele>
        <time>2012-07-07T07:33:26Z</time>
      </trkpt>
      <trkpt lat="46.182613531127572" lon="7.292677871882916">
        <ele>1337.8099999999999</ele>
        <time>2012-07-07T07:33:42Z</time>
      </trkpt>
      <trkpt lat="46.182712689042091" lon="7.293278099969029">
        <ele>1336.3699999999999</ele>
        <time>2012-07-07T07:33:48Z</time>
      </trkpt>
      <trkpt lat="46.182747473940253" lon="7.293373150750995">
        <ele>1336.3699999999999</ele>
        <time>2012-07-07T07:33:49Z</time>
      </trkpt>
      <trkpt lat="46.182791730388999" lon="7.293460322543979">
        <ele>1335.8900000000001</ele>
        <time>2012-07-07T07:33:50Z</time>
      </trkpt>
      <trkpt lat="46.182842273265123" lon="7.293544141575694">
        <ele>1335.4100000000001</ele>
        <time>2012-07-07T07:33:51Z</time>
      </trkpt>
      <trkpt lat="46.18289683945477" lon="7.293624943122268">
        <ele>1335.4100000000001</ele>
        <time>2012-07-07T07:33:52Z</time>
      </trkpt>
      <trkpt lat="46.18335859850049" lon="7.294176388531923">
        <ele>1332.52</ele>
        <time>2012-07-07T07:34:00Z</time>
      </trkpt>
      <trkpt lat="46.183387851342559" lon="7.294245287775993">
        <ele>1332.04</ele>
        <time>2012-07-07T07:34:01Z</time>
      </trkpt>
      <trkpt lat="46.183396903797984" lon="7.294322233647108">
        <ele>1331.5599999999999</ele>
        <time>2012-07-07T07:34:02Z</time>
      </trkpt>
      <trkpt lat="46.183383073657751" lon="7.294401442632079">
        <ele>1331.5599999999999</ele>
        <time>2012-07-07T07:34:03Z</time>
      </trkpt>
      <trkpt lat="46.183351892977953" lon="7.294472185894847">
        <ele>1331.0799999999999</ele>
        <time>2012-07-07T07:34:04Z</time>
      </trkpt>
      <trkpt lat="46.183313671499491" lon="7.294532870873809">
        <ele>1331.0799999999999</ele>
        <time>2012-07-07T07:34:05Z</time>
      </trkpt>
      <trkpt lat="46.183270001783967" lon="7.294586263597012">
        <ele>1330.5999999999999</ele>
        <time>2012-07-07T07:34:06Z</time>
      </trkpt>
      <trkpt lat="46.183224655687809" lon="7.294636387377977">
        <ele>1331.0799999999999</ele>
        <time>2012-07-07T07:34:07Z</time>
      </trkpt>
      <trkpt lat="46.183078391477466" lon="7.294844593852758">
        <ele>1331.5599999999999</ele>
        <time>2012-07-07T07:34:11Z</time>
      </trkpt>
      <trkpt lat="46.182706234976649" lon="7.295368546620011">
        <ele>1336.3699999999999</ele>
        <time>2012-07-07T07:34:25Z</time>
      </trkpt>
      <trkpt lat="46.182362074032426" lon="7.295170901343226">
        <ele>1338.77</ele>
        <time>2012-07-07T07:34:38Z</time>
      </trkpt>
      <trkpt lat="46.182016907259822" lon="7.294808048754931">
        <ele>1343.0999999999999</ele>
        <time>2012-07-07T07:34:54Z</time>
      </trkpt>
      <trkpt lat="46.181588592007756" lon="7.29458718560636">
        <ele>1345.98</ele>
        <time>2012-07-07T07:35:11Z</time>
      </trkpt>
      <trkpt lat="46.181157846003771" lon="7.294562542811036">
        <ele>1349.3499999999999</ele>
        <time>2012-07-07T07:35:27Z</time>
      </trkpt>
      <trkpt lat="46.180733302608132" lon="7.294634291902185">
        <ele>1352.71</ele>
        <time>2012-07-07T07:35:44Z</time>
      </trkpt>
      <trkpt lat="46.18037698790431" lon="7.29485247284174">
        <ele>1356.5599999999999</ele>
        <time>2012-07-07T07:35:59Z</time>
      </trkpt>
      <trkpt lat="46.180080100893974" lon="7.295231837779284">
        <ele>1358.96</ele>
        <time>2012-07-07T07:36:12Z</time>
      </trkpt>
      <trkpt lat="46.179979685693979" lon="7.295567113906145">
        <ele>1359.4400000000001</ele>
        <time>2012-07-07T07:36:19Z</time>
      </trkpt>
      <trkpt lat="46.17997482419014" lon="7.295631486922503">
        <ele>1359.4400000000001</ele>
        <time>2012-07-07T07:36:20Z</time>
      </trkpt>
      <trkpt lat="46.179977506399155" lon="7.296606302261353">
        <ele>1356.0799999999999</ele>
        <time>2012-07-07T07:36:30Z</time>
      </trkpt>
      <trkpt lat="46.179896118119359" lon="7.29816441424191">
        <ele>1350.79</ele>
        <time>2012-07-07T07:36:42Z</time>
      </trkpt>
      <trkpt lat="46.18019669316709" lon="7.300096023827791">
        <ele>1345.98</ele>
        <time>2012-07-07T07:36:58Z</time>
      </trkpt>
      <trkpt lat="46.180262910202146" lon="7.300375979393721">
        <ele>1344.54</ele>
        <time>2012-07-07T07:37:00Z</time>
      </trkpt>
      <trkpt lat="46.180539848282933" lon="7.302422756329179">
        <ele>1330.1199999999999</ele>
        <time>2012-07-07T07:37:12Z</time>
      </trkpt>
      <trkpt lat="46.180717628449202" lon="7.304156804457307">
        <ele>1317.1400000000001</ele>
        <time>2012-07-07T07:37:22Z</time>
      </trkpt>
      <trkpt lat="46.180745959281921" lon="7.304271049797535">
        <ele>1316.1800000000001</ele>
        <time>2012-07-07T07:37:23Z</time>
      </trkpt>
      <trkpt lat="46.180779654532671" lon="7.304368196055293">
        <ele>1315.7</ele>
        <time>2012-07-07T07:37:24Z</time>
      </trkpt>
      <trkpt lat="46.18080890737474" lon="7.304462241008878">
        <ele>1315.7</ele>
        <time>2012-07-07T07:37:25Z</time>
      </trkpt>
      <trkpt lat="46.180827682837844" lon="7.304556118324399">
        <ele>1315.7</ele>
        <time>2012-07-07T07:37:26Z</time>
      </trkpt>
      <trkpt lat="46.180841429159045" lon="7.304649744182825">
        <ele>1316.1800000000001</ele>
        <time>2012-07-07T07:37:27Z</time>
      </trkpt>
      <trkpt lat="46.180850397795439" lon="7.304742531850934">
        <ele>1316.6600000000001</ele>
        <time>2012-07-07T07:37:28Z</time>
      </trkpt>
      <trkpt lat="46.180851319804788" lon="7.305744756013155">
        <ele>1319.0699999999999</ele>
        <time>2012-07-07T07:37:41Z</time>
      </trkpt>
      <trkpt lat="46.180831119418144" lon="7.306234678253532">
        <ele>1320.03</ele>
        <time>2012-07-07T07:37:48Z</time>
      </trkpt>
      <trkpt lat="46.180788455531001" lon="7.306557800620794">
        <ele>1320.51</ele>
        <time>2012-07-07T07:37:55Z</time>
      </trkpt>
      <trkpt lat="46.180796334519982" lon="7.306582778692246">
        <ele>1320.51</ele>
        <time>2012-07-07T07:37:56Z</time>
      </trkpt>
      <trkpt lat="46.18081527762115" lon="7.306589568033814">
        <ele>1320.99</ele>
        <time>2012-07-07T07:37:57Z</time>
      </trkpt>
      <trkpt lat="46.180831789970398" lon="7.306567272171378">
        <ele>1320.99</ele>
        <time>2012-07-07T07:37:58Z</time>
      </trkpt>
      <trkpt lat="46.180839249864221" lon="7.306526619940996">
        <ele>1320.99</ele>
        <time>2012-07-07T07:37:59Z</time>
      </trkpt>
      <trkpt lat="46.180839501321316" lon="7.306473897770047">
        <ele>1320.51</ele>
        <time>2012-07-07T07:38:00Z</time>
      </trkpt>
      <trkpt lat="46.180863222107291" lon="7.306252112612128">
        <ele>1320.03</ele>
        <time>2012-07-07T07:38:04Z</time>
      </trkpt>
      <trkpt lat="46.180881997570395" lon="7.306245490908623">
        <ele>1319.55</ele>
        <time>2012-07-07T07:38:05Z</time>
      </trkpt>
      <trkpt lat="46.180910831317306" lon="7.306303745135665">
        <ele>1318.5899999999999</ele>
        <time>2012-07-07T07:38:07Z</time>
      </trkpt>
      <trkpt lat="46.180924074724317" lon="7.306369375437498">
        <ele>1317.6199999999999</ele>
        <time>2012-07-07T07:38:08Z</time>
      </trkpt>
      <trkpt lat="46.180947963148355" lon="7.30644665658474">
        <ele>1316.6600000000001</ele>
        <time>2012-07-07T07:38:09Z</time>
      </trkpt>
      <trkpt lat="46.180981993675232" lon="7.30653609149158">
        <ele>1315.7</ele>
        <time>2012-07-07T07:38:10Z</time>
      </trkpt>
      <trkpt lat="46.181243173778057" lon="7.307520881295204">
        <ele>1299.8399999999999</ele>
        <time>2012-07-07T07:38:21Z</time>
      </trkpt>
      <trkpt lat="46.181294554844499" lon="7.307778457179666">
        <ele>1294.55</ele>
        <time>2012-07-07T07:38:24Z</time>
      </trkpt>
      <trkpt lat="46.181320119649172" lon="7.307854145765305">
        <ele>1293.1099999999999</ele>
        <time>2012-07-07T07:38:25Z</time>
      </trkpt>
      <trkpt lat="46.181461522355676" lon="7.308237366378307">
        <ele>1284.9400000000001</ele>
        <time>2012-07-07T07:38:30Z</time>
      </trkpt>
      <trkpt lat="46.181478537619114" lon="7.308319006115198">
        <ele>1283.02</ele>
        <time>2012-07-07T07:38:31Z</time>
      </trkpt>
      <trkpt lat="46.181484321132302" lon="7.308403244242072">
        <ele>1282.0599999999999</ele>
        <time>2012-07-07T07:38:32Z</time>
      </trkpt>
      <trkpt lat="46.181484488770366" lon="7.308558141812682">
        <ele>1279.6500000000001</ele>
        <time>2012-07-07T07:38:34Z</time>
      </trkpt>
      <trkpt lat="46.181492703035474" lon="7.308611366897821">
        <ele>1278.21</ele>
        <time>2012-07-07T07:38:35Z</time>
      </trkpt>
      <trkpt lat="46.181498821824789" lon="7.308651097118855">
        <ele>1277.25</ele>
        <time>2012-07-07T07:38:36Z</time>
      </trkpt>
      <trkpt lat="46.181547520682216" lon="7.309272615239024">
        <ele>1273.4000000000001</ele>
        <time>2012-07-07T07:38:47Z</time>
      </trkpt>
      <trkpt lat="46.181548526510596" lon="7.309331204742193">
        <ele>1273.4000000000001</ele>
        <time>2012-07-07T07:38:48Z</time>
      </trkpt>
      <trkpt lat="46.181503599509597" lon="7.310202671214938">
        <ele>1277.25</ele>
        <time>2012-07-07T07:39:03Z</time>
      </trkpt>
      <trkpt lat="46.181566128507257" lon="7.31102510355413">
        <ele>1282.0599999999999</ele>
        <time>2012-07-07T07:39:19Z</time>
      </trkpt>
      <trkpt lat="46.181471245363355" lon="7.311479318886995">
        <ele>1283.5</ele>
        <time>2012-07-07T07:39:28Z</time>
      </trkpt>
      <trkpt lat="46.181446351110935" lon="7.311528520658612">
        <ele>1283.98</ele>
        <time>2012-07-07T07:39:29Z</time>
      </trkpt>
      <trkpt lat="46.181258680298924" lon="7.311819037422538">
        <ele>1284.46</ele>
        <time>2012-07-07T07:39:35Z</time>
      </trkpt>
      <trkpt lat="46.180793233215809" lon="7.312335697934032">
        <ele>1282.54</ele>
        <time>2012-07-07T07:39:46Z</time>
      </trkpt>
      <trkpt lat="46.180749898776412" lon="7.312405267730355">
        <ele>1282.0599999999999</ele>
        <time>2012-07-07T07:39:47Z</time>
      </trkpt>
      <trkpt lat="46.180710252374411" lon="7.312484728172422">
        <ele>1282.0599999999999</ele>
        <time>2012-07-07T07:39:48Z</time>
      </trkpt>
      <trkpt lat="46.180675802752376" lon="7.31257600709796">
        <ele>1281.5699999999999</ele>
        <time>2012-07-07T07:39:49Z</time>
      </trkpt>
      <trkpt lat="46.180646801367402" lon="7.312675332650542">
        <ele>1281.0899999999999</ele>
        <time>2012-07-07T07:39:50Z</time>
      </trkpt>
      <trkpt lat="46.180429793894291" lon="7.313572699204087">
        <ele>1277.25</ele>
        <time>2012-07-07T07:39:58Z</time>
      </trkpt>
      <trkpt lat="46.180415879935026" lon="7.313699014484882">
        <ele>1276.77</ele>
        <time>2012-07-07T07:39:59Z</time>
      </trkpt>
      <trkpt lat="46.180292498320341" lon="7.315485198050737">
        <ele>1272.4400000000001</ele>
        <time>2012-07-07T07:40:13Z</time>
      </trkpt>
      <trkpt lat="46.180271878838539" lon="7.315572034567595">
        <ele>1272.4400000000001</ele>
        <time>2012-07-07T07:40:14Z</time>
      </trkpt>
      <trkpt lat="46.18023625575006" lon="7.315638000145555">
        <ele>1272.4400000000001</ele>
        <time>2012-07-07T07:40:15Z</time>
      </trkpt>
      <trkpt lat="46.180185126140714" lon="7.315682759508491">
        <ele>1272.4400000000001</ele>
        <time>2012-07-07T07:40:16Z</time>
      </trkpt>
      <trkpt lat="46.180124692618847" lon="7.315707989037037">
        <ele>1271.96</ele>
        <time>2012-07-07T07:40:17Z</time>
      </trkpt>
      <trkpt lat="46.180057553574443" lon="7.315723160281777">
        <ele>1271.96</ele>
        <time>2012-07-07T07:40:18Z</time>
      </trkpt>
      <trkpt lat="46.179903745651245" lon="7.315743779763579">
        <ele>1271</ele>
        <time>2012-07-07T07:40:20Z</time>
      </trkpt>
      <trkpt lat="46.179638793691993" lon="7.315751994028688">
        <ele>1269.0799999999999</ele>
        <time>2012-07-07T07:40:23Z</time>
      </trkpt>
      <trkpt lat="46.179546089842916" lon="7.315787952393293">
        <ele>1268.5999999999999</ele>
        <time>2012-07-07T07:40:24Z</time>
      </trkpt>
      <trkpt lat="46.17945833131671" lon="7.315855007618666">
        <ele>1267.6400000000001</ele>
        <time>2012-07-07T07:40:25Z</time>
      </trkpt>
      <trkpt lat="46.179377948865294" lon="7.315945951268077">
        <ele>1267.1600000000001</ele>
        <time>2012-07-07T07:40:26Z</time>
      </trkpt>
      <trkpt lat="46.17929806932807" lon="7.316040331497788">
        <ele>1266.1900000000001</ele>
        <time>2012-07-07T07:40:27Z</time>
      </trkpt>
      <trkpt lat="46.179213915020227" lon="7.316125323995948">
        <ele>1265.71</ele>
        <time>2012-07-07T07:40:28Z</time>
      </trkpt>
      <trkpt lat="46.179121881723404" lon="7.316195061430335">
        <ele>1265.23</ele>
        <time>2012-07-07T07:40:29Z</time>
      </trkpt>
      <trkpt lat="46.179024903103709" lon="7.316251639276743">
        <ele>1264.75</ele>
        <time>2012-07-07T07:40:30Z</time>
      </trkpt>
      <trkpt lat="46.178308166563511" lon="7.316585574299097">
        <ele>1259.9400000000001</ele>
        <time>2012-07-07T07:40:37Z</time>
      </trkpt>
      <trkpt lat="46.178214373067021" lon="7.316649779677391">
        <ele>1259.46</ele>
        <time>2012-07-07T07:40:38Z</time>
      </trkpt>
      <trkpt lat="46.178126782178879" lon="7.316724630072713">
        <ele>1258.98</ele>
        <time>2012-07-07T07:40:39Z</time>
      </trkpt>
      <trkpt lat="46.178046651184559" lon="7.316805347800255">
        <ele>1258.5</ele>
        <time>2012-07-07T07:40:40Z</time>
      </trkpt>
      <trkpt lat="46.177970375865698" lon="7.316889669746161">
        <ele>1258.5</ele>
        <time>2012-07-07T07:40:41Z</time>
      </trkpt>
      <trkpt lat="46.177535522729158" lon="7.317274231463671">
        <ele>1258.02</ele>
        <time>2012-07-07T07:40:47Z</time>
      </trkpt>
      <trkpt lat="46.177454050630331" lon="7.317302394658327">
        <ele>1257.54</ele>
        <time>2012-07-07T07:40:48Z</time>
      </trkpt>
      <trkpt lat="46.177366459742188" lon="7.317308764904738">
        <ele>1257.0599999999999</ele>
        <time>2012-07-07T07:40:49Z</time>
      </trkpt>
      <trkpt lat="46.17727518081665" lon="7.317310525104404">
        <ele>1256.5799999999999</ele>
        <time>2012-07-07T07:40:50Z</time>
      </trkpt>
      <trkpt lat="46.177180549129844" lon="7.317325444892049">
        <ele>1255.6199999999999</ele>
        <time>2012-07-07T07:40:51Z</time>
      </trkpt>
      <trkpt lat="46.177084157243371" lon="7.31735528446734">
        <ele>1255.1400000000001</ele>
        <time>2012-07-07T07:40:52Z</time>
      </trkpt>
      <trkpt lat="46.176986759528518" lon="7.317397110164166">
        <ele>1254.1800000000001</ele>
        <time>2012-07-07T07:40:53Z</time>
      </trkpt>
      <trkpt lat="46.176888942718506" lon="7.31744471937418">
        <ele>1253.7</ele>
        <time>2012-07-07T07:40:54Z</time>
      </trkpt>
      <trkpt lat="46.176685933023691" lon="7.31753021478653">
        <ele>1252.25</ele>
        <time>2012-07-07T07:40:56Z</time>
      </trkpt>
      <trkpt lat="46.176578477025032" lon="7.31755712069571">
        <ele>1251.29</ele>
        <time>2012-07-07T07:40:57Z</time>
      </trkpt>
      <trkpt lat="46.1757667735219" lon="7.317703468725085">
        <ele>1244.0799999999999</ele>
        <time>2012-07-07T07:41:05Z</time>
      </trkpt>
      <trkpt lat="46.175676165148616" lon="7.317734397947788">
        <ele>1243.5999999999999</ele>
        <time>2012-07-07T07:41:06Z</time>
      </trkpt>
      <trkpt lat="46.175252459943295" lon="7.317894827574492">
        <ele>1239.28</ele>
        <time>2012-07-07T07:41:11Z</time>
      </trkpt>
      <trkpt lat="46.175177777186036" lon="7.317883344367147">
        <ele>1238.3199999999999</ele>
        <time>2012-07-07T07:41:12Z</time>
      </trkpt>
      <trkpt lat="46.175102172419429" lon="7.317846212536097">
        <ele>1237.8299999999999</ele>
        <time>2012-07-07T07:41:13Z</time>
      </trkpt>
      <trkpt lat="46.175027824938297" lon="7.317791394889355">
        <ele>1236.8699999999999</ele>
        <time>2012-07-07T07:41:14Z</time>
      </trkpt>
      <trkpt lat="46.174954064190388" lon="7.317737247794867">
        <ele>1235.9100000000001</ele>
        <time>2012-07-07T07:41:15Z</time>
      </trkpt>
      <trkpt lat="46.174879716709256" lon="7.317701457068324">
        <ele>1235.4300000000001</ele>
        <time>2012-07-07T07:41:16Z</time>
      </trkpt>
      <trkpt lat="46.174798663705587" lon="7.317684860900044">
        <ele>1234.47</ele>
        <time>2012-07-07T07:41:17Z</time>
      </trkpt>
      <trkpt lat="46.174715179949999" lon="7.317679580301046">
        <ele>1233.99</ele>
        <time>2012-07-07T07:41:18Z</time>
      </trkpt>
      <trkpt lat="46.174483504146338" lon="7.317693494260311">
        <ele>1233.03</ele>
        <time>2012-07-07T07:41:21Z</time>
      </trkpt>
      <trkpt lat="46.174420807510614" lon="7.317723669111729">
        <ele>1232.55</ele>
        <time>2012-07-07T07:41:22Z</time>
      </trkpt>
      <trkpt lat="46.174367414787412" lon="7.317777648568153">
        <ele>1231.5899999999999</ele>
        <time>2012-07-07T07:41:23Z</time>
      </trkpt>
      <trkpt lat="46.174322739243507" lon="7.317855013534427">
        <ele>1231.1099999999999</ele>
        <time>2012-07-07T07:41:24Z</time>
      </trkpt>
      <trkpt lat="46.174281416460872" lon="7.317945370450616">
        <ele>1230.1400000000001</ele>
        <time>2012-07-07T07:41:25Z</time>
      </trkpt>
      <trkpt lat="46.174126518890262" lon="7.318205125629902">
        <ele>1228.7</ele>
        <time>2012-07-07T07:41:28Z</time>
      </trkpt>
      <trkpt lat="46.17405460216105" lon="7.31826857663691">
        <ele>1227.74</ele>
        <time>2012-07-07T07:41:29Z</time>
      </trkpt>
      <trkpt lat="46.173976231366396" lon="7.318319622427225">
        <ele>1227.26</ele>
        <time>2012-07-07T07:41:30Z</time>
      </trkpt>
      <trkpt lat="46.173900123685598" lon="7.318361615762115">
        <ele>1226.3</ele>
        <time>2012-07-07T07:41:31Z</time>
      </trkpt>
      <trkpt lat="46.173832481727004" lon="7.318393802270293">
        <ele>1225.8199999999999</ele>
        <time>2012-07-07T07:41:32Z</time>
      </trkpt>
      <trkpt lat="46.173721002414823" lon="7.318456918001175">
        <ele>1224.3800000000001</ele>
        <time>2012-07-07T07:41:34Z</time>
      </trkpt>
      <trkpt lat="46.173682194203138" lon="7.31849773786962">
        <ele>1223.9000000000001</ele>
        <time>2012-07-07T07:41:35Z</time>
      </trkpt>
      <trkpt lat="46.173619832843542" lon="7.318557584658265">
        <ele>1224.3800000000001</ele>
        <time>2012-07-07T07:41:37Z</time>
      </trkpt>
      <trkpt lat="46.173592675477266" lon="7.318555908277631">
        <ele>1224.8599999999999</ele>
        <time>2012-07-07T07:41:38Z</time>
      </trkpt>
      <trkpt lat="46.173573564738035" lon="7.318548699840903">
        <ele>1225.3399999999999</ele>
        <time>2012-07-07T07:41:39Z</time>
      </trkpt>
      <trkpt lat="46.173558728769422" lon="7.318540485575795">
        <ele>1225.3399999999999</ele>
        <time>2012-07-07T07:41:40Z</time>
      </trkpt>
      <trkpt lat="46.173543138429523" lon="7.318528331816196">
        <ele>1225.8199999999999</ele>
        <time>2012-07-07T07:41:41Z</time>
      </trkpt>
      <trkpt lat="46.173525620251894" lon="7.31850896961987">
        <ele>1225.8199999999999</ele>
        <time>2012-07-07T07:41:42Z</time>
      </trkpt>
      <trkpt lat="46.173195540904999" lon="7.318246951326728">
        <ele>1226.78</ele>
        <time>2012-07-07T07:41:52Z</time>
      </trkpt>
      <trkpt lat="46.172886667773128" lon="7.318131281062961">
        <ele>1230.1400000000001</ele>
        <time>2012-07-07T07:42:04Z</time>
      </trkpt>
      <trkpt lat="46.172689944505692" lon="7.318140249699354">
        <ele>1229.6600000000001</ele>
        <time>2012-07-07T07:42:15Z</time>
      </trkpt>
      <trkpt lat="46.172540159896016" lon="7.318172017112374">
        <ele>1230.1400000000001</ele>
        <time>2012-07-07T07:42:29Z</time>
      </trkpt>
      <trkpt lat="46.172352908179164" lon="7.318213675171137">
        <ele>1228.22</ele>
        <time>2012-07-07T07:42:45Z</time>
      </trkpt>
      <trkpt lat="46.172217037528753" lon="7.318316772580147">
        <ele>1224.8599999999999</ele>
        <time>2012-07-07T07:43:00Z</time>
      </trkpt>
      <trkpt lat="46.17206834256649" lon="7.318369830027223">
        <ele>1224.3800000000001</ele>
        <time>2012-07-07T07:43:12Z</time>
      </trkpt>
      <trkpt lat="46.171834571287036" lon="7.318438561633229">
        <ele>1228.22</ele>
        <time>2012-07-07T07:43:29Z</time>
      </trkpt>
      <trkpt lat="46.171432994306087" lon="7.318474687635899">
        <ele>1230.6199999999999</ele>
        <time>2012-07-07T07:43:43Z</time>
      </trkpt>
      <trkpt lat="46.171327298507094" lon="7.31847619637847">
        <ele>1230.6199999999999</ele>
        <time>2012-07-07T07:43:45Z</time>
      </trkpt>
      <trkpt lat="46.170959249138832" lon="7.318538306280971">
        <ele>1228.7</ele>
        <time>2012-07-07T07:43:52Z</time>
      </trkpt>
      <trkpt lat="46.170906778424978" lon="7.318522296845913">
        <ele>1228.7</ele>
        <time>2012-07-07T07:43:53Z</time>
      </trkpt>
      <trkpt lat="46.170855313539505" lon="7.318494385108352">
        <ele>1228.7</ele>
        <time>2012-07-07T07:43:54Z</time>
      </trkpt>
      <trkpt lat="46.170803094282746" lon="7.318454151973128">
        <ele>1228.7</ele>
        <time>2012-07-07T07:43:55Z</time>
      </trkpt>
      <trkpt lat="46.170751377940178" lon="7.318407380953431">
        <ele>1228.22</ele>
        <time>2012-07-07T07:43:56Z</time>
      </trkpt>
      <trkpt lat="46.170703517273068" lon="7.31835063546896">
        <ele>1228.22</ele>
        <time>2012-07-07T07:43:57Z</time>
      </trkpt>
      <trkpt lat="46.170654399320483" lon="7.318291543051601">
        <ele>1227.74</ele>
        <time>2012-07-07T07:43:58Z</time>
      </trkpt>
      <trkpt lat="46.170421717688441" lon="7.318044444546104">
        <ele>1225.8199999999999</ele>
        <time>2012-07-07T07:44:02Z</time>
      </trkpt>
      <trkpt lat="46.170199932530522" lon="7.317892899736762">
        <ele>1223.4200000000001</ele>
        <time>2012-07-07T07:44:05Z</time>
      </trkpt>
      <trkpt lat="46.170124495401978" lon="7.31787571683526">
        <ele>1222.45</ele>
        <time>2012-07-07T07:44:06Z</time>
      </trkpt>
      <trkpt lat="46.170044112950563" lon="7.317876890301704">
        <ele>1221.01</ele>
        <time>2012-07-07T07:44:07Z</time>
      </trkpt>
      <trkpt lat="46.16996431723237" lon="7.317890971899033">
        <ele>1220.05</ele>
        <time>2012-07-07T07:44:08Z</time>
      </trkpt>
      <trkpt lat="46.169890472665429" lon="7.317928271368146">
        <ele>1219.0899999999999</ele>
        <time>2012-07-07T07:44:09Z</time>
      </trkpt>
      <trkpt lat="46.169823333621025" lon="7.317995326593518">
        <ele>1218.1300000000001</ele>
        <time>2012-07-07T07:44:10Z</time>
      </trkpt>
      <trkpt lat="46.169762900099158" lon="7.318077133968473">
        <ele>1217.1700000000001</ele>
        <time>2012-07-07T07:44:11Z</time>
      </trkpt>
      <trkpt lat="46.169705735519528" lon="7.318156259134412">
        <ele>1216.6900000000001</ele>
        <time>2012-07-07T07:44:12Z</time>
      </trkpt>
      <trkpt lat="46.169610768556595" lon="7.318277377635241">
        <ele>1215.24</ele>
        <time>2012-07-07T07:44:14Z</time>
      </trkpt>
      <trkpt lat="46.169559052214026" lon="7.318318700417876">
        <ele>1215.24</ele>
        <time>2012-07-07T07:44:15Z</time>
      </trkpt>
      <trkpt lat="46.169499373063445" lon="7.318344097584486">
        <ele>1214.76</ele>
        <time>2012-07-07T07:44:16Z</time>
      </trkpt>
      <trkpt lat="46.169429635629058" lon="7.318362537771463">
        <ele>1214.28</ele>
        <time>2012-07-07T07:44:17Z</time>
      </trkpt>
      <trkpt lat="46.16935009136796" lon="7.318386342376471">
        <ele>1213.3199999999999</ele>
        <time>2012-07-07T07:44:18Z</time>
      </trkpt>
      <trkpt lat="46.168673420324922" lon="7.318518860265613">
        <ele>1212.3599999999999</ele>
        <time>2012-07-07T07:44:26Z</time>
      </trkpt>
      <trkpt lat="46.168604604899883" lon="7.318512825295329">
        <ele>1212.8399999999999</ele>
        <time>2012-07-07T07:44:27Z</time>
      </trkpt>
      <trkpt lat="46.168395895510912" lon="7.318464545533061">
        <ele>1214.76</ele>
        <time>2012-07-07T07:44:31Z</time>
      </trkpt>
      <trkpt lat="46.168355410918593" lon="7.318443926051259">
        <ele>1215.24</ele>
        <time>2012-07-07T07:44:32Z</time>
      </trkpt>
      <trkpt lat="46.168271256610751" lon="7.318397909402847">
        <ele>1215.24</ele>
        <time>2012-07-07T07:44:34Z</time>
      </trkpt>
      <trkpt lat="46.168222641572356" lon="7.31838877312839">
        <ele>1215.24</ele>
        <time>2012-07-07T07:44:35Z</time>
      </trkpt>
      <trkpt lat="46.168172266334295" lon="7.318394389003515">
        <ele>1215.24</ele>
        <time>2012-07-07T07:44:36Z</time>
      </trkpt>
      <trkpt lat="46.168122729286551" lon="7.318401262164116">
        <ele>1215.24</ele>
        <time>2012-07-07T07:44:37Z</time>
      </trkpt>
      <trkpt lat="46.168071683496237" lon="7.318404782563448">
        <ele>1215.24</ele>
        <time>2012-07-07T07:44:38Z</time>
      </trkpt>
      <trkpt lat="46.168018374592066" lon="7.318413835018873">
        <ele>1214.76</ele>
        <time>2012-07-07T07:44:39Z</time>
      </trkpt>
      <trkpt lat="46.167634483426809" lon="7.318582981824875">
        <ele>1214.28</ele>
        <time>2012-07-07T07:44:46Z</time>
      </trkpt>
      <trkpt lat="46.167577654123306" lon="7.318633524700999">
        <ele>1213.8</ele>
        <time>2012-07-07T07:44:47Z</time>
      </trkpt>
      <trkpt lat="46.167474053800106" lon="7.31872295960784">
        <ele>1214.28</ele>
        <time>2012-07-07T07:44:49Z</time>
      </trkpt>
      <trkpt lat="46.167316054925323" lon="7.31884659267962">
        <ele>1214.28</ele>
        <time>2012-07-07T07:44:52Z</time>
      </trkpt>
      <trkpt lat="46.167010283097625" lon="7.319054128602147">
        <ele>1215.24</ele>
        <time>2012-07-07T07:45:01Z</time>
      </trkpt>
      <trkpt lat="46.166984885931015" lon="7.319068713113666">
        <ele>1216.21</ele>
        <time>2012-07-07T07:45:09Z</time>
      </trkpt>
      <trkpt lat="46.166975162923336" lon="7.319082207977772">
        <ele>1216.21</ele>
        <time>2012-07-07T07:45:10Z</time>
      </trkpt>
      <trkpt lat="46.16696166805923" lon="7.319091008976102">
        <ele>1216.21</ele>
        <time>2012-07-07T07:45:11Z</time>
      </trkpt>
      <trkpt lat="46.166944820433855" lon="7.319094529375434">
        <ele>1216.21</ele>
        <time>2012-07-07T07:45:12Z</time>
      </trkpt>
      <trkpt lat="46.166927134618163" lon="7.319098133593798">
        <ele>1215.72</ele>
        <time>2012-07-07T07:45:13Z</time>
      </trkpt>
      <trkpt lat="46.166906096041203" lon="7.319104252383113">
        <ele>1215.72</ele>
        <time>2012-07-07T07:45:14Z</time>
      </trkpt>
      <trkpt lat="46.16664013825357" lon="7.31900392100215">
        <ele>1215.72</ele>
        <time>2012-07-07T07:45:25Z</time>
      </trkpt>
      <trkpt lat="46.166346604004502" lon="7.318779453635216">
        <ele>1215.72</ele>
        <time>2012-07-07T07:45:37Z</time>
      </trkpt>
      <trkpt lat="46.166195143014193" lon="7.318787751719356">
        <ele>1215.72</ele>
        <time>2012-07-07T07:45:43Z</time>
      </trkpt>
      <trkpt lat="46.166177624836564" lon="7.318779285997152">
        <ele>1215.72</ele>
        <time>2012-07-07T07:45:44Z</time>
      </trkpt>
      <trkpt lat="46.166162034496665" lon="7.318783812224865">
        <ele>1215.72</ele>
        <time>2012-07-07T07:45:45Z</time>
      </trkpt>
      <trkpt lat="46.166148288175464" lon="7.318825889378786">
        <ele>1216.21</ele>
        <time>2012-07-07T07:45:48Z</time>
      </trkpt>
      <trkpt lat="46.166146947070956" lon="7.318848520517349">
        <ele>1216.21</ele>
        <time>2012-07-07T07:45:49Z</time>
      </trkpt>
      <trkpt lat="46.166107133030891" lon="7.319070724770427">
        <ele>1216.21</ele>
        <time>2012-07-07T07:45:57Z</time>
      </trkpt>
      <trkpt lat="46.166111994534731" lon="7.319087237119675">
        <ele>1216.6900000000001</ele>
        <time>2012-07-07T07:45:58Z</time>
      </trkpt>
      <trkpt lat="46.166118867695332" lon="7.319102408364415">
        <ele>1216.6900000000001</ele>
        <time>2012-07-07T07:45:59Z</time>
      </trkpt>
      <trkpt lat="46.166256247088313" lon="7.319335173815489">
        <ele>1218.6099999999999</ele>
        <time>2012-07-07T07:46:15Z</time>
      </trkpt>
      <trkpt lat="46.166277285665274" lon="7.319406000897288">
        <ele>1218.6099999999999</ele>
        <time>2012-07-07T07:46:19Z</time>
      </trkpt>
      <trkpt lat="46.166283655911684" lon="7.319426704198122">
        <ele>1218.6099999999999</ele>
        <time>2012-07-07T07:46:20Z</time>
      </trkpt>
      <trkpt lat="46.166331600397825" lon="7.319767093285918">
        <ele>1234.47</ele>
        <time>2012-07-07T07:46:33Z</time>
      </trkpt>
      <trkpt lat="46.16635330952704" lon="7.319788718596101">
        <ele>1234.95</ele>
        <time>2012-07-07T07:46:34Z</time>
      </trkpt>
      <trkpt lat="46.166379880160093" lon="7.319813445210457">
        <ele>1235.4300000000001</ele>
        <time>2012-07-07T07:46:35Z</time>
      </trkpt>
      <trkpt lat="46.166737033054233" lon="7.320048809051514">
        <ele>1235.4300000000001</ele>
        <time>2012-07-07T07:46:42Z</time>
      </trkpt>
      <trkpt lat="46.166811883449554" lon="7.320067919790745">
        <ele>1234.95</ele>
        <time>2012-07-07T07:46:43Z</time>
      </trkpt>
      <trkpt lat="46.166892684996128" lon="7.320080576464534">
        <ele>1234.95</ele>
        <time>2012-07-07T07:46:44Z</time>
      </trkpt>
      <trkpt lat="46.167241539806128" lon="7.320066243410111">
        <ele>1233.03</ele>
        <time>2012-07-07T07:46:48Z</time>
      </trkpt>
      <trkpt lat="46.16732276044786" lon="7.320033553987742">
        <ele>1232.0699999999999</ele>
        <time>2012-07-07T07:46:49Z</time>
      </trkpt>
      <trkpt lat="46.167397191748023" lon="7.319984352216125">
        <ele>1231.5899999999999</ele>
        <time>2012-07-07T07:46:50Z</time>
      </trkpt>
      <trkpt lat="46.167534068226814" lon="7.319875722751021">
        <ele>1230.1400000000001</ele>
        <time>2012-07-07T07:46:52Z</time>
      </trkpt>
      <trkpt lat="46.167607745155692" lon="7.319839177653194">
        <ele>1229.6600000000001</ele>
        <time>2012-07-07T07:46:53Z</time>
      </trkpt>
      <trkpt lat="46.167678572237492" lon="7.319803386926651">
        <ele>1228.7</ele>
        <time>2012-07-07T07:46:54Z</time>
      </trkpt>
      <trkpt lat="46.167743196710944" lon="7.319759130477905">
        <ele>1228.22</ele>
        <time>2012-07-07T07:46:55Z</time>
      </trkpt>
      <trkpt lat="46.167810754850507" lon="7.319716550409794">
        <ele>1227.26</ele>
        <time>2012-07-07T07:46:56Z</time>
      </trkpt>
      <trkpt lat="46.167886275798082" lon="7.319694003090262">
        <ele>1225.8199999999999</ele>
        <time>2012-07-07T07:46:57Z</time>
      </trkpt>
      <trkpt lat="46.167969675734639" lon="7.319695176556706">
        <ele>1224.8599999999999</ele>
        <time>2012-07-07T07:46:58Z</time>
      </trkpt>
      <trkpt lat="46.168055757880211" lon="7.319720238447189">
        <ele>1223.4200000000001</ele>
        <time>2012-07-07T07:46:59Z</time>
      </trkpt>
      <trkpt lat="46.168144270777702" lon="7.319778241217136">
        <ele>1221.49</ele>
        <time>2012-07-07T07:47:00Z</time>
      </trkpt>
      <trkpt lat="46.168232448399067" lon="7.31985560618341">
        <ele>1220.05</ele>
        <time>2012-07-07T07:47:01Z</time>
      </trkpt>
      <trkpt lat="46.168319620192051" lon="7.319944789633155">
        <ele>1218.6099999999999</ele>
        <time>2012-07-07T07:47:02Z</time>
      </trkpt>
      <trkpt lat="46.16881406866014" lon="7.320588771253824">
        <ele>1211.8800000000001</ele>
        <time>2012-07-07T07:47:08Z</time>
      </trkpt>
      <trkpt lat="46.169023951515555" lon="7.320979032665491">
        <ele>1208.03</ele>
        <time>2012-07-07T07:47:11Z</time>
      </trkpt>
      <trkpt lat="46.169102992862463" lon="7.321086572483182">
        <ele>1206.5899999999999</ele>
        <time>2012-07-07T07:47:12Z</time>
      </trkpt>
      <trkpt lat="46.169370543211699" lon="7.321451604366303">
        <ele>1202.27</ele>
        <time>2012-07-07T07:47:16Z</time>
      </trkpt>
      <trkpt lat="46.16941655986011" lon="7.321550594642758">
        <ele>1202.27</ele>
        <time>2012-07-07T07:47:17Z</time>
      </trkpt>
      <trkpt lat="46.169465761631727" lon="7.322046300396323">
        <ele>1206.5899999999999</ele>
        <time>2012-07-07T07:47:23Z</time>
      </trkpt>
      <trkpt lat="46.169474562630057" lon="7.322100531309843">
        <ele>1207.0699999999999</ele>
        <time>2012-07-07T07:47:24Z</time>
      </trkpt>
      <trkpt lat="46.169736078009009" lon="7.322580395266414">
        <ele>1212.8399999999999</ele>
        <time>2012-07-07T07:47:38Z</time>
      </trkpt>
      <trkpt lat="46.169920479878783" lon="7.322957748547196">
        <ele>1218.6099999999999</ele>
        <time>2012-07-07T07:47:52Z</time>
      </trkpt>
      <trkpt lat="46.170042855665088" lon="7.323651434853673">
        <ele>1224.3800000000001</ele>
        <time>2012-07-07T07:48:12Z</time>
      </trkpt>
      <trkpt lat="46.170156514272094" lon="7.32419466599822">
        <ele>1228.22</ele>
        <time>2012-07-07T07:48:29Z</time>
      </trkpt>
      <trkpt lat="46.17024720646441" lon="7.324468586593866">
        <ele>1232.0699999999999</ele>
        <time>2012-07-07T07:48:44Z</time>
      </trkpt>
      <trkpt lat="46.170167662203312" lon="7.324798498302698">
        <ele>1233.51</ele>
        <time>2012-07-07T07:49:01Z</time>
      </trkpt>
      <trkpt lat="46.17026137188077" lon="7.325112316757441">
        <ele>1237.3499999999999</ele>
        <time>2012-07-07T07:49:14Z</time>
      </trkpt>
      <trkpt lat="46.170386262238026" lon="7.32522027567029">
        <ele>1241.6800000000001</ele>
        <time>2012-07-07T07:49:23Z</time>
      </trkpt>
      <trkpt lat="46.170639228075743" lon="7.32537760399282">
        <ele>1248.4100000000001</ele>
        <time>2012-07-07T07:49:38Z</time>
      </trkpt>
      <trkpt lat="46.170869814231992" lon="7.325616823509336">
        <ele>1249.3699999999999</ele>
        <time>2012-07-07T07:49:52Z</time>
      </trkpt>
      <trkpt lat="46.171078104525805" lon="7.325771553441882">
        <ele>1254.1800000000001</ele>
        <time>2012-07-07T07:50:06Z</time>
      </trkpt>
      <trkpt lat="46.171285808086395" lon="7.325908513739705">
        <ele>1257.0599999999999</ele>
        <time>2012-07-07T07:50:18Z</time>
      </trkpt>
      <trkpt lat="46.17129921913147" lon="7.325930893421173">
        <ele>1256.5799999999999</ele>
        <time>2012-07-07T07:50:19Z</time>
      </trkpt>
      <trkpt lat="46.171533828601241" lon="7.326124180108309">
        <ele>1260.4300000000001</ele>
        <time>2012-07-07T07:50:34Z</time>
      </trkpt>
      <trkpt lat="46.171774892136455" lon="7.326336828991771">
        <ele>1262.8299999999999</ele>
        <time>2012-07-07T07:50:49Z</time>
      </trkpt>
      <trkpt lat="46.171961724758148" lon="7.326593985781074">
        <ele>1263.79</ele>
        <time>2012-07-07T07:51:02Z</time>
      </trkpt>
      <trkpt lat="46.172145288437605" lon="7.326942253857851">
        <ele>1265.71</ele>
        <time>2012-07-07T07:51:19Z</time>
      </trkpt>
      <trkpt lat="46.172182001173496" lon="7.327138893306255">
        <ele>1266.6700000000001</ele>
        <time>2012-07-07T07:51:28Z</time>
      </trkpt>
      <trkpt lat="46.172181665897369" lon="7.327161859720945">
        <ele>1266.6700000000001</ele>
        <time>2012-07-07T07:51:29Z</time>
      </trkpt>
      <trkpt lat="46.172184431925416" lon="7.327183317393065">
        <ele>1266.6700000000001</ele>
        <time>2012-07-07T07:51:30Z</time>
      </trkpt>
      <trkpt lat="46.172184180468321" lon="7.327205697074533">
        <ele>1267.1600000000001</ele>
        <time>2012-07-07T07:51:31Z</time>
      </trkpt>
      <trkpt lat="46.172183426097035" lon="7.327227322384715">
        <ele>1267.1600000000001</ele>
        <time>2012-07-07T07:51:32Z</time>
      </trkpt>
      <trkpt lat="46.172228185459971" lon="7.327559497207403">
        <ele>1270.04</ele>
        <time>2012-07-07T07:51:47Z</time>
      </trkpt>
      <trkpt lat="46.172394817695022" lon="7.327762171626091">
        <ele>1274.3599999999999</ele>
        <time>2012-07-07T07:52:02Z</time>
      </trkpt>
      <trkpt lat="46.17256480269134" lon="7.328051179647446">
        <ele>1278.6900000000001</ele>
        <time>2012-07-07T07:52:19Z</time>
      </trkpt>
      <trkpt lat="46.172645688056946" lon="7.32834605500102">
        <ele>1282.0599999999999</ele>
        <time>2012-07-07T07:52:33Z</time>
      </trkpt>
      <trkpt lat="46.172745181247592" lon="7.328719887882471">
        <ele>1283.98</ele>
        <time>2012-07-07T07:52:50Z</time>
      </trkpt>
      <trkpt lat="46.172855067998171" lon="7.32914594002068">
        <ele>1286.8599999999999</ele>
        <time>2012-07-07T07:53:07Z</time>
      </trkpt>
      <trkpt lat="46.172871747985482" lon="7.329638209193945">
        <ele>1288.3</ele>
        <time>2012-07-07T07:53:23Z</time>
      </trkpt>
      <trkpt lat="46.172966463491321" lon="7.330194851383567">
        <ele>1291.1900000000001</ele>
        <time>2012-07-07T07:53:40Z</time>
      </trkpt>
      <trkpt lat="46.173024298623204" lon="7.330673709511757">
        <ele>1294.0699999999999</ele>
        <time>2012-07-07T07:53:55Z</time>
      </trkpt>
      <trkpt lat="46.172993872314692" lon="7.331049721688032">
        <ele>1295.03</ele>
        <time>2012-07-07T07:54:07Z</time>
      </trkpt>
      <trkpt lat="46.173052461817861" lon="7.331566382199526">
        <ele>1297.4400000000001</ele>
        <time>2012-07-07T07:54:23Z</time>
      </trkpt>
      <trkpt lat="46.17306218482554" lon="7.331592785194516">
        <ele>1297.4400000000001</ele>
        <time>2012-07-07T07:54:24Z</time>
      </trkpt>
      <trkpt lat="46.17321171797812" lon="7.331564035266638">
        <ele>1301.28</ele>
        <time>2012-07-07T07:54:32Z</time>
      </trkpt>
      <trkpt lat="46.173509275540709" lon="7.331222556531429">
        <ele>1306.0899999999999</ele>
        <time>2012-07-07T07:54:47Z</time>
      </trkpt>
      <trkpt lat="46.173820914700627" lon="7.330881832167506">
        <ele>1308.01</ele>
        <time>2012-07-07T07:55:00Z</time>
      </trkpt>
      <trkpt lat="46.174087543040514" lon="7.330775633454323">
        <ele>1310.4100000000001</ele>
        <time>2012-07-07T07:55:10Z</time>
      </trkpt>
      <trkpt lat="46.174423154443502" lon="7.331051984801889">
        <ele>1311.3800000000001</ele>
        <time>2012-07-07T07:55:24Z</time>
      </trkpt>
      <trkpt lat="46.174745606258512" lon="7.331271003931761">
        <ele>1313.78</ele>
        <time>2012-07-07T07:55:39Z</time>
      </trkpt>
      <trkpt lat="46.174941575154662" lon="7.331166062504053">
        <ele>1318.5899999999999</ele>
        <time>2012-07-07T07:55:52Z</time>
      </trkpt>
      <trkpt lat="46.175184985622764" lon="7.331038070842624">
        <ele>1321.47</ele>
        <time>2012-07-07T07:56:06Z</time>
      </trkpt>
      <trkpt lat="46.17542278021574" lon="7.331093391403556">
        <ele>1323.8699999999999</ele>
        <time>2012-07-07T07:56:18Z</time>
      </trkpt>
      <trkpt lat="46.175440214574337" lon="7.33110973611474">
        <ele>1324.3499999999999</ele>
        <time>2012-07-07T07:56:19Z</time>
      </trkpt>
      <trkpt lat="46.17546183988452" lon="7.331122476607561">
        <ele>1324.3499999999999</ele>
        <time>2012-07-07T07:56:20Z</time>
      </trkpt>
      <trkpt lat="46.175483129918575" lon="7.331131864339113">
        <ele>1324.8299999999999</ele>
        <time>2012-07-07T07:56:21Z</time>
      </trkpt>
      <trkpt lat="46.175503497943282" lon="7.33113706111908">
        <ele>1324.8299999999999</ele>
        <time>2012-07-07T07:56:22Z</time>
      </trkpt>
      <trkpt lat="46.17552487179637" lon="7.33114343136549">
        <ele>1324.8299999999999</ele>
        <time>2012-07-07T07:56:23Z</time>
      </trkpt>
      <trkpt lat="46.175545826554298" lon="7.331147706136107">
        <ele>1325.3099999999999</ele>
        <time>2012-07-07T07:56:24Z</time>
      </trkpt>
      <trkpt lat="46.175565775483847" lon="7.331155249848962">
        <ele>1325.3099999999999</ele>
        <time>2012-07-07T07:56:25Z</time>
      </trkpt>
      <trkpt lat="46.175585724413395" lon="7.33115860261023">
        <ele>1325.8</ele>
        <time>2012-07-07T07:56:26Z</time>
      </trkpt>
      <trkpt lat="46.175607265904546" lon="7.331156004220247">
        <ele>1326.28</ele>
        <time>2012-07-07T07:56:27Z</time>
      </trkpt>
      <trkpt lat="46.17562897503376" lon="7.331156758591533">
        <ele>1326.28</ele>
        <time>2012-07-07T07:56:28Z</time>
      </trkpt>
      <trkpt lat="46.175650851801038" lon="7.331160698086023">
        <ele>1326.76</ele>
        <time>2012-07-07T07:56:29Z</time>
      </trkpt>
      <trkpt lat="46.176004651933908" lon="7.331286845728755">
        <ele>1332.04</ele>
        <time>2012-07-07T07:56:45Z</time>
      </trkpt>
      <trkpt lat="46.176296845078468" lon="7.331412993371487">
        <ele>1333.49</ele>
        <time>2012-07-07T07:57:00Z</time>
      </trkpt>
      <trkpt lat="46.176533298566937" lon="7.331674508750439">
        <ele>1334.45</ele>
        <time>2012-07-07T07:57:15Z</time>
      </trkpt>
      <trkpt lat="46.176684759557247" lon="7.332067200914025">
        <ele>1334.9300000000001</ele>
        <time>2012-07-07T07:57:31Z</time>
      </trkpt>
      <trkpt lat="46.176766902208328" lon="7.33221254311502">
        <ele>1335.8900000000001</ele>
        <time>2012-07-07T07:57:38Z</time>
      </trkpt>
      <trkpt lat="46.176778050139546" lon="7.3322360124439">
        <ele>1335.8900000000001</ele>
        <time>2012-07-07T07:57:39Z</time>
      </trkpt>
      <trkpt lat="46.176791545003653" lon="7.332258811220527">
        <ele>1335.8900000000001</ele>
        <time>2012-07-07T07:57:40Z</time>
      </trkpt>
      <trkpt lat="46.176802692934871" lon="7.332282783463597">
        <ele>1335.8900000000001</ele>
        <time>2012-07-07T07:57:41Z</time>
      </trkpt>
      <trkpt lat="46.176814595237374" lon="7.332304827868938">
        <ele>1335.8900000000001</ele>
        <time>2012-07-07T07:57:42Z</time>
      </trkpt>
      <trkpt lat="46.177003439515829" lon="7.332608755677939">
        <ele>1337.3299999999999</ele>
        <time>2012-07-07T07:57:58Z</time>
      </trkpt>
      <trkpt lat="46.177197732031345" lon="7.332784608006477">
        <ele>1347.4300000000001</ele>
        <time>2012-07-07T07:58:11Z</time>
      </trkpt>
      <trkpt lat="46.177470060065389" lon="7.333006476983428">
        <ele>1352.23</ele>
        <time>2012-07-07T07:58:27Z</time>
      </trkpt>
      <trkpt lat="46.17775110527873" lon="7.333298167213798">
        <ele>1355.1199999999999</ele>
        <time>2012-07-07T07:58:45Z</time>
      </trkpt>
      <trkpt lat="46.178036509081721" lon="7.333440994843841">
        <ele>1362.3299999999999</ele>
        <time>2012-07-07T07:59:01Z</time>
      </trkpt>
      <trkpt lat="46.178292827680707" lon="7.333580469712615">
        <ele>1367.6099999999999</ele>
        <time>2012-07-07T07:59:15Z</time>
      </trkpt>
      <trkpt lat="46.178551744669676" lon="7.333893282338977">
        <ele>1365.6900000000001</ele>
        <time>2012-07-07T07:59:29Z</time>
      </trkpt>
      <trkpt lat="46.178617207333446" lon="7.334255799651146">
        <ele>1362.3299999999999</ele>
        <time>2012-07-07T07:59:42Z</time>
      </trkpt>
      <trkpt lat="46.178609412163496" lon="7.334689479321241">
        <ele>1360.4000000000001</ele>
        <time>2012-07-07T07:59:57Z</time>
      </trkpt>
      <trkpt lat="46.178575465455651" lon="7.335094073787332">
        <ele>1360.4000000000001</ele>
        <time>2012-07-07T08:00:12Z</time>
      </trkpt>
      <trkpt lat="46.178587954491377" lon="7.335502188652754">
        <ele>1363.77</ele>
        <time>2012-07-07T08:00:27Z</time>
      </trkpt>
      <trkpt lat="46.178547888994217" lon="7.335897730663419">
        <ele>1368.5699999999999</ele>
        <time>2012-07-07T08:00:43Z</time>
      </trkpt>
      <trkpt lat="46.178527856245637" lon="7.33599211089313">
        <ele>1370.5</ele>
        <time>2012-07-07T08:00:48Z</time>
      </trkpt>
      <trkpt lat="46.178511846810579" lon="7.336373655125499">
        <ele>1373.3800000000001</ele>
        <time>2012-07-07T08:01:04Z</time>
      </trkpt>
      <trkpt lat="46.178516121581197" lon="7.336760144680738">
        <ele>1376.26</ele>
        <time>2012-07-07T08:01:19Z</time>
      </trkpt>
      <trkpt lat="46.178497849032283" lon="7.337145376950502">
        <ele>1378.1900000000001</ele>
        <time>2012-07-07T08:01:35Z</time>
      </trkpt>
      <trkpt lat="46.178463315591216" lon="7.337395073845983">
        <ele>1380.1099999999999</ele>
        <time>2012-07-07T08:01:46Z</time>
      </trkpt>
      <trkpt lat="46.178464321419597" lon="7.337422398850322">
        <ele>1380.1099999999999</ele>
        <time>2012-07-07T08:01:47Z</time>
      </trkpt>
      <trkpt lat="46.178464572876692" lon="7.337447125464678">
        <ele>1380.1099999999999</ele>
        <time>2012-07-07T08:01:48Z</time>
      </trkpt>
      <trkpt lat="46.178462896496058" lon="7.337470594793558">
        <ele>1380.5899999999999</ele>
        <time>2012-07-07T08:01:49Z</time>
      </trkpt>
      <trkpt lat="46.178463231772184" lon="7.337495237588882">
        <ele>1380.5899999999999</ele>
        <time>2012-07-07T08:01:50Z</time>
      </trkpt>
      <trkpt lat="46.178454933688045" lon="7.337847361341119">
        <ele>1382.99</ele>
        <time>2012-07-07T08:02:05Z</time>
      </trkpt>
      <trkpt lat="46.178412269800901" lon="7.338200658559799">
        <ele>1387.3199999999999</ele>
        <time>2012-07-07T08:02:21Z</time>
      </trkpt>
      <trkpt lat="46.178383771330118" lon="7.338313227519393">
        <ele>1388.76</ele>
        <time>2012-07-07T08:02:27Z</time>
      </trkpt>
      <trkpt lat="46.178383687511086" lon="7.338333008810878">
        <ele>1388.76</ele>
        <time>2012-07-07T08:02:28Z</time>
      </trkpt>
      <trkpt lat="46.178380586206913" lon="7.338356310501695">
        <ele>1389.24</ele>
        <time>2012-07-07T08:02:29Z</time>
      </trkpt>
      <trkpt lat="46.178376395255327" lon="7.338376762345433">
        <ele>1389.72</ele>
        <time>2012-07-07T08:02:30Z</time>
      </trkpt>
      <trkpt lat="46.178371785208583" lon="7.338400818407536">
        <ele>1389.72</ele>
        <time>2012-07-07T08:02:31Z</time>
      </trkpt>
      <trkpt lat="46.178335407748818" lon="7.338759982958436">
        <ele>1392.1300000000001</ele>
        <time>2012-07-07T08:02:45Z</time>
      </trkpt>
      <trkpt lat="46.178296180441976" lon="7.339095259085298">
        <ele>1393.5699999999999</ele>
        <time>2012-07-07T08:02:59Z</time>
      </trkpt>
      <trkpt lat="46.17826952598989" lon="7.339215707033873">
        <ele>1394.05</ele>
        <time>2012-07-07T08:03:04Z</time>
      </trkpt>
      <trkpt lat="46.178268603980541" lon="7.339243032038212">
        <ele>1394.05</ele>
        <time>2012-07-07T08:03:05Z</time>
      </trkpt>
      <trkpt lat="46.178267765790224" lon="7.339266166090965">
        <ele>1394.53</ele>
        <time>2012-07-07T08:03:06Z</time>
      </trkpt>
      <trkpt lat="46.178268184885383" lon="7.339293239638209">
        <ele>1394.53</ele>
        <time>2012-07-07T08:03:07Z</time>
      </trkpt>
      <trkpt lat="46.178271286189556" lon="7.339318385347724">
        <ele>1394.53</ele>
        <time>2012-07-07T08:03:08Z</time>
      </trkpt>
      <trkpt lat="46.178275980055332" lon="7.339343028143048">
        <ele>1394.53</ele>
        <time>2012-07-07T08:03:09Z</time>
      </trkpt>
      <trkpt lat="46.178281344473362" lon="7.33936850912869">
        <ele>1394.53</ele>
        <time>2012-07-07T08:03:10Z</time>
      </trkpt>
      <trkpt lat="46.178286708891392" lon="7.339392649009824">
        <ele>1394.53</ele>
        <time>2012-07-07T08:03:11Z</time>
      </trkpt>
      <trkpt lat="46.178290229290724" lon="7.339418213814497">
        <ele>1395.01</ele>
        <time>2012-07-07T08:03:12Z</time>
      </trkpt>
      <trkpt lat="46.178291905671358" lon="7.33944134786725">
        <ele>1395.01</ele>
        <time>2012-07-07T08:03:13Z</time>
      </trkpt>
      <trkpt lat="46.178294001147151" lon="7.339470181614161">
        <ele>1395.01</ele>
        <time>2012-07-07T08:03:14Z</time>
      </trkpt>
      <trkpt lat="46.178281093016267" lon="7.339781653136015">
        <ele>1395.97</ele>
        <time>2012-07-07T08:03:27Z</time>
      </trkpt>
      <trkpt lat="46.178276650607586" lon="7.33983026817441">
        <ele>1395.97</ele>
        <time>2012-07-07T08:03:29Z</time>
      </trkpt>
      <trkpt lat="46.178268939256668" lon="7.339850552380085">
        <ele>1395.97</ele>
        <time>2012-07-07T08:03:30Z</time>
      </trkpt>
      <trkpt lat="46.178266676142812" lon="7.339871590957046">
        <ele>1396.45</ele>
        <time>2012-07-07T08:03:31Z</time>
      </trkpt>
      <trkpt lat="46.17826852016151" lon="7.339891875162721">
        <ele>1396.45</ele>
        <time>2012-07-07T08:03:32Z</time>
      </trkpt>
      <trkpt lat="46.178270783275366" lon="7.339911488816142">
        <ele>1396.9300000000001</ele>
        <time>2012-07-07T08:03:33Z</time>
      </trkpt>
      <trkpt lat="46.17828318849206" lon="7.340243412181735">
        <ele>1401.74</ele>
        <time>2012-07-07T08:03:47Z</time>
      </trkpt>
      <trkpt lat="46.178196184337139" lon="7.340521523728967">
        <ele>1406.0699999999999</ele>
        <time>2012-07-07T08:04:00Z</time>
      </trkpt>
      <trkpt lat="46.178229376673698" lon="7.340717492625117">
        <ele>1408.47</ele>
        <time>2012-07-07T08:04:08Z</time>
      </trkpt>
      <trkpt lat="46.178230717778206" lon="7.34074205160141">
        <ele>1408.47</ele>
        <time>2012-07-07T08:04:09Z</time>
      </trkpt>
      <trkpt lat="46.178273130208254" lon="7.340999124571681">
        <ele>1409.4300000000001</ele>
        <time>2012-07-07T08:04:20Z</time>
      </trkpt>
      <trkpt lat="46.178280003368855" lon="7.341017732396722">
        <ele>1408.95</ele>
        <time>2012-07-07T08:04:21Z</time>
      </trkpt>
      <trkpt lat="46.17828612215817" lon="7.341039525344968">
        <ele>1409.4300000000001</ele>
        <time>2012-07-07T08:04:22Z</time>
      </trkpt>
      <trkpt lat="46.178287630900741" lon="7.341057043522596">
        <ele>1409.9100000000001</ele>
        <time>2012-07-07T08:04:23Z</time>
      </trkpt>
      <trkpt lat="46.178289726376534" lon="7.341076070442796">
        <ele>1410.3900000000001</ele>
        <time>2012-07-07T08:04:24Z</time>
      </trkpt>
      <trkpt lat="46.178294084966183" lon="7.341094091534615">
        <ele>1410.3900000000001</ele>
        <time>2012-07-07T08:04:25Z</time>
      </trkpt>
      <trkpt lat="46.17830028757453" lon="7.341115213930607">
        <ele>1410.8699999999999</ele>
        <time>2012-07-07T08:04:26Z</time>
      </trkpt>
      <trkpt lat="46.178303137421608" lon="7.341137174516916">
        <ele>1411.3499999999999</ele>
        <time>2012-07-07T08:04:27Z</time>
      </trkpt>
      <trkpt lat="46.178303975611925" lon="7.341158632189035">
        <ele>1411.3499999999999</ele>
        <time>2012-07-07T08:04:28Z</time>
      </trkpt>
      <trkpt lat="46.178258545696735" lon="7.341411849483848">
        <ele>1412.3099999999999</ele>
        <time>2012-07-07T08:04:39Z</time>
      </trkpt>
      <trkpt lat="46.178140612319112" lon="7.341698594391346">
        <ele>1413.28</ele>
        <time>2012-07-07T08:04:54Z</time>
      </trkpt>
      <trkpt lat="46.177999712526798" lon="7.342002103105187">
        <ele>1415.2</ele>
        <time>2012-07-07T08:05:10Z</time>
      </trkpt>
      <trkpt lat="46.177954282611609" lon="7.342033702880144">
        <ele>1415.6800000000001</ele>
        <time>2012-07-07T08:05:14Z</time>
      </trkpt>
      <trkpt lat="46.177946738898754" lon="7.342022135853767">
        <ele>1415.6800000000001</ele>
        <time>2012-07-07T08:05:15Z</time>
      </trkpt>
      <trkpt lat="46.177944978699088" lon="7.342004701495171">
        <ele>1416.1600000000001</ele>
        <time>2012-07-07T08:05:16Z</time>
      </trkpt>
      <trkpt lat="46.178052937611938" lon="7.341634808108211">
        <ele>1416.6400000000001</ele>
        <time>2012-07-07T08:05:29Z</time>
      </trkpt>
      <trkpt lat="46.178018068894744" lon="7.341081351041794">
        <ele>1419.52</ele>
        <time>2012-07-07T08:05:44Z</time>
      </trkpt>
      <trkpt lat="46.177913881838322" lon="7.340605929493904">
        <ele>1425.29</ele>
        <time>2012-07-07T08:05:59Z</time>
      </trkpt>
      <trkpt lat="46.177913881838322" lon="7.340583801269531">
        <ele>1425.77</ele>
        <time>2012-07-07T08:06:00Z</time>
      </trkpt>
      <trkpt lat="46.17789133451879" lon="7.340160934254527">
        <ele>1426.25</ele>
        <time>2012-07-07T08:06:13Z</time>
      </trkpt>
      <trkpt lat="46.177824698388577" lon="7.339795734733343">
        <ele>1426.25</ele>
        <time>2012-07-07T08:06:25Z</time>
      </trkpt>
      <trkpt lat="46.17772470228374" lon="7.339414777234197">
        <ele>1430.5799999999999</ele>
        <time>2012-07-07T08:06:41Z</time>
      </trkpt>
      <trkpt lat="46.17767826654017" lon="7.339411592110992">
        <ele>1429.1400000000001</ele>
        <time>2012-07-07T08:06:57Z</time>
      </trkpt>
      <trkpt lat="46.177616827189922" lon="7.339468169957399">
        <ele>1432.98</ele>
        <time>2012-07-07T08:07:25Z</time>
      </trkpt>
      <trkpt lat="46.177621521055698" lon="7.3393748793751">
        <ele>1435.8699999999999</ele>
        <time>2012-07-07T08:07:46Z</time>
      </trkpt>
      <trkpt lat="46.177626298740506" lon="7.339165331795812">
        <ele>1437.3099999999999</ele>
        <time>2012-07-07T08:07:54Z</time>
      </trkpt>
      <trkpt lat="46.177670555189252" lon="7.338739698752761">
        <ele>1437.79</ele>
        <time>2012-07-07T08:08:09Z</time>
      </trkpt>
      <trkpt lat="46.177563769742846" lon="7.338402913883328">
        <ele>1439.23</ele>
        <time>2012-07-07T08:08:21Z</time>
      </trkpt>
      <trkpt lat="46.177475424483418" lon="7.338021621108055">
        <ele>1441.6300000000001</ele>
        <time>2012-07-07T08:08:34Z</time>
      </trkpt>
      <trkpt lat="46.177443824708462" lon="7.337530190125108">
        <ele>1444.04</ele>
        <time>2012-07-07T08:08:49Z</time>
      </trkpt>
      <trkpt lat="46.177469221875072" lon="7.337160212919116">
        <ele>1444.04</ele>
        <time>2012-07-07T08:09:01Z</time>
      </trkpt>
      <trkpt lat="46.177437119185925" lon="7.336730556562543">
        <ele>1445</ele>
        <time>2012-07-07T08:09:14Z</time>
      </trkpt>
      <trkpt lat="46.177196390926838" lon="7.33633023686707">
        <ele>1448.3599999999999</ele>
        <time>2012-07-07T08:09:30Z</time>
      </trkpt>
      <trkpt lat="46.177112152799964" lon="7.335976772010326">
        <ele>1449.3199999999999</ele>
        <time>2012-07-07T08:09:42Z</time>
      </trkpt>
      <trkpt lat="46.176917608827353" lon="7.335590366274118">
        <ele>1451.73</ele>
        <time>2012-07-07T08:09:57Z</time>
      </trkpt>
      <trkpt lat="46.176649974659085" lon="7.335274368524551">
        <ele>1453.6500000000001</ele>
        <time>2012-07-07T08:10:12Z</time>
      </trkpt>
      <trkpt lat="46.176325846463442" lon="7.334915371611714">
        <ele>1456.53</ele>
        <time>2012-07-07T08:10:30Z</time>
      </trkpt>
      <trkpt lat="46.176019823178649" lon="7.334743542596698">
        <ele>1457.5</ele>
        <time>2012-07-07T08:10:43Z</time>
      </trkpt>
      <trkpt lat="46.175643978640437" lon="7.334464509040117">
        <ele>1460.3800000000001</ele>
        <time>2012-07-07T08:11:00Z</time>
      </trkpt>
      <trkpt lat="46.175270397216082" lon="7.33456626534462">
        <ele>1462.3</ele>
        <time>2012-07-07T08:11:15Z</time>
      </trkpt>
      <trkpt lat="46.174890697002411" lon="7.33468059450388">
        <ele>1465.1900000000001</ele>
        <time>2012-07-07T08:11:30Z</time>
      </trkpt>
      <trkpt lat="46.174499178305268" lon="7.334780925884843">
        <ele>1469.03</ele>
        <time>2012-07-07T08:11:45Z</time>
      </trkpt>
      <trkpt lat="46.173951169475913" lon="7.3347675986588">
        <ele>1470.47</ele>
        <time>2012-07-07T08:12:04Z</time>
      </trkpt>
      <trkpt lat="46.173732485622168" lon="7.334564421325922">
        <ele>1473.3599999999999</ele>
        <time>2012-07-07T08:12:14Z</time>
      </trkpt>
      <trkpt lat="46.173707507550716" lon="7.334571713581681">
        <ele>1473.8399999999999</ele>
        <time>2012-07-07T08:12:15Z</time>
      </trkpt>
      <trkpt lat="46.173691749572754" lon="7.334593003615737">
        <ele>1473.8399999999999</ele>
        <time>2012-07-07T08:12:16Z</time>
      </trkpt>
      <trkpt lat="46.173688480630517" lon="7.334624184295535">
        <ele>1474.3199999999999</ele>
        <time>2012-07-07T08:12:17Z</time>
      </trkpt>
      <trkpt lat="46.173699209466577" lon="7.334653856232762">
        <ele>1474.3199999999999</ele>
        <time>2012-07-07T08:12:18Z</time>
      </trkpt>
      <trkpt lat="46.173715470358729" lon="7.334676487371326">
        <ele>1474.3199999999999</ele>
        <time>2012-07-07T08:12:19Z</time>
      </trkpt>
      <trkpt lat="46.173973800614476" lon="7.334894835948944">
        <ele>1478.6500000000001</ele>
        <time>2012-07-07T08:12:34Z</time>
      </trkpt>
      <trkpt lat="46.17423347197473" lon="7.334992904216051">
        <ele>1486.8199999999999</ele>
        <time>2012-07-07T08:12:48Z</time>
      </trkpt>
      <trkpt lat="46.174562210217118" lon="7.335001705214381">
        <ele>1496.4300000000001</ele>
        <time>2012-07-07T08:13:05Z</time>
      </trkpt>
      <trkpt lat="46.174878040328622" lon="7.334999106824398">
        <ele>1497.3900000000001</ele>
        <time>2012-07-07T08:13:20Z</time>
      </trkpt>
      <trkpt lat="46.175202755257487" lon="7.334995586425066">
        <ele>1501.24</ele>
        <time>2012-07-07T08:13:36Z</time>
      </trkpt>
      <trkpt lat="46.175492098554969" lon="7.335201865062118">
        <ele>1506.52</ele>
        <time>2012-07-07T08:13:53Z</time>
      </trkpt>
      <trkpt lat="46.175661664456129" lon="7.335677621886134">
        <ele>1500.76</ele>
        <time>2012-07-07T08:14:11Z</time>
      </trkpt>
      <trkpt lat="46.175794685259461" lon="7.336056735366583">
        <ele>1500.27</ele>
        <time>2012-07-07T08:14:27Z</time>
      </trkpt>
      <trkpt lat="46.175954947248101" lon="7.336287824437022">
        <ele>1501.72</ele>
        <time>2012-07-07T08:14:40Z</time>
      </trkpt>
      <trkpt lat="46.176024349406362" lon="7.336598793044686">
        <ele>1504.1199999999999</ele>
        <time>2012-07-07T08:14:54Z</time>
      </trkpt>
      <trkpt lat="46.17602669633925" lon="7.337031634524465">
        <ele>1507.48</ele>
        <time>2012-07-07T08:15:10Z</time>
      </trkpt>
      <trkpt lat="46.176068438217044" lon="7.337443856522441">
        <ele>1510.3699999999999</ele>
        <time>2012-07-07T08:15:25Z</time>
      </trkpt>
      <trkpt lat="46.17605259642005" lon="7.337778126820922">
        <ele>1517.0999999999999</ele>
        <time>2012-07-07T08:15:40Z</time>
      </trkpt>
      <trkpt lat="46.176078664138913" lon="7.338173585012555">
        <ele>1521.9000000000001</ele>
        <time>2012-07-07T08:15:56Z</time>
      </trkpt>
      <trkpt lat="46.176091488450766" lon="7.338352119550109">
        <ele>1523.8299999999999</ele>
        <time>2012-07-07T08:16:03Z</time>
      </trkpt>
      <trkpt lat="46.176095260307193" lon="7.338378941640258">
        <ele>1524.3099999999999</ele>
        <time>2012-07-07T08:16:04Z</time>
      </trkpt>
      <trkpt lat="46.176097691059113" lon="7.338404422625899">
        <ele>1524.3099999999999</ele>
        <time>2012-07-07T08:16:05Z</time>
      </trkpt>
      <trkpt lat="46.176098361611366" lon="7.338613467290998">
        <ele>1524.79</ele>
        <time>2012-07-07T08:16:14Z</time>
      </trkpt>
      <trkpt lat="46.176102217286825" lon="7.338637439534068">
        <ele>1524.3099999999999</ele>
        <time>2012-07-07T08:16:15Z</time>
      </trkpt>
      <trkpt lat="46.176100457087159" lon="7.338661411777139">
        <ele>1524.79</ele>
        <time>2012-07-07T08:16:16Z</time>
      </trkpt>
      <trkpt lat="46.176095847040415" lon="7.338684210553765">
        <ele>1524.79</ele>
        <time>2012-07-07T08:16:17Z</time>
      </trkpt>
      <trkpt lat="46.176092326641083" lon="7.338705249130726">
        <ele>1524.79</ele>
        <time>2012-07-07T08:16:18Z</time>
      </trkpt>
      <trkpt lat="46.176090314984322" lon="7.338726203888655">
        <ele>1524.79</ele>
        <time>2012-07-07T08:16:19Z</time>
      </trkpt>
      <trkpt lat="46.176043627783656" lon="7.339035579934716">
        <ele>1525.75</ele>
        <time>2012-07-07T08:16:33Z</time>
      </trkpt>
      <trkpt lat="46.17603650316596" lon="7.339057205244899">
        <ele>1525.75</ele>
        <time>2012-07-07T08:16:34Z</time>
      </trkpt>
      <trkpt lat="46.17602719925344" lon="7.339074891060591">
        <ele>1526.23</ele>
        <time>2012-07-07T08:16:35Z</time>
      </trkpt>
      <trkpt lat="46.176019655540586" lon="7.339096264913678">
        <ele>1526.23</ele>
        <time>2012-07-07T08:16:36Z</time>
      </trkpt>
      <trkpt lat="46.176015380769968" lon="7.339118141680956">
        <ele>1526.71</ele>
        <time>2012-07-07T08:16:37Z</time>
      </trkpt>
      <trkpt lat="46.176008004695177" lon="7.339135995134711">
        <ele>1526.71</ele>
        <time>2012-07-07T08:16:38Z</time>
      </trkpt>
      <trkpt lat="46.176000041887164" lon="7.339156614616513">
        <ele>1527.1900000000001</ele>
        <time>2012-07-07T08:16:39Z</time>
      </trkpt>
      <trkpt lat="46.175996605306864" lon="7.339179497212172">
        <ele>1527.1900000000001</ele>
        <time>2012-07-07T08:16:40Z</time>
      </trkpt>
      <trkpt lat="46.175996353849769" lon="7.339204559102655">
        <ele>1527.1900000000001</ele>
        <time>2012-07-07T08:16:41Z</time>
      </trkpt>
      <trkpt lat="46.175986463204026" lon="7.339332466945052">
        <ele>1528.1500000000001</ele>
        <time>2012-07-07T08:16:46Z</time>
      </trkpt>
      <trkpt lat="46.175980344414711" lon="7.339356439188123">
        <ele>1528.6300000000001</ele>
        <time>2012-07-07T08:16:47Z</time>
      </trkpt>
      <trkpt lat="46.175977075472474" lon="7.339380495250225">
        <ele>1529.1099999999999</ele>
        <time>2012-07-07T08:16:48Z</time>
      </trkpt>
      <trkpt lat="46.175943715497851" lon="7.33956104144454">
        <ele>1530.5599999999999</ele>
        <time>2012-07-07T08:16:56Z</time>
      </trkpt>
      <trkpt lat="46.175939608365297" lon="7.339588534086943">
        <ele>1531.04</ele>
        <time>2012-07-07T08:16:57Z</time>
      </trkpt>
      <trkpt lat="46.175938937813044" lon="7.339613763615489">
        <ele>1531.04</ele>
        <time>2012-07-07T08:16:58Z</time>
      </trkpt>
      <trkpt lat="46.175943296402693" lon="7.339640166610479">
        <ele>1531.52</ele>
        <time>2012-07-07T08:16:59Z</time>
      </trkpt>
      <trkpt lat="46.175956204533577" lon="7.339669419452548">
        <ele>1532</ele>
        <time>2012-07-07T08:17:00Z</time>
      </trkpt>
      <trkpt lat="46.17593877017498" lon="7.339967396110296">
        <ele>1533.4400000000001</ele>
        <time>2012-07-07T08:17:13Z</time>
      </trkpt>
      <trkpt lat="46.175895016640425" lon="7.340282974764705">
        <ele>1536.8</ele>
        <time>2012-07-07T08:17:27Z</time>
      </trkpt>
      <trkpt lat="46.175896944478154" lon="7.340303342789412">
        <ele>1536.8</ele>
        <time>2012-07-07T08:17:28Z</time>
      </trkpt>
      <trkpt lat="46.175896944478154" lon="7.340322034433484">
        <ele>1537.29</ele>
        <time>2012-07-07T08:17:29Z</time>
      </trkpt>
      <trkpt lat="46.175893843173981" lon="7.340341899544001">
        <ele>1537.77</ele>
        <time>2012-07-07T08:17:30Z</time>
      </trkpt>
      <trkpt lat="46.175889316946268" lon="7.340358663350344">
        <ele>1538.25</ele>
        <time>2012-07-07T08:17:31Z</time>
      </trkpt>
      <trkpt lat="46.175886550918221" lon="7.340377606451511">
        <ele>1538.73</ele>
        <time>2012-07-07T08:17:32Z</time>
      </trkpt>
      <trkpt lat="46.175875402987003" lon="7.340461760759354">
        <ele>1540.6500000000001</ele>
        <time>2012-07-07T08:17:36Z</time>
      </trkpt>
      <trkpt lat="46.17586936801672" lon="7.3408168181777">
        <ele>1544.5</ele>
        <time>2012-07-07T08:17:53Z</time>
      </trkpt>
      <trkpt lat="46.175871882587671" lon="7.340832743793726">
        <ele>1544.5</ele>
        <time>2012-07-07T08:17:54Z</time>
      </trkpt>
      <trkpt lat="46.175872134044766" lon="7.34085344709456">
        <ele>1544.5</ele>
        <time>2012-07-07T08:17:55Z</time>
      </trkpt>
      <trkpt lat="46.17586987093091" lon="7.340872390195727">
        <ele>1544.98</ele>
        <time>2012-07-07T08:17:56Z</time>
      </trkpt>
      <trkpt lat="46.175868362188339" lon="7.340892925858498">
        <ele>1544.98</ele>
        <time>2012-07-07T08:17:57Z</time>
      </trkpt>
      <trkpt lat="46.175868362188339" lon="7.340912036597729">
        <ele>1544.98</ele>
        <time>2012-07-07T08:17:58Z</time>
      </trkpt>
      <trkpt lat="46.175867859274149" lon="7.340929554775357">
        <ele>1545.46</ele>
        <time>2012-07-07T08:17:59Z</time>
      </trkpt>
      <trkpt lat="46.175866601988673" lon="7.340949336066842">
        <ele>1545.9400000000001</ele>
        <time>2012-07-07T08:18:00Z</time>
      </trkpt>
      <trkpt lat="46.175865093246102" lon="7.340972302481532">
        <ele>1546.4200000000001</ele>
        <time>2012-07-07T08:18:01Z</time>
      </trkpt>
      <trkpt lat="46.175867775455117" lon="7.340996442362666">
        <ele>1546.4200000000001</ele>
        <time>2012-07-07T08:18:02Z</time>
      </trkpt>
      <trkpt lat="46.175867775455117" lon="7.341019911691546">
        <ele>1546.9000000000001</ele>
        <time>2012-07-07T08:18:03Z</time>
      </trkpt>
      <trkpt lat="46.17586643435061" lon="7.341042794287205">
        <ele>1547.3800000000001</ele>
        <time>2012-07-07T08:18:04Z</time>
      </trkpt>
      <trkpt lat="46.175865596160293" lon="7.341065844520927">
        <ele>1547.3800000000001</ele>
        <time>2012-07-07T08:18:05Z</time>
      </trkpt>
      <trkpt lat="46.175862746313214" lon="7.341090738773346">
        <ele>1547.8599999999999</ele>
        <time>2012-07-07T08:18:06Z</time>
      </trkpt>
      <trkpt lat="46.17581756785512" lon="7.341360049322248">
        <ele>1553.1500000000001</ele>
        <time>2012-07-07T08:18:20Z</time>
      </trkpt>
      <trkpt lat="46.175799043849111" lon="7.341727009043098">
        <ele>1555.55</ele>
        <time>2012-07-07T08:18:36Z</time>
      </trkpt>
      <trkpt lat="46.175763923674822" lon="7.341915853321552">
        <ele>1556.03</ele>
        <time>2012-07-07T08:18:45Z</time>
      </trkpt>
      <trkpt lat="46.175767946988344" lon="7.341939909383655">
        <ele>1556.03</ele>
        <time>2012-07-07T08:18:46Z</time>
      </trkpt>
      <trkpt lat="46.175767192617059" lon="7.341975532472134">
        <ele>1555.55</ele>
        <time>2012-07-07T08:18:47Z</time>
      </trkpt>
      <trkpt lat="46.175757637247443" lon="7.34202423132956">
        <ele>1555.55</ele>
        <time>2012-07-07T08:18:48Z</time>
      </trkpt>
      <trkpt lat="46.175750847905874" lon="7.342086173593998">
        <ele>1555.55</ele>
        <time>2012-07-07T08:18:49Z</time>
      </trkpt>
      <trkpt lat="46.175751267001033" lon="7.342148534953594">
        <ele>1555.55</ele>
        <time>2012-07-07T08:18:50Z</time>
      </trkpt>
      <trkpt lat="46.175756631419063" lon="7.342205867171288">
        <ele>1555.55</ele>
        <time>2012-07-07T08:18:51Z</time>
      </trkpt>
      <trkpt lat="46.175775658339262" lon="7.342268144711852">
        <ele>1555.55</ele>
        <time>2012-07-07T08:18:52Z</time>
      </trkpt>
      <trkpt lat="46.1758185736835" lon="7.342348024249077">
        <ele>1555.55</ele>
        <time>2012-07-07T08:18:53Z</time>
      </trkpt>
      <trkpt lat="46.175941955298185" lon="7.342539802193642">
        <ele>1554.5899999999999</ele>
        <time>2012-07-07T08:18:55Z</time>
      </trkpt>
      <trkpt lat="46.175988726317883" lon="7.342620519921184">
        <ele>1554.1099999999999</ele>
        <time>2012-07-07T08:18:56Z</time>
      </trkpt>
      <trkpt lat="46.176016638055444" lon="7.342701489105821">
        <ele>1553.1500000000001</ele>
        <time>2012-07-07T08:18:57Z</time>
      </trkpt>
      <trkpt lat="46.176029210910201" lon="7.342790756374598">
        <ele>1552.6700000000001</ele>
        <time>2012-07-07T08:18:58Z</time>
      </trkpt>
      <trkpt lat="46.176020661368966" lon="7.342884549871087">
        <ele>1551.71</ele>
        <time>2012-07-07T08:18:59Z</time>
      </trkpt>
      <trkpt lat="46.17600079625845" lon="7.342976918444037">
        <ele>1550.74</ele>
        <time>2012-07-07T08:19:00Z</time>
      </trkpt>
      <trkpt lat="46.175991576164961" lon="7.343072975054383">
        <ele>1549.78</ele>
        <time>2012-07-07T08:19:01Z</time>
      </trkpt>
      <trkpt lat="46.175999287515879" lon="7.343168193474412">
        <ele>1548.3399999999999</ele>
        <time>2012-07-07T08:19:02Z</time>
      </trkpt>
      <trkpt lat="46.176023595035076" lon="7.343255532905459">
        <ele>1547.3800000000001</ele>
        <time>2012-07-07T08:19:03Z</time>
      </trkpt>
      <trkpt lat="46.176062822341919" lon="7.343337424099445">
        <ele>1545.9400000000001</ele>
        <time>2012-07-07T08:19:04Z</time>
      </trkpt>
      <trkpt lat="46.176104061305523" lon="7.343416465446353">
        <ele>1544.5</ele>
        <time>2012-07-07T08:19:05Z</time>
      </trkpt>
      <trkpt lat="46.176144629716873" lon="7.343489723280072">
        <ele>1543.53</ele>
        <time>2012-07-07T08:19:06Z</time>
      </trkpt>
      <trkpt lat="46.176179246976972" lon="7.343561388552189">
        <ele>1542.0899999999999</ele>
        <time>2012-07-07T08:19:07Z</time>
      </trkpt>
      <trkpt lat="46.176199782639742" lon="7.343631042167544">
        <ele>1541.6099999999999</ele>
        <time>2012-07-07T08:19:08Z</time>
      </trkpt>
      <trkpt lat="46.176202297210693" lon="7.343705892562866">
        <ele>1540.6500000000001</ele>
        <time>2012-07-07T08:19:09Z</time>
      </trkpt>
      <trkpt lat="46.176192490383983" lon="7.34379306435585">
        <ele>1539.21</ele>
        <time>2012-07-07T08:19:10Z</time>
      </trkpt>
      <trkpt lat="46.176183102652431" lon="7.343885432928801">
        <ele>1538.25</ele>
        <time>2012-07-07T08:19:11Z</time>
      </trkpt>
      <trkpt lat="46.176124848425388" lon="7.344380719587207">
        <ele>1531.04</ele>
        <time>2012-07-07T08:19:18Z</time>
      </trkpt>
      <trkpt lat="46.176056619733572" lon="7.34461541287601">
        <ele>1527.6700000000001</ele>
        <time>2012-07-07T08:19:21Z</time>
      </trkpt>
      <trkpt lat="46.176015296950936" lon="7.344911126419902">
        <ele>1523.8299999999999</ele>
        <time>2012-07-07T08:19:24Z</time>
      </trkpt>
      <trkpt lat="46.176019655540586" lon="7.345020929351449">
        <ele>1522.3900000000001</ele>
        <time>2012-07-07T08:19:25Z</time>
      </trkpt>
      <trkpt lat="46.176039855927229" lon="7.3455726262182">
        <ele>1517.0999999999999</ele>
        <time>2012-07-07T08:19:30Z</time>
      </trkpt>
      <trkpt lat="46.176023008301854" lon="7.345781419426203">
        <ele>1514.6900000000001</ele>
        <time>2012-07-07T08:19:32Z</time>
      </trkpt>
      <trkpt lat="46.175999538972974" lon="7.345979986712337">
        <ele>1512.29</ele>
        <time>2012-07-07T08:19:34Z</time>
      </trkpt>
      <trkpt lat="46.175996018573642" lon="7.346070762723684">
        <ele>1511.3299999999999</ele>
        <time>2012-07-07T08:19:35Z</time>
      </trkpt>
      <trkpt lat="46.17599786259234" lon="7.346155839040875">
        <ele>1510.3699999999999</ele>
        <time>2012-07-07T08:19:36Z</time>
      </trkpt>
      <trkpt lat="46.176005741581321" lon="7.346240244805813">
        <ele>1509.4100000000001</ele>
        <time>2012-07-07T08:19:37Z</time>
      </trkpt>
      <trkpt lat="46.176041532307863" lon="7.346339486539364">
        <ele>1508.45</ele>
        <time>2012-07-07T08:19:38Z</time>
      </trkpt>
      <trkpt lat="46.176089476794004" lon="7.346435207873583">
        <ele>1507.48</ele>
        <time>2012-07-07T08:19:39Z</time>
      </trkpt>
      <trkpt lat="46.176135912537575" lon="7.34652204439044">
        <ele>1506.52</ele>
        <time>2012-07-07T08:19:40Z</time>
      </trkpt>
      <trkpt lat="46.176169607788324" lon="7.346607372164726">
        <ele>1505.5599999999999</ele>
        <time>2012-07-07T08:19:41Z</time>
      </trkpt>
      <trkpt lat="46.176192993298173" lon="7.346691945567727">
        <ele>1504.5999999999999</ele>
        <time>2012-07-07T08:19:42Z</time>
      </trkpt>
      <trkpt lat="46.176195088773966" lon="7.346774591132999">
        <ele>1504.1199999999999</ele>
        <time>2012-07-07T08:19:43Z</time>
      </trkpt>
      <trkpt lat="46.176190311089158" lon="7.346861260011792">
        <ele>1503.1600000000001</ele>
        <time>2012-07-07T08:19:44Z</time>
      </trkpt>
      <trkpt lat="46.17612836882472" lon="7.347462074831128">
        <ele>1497.3900000000001</ele>
        <time>2012-07-07T08:19:50Z</time>
      </trkpt>
      <trkpt lat="46.176121747121215" lon="7.347581181675196">
        <ele>1495.95</ele>
        <time>2012-07-07T08:19:51Z</time>
      </trkpt>
      <trkpt lat="46.176128704100847" lon="7.347805229946971">
        <ele>1493.55</ele>
        <time>2012-07-07T08:19:53Z</time>
      </trkpt>
      <trkpt lat="46.176143288612366" lon="7.347915535792708">
        <ele>1492.5799999999999</ele>
        <time>2012-07-07T08:19:54Z</time>
      </trkpt>
      <trkpt lat="46.17619089782238" lon="7.348246034234762">
        <ele>1490.6600000000001</ele>
        <time>2012-07-07T08:19:57Z</time>
      </trkpt>
      <trkpt lat="46.176197603344917" lon="7.348349131643772">
        <ele>1490.1800000000001</ele>
        <time>2012-07-07T08:19:58Z</time>
      </trkpt>
      <trkpt lat="46.176186706870794" lon="7.348449630662799">
        <ele>1489.7</ele>
        <time>2012-07-07T08:19:59Z</time>
      </trkpt>
      <trkpt lat="46.176158459857106" lon="7.34854401089251">
        <ele>1489.22</ele>
        <time>2012-07-07T08:20:00Z</time>
      </trkpt>
      <trkpt lat="46.176130129024386" lon="7.348642330616713">
        <ele>1488.74</ele>
        <time>2012-07-07T08:20:01Z</time>
      </trkpt>
      <trkpt lat="46.176097774878144" lon="7.348736291751266">
        <ele>1487.78</ele>
        <time>2012-07-07T08:20:02Z</time>
      </trkpt>
      <trkpt lat="46.176066258922219" lon="7.348826313391328">
        <ele>1486.8199999999999</ele>
        <time>2012-07-07T08:20:03Z</time>
      </trkpt>
      <trkpt lat="46.175940195098519" lon="7.349130744114518">
        <ele>1481.05</ele>
        <time>2012-07-07T08:20:10Z</time>
      </trkpt>
      <trkpt lat="46.175902727991343" lon="7.349177598953247">
        <ele>1480.5699999999999</ele>
        <time>2012-07-07T08:20:12Z</time>
      </trkpt>
      <trkpt lat="46.175887305289507" lon="7.349213473498821">
        <ele>1480.5699999999999</ele>
        <time>2012-07-07T08:20:13Z</time>
      </trkpt>
      <trkpt lat="46.175869032740593" lon="7.349252114072442">
        <ele>1480.0899999999999</ele>
        <time>2012-07-07T08:20:14Z</time>
      </trkpt>
      <trkpt lat="46.175851514562964" lon="7.349291844293475">
        <ele>1480.0899999999999</ele>
        <time>2012-07-07T08:20:15Z</time>
      </trkpt>
      <trkpt lat="46.175837349146605" lon="7.349334508180618">
        <ele>1479.6099999999999</ele>
        <time>2012-07-07T08:20:16Z</time>
      </trkpt>
      <trkpt lat="46.17582586593926" lon="7.349379351362586">
        <ele>1479.6099999999999</ele>
        <time>2012-07-07T08:20:17Z</time>
      </trkpt>
      <trkpt lat="46.175771048292518" lon="7.34959602355957">
        <ele>1480.0899999999999</ele>
        <time>2012-07-07T08:20:26Z</time>
      </trkpt>
      <trkpt lat="46.175791835412383" lon="7.349578589200974">
        <ele>1480.5699999999999</ele>
        <time>2012-07-07T08:20:29Z</time>
      </trkpt>
      <trkpt lat="46.175832571461797" lon="7.349491333588958">
        <ele>1481.05</ele>
        <time>2012-07-07T08:20:31Z</time>
      </trkpt>
      <trkpt lat="46.175902225077152" lon="7.34937951900065">
        <ele>1481.05</ele>
        <time>2012-07-07T08:20:33Z</time>
      </trkpt>
      <trkpt lat="46.175979841500521" lon="7.349339621141553">
        <ele>1481.05</ele>
        <time>2012-07-07T08:20:34Z</time>
      </trkpt>
      <trkpt lat="46.176100457087159" lon="7.349327886477113">
        <ele>1481.05</ele>
        <time>2012-07-07T08:20:35Z</time>
      </trkpt>
      <trkpt lat="46.176515277475119" lon="7.349245827645063">
        <ele>1480.0899999999999</ele>
        <time>2012-07-07T08:20:39Z</time>
      </trkpt>
      <trkpt lat="46.176846278831363" lon="7.349235769361258">
        <ele>1478.1600000000001</ele>
        <time>2012-07-07T08:20:43Z</time>
      </trkpt>
      <trkpt lat="46.176927667111158" lon="7.349259238690138">
        <ele>1477.6800000000001</ele>
        <time>2012-07-07T08:20:44Z</time>
      </trkpt>
      <trkpt lat="46.177144758403301" lon="7.349325371906161">
        <ele>1476.72</ele>
        <time>2012-07-07T08:20:47Z</time>
      </trkpt>
      <trkpt lat="46.177205527201295" lon="7.349314978346229">
        <ele>1476.72</ele>
        <time>2012-07-07T08:20:48Z</time>
      </trkpt>
      <trkpt lat="46.177258333191276" lon="7.349281450733542">
        <ele>1476.24</ele>
        <time>2012-07-07T08:20:49Z</time>
      </trkpt>
      <trkpt lat="46.17730837315321" lon="7.349231075495482">
        <ele>1475.76</ele>
        <time>2012-07-07T08:20:50Z</time>
      </trkpt>
      <trkpt lat="46.17734944447875" lon="7.349168295040727">
        <ele>1475.28</ele>
        <time>2012-07-07T08:20:51Z</time>
      </trkpt>
      <trkpt lat="46.177390515804291" lon="7.349099311977625">
        <ele>1474.8</ele>
        <time>2012-07-07T08:20:52Z</time>
      </trkpt>
      <trkpt lat="46.177469557151198" lon="7.348966207355261">
        <ele>1474.3199999999999</ele>
        <time>2012-07-07T08:20:54Z</time>
      </trkpt>
      <trkpt lat="46.177515406161547" lon="7.348918514326215">
        <ele>1473.8399999999999</ele>
        <time>2012-07-07T08:20:55Z</time>
      </trkpt>
      <trkpt lat="46.177567541599274" lon="7.348884316161275">
        <ele>1473.3599999999999</ele>
        <time>2012-07-07T08:20:56Z</time>
      </trkpt>
      <trkpt lat="46.177778346464038" lon="7.348748194053769">
        <ele>1472.8800000000001</ele>
        <time>2012-07-07T08:21:00Z</time>
      </trkpt>
      <trkpt lat="46.177840959280729" lon="7.348725814372301">
        <ele>1472.8800000000001</ele>
        <time>2012-07-07T08:21:01Z</time>
      </trkpt>
      <trkpt lat="46.177908685058355" lon="7.348721204325557">
        <ele>1472.8800000000001</ele>
        <time>2012-07-07T08:21:02Z</time>
      </trkpt>
      <trkpt lat="46.178108425810933" lon="7.348723215982318">
        <ele>1472.4000000000001</ele>
        <time>2012-07-07T08:21:05Z</time>
      </trkpt>
      <trkpt lat="46.178170368075371" lon="7.348706033080816">
        <ele>1472.4000000000001</ele>
        <time>2012-07-07T08:21:06Z</time>
      </trkpt>
      <trkpt lat="46.178233567625284" lon="7.348677618429065">
        <ele>1471.9200000000001</ele>
        <time>2012-07-07T08:21:07Z</time>
      </trkpt>
      <trkpt lat="46.178355775773525" lon="7.348614670336247">
        <ele>1471.9200000000001</ele>
        <time>2012-07-07T08:21:09Z</time>
      </trkpt>
      <trkpt lat="46.17842048406601" lon="7.348598660901189">
        <ele>1471.4400000000001</ele>
        <time>2012-07-07T08:21:10Z</time>
      </trkpt>
      <trkpt lat="46.178485359996557" lon="7.348607210442424">
        <ele>1471.4400000000001</ele>
        <time>2012-07-07T08:21:11Z</time>
      </trkpt>
      <trkpt lat="46.178542608395219" lon="7.348643504083157">
        <ele>1471.4400000000001</ele>
        <time>2012-07-07T08:21:12Z</time>
      </trkpt>
      <trkpt lat="46.178597342222929" lon="7.348694633692503">
        <ele>1471.4400000000001</ele>
        <time>2012-07-07T08:21:13Z</time>
      </trkpt>
      <trkpt lat="46.178838070482016" lon="7.348935110494494">
        <ele>1469.99</ele>
        <time>2012-07-07T08:21:17Z</time>
      </trkpt>
      <trkpt lat="46.178908310830593" lon="7.348965536803007">
        <ele>1469.51</ele>
        <time>2012-07-07T08:21:18Z</time>
      </trkpt>
      <trkpt lat="46.178978886455297" lon="7.348967799916863">
        <ele>1469.51</ele>
        <time>2012-07-07T08:21:19Z</time>
      </trkpt>
      <trkpt lat="46.179046612232924" lon="7.34895053319633">
        <ele>1469.03</ele>
        <time>2012-07-07T08:21:20Z</time>
      </trkpt>
      <trkpt lat="46.17911484092474" lon="7.348928824067116">
        <ele>1468.55</ele>
        <time>2012-07-07T08:21:21Z</time>
      </trkpt>
      <trkpt lat="46.179190697148442" lon="7.348917676135898">
        <ele>1467.5899999999999</ele>
        <time>2012-07-07T08:21:22Z</time>
      </trkpt>
      <trkpt lat="46.179267643019557" lon="7.348906444385648">
        <ele>1467.5899999999999</ele>
        <time>2012-07-07T08:21:23Z</time>
      </trkpt>
      <trkpt lat="46.17950133047998" lon="7.348880125209689">
        <ele>1466.6300000000001</ele>
        <time>2012-07-07T08:21:26Z</time>
      </trkpt>
      <trkpt lat="46.179744070395827" lon="7.348805610090494">
        <ele>1465.6700000000001</ele>
        <time>2012-07-07T08:21:29Z</time>
      </trkpt>
      <trkpt lat="46.17981992661953" lon="7.348759258165956">
        <ele>1465.1900000000001</ele>
        <time>2012-07-07T08:21:30Z</time>
      </trkpt>
      <trkpt lat="46.179889412596822" lon="7.348693544045091">
        <ele>1464.71</ele>
        <time>2012-07-07T08:21:31Z</time>
      </trkpt>
      <trkpt lat="46.179949007928371" lon="7.348608300089836">
        <ele>1464.71</ele>
        <time>2012-07-07T08:21:32Z</time>
      </trkpt>
      <trkpt lat="46.179997287690639" lon="7.34850537031889">
        <ele>1464.23</ele>
        <time>2012-07-07T08:21:33Z</time>
      </trkpt>
      <trkpt lat="46.180033832788467" lon="7.348393220454454">
        <ele>1464.23</ele>
        <time>2012-07-07T08:21:34Z</time>
      </trkpt>
      <trkpt lat="46.180060738697648" lon="7.348278723657131">
        <ele>1464.23</ele>
        <time>2012-07-07T08:21:35Z</time>
      </trkpt>
      <trkpt lat="46.180088315159082" lon="7.348172273486853">
        <ele>1464.23</ele>
        <time>2012-07-07T08:21:36Z</time>
      </trkpt>
      <trkpt lat="46.180124776437879" lon="7.348076971247792">
        <ele>1463.74</ele>
        <time>2012-07-07T08:21:37Z</time>
      </trkpt>
      <trkpt lat="46.18017272092402" lon="7.347993152216077">
        <ele>1463.74</ele>
        <time>2012-07-07T08:21:38Z</time>
      </trkpt>
      <trkpt lat="46.180384447798133" lon="7.347682267427445">
        <ele>1462.78</ele>
        <time>2012-07-07T08:21:42Z</time>
      </trkpt>
      <trkpt lat="46.18042292073369" lon="7.347589395940304">
        <ele>1462.78</ele>
        <time>2012-07-07T08:21:43Z</time>
      </trkpt>
      <trkpt lat="46.180452425032854" lon="7.34749048948288">
        <ele>1462.3</ele>
        <time>2012-07-07T08:21:44Z</time>
      </trkpt>
      <trkpt lat="46.180534483864903" lon="7.347244396805763">
        <ele>1459.9000000000001</ele>
        <time>2012-07-07T08:21:47Z</time>
      </trkpt>
      <trkpt lat="46.180663229897618" lon="7.347086984664202">
        <ele>1458.46</ele>
        <time>2012-07-07T08:21:52Z</time>
      </trkpt>
      <trkpt lat="46.18085827678442" lon="7.346991263329983">
        <ele>1456.05</ele>
        <time>2012-07-07T08:21:58Z</time>
      </trkpt>
      <trkpt lat="46.180889960378408" lon="7.346951616927981">
        <ele>1455.5699999999999</ele>
        <time>2012-07-07T08:21:59Z</time>
      </trkpt>
      <trkpt lat="46.180916195735335" lon="7.346905935555697">
        <ele>1455.5699999999999</ele>
        <time>2012-07-07T08:22:00Z</time>
      </trkpt>
      <trkpt lat="46.181053407490253" lon="7.346641486510634">
        <ele>1454.6099999999999</ele>
        <time>2012-07-07T08:22:05Z</time>
      </trkpt>
      <trkpt lat="46.181087018921971" lon="7.346586752682924">
        <ele>1454.6099999999999</ele>
        <time>2012-07-07T08:22:06Z</time>
      </trkpt>
      <trkpt lat="46.181318107992411" lon="7.346340995281935">
        <ele>1453.6500000000001</ele>
        <time>2012-07-07T08:22:13Z</time>
      </trkpt>
      <trkpt lat="46.181361945345998" lon="7.346329679712653">
        <ele>1453.6500000000001</ele>
        <time>2012-07-07T08:22:14Z</time>
      </trkpt>
      <trkpt lat="46.181463282555342" lon="7.34630067832768">
        <ele>1453.1700000000001</ele>
        <time>2012-07-07T08:22:16Z</time>
      </trkpt>
      <trkpt lat="46.181515753269196" lon="7.34627234749496">
        <ele>1452.6900000000001</ele>
        <time>2012-07-07T08:22:17Z</time>
      </trkpt>
      <trkpt lat="46.181564955040812" lon="7.346230270341039">
        <ele>1452.21</ele>
        <time>2012-07-07T08:22:18Z</time>
      </trkpt>
      <trkpt lat="46.181609882041812" lon="7.346177799627185">
        <ele>1452.21</ele>
        <time>2012-07-07T08:22:19Z</time>
      </trkpt>
      <trkpt lat="46.181654054671526" lon="7.346118958666921">
        <ele>1451.73</ele>
        <time>2012-07-07T08:22:20Z</time>
      </trkpt>
      <trkpt lat="46.181962005794048" lon="7.345736911520362">
        <ele>1450.29</ele>
        <time>2012-07-07T08:22:26Z</time>
      </trkpt>
      <trkpt lat="46.182012129575014" lon="7.34565912745893">
        <ele>1450.29</ele>
        <time>2012-07-07T08:22:27Z</time>
      </trkpt>
      <trkpt lat="46.182056469842792" lon="7.345571871846914">
        <ele>1449.8099999999999</ele>
        <time>2012-07-07T08:22:28Z</time>
      </trkpt>
      <trkpt lat="46.182339359074831" lon="7.345003746449947">
        <ele>1448.3599999999999</ele>
        <time>2012-07-07T08:22:35Z</time>
      </trkpt>
      <trkpt lat="46.182395601645112" lon="7.344935350120068">
        <ele>1448.3599999999999</ele>
        <time>2012-07-07T08:22:36Z</time>
      </trkpt>
      <trkpt lat="46.182553432881832" lon="7.344717504456639">
        <ele>1447.8800000000001</ele>
        <time>2012-07-07T08:22:39Z</time>
      </trkpt>
      <trkpt lat="46.182594252750278" lon="7.344629159197211">
        <ele>1447.4000000000001</ele>
        <time>2012-07-07T08:22:40Z</time>
      </trkpt>
      <trkpt lat="46.182792903855443" lon="7.344154827296734">
        <ele>1446.4400000000001</ele>
        <time>2012-07-07T08:22:46Z</time>
      </trkpt>
      <trkpt lat="46.182816624641418" lon="7.344075115397573">
        <ele>1446.4400000000001</ele>
        <time>2012-07-07T08:22:47Z</time>
      </trkpt>
      <trkpt lat="46.182927852496505" lon="7.34366113319993">
        <ele>1444.04</ele>
        <time>2012-07-07T08:22:52Z</time>
      </trkpt>
      <trkpt lat="46.182975629344583" lon="7.343530626967549">
        <ele>1442.5999999999999</ele>
        <time>2012-07-07T08:22:54Z</time>
      </trkpt>
      <trkpt lat="46.183005804196" lon="7.343467008322477">
        <ele>1441.6300000000001</ele>
        <time>2012-07-07T08:22:55Z</time>
      </trkpt>
      <trkpt lat="46.183049138635397" lon="7.343401713296771">
        <ele>1440.6700000000001</ele>
        <time>2012-07-07T08:22:56Z</time>
      </trkpt>
      <trkpt lat="46.183133628219366" lon="7.343263076618314">
        <ele>1438.27</ele>
        <time>2012-07-07T08:22:58Z</time>
      </trkpt>
      <trkpt lat="46.183178052306175" lon="7.343205073848367">
        <ele>1437.3099999999999</ele>
        <time>2012-07-07T08:22:59Z</time>
      </trkpt>
      <trkpt lat="46.18334342725575" lon="7.343042632564902">
        <ele>1433.9400000000001</ele>
        <time>2012-07-07T08:23:02Z</time>
      </trkpt>
      <trkpt lat="46.18357602506876" lon="7.342868037521839">
        <ele>1429.1400000000001</ele>
        <time>2012-07-07T08:23:05Z</time>
      </trkpt>
      <trkpt lat="46.183641571551561" lon="7.342783883213997">
        <ele>1427.7</ele>
        <time>2012-07-07T08:23:06Z</time>
      </trkpt>
      <trkpt lat="46.183700663968921" lon="7.342672068625689">
        <ele>1425.77</ele>
        <time>2012-07-07T08:23:07Z</time>
      </trkpt>
      <trkpt lat="46.184059157967567" lon="7.341899173334241">
        <ele>1414.72</ele>
        <time>2012-07-07T08:23:14Z</time>
      </trkpt>
      <trkpt lat="46.184099642559886" lon="7.341849887743592">
        <ele>1413.76</ele>
        <time>2012-07-07T08:23:15Z</time>
      </trkpt>
      <trkpt lat="46.184217911213636" lon="7.341679399833083">
        <ele>1412.3099999999999</ele>
        <time>2012-07-07T08:23:19Z</time>
      </trkpt>
      <trkpt lat="46.184239368885756" lon="7.34163137152791">
        <ele>1412.3099999999999</ele>
        <time>2012-07-07T08:23:20Z</time>
      </trkpt>
      <trkpt lat="46.184263760223985" lon="7.341585941612721">
        <ele>1411.8299999999999</ele>
        <time>2012-07-07T08:23:21Z</time>
      </trkpt>
      <trkpt lat="46.184288822114468" lon="7.341539841145277">
        <ele>1411.8299999999999</ele>
        <time>2012-07-07T08:23:22Z</time>
      </trkpt>
      <trkpt lat="46.184313632547855" lon="7.34149256721139">
        <ele>1411.3499999999999</ele>
        <time>2012-07-07T08:23:23Z</time>
      </trkpt>
      <trkpt lat="46.184471296146512" lon="7.341230800375342">
        <ele>1407.99</ele>
        <time>2012-07-07T08:23:30Z</time>
      </trkpt>
      <trkpt lat="46.184504739940166" lon="7.341197105124593">
        <ele>1407.51</ele>
        <time>2012-07-07T08:23:31Z</time>
      </trkpt>
      <trkpt lat="46.1846515070647" lon="7.341040782630444">
        <ele>1406.0699999999999</ele>
        <time>2012-07-07T08:23:40Z</time>
      </trkpt>
      <trkpt lat="46.184833310544491" lon="7.340854536741972">
        <ele>1407.51</ele>
        <time>2012-07-07T08:23:51Z</time>
      </trkpt>
      <trkpt lat="46.185019556432962" lon="7.340657478198409">
        <ele>1408.47</ele>
        <time>2012-07-07T08:24:02Z</time>
      </trkpt>
      <trkpt lat="46.185110500082374" lon="7.340572234243155">
        <ele>1410.3900000000001</ele>
        <time>2012-07-07T08:24:15Z</time>
      </trkpt>
      <trkpt lat="46.185199599713087" lon="7.340526217594743">
        <ele>1409.9100000000001</ele>
        <time>2012-07-07T08:24:19Z</time>
      </trkpt>
      <trkpt lat="46.185235474258661" lon="7.340509369969368">
        <ele>1409.9100000000001</ele>
        <time>2012-07-07T08:24:20Z</time>
      </trkpt>
      <trkpt lat="46.185267828404903" lon="7.3404904268682">
        <ele>1409.4300000000001</ele>
        <time>2012-07-07T08:24:21Z</time>
      </trkpt>
      <trkpt lat="46.185299595817924" lon="7.340469807386398">
        <ele>1409.4300000000001</ele>
        <time>2012-07-07T08:24:22Z</time>
      </trkpt>
      <trkpt lat="46.185334296897054" lon="7.340453043580055">
        <ele>1408.95</ele>
        <time>2012-07-07T08:24:23Z</time>
      </trkpt>
      <trkpt lat="46.185369417071342" lon="7.340435776859522">
        <ele>1408.95</ele>
        <time>2012-07-07T08:24:24Z</time>
      </trkpt>
      <trkpt lat="46.185403279960155" lon="7.340415492653847">
        <ele>1408.95</ele>
        <time>2012-07-07T08:24:25Z</time>
      </trkpt>
      <trkpt lat="46.185438735410571" lon="7.340396130457521">
        <ele>1408.95</ele>
        <time>2012-07-07T08:24:26Z</time>
      </trkpt>
      <trkpt lat="46.185632944107056" lon="7.340290769934654">
        <ele>1407.03</ele>
        <time>2012-07-07T08:24:31Z</time>
      </trkpt>
      <trkpt lat="46.185670159757137" lon="7.340259086340666">
        <ele>1406.55</ele>
        <time>2012-07-07T08:24:32Z</time>
      </trkpt>
      <trkpt lat="46.185934524983168" lon="7.339839404448867">
        <ele>1401.26</ele>
        <time>2012-07-07T08:24:43Z</time>
      </trkpt>
      <trkpt lat="46.186226131394506" lon="7.339591886848211">
        <ele>1398.3699999999999</ele>
        <time>2012-07-07T08:24:54Z</time>
      </trkpt>
      <trkpt lat="46.186456633731723" lon="7.339506475254893">
        <ele>1396.9300000000001</ele>
        <time>2012-07-07T08:25:04Z</time>
      </trkpt>
      <trkpt lat="46.186480605974793" lon="7.339501613751054">
        <ele>1396.45</ele>
        <time>2012-07-07T08:25:05Z</time>
      </trkpt>
      <trkpt lat="46.186508517712355" lon="7.339504128322005">
        <ele>1396.45</ele>
        <time>2012-07-07T08:25:06Z</time>
      </trkpt>
      <trkpt lat="46.186809176579118" lon="7.339504044502974">
        <ele>1395.01</ele>
        <time>2012-07-07T08:25:17Z</time>
      </trkpt>
      <trkpt lat="46.187018975615501" lon="7.339455848559737">
        <ele>1392.1300000000001</ele>
        <time>2012-07-07T08:25:23Z</time>
      </trkpt>
      <trkpt lat="46.187059208750725" lon="7.339454591274262">
        <ele>1391.1700000000001</ele>
        <time>2012-07-07T08:25:24Z</time>
      </trkpt>
      <trkpt lat="46.187097681686282" lon="7.339452747255564">
        <ele>1390.6800000000001</ele>
        <time>2012-07-07T08:25:25Z</time>
      </trkpt>
      <trkpt lat="46.187226343899965" lon="7.339420644566417">
        <ele>1387.8</ele>
        <time>2012-07-07T08:25:34Z</time>
      </trkpt>
      <trkpt lat="46.187249813228846" lon="7.33943841420114">
        <ele>1389.24</ele>
        <time>2012-07-07T08:25:49Z</time>
      </trkpt>
      <trkpt lat="46.18724956177175" lon="7.339444784447551">
        <ele>1388.76</ele>
        <time>2012-07-07T08:25:55Z</time>
      </trkpt>
      <trkpt lat="46.187311839312315" lon="7.339517623186112">
        <ele>1389.24</ele>
        <time>2012-07-07T08:26:02Z</time>
      </trkpt>
      <trkpt lat="46.187360538169742" lon="7.339511420577765">
        <ele>1390.2</ele>
        <time>2012-07-07T08:26:06Z</time>
      </trkpt>
      <trkpt lat="46.187446871772408" lon="7.339506726711988">
        <ele>1394.53</ele>
        <time>2012-07-07T08:26:14Z</time>
      </trkpt>
      <trkpt lat="46.187656838446856" lon="7.339448556303978">
        <ele>1399.8199999999999</ele>
        <time>2012-07-07T08:26:28Z</time>
      </trkpt>
      <trkpt lat="46.187936207279563" lon="7.339365743100643">
        <ele>1400.78</ele>
        <time>2012-07-07T08:26:42Z</time>
      </trkpt>
      <trkpt lat="46.188249439001083" lon="7.339197266846895">
        <ele>1401.26</ele>
        <time>2012-07-07T08:26:52Z</time>
      </trkpt>
      <trkpt lat="46.188250444829464" lon="7.339183771982789">
        <ele>1401.74</ele>
        <time>2012-07-07T08:26:53Z</time>
      </trkpt>
      <trkpt lat="46.188232423737645" lon="7.339234482496977">
        <ele>1398.8599999999999</ele>
        <time>2012-07-07T08:26:55Z</time>
      </trkpt>
      <trkpt lat="46.18799370713532" lon="7.339387284591794">
        <ele>1397.4100000000001</ele>
        <time>2012-07-07T08:27:02Z</time>
      </trkpt>
      <trkpt lat="46.187819950282574" lon="7.339427014812827">
        <ele>1398.3699999999999</ele>
        <time>2012-07-07T08:27:06Z</time>
      </trkpt>
      <trkpt lat="46.187777202576399" lon="7.339445371180773">
        <ele>1398.3699999999999</ele>
        <time>2012-07-07T08:27:07Z</time>
      </trkpt>
      <trkpt lat="46.187729593366385" lon="7.339463224634528">
        <ele>1398.8599999999999</ele>
        <time>2012-07-07T08:27:08Z</time>
      </trkpt>
      <trkpt lat="46.187674188986421" lon="7.339473199099302">
        <ele>1398.8599999999999</ele>
        <time>2012-07-07T08:27:09Z</time>
      </trkpt>
      <trkpt lat="46.187615767121315" lon="7.339476635679603">
        <ele>1398.8599999999999</ele>
        <time>2012-07-07T08:27:10Z</time>
      </trkpt>
      <trkpt lat="46.187556004151702" lon="7.339473199099302">
        <ele>1398.8599999999999</ele>
        <time>2012-07-07T08:27:11Z</time>
      </trkpt>
      <trkpt lat="46.187494732439518" lon="7.339466325938702">
        <ele>1398.3699999999999</ele>
        <time>2012-07-07T08:27:12Z</time>
      </trkpt>
      <trkpt lat="46.187265487387776" lon="7.339434809982777">
        <ele>1396.9300000000001</ele>
        <time>2012-07-07T08:27:17Z</time>
      </trkpt>
      <trkpt lat="46.18726565502584" lon="7.339373622089624">
        <ele>1395.49</ele>
        <time>2012-07-07T08:27:19Z</time>
      </trkpt>
      <trkpt lat="46.187288956716657" lon="7.339354511350393">
        <ele>1395.01</ele>
        <time>2012-07-07T08:27:20Z</time>
      </trkpt>
      <trkpt lat="46.187320640310645" lon="7.339344955980778">
        <ele>1394.53</ele>
        <time>2012-07-07T08:27:21Z</time>
      </trkpt>
      <trkpt lat="46.187358777970076" lon="7.339337076991797">
        <ele>1394.05</ele>
        <time>2012-07-07T08:27:22Z</time>
      </trkpt>
      <trkpt lat="46.187608055770397" lon="7.339265160262585">
        <ele>1390.6800000000001</ele>
        <time>2012-07-07T08:27:27Z</time>
      </trkpt>
      <trkpt lat="46.18765851482749" lon="7.339232051745057">
        <ele>1390.2</ele>
        <time>2012-07-07T08:27:28Z</time>
      </trkpt>
      <trkpt lat="46.187712242826819" lon="7.339181005954742">
        <ele>1389.24</ele>
        <time>2012-07-07T08:27:29Z</time>
      </trkpt>
      <trkpt lat="46.187832439318299" lon="7.339061228558421">
        <ele>1386.8399999999999</ele>
        <time>2012-07-07T08:27:31Z</time>
      </trkpt>
      <trkpt lat="46.187903098762035" lon="7.339007668197155">
        <ele>1385.8800000000001</ele>
        <time>2012-07-07T08:27:32Z</time>
      </trkpt>
      <trkpt lat="46.187974596396089" lon="7.338947067037225">
        <ele>1384.9200000000001</ele>
        <time>2012-07-07T08:27:33Z</time>
      </trkpt>
      <trkpt lat="46.188041400164366" lon="7.338873725384474">
        <ele>1383.96</ele>
        <time>2012-07-07T08:27:34Z</time>
      </trkpt>
      <trkpt lat="46.188108287751675" lon="7.338802898302674">
        <ele>1382.99</ele>
        <time>2012-07-07T08:27:35Z</time>
      </trkpt>
      <trkpt lat="46.188178360462189" lon="7.338745649904013">
        <ele>1382.03</ele>
        <time>2012-07-07T08:27:36Z</time>
      </trkpt>
      <trkpt lat="46.188249941915274" lon="7.338700639083982">
        <ele>1381.0699999999999</ele>
        <time>2012-07-07T08:27:37Z</time>
      </trkpt>
      <trkpt lat="46.188531154766679" lon="7.338564014062285">
        <ele>1378.1900000000001</ele>
        <time>2012-07-07T08:27:41Z</time>
      </trkpt>
      <trkpt lat="46.188676748424768" lon="7.338536018505693">
        <ele>1377.23</ele>
        <time>2012-07-07T08:27:43Z</time>
      </trkpt>
      <trkpt lat="46.188822258263826" lon="7.338522356003523">
        <ele>1376.75</ele>
        <time>2012-07-07T08:27:45Z</time>
      </trkpt>
      <trkpt lat="46.188892582431436" lon="7.338497210294008">
        <ele>1376.75</ele>
        <time>2012-07-07T08:27:46Z</time>
      </trkpt>
      <trkpt lat="46.18896123021841" lon="7.338464185595512">
        <ele>1376.26</ele>
        <time>2012-07-07T08:27:47Z</time>
      </trkpt>
      <trkpt lat="46.189026273787022" lon="7.33842789195478">
        <ele>1376.26</ele>
        <time>2012-07-07T08:27:48Z</time>
      </trkpt>
      <trkpt lat="46.189086623489857" lon="7.338383132591844">
        <ele>1376.26</ele>
        <time>2012-07-07T08:27:49Z</time>
      </trkpt>
      <trkpt lat="46.189265493303537" lon="7.338264277204871">
        <ele>1376.26</ele>
        <time>2012-07-07T08:27:52Z</time>
      </trkpt>
      <trkpt lat="46.189332464709878" lon="7.33824566937983">
        <ele>1375.78</ele>
        <time>2012-07-07T08:27:53Z</time>
      </trkpt>
      <trkpt lat="46.189538575708866" lon="7.338226055726409">
        <ele>1374.8199999999999</ele>
        <time>2012-07-07T08:27:56Z</time>
      </trkpt>
      <trkpt lat="46.189609738066792" lon="7.338234102353454">
        <ele>1374.3399999999999</ele>
        <time>2012-07-07T08:27:57Z</time>
      </trkpt>
      <trkpt lat="46.18968048132956" lon="7.338255224749446">
        <ele>1373.8599999999999</ele>
        <time>2012-07-07T08:27:58Z</time>
      </trkpt>
      <trkpt lat="46.190066132694483" lon="7.338428311049938">
        <ele>1371.9400000000001</ele>
        <time>2012-07-07T08:28:04Z</time>
      </trkpt>
      <trkpt lat="46.190123213455081" lon="7.338437614962459">
        <ele>1371.46</ele>
        <time>2012-07-07T08:28:05Z</time>
      </trkpt>
      <trkpt lat="46.190259084105492" lon="7.338433424010873">
        <ele>1369.54</ele>
        <time>2012-07-07T08:28:07Z</time>
      </trkpt>
      <trkpt lat="46.190340891480446" lon="7.338407943025231">
        <ele>1368.5699999999999</ele>
        <time>2012-07-07T08:28:08Z</time>
      </trkpt>
      <trkpt lat="46.191159216687083" lon="7.338131256401539">
        <ele>1358.48</ele>
        <time>2012-07-07T08:28:16Z</time>
      </trkpt>
      <trkpt lat="46.191624077036977" lon="7.337930845096707">
        <ele>1351.27</ele>
        <time>2012-07-07T08:28:22Z</time>
      </trkpt>
      <trkpt lat="46.191693227738142" lon="7.337912321090698">
        <ele>1349.8299999999999</ele>
        <time>2012-07-07T08:28:23Z</time>
      </trkpt>
      <trkpt lat="46.192034957930446" lon="7.337874434888363">
        <ele>1345.5</ele>
        <time>2012-07-07T08:28:27Z</time>
      </trkpt>
      <trkpt lat="46.192954117432237" lon="7.33792757615447">
        <ele>1344.0599999999999</ele>
        <time>2012-07-07T08:28:38Z</time>
      </trkpt>
      <trkpt lat="46.193741764873266" lon="7.33839713037014">
        <ele>1341.1800000000001</ele>
        <time>2012-07-07T08:28:49Z</time>
      </trkpt>
      <trkpt lat="46.193886939436197" lon="7.338622519746423">
        <ele>1339.73</ele>
        <time>2012-07-07T08:28:54Z</time>
      </trkpt>
      <trkpt lat="46.19386900216341" lon="7.338682617992163">
        <ele>1337.8099999999999</ele>
        <time>2012-07-07T08:29:04Z</time>
      </trkpt>
      <trkpt lat="46.193867912515998" lon="7.338664764538407">
        <ele>1337.3299999999999</ele>
        <time>2012-07-07T08:29:38Z</time>
      </trkpt>
      <trkpt lat="46.193868583068252" lon="7.338661579415202">
        <ele>1337.8099999999999</ele>
        <time>2012-07-07T08:29:41Z</time>
      </trkpt>
      <trkpt lat="46.193908313289285" lon="7.338664848357439">
        <ele>1339.73</ele>
        <time>2012-07-07T08:29:45Z</time>
      </trkpt>
      <trkpt lat="46.193933039903641" lon="7.338676918298006">
        <ele>1339.73</ele>
        <time>2012-07-07T08:29:46Z</time>
      </trkpt>
      <trkpt lat="46.193961035460234" lon="7.338708434253931">
        <ele>1339.73</ele>
        <time>2012-07-07T08:29:47Z</time>
      </trkpt>
      <trkpt lat="46.193988863378763" lon="7.338751265779138">
        <ele>1339.25</ele>
        <time>2012-07-07T08:29:48Z</time>
      </trkpt>
      <trkpt lat="46.19401702657342" lon="7.338802563026547">
        <ele>1339.25</ele>
        <time>2012-07-07T08:29:49Z</time>
      </trkpt>
      <trkpt lat="46.194126242771745" lon="7.338972631841898">
        <ele>1338.77</ele>
        <time>2012-07-07T08:29:52Z</time>
      </trkpt>
      <trkpt lat="46.194552127271891" lon="7.33955467119813">
        <ele>1335.8900000000001</ele>
        <time>2012-07-07T08:30:01Z</time>
      </trkpt>
      <trkpt lat="46.194588672369719" lon="7.339640585705638">
        <ele>1335.8900000000001</ele>
        <time>2012-07-07T08:30:02Z</time>
      </trkpt>
      <trkpt lat="46.194618679583073" lon="7.339734043926001">
        <ele>1335.4100000000001</ele>
        <time>2012-07-07T08:30:03Z</time>
      </trkpt>
      <trkpt lat="46.195054035633802" lon="7.340928548946977">
        <ele>1336.3699999999999</ele>
        <time>2012-07-07T08:30:17Z</time>
      </trkpt>
      <trkpt lat="46.195142213255167" lon="7.341218646615744">
        <ele>1337.8099999999999</ele>
        <time>2012-07-07T08:30:21Z</time>
      </trkpt>
      <trkpt lat="46.19517557322979" lon="7.341280253604055">
        <ele>1338.29</ele>
        <time>2012-07-07T08:30:22Z</time>
      </trkpt>
      <trkpt lat="46.195212788879871" lon="7.341333478689194">
        <ele>1338.29</ele>
        <time>2012-07-07T08:30:23Z</time>
      </trkpt>
      <trkpt lat="46.195248244330287" lon="7.34138360247016">
        <ele>1338.29</ele>
        <time>2012-07-07T08:30:24Z</time>
      </trkpt>
      <trkpt lat="46.195280933752656" lon="7.341431295499206">
        <ele>1338.77</ele>
        <time>2012-07-07T08:30:25Z</time>
      </trkpt>
      <trkpt lat="46.195441531017423" lon="7.341789621859789">
        <ele>1341.1800000000001</ele>
        <time>2012-07-07T08:30:35Z</time>
      </trkpt>
      <trkpt lat="46.19565443135798" lon="7.342286333441734">
        <ele>1345.02</ele>
        <time>2012-07-07T08:30:52Z</time>
      </trkpt>
      <trkpt lat="46.195799354463816" lon="7.342759072780609">
        <ele>1348.3900000000001</ele>
        <time>2012-07-07T08:31:08Z</time>
      </trkpt>
      <trkpt lat="46.195826763287187" lon="7.343173222616315">
        <ele>1353.1900000000001</ele>
        <time>2012-07-07T08:31:22Z</time>
      </trkpt>
      <trkpt lat="46.195851406082511" lon="7.343608075752854">
        <ele>1356.0799999999999</ele>
        <time>2012-07-07T08:31:36Z</time>
      </trkpt>
      <trkpt lat="46.195772532373667" lon="7.344028512015939">
        <ele>1360.8800000000001</ele>
        <time>2012-07-07T08:31:52Z</time>
      </trkpt>
      <trkpt lat="46.195724755525589" lon="7.344400249421597">
        <ele>1364.73</ele>
        <time>2012-07-07T08:32:07Z</time>
      </trkpt>
      <trkpt lat="46.195681169629097" lon="7.344757402315736">
        <ele>1367.1300000000001</ele>
        <time>2012-07-07T08:32:21Z</time>
      </trkpt>
      <trkpt lat="46.195613527670503" lon="7.345081279054284">
        <ele>1369.05</ele>
        <time>2012-07-07T08:32:34Z</time>
      </trkpt>
      <trkpt lat="46.195581844076514" lon="7.345517389476299">
        <ele>1372.4200000000001</ele>
        <time>2012-07-07T08:32:50Z</time>
      </trkpt>
      <trkpt lat="46.195586454123259" lon="7.345634819939733">
        <ele>1372.9000000000001</ele>
        <time>2012-07-07T08:32:54Z</time>
      </trkpt>
      <trkpt lat="46.195565750822425" lon="7.345959031954408">
        <ele>1376.26</ele>
        <time>2012-07-07T08:33:07Z</time>
      </trkpt>
      <trkpt lat="46.195555608719587" lon="7.346326829865575">
        <ele>1378.6700000000001</ele>
        <time>2012-07-07T08:33:21Z</time>
      </trkpt>
      <trkpt lat="46.195565164089203" lon="7.346543921157718">
        <ele>1380.1099999999999</ele>
        <time>2012-07-07T08:33:29Z</time>
      </trkpt>
      <trkpt lat="46.195535827428102" lon="7.346982713788748">
        <ele>1383.47</ele>
        <time>2012-07-07T08:33:46Z</time>
      </trkpt>
      <trkpt lat="46.195465587079525" lon="7.347390241920948">
        <ele>1385.8800000000001</ele>
        <time>2012-07-07T08:34:02Z</time>
      </trkpt>
      <trkpt lat="46.195430886000395" lon="7.347668604925275">
        <ele>1387.3199999999999</ele>
        <time>2012-07-07T08:34:13Z</time>
      </trkpt>
      <trkpt lat="46.195423761382699" lon="7.347752507776022">
        <ele>1387.8</ele>
        <time>2012-07-07T08:34:16Z</time>
      </trkpt>
      <trkpt lat="46.195425521582365" lon="7.347781676799059">
        <ele>1387.3199999999999</ele>
        <time>2012-07-07T08:34:17Z</time>
      </trkpt>
      <trkpt lat="46.195424096658826" lon="7.347808247432113">
        <ele>1387.3199999999999</ele>
        <time>2012-07-07T08:34:18Z</time>
      </trkpt>
      <trkpt lat="46.195421665906906" lon="7.347939340397716">
        <ele>1387.3199999999999</ele>
        <time>2012-07-07T08:34:23Z</time>
      </trkpt>
      <trkpt lat="46.195427114143968" lon="7.347967000678182">
        <ele>1387.3199999999999</ele>
        <time>2012-07-07T08:34:24Z</time>
      </trkpt>
      <trkpt lat="46.195429377257824" lon="7.347993403673172">
        <ele>1387.3199999999999</ele>
        <time>2012-07-07T08:34:25Z</time>
      </trkpt>
      <trkpt lat="46.195473885163665" lon="7.348393220454454">
        <ele>1390.6800000000001</ele>
        <time>2012-07-07T08:34:40Z</time>
      </trkpt>
      <trkpt lat="46.195572875440121" lon="7.348799658939242">
        <ele>1395.49</ele>
        <time>2012-07-07T08:34:55Z</time>
      </trkpt>
      <trkpt lat="46.195595674216747" lon="7.348954724147916">
        <ele>1398.3699999999999</ele>
        <time>2012-07-07T08:35:01Z</time>
      </trkpt>
      <trkpt lat="46.195604810491204" lon="7.348981546238065">
        <ele>1398.8599999999999</ele>
        <time>2012-07-07T08:35:02Z</time>
      </trkpt>
      <trkpt lat="46.195613360032439" lon="7.349392594769597">
        <ele>1401.74</ele>
        <time>2012-07-07T08:35:18Z</time>
      </trkpt>
      <trkpt lat="46.19559776969254" lon="7.349796686321497">
        <ele>1403.1800000000001</ele>
        <time>2012-07-07T08:35:33Z</time>
      </trkpt>
      <trkpt lat="46.195706818252802" lon="7.350150067359209">
        <ele>1406.0699999999999</ele>
        <time>2012-07-07T08:35:46Z</time>
      </trkpt>
      <trkpt lat="46.195845203474164" lon="7.35057863406837">
        <ele>1408.95</ele>
        <time>2012-07-07T08:36:03Z</time>
      </trkpt>
      <trkpt lat="46.1959607899189" lon="7.351019354537129">
        <ele>1413.28</ele>
        <time>2012-07-07T08:36:20Z</time>
      </trkpt>
      <trkpt lat="46.195999262854457" lon="7.351425038650632">
        <ele>1417.1199999999999</ele>
        <time>2012-07-07T08:36:35Z</time>
      </trkpt>
      <trkpt lat="46.196054080501199" lon="7.351875230669975">
        <ele>1421.45</ele>
        <time>2012-07-07T08:36:51Z</time>
      </trkpt>
      <trkpt lat="46.196067743003368" lon="7.352171866223216">
        <ele>1423.3699999999999</ele>
        <time>2012-07-07T08:37:02Z</time>
      </trkpt>
      <trkpt lat="46.196070425212383" lon="7.352199275046587">
        <ele>1423.3699999999999</ele>
        <time>2012-07-07T08:37:03Z</time>
      </trkpt>
      <trkpt lat="46.19621878489852" lon="7.352576879784465">
        <ele>1426.25</ele>
        <time>2012-07-07T08:37:19Z</time>
      </trkpt>
      <trkpt lat="46.196307297796011" lon="7.352914586663246">
        <ele>1427.21</ele>
        <time>2012-07-07T08:37:32Z</time>
      </trkpt>
      <trkpt lat="46.196302771568298" lon="7.352940570563078">
        <ele>1427.21</ele>
        <time>2012-07-07T08:37:33Z</time>
      </trkpt>
      <trkpt lat="46.196257760748267" lon="7.353381039574742">
        <ele>1431.0599999999999</ele>
        <time>2012-07-07T08:37:49Z</time>
      </trkpt>
      <trkpt lat="46.196207804605365" lon="7.353735594078898">
        <ele>1431.54</ele>
        <time>2012-07-07T08:38:02Z</time>
      </trkpt>
      <trkpt lat="46.19616162031889" lon="7.354118479415774">
        <ele>1429.6199999999999</ele>
        <time>2012-07-07T08:38:16Z</time>
      </trkpt>
      <trkpt lat="46.196158770471811" lon="7.35414613969624">
        <ele>1429.6199999999999</ele>
        <time>2012-07-07T08:38:17Z</time>
      </trkpt>
      <trkpt lat="46.196179809048772" lon="7.354312185198069">
        <ele>1430.0999999999999</ele>
        <time>2012-07-07T08:38:23Z</time>
      </trkpt>
      <trkpt lat="46.196288941428065" lon="7.354676797986031">
        <ele>1435.3900000000001</ele>
        <time>2012-07-07T08:38:36Z</time>
      </trkpt>
      <trkpt lat="46.196293216198683" lon="7.354703117161989">
        <ele>1435.8699999999999</ele>
        <time>2012-07-07T08:38:37Z</time>
      </trkpt>
      <trkpt lat="46.196358846500516" lon="7.355112992227078">
        <ele>1441.6300000000001</ele>
        <time>2012-07-07T08:38:52Z</time>
      </trkpt>
      <trkpt lat="46.196409640833735" lon="7.355478778481484">
        <ele>1444.04</ele>
        <time>2012-07-07T08:39:05Z</time>
      </trkpt>
      <trkpt lat="46.196327833458781" lon="7.355860071256757">
        <ele>1446.9200000000001</ele>
        <time>2012-07-07T08:39:20Z</time>
      </trkpt>
      <trkpt lat="46.196130942553282" lon="7.356165088713169">
        <ele>1448.8399999999999</ele>
        <time>2012-07-07T08:39:35Z</time>
      </trkpt>
      <trkpt lat="46.195951150730252" lon="7.356423502787948">
        <ele>1451.73</ele>
        <time>2012-07-07T08:39:48Z</time>
      </trkpt>
      <trkpt lat="46.195912258699536" lon="7.356703877449036">
        <ele>1452.6900000000001</ele>
        <time>2012-07-07T08:39:59Z</time>
      </trkpt>
      <trkpt lat="46.195925837382674" lon="7.356726843863726">
        <ele>1452.6900000000001</ele>
        <time>2012-07-07T08:40:00Z</time>
      </trkpt>
      <trkpt lat="46.195940170437098" lon="7.356745703145862">
        <ele>1452.6900000000001</ele>
        <time>2012-07-07T08:40:01Z</time>
      </trkpt>
      <trkpt lat="46.19595835916698" lon="7.356761042028666">
        <ele>1452.6900000000001</ele>
        <time>2012-07-07T08:40:02Z</time>
      </trkpt>
      <trkpt lat="46.195976380258799" lon="7.356771854683757">
        <ele>1453.1700000000001</ele>
        <time>2012-07-07T08:40:03Z</time>
      </trkpt>
      <trkpt lat="46.195993227884173" lon="7.356779649853706">
        <ele>1453.1700000000001</ele>
        <time>2012-07-07T08:40:04Z</time>
      </trkpt>
      <trkpt lat="46.196012087166309" lon="7.356781996786594">
        <ele>1453.1700000000001</ele>
        <time>2012-07-07T08:40:05Z</time>
      </trkpt>
      <trkpt lat="46.196032119914889" lon="7.356782164424658">
        <ele>1453.1700000000001</ele>
        <time>2012-07-07T08:40:06Z</time>
      </trkpt>
      <trkpt lat="46.196272848173976" lon="7.356711085885763">
        <ele>1457.98</ele>
        <time>2012-07-07T08:40:20Z</time>
      </trkpt>
      <trkpt lat="46.196447275578976" lon="7.356951227411628">
        <ele>1460.3800000000001</ele>
        <time>2012-07-07T08:40:33Z</time>
      </trkpt>
      <trkpt lat="46.196381812915206" lon="7.357333358377218">
        <ele>1463.74</ele>
        <time>2012-07-07T08:40:47Z</time>
      </trkpt>
      <trkpt lat="46.196364630013704" lon="7.357353223487735">
        <ele>1463.74</ele>
        <time>2012-07-07T08:40:48Z</time>
      </trkpt>
      <trkpt lat="46.196148796007037" lon="7.357593029737473">
        <ele>1465.6700000000001</ele>
        <time>2012-07-07T08:41:03Z</time>
      </trkpt>
      <trkpt lat="46.195911252871156" lon="7.357736108824611">
        <ele>1465.6700000000001</ele>
        <time>2012-07-07T08:41:15Z</time>
      </trkpt>
      <trkpt lat="46.195730287581682" lon="7.358039701357484">
        <ele>1465.6700000000001</ele>
        <time>2012-07-07T08:41:29Z</time>
      </trkpt>
      <trkpt lat="46.195703633129597" lon="7.358245644718409">
        <ele>1466.1500000000001</ele>
        <time>2012-07-07T08:41:37Z</time>
      </trkpt>
      <trkpt lat="46.195706315338612" lon="7.358263162896037">
        <ele>1466.1500000000001</ele>
        <time>2012-07-07T08:41:38Z</time>
      </trkpt>
      <trkpt lat="46.195716541260481" lon="7.358281435444951">
        <ele>1466.6300000000001</ele>
        <time>2012-07-07T08:41:39Z</time>
      </trkpt>
      <trkpt lat="46.195733975619078" lon="7.358302306383848">
        <ele>1467.1099999999999</ele>
        <time>2012-07-07T08:41:40Z</time>
      </trkpt>
      <trkpt lat="46.195753421634436" lon="7.358321081846952">
        <ele>1467.5899999999999</ele>
        <time>2012-07-07T08:41:41Z</time>
      </trkpt>
      <trkpt lat="46.195775214582682" lon="7.358336923643947">
        <ele>1468.0699999999999</ele>
        <time>2012-07-07T08:41:42Z</time>
      </trkpt>
      <trkpt lat="46.195798264816403" lon="7.358346898108721">
        <ele>1468.55</ele>
        <time>2012-07-07T08:41:43Z</time>
      </trkpt>
      <trkpt lat="46.195821482688189" lon="7.358351675793529">
        <ele>1469.03</ele>
        <time>2012-07-07T08:41:44Z</time>
      </trkpt>
      <trkpt lat="46.195844365283847" lon="7.358352430164814">
        <ele>1469.51</ele>
        <time>2012-07-07T08:41:45Z</time>
      </trkpt>
      <trkpt lat="46.195868002250791" lon="7.358350250869989">
        <ele>1470.47</ele>
        <time>2012-07-07T08:41:46Z</time>
      </trkpt>
      <trkpt lat="46.195890046656132" lon="7.358348993584514">
        <ele>1470.95</ele>
        <time>2012-07-07T08:41:47Z</time>
      </trkpt>
      <trkpt lat="46.195911001414061" lon="7.358351843431592">
        <ele>1471.4400000000001</ele>
        <time>2012-07-07T08:41:48Z</time>
      </trkpt>
      <trkpt lat="46.19592952542007" lon="7.358348490670323">
        <ele>1471.9200000000001</ele>
        <time>2012-07-07T08:41:49Z</time>
      </trkpt>
      <trkpt lat="46.195949893444777" lon="7.358341785147786">
        <ele>1472.8800000000001</ele>
        <time>2012-07-07T08:41:50Z</time>
      </trkpt>
      <trkpt lat="46.195971518754959" lon="7.358338767662644">
        <ele>1473.3599999999999</ele>
        <time>2012-07-07T08:41:51Z</time>
      </trkpt>
      <trkpt lat="46.195992054417729" lon="7.358339354395866">
        <ele>1474.3199999999999</ele>
        <time>2012-07-07T08:41:52Z</time>
      </trkpt>
      <trkpt lat="46.196015942841768" lon="7.358338180929422">
        <ele>1475.28</ele>
        <time>2012-07-07T08:41:53Z</time>
      </trkpt>
      <trkpt lat="46.196036897599697" lon="7.358333319425583">
        <ele>1475.76</ele>
        <time>2012-07-07T08:41:54Z</time>
      </trkpt>
      <trkpt lat="46.196055924519897" lon="7.358330553397536">
        <ele>1476.72</ele>
        <time>2012-07-07T08:41:55Z</time>
      </trkpt>
      <trkpt lat="46.196072269231081" lon="7.358325775712729">
        <ele>1477.2</ele>
        <time>2012-07-07T08:41:56Z</time>
      </trkpt>
      <trkpt lat="46.196272848173976" lon="7.358428286388516">
        <ele>1480.5699999999999</ele>
        <time>2012-07-07T08:42:07Z</time>
      </trkpt>
      <trkpt lat="46.196337807923555" lon="7.358537083491683">
        <ele>1478.6500000000001</ele>
        <time>2012-07-07T08:42:11Z</time>
      </trkpt>
      <trkpt lat="46.196343842893839" lon="7.358570527285337">
        <ele>1478.6500000000001</ele>
        <time>2012-07-07T08:42:12Z</time>
      </trkpt>
      <trkpt lat="46.196340741589665" lon="7.358605312183499">
        <ele>1478.1600000000001</ele>
        <time>2012-07-07T08:42:13Z</time>
      </trkpt>
      <trkpt lat="46.196241332218051" lon="7.358916699886322">
        <ele>1481.05</ele>
        <time>2012-07-07T08:42:25Z</time>
      </trkpt>
      <trkpt lat="46.196070006117225" lon="7.359290532767773">
        <ele>1485.3699999999999</ele>
        <time>2012-07-07T08:42:41Z</time>
      </trkpt>
      <trkpt lat="46.195904714986682" lon="7.359544588252902">
        <ele>1487.3</ele>
        <time>2012-07-07T08:42:53Z</time>
      </trkpt>
      <trkpt lat="46.195937739685178" lon="7.359850611537695">
        <ele>1488.26</ele>
        <time>2012-07-07T08:43:04Z</time>
      </trkpt>
      <trkpt lat="46.196008315309882" lon="7.360267024487257">
        <ele>1487.78</ele>
        <time>2012-07-07T08:43:20Z</time>
      </trkpt>
      <trkpt lat="46.19597596116364" lon="7.360625267028809">
        <ele>1488.74</ele>
        <time>2012-07-07T08:43:34Z</time>
      </trkpt>
      <trkpt lat="46.195979146286845" lon="7.360675977542996">
        <ele>1488.74</ele>
        <time>2012-07-07T08:43:36Z</time>
      </trkpt>
      <trkpt lat="46.195980571210384" lon="7.360704140737653">
        <ele>1488.74</ele>
        <time>2012-07-07T08:43:37Z</time>
      </trkpt>
      <trkpt lat="46.195981744676828" lon="7.360730292275548">
        <ele>1488.74</ele>
        <time>2012-07-07T08:43:38Z</time>
      </trkpt>
      <trkpt lat="46.195984007790685" lon="7.360754851251841">
        <ele>1488.74</ele>
        <time>2012-07-07T08:43:39Z</time>
      </trkpt>
      <trkpt lat="46.195991216227412" lon="7.360778823494911">
        <ele>1489.22</ele>
        <time>2012-07-07T08:43:40Z</time>
      </trkpt>
      <trkpt lat="46.196007477119565" lon="7.360820649191737">
        <ele>1489.7</ele>
        <time>2012-07-07T08:43:42Z</time>
      </trkpt>
      <trkpt lat="46.195998089388013" lon="7.361107813194394">
        <ele>1492.0999999999999</ele>
        <time>2012-07-07T08:43:55Z</time>
      </trkpt>
      <trkpt lat="46.195974620059133" lon="7.361225327476859">
        <ele>1491.1400000000001</ele>
        <time>2012-07-07T08:44:01Z</time>
      </trkpt>
      <trkpt lat="46.195981577038765" lon="7.361309565603733">
        <ele>1490.6600000000001</ele>
        <time>2012-07-07T08:44:05Z</time>
      </trkpt>
      <trkpt lat="46.195989791303873" lon="7.361335884779692">
        <ele>1490.6600000000001</ele>
        <time>2012-07-07T08:44:06Z</time>
      </trkpt>
      <trkpt lat="46.196169331669807" lon="7.361685326322913">
        <ele>1495.47</ele>
        <time>2012-07-07T08:44:22Z</time>
      </trkpt>
      <trkpt lat="46.196210235357285" lon="7.361976094543934">
        <ele>1496.9100000000001</ele>
        <time>2012-07-07T08:44:36Z</time>
      </trkpt>
      <trkpt lat="46.196205038577318" lon="7.361999228596687">
        <ele>1496.9100000000001</ele>
        <time>2012-07-07T08:44:37Z</time>
      </trkpt>
      <trkpt lat="46.196193303912878" lon="7.362333498895168">
        <ele>1496.4300000000001</ele>
        <time>2012-07-07T08:44:52Z</time>
      </trkpt>
      <trkpt lat="46.196196489036083" lon="7.362673133611679">
        <ele>1498.3499999999999</ele>
        <time>2012-07-07T08:45:07Z</time>
      </trkpt>
      <trkpt lat="46.196184167638421" lon="7.363031962886453">
        <ele>1501.24</ele>
        <time>2012-07-07T08:45:21Z</time>
      </trkpt>
      <trkpt lat="46.196155250072479" lon="7.363463966175914">
        <ele>1506.04</ele>
        <time>2012-07-07T08:45:39Z</time>
      </trkpt>
      <trkpt lat="46.196078052744269" lon="7.363847270607948">
        <ele>1509.8900000000001</ele>
        <time>2012-07-07T08:45:56Z</time>
      </trkpt>
      <trkpt lat="46.196040920913219" lon="7.36410484649241">
        <ele>1510.8499999999999</ele>
        <time>2012-07-07T08:46:07Z</time>
      </trkpt>
      <trkpt lat="46.196041759103537" lon="7.364128483459353">
        <ele>1511.3299999999999</ele>
        <time>2012-07-07T08:46:08Z</time>
      </trkpt>
      <trkpt lat="46.196040166541934" lon="7.364152455702424">
        <ele>1511.3299999999999</ele>
        <time>2012-07-07T08:46:09Z</time>
      </trkpt>
      <trkpt lat="46.19603899307549" lon="7.364177852869034">
        <ele>1511.3299999999999</ele>
        <time>2012-07-07T08:46:10Z</time>
      </trkpt>
      <trkpt lat="46.196038657799363" lon="7.364201406016946">
        <ele>1511.8099999999999</ele>
        <time>2012-07-07T08:46:11Z</time>
      </trkpt>
      <trkpt lat="46.196039831265807" lon="7.364223785698414">
        <ele>1511.8099999999999</ele>
        <time>2012-07-07T08:46:12Z</time>
      </trkpt>
      <trkpt lat="46.196040920913219" lon="7.364247171208262">
        <ele>1512.29</ele>
        <time>2012-07-07T08:46:13Z</time>
      </trkpt>
      <trkpt lat="46.196123063564301" lon="7.364659309387207">
        <ele>1516.1400000000001</ele>
        <time>2012-07-07T08:46:31Z</time>
      </trkpt>
      <trkpt lat="46.19615332223475" lon="7.364988215267658">
        <ele>1519.02</ele>
        <time>2012-07-07T08:46:45Z</time>
      </trkpt>
      <trkpt lat="46.196103449910879" lon="7.365237828344107">
        <ele>1520.46</ele>
        <time>2012-07-07T08:46:56Z</time>
      </trkpt>
      <trkpt lat="46.195983253419399" lon="7.365555502474308">
        <ele>1522.3900000000001</ele>
        <time>2012-07-07T08:47:12Z</time>
      </trkpt>
      <trkpt lat="46.195938745513558" lon="7.365738730877638">
        <ele>1524.3099999999999</ele>
        <time>2012-07-07T08:47:21Z</time>
      </trkpt>
      <trkpt lat="46.195934470742941" lon="7.365761362016201">
        <ele>1524.3099999999999</ele>
        <time>2012-07-07T08:47:22Z</time>
      </trkpt>
      <trkpt lat="46.195934386923909" lon="7.36578231677413">
        <ele>1524.79</ele>
        <time>2012-07-07T08:47:23Z</time>
      </trkpt>
      <trkpt lat="46.195934051647782" lon="7.36580184660852">
        <ele>1524.79</ele>
        <time>2012-07-07T08:47:24Z</time>
      </trkpt>
      <trkpt lat="46.195931201800704" lon="7.365824729204178">
        <ele>1525.27</ele>
        <time>2012-07-07T08:47:25Z</time>
      </trkpt>
      <trkpt lat="46.195928519591689" lon="7.365844007581472">
        <ele>1525.27</ele>
        <time>2012-07-07T08:47:26Z</time>
      </trkpt>
      <trkpt lat="46.195925334468484" lon="7.365863621234894">
        <ele>1525.75</ele>
        <time>2012-07-07T08:47:27Z</time>
      </trkpt>
      <trkpt lat="46.195927681401372" lon="7.36588348634541">
        <ele>1525.75</ele>
        <time>2012-07-07T08:47:28Z</time>
      </trkpt>
      <trkpt lat="46.195932039991021" lon="7.365903686732054">
        <ele>1525.75</ele>
        <time>2012-07-07T08:47:29Z</time>
      </trkpt>
      <trkpt lat="46.195936314761639" lon="7.365924557670951">
        <ele>1526.23</ele>
        <time>2012-07-07T08:47:30Z</time>
      </trkpt>
      <trkpt lat="46.1959607899189" lon="7.365990020334721">
        <ele>1525.75</ele>
        <time>2012-07-07T08:47:33Z</time>
      </trkpt>
      <trkpt lat="46.195965148508549" lon="7.36601390875876">
        <ele>1525.75</ele>
        <time>2012-07-07T08:47:34Z</time>
      </trkpt>
      <trkpt lat="46.195972273126245" lon="7.366035534068942">
        <ele>1525.75</ele>
        <time>2012-07-07T08:47:35Z</time>
      </trkpt>
      <trkpt lat="46.195993898436427" lon="7.366117006167769">
        <ele>1525.27</ele>
        <time>2012-07-07T08:47:39Z</time>
      </trkpt>
      <trkpt lat="46.195991970598698" lon="7.366141900420189">
        <ele>1525.27</ele>
        <time>2012-07-07T08:47:40Z</time>
      </trkpt>
      <trkpt lat="46.195992222055793" lon="7.366168638691306">
        <ele>1525.75</ele>
        <time>2012-07-07T08:47:41Z</time>
      </trkpt>
      <trkpt lat="46.195993646979332" lon="7.366190934553742">
        <ele>1525.75</ele>
        <time>2012-07-07T08:47:42Z</time>
      </trkpt>
      <trkpt lat="46.195996664464474" lon="7.366216080263257">
        <ele>1526.23</ele>
        <time>2012-07-07T08:47:43Z</time>
      </trkpt>
      <trkpt lat="46.195997502654791" lon="7.366238124668598">
        <ele>1526.71</ele>
        <time>2012-07-07T08:47:44Z</time>
      </trkpt>
      <trkpt lat="46.195997418835759" lon="7.366259079426527">
        <ele>1527.1900000000001</ele>
        <time>2012-07-07T08:47:45Z</time>
      </trkpt>
      <trkpt lat="46.195999765768647" lon="7.36628414131701">
        <ele>1527.1900000000001</ele>
        <time>2012-07-07T08:47:46Z</time>
      </trkpt>
      <trkpt lat="46.19599842466414" lon="7.366308365017176">
        <ele>1527.6700000000001</ele>
        <time>2012-07-07T08:47:47Z</time>
      </trkpt>
      <trkpt lat="46.195993982255459" lon="7.366329487413168">
        <ele>1528.1500000000001</ele>
        <time>2012-07-07T08:47:48Z</time>
      </trkpt>
      <trkpt lat="46.19598819874227" lon="7.36635010689497">
        <ele>1528.6300000000001</ele>
        <time>2012-07-07T08:47:49Z</time>
      </trkpt>
      <trkpt lat="46.195979649201035" lon="7.366368882358074">
        <ele>1529.1099999999999</ele>
        <time>2012-07-07T08:47:50Z</time>
      </trkpt>
      <trkpt lat="46.195973278954625" lon="7.366387071087956">
        <ele>1530.0799999999999</ele>
        <time>2012-07-07T08:47:51Z</time>
      </trkpt>
      <trkpt lat="46.195967076346278" lon="7.36640534363687">
        <ele>1530.5599999999999</ele>
        <time>2012-07-07T08:47:52Z</time>
      </trkpt>
      <trkpt lat="46.195939164608717" lon="7.36648203805089">
        <ele>1532.96</ele>
        <time>2012-07-07T08:47:56Z</time>
      </trkpt>
      <trkpt lat="46.195924747735262" lon="7.366496454924345">
        <ele>1533.9200000000001</ele>
        <time>2012-07-07T08:47:57Z</time>
      </trkpt>
      <trkpt lat="46.195910666137934" lon="7.366508860141039">
        <ele>1534.8800000000001</ele>
        <time>2012-07-07T08:47:58Z</time>
      </trkpt>
      <trkpt lat="46.195898428559303" lon="7.366521684452891">
        <ele>1535.8399999999999</ele>
        <time>2012-07-07T08:47:59Z</time>
      </trkpt>
      <trkpt lat="46.195884011685848" lon="7.36653434112668">
        <ele>1536.3199999999999</ele>
        <time>2012-07-07T08:48:00Z</time>
      </trkpt>
      <trkpt lat="46.195869008079171" lon="7.366548925638199">
        <ele>1536.3199999999999</ele>
        <time>2012-07-07T08:48:01Z</time>
      </trkpt>
      <trkpt lat="46.195810921490192" lon="7.366656884551048">
        <ele>1535.8399999999999</ele>
        <time>2012-07-07T08:48:07Z</time>
      </trkpt>
      <trkpt lat="46.195804970338941" lon="7.366675073280931">
        <ele>1535.8399999999999</ele>
        <time>2012-07-07T08:48:08Z</time>
      </trkpt>
      <trkpt lat="46.195749482139945" lon="7.366829300299287">
        <ele>1536.3199999999999</ele>
        <time>2012-07-07T08:48:15Z</time>
      </trkpt>
      <trkpt lat="46.195745710283518" lon="7.366850925609469">
        <ele>1536.3199999999999</ele>
        <time>2012-07-07T08:48:16Z</time>
      </trkpt>
      <trkpt lat="46.195740094408393" lon="7.366874646395445">
        <ele>1536.8</ele>
        <time>2012-07-07T08:48:17Z</time>
      </trkpt>
      <trkpt lat="46.195735149085522" lon="7.36689979210496">
        <ele>1536.8</ele>
        <time>2012-07-07T08:48:18Z</time>
      </trkpt>
      <trkpt lat="46.195732969790697" lon="7.366926027461886">
        <ele>1536.8</ele>
        <time>2012-07-07T08:48:19Z</time>
      </trkpt>
      <trkpt lat="46.195728778839111" lon="7.366952681913972">
        <ele>1537.29</ele>
        <time>2012-07-07T08:48:20Z</time>
      </trkpt>
      <trkpt lat="46.19572727009654" lon="7.366978414356709">
        <ele>1537.29</ele>
        <time>2012-07-07T08:48:21Z</time>
      </trkpt>
      <trkpt lat="46.195726431906223" lon="7.367000794038177">
        <ele>1537.29</ele>
        <time>2012-07-07T08:48:22Z</time>
      </trkpt>
      <trkpt lat="46.195628363639116" lon="7.367331963032484">
        <ele>1537.77</ele>
        <time>2012-07-07T08:48:34Z</time>
      </trkpt>
      <trkpt lat="46.19552593678236" lon="7.367730773985386">
        <ele>1537.77</ele>
        <time>2012-07-07T08:48:49Z</time>
      </trkpt>
      <trkpt lat="46.195692149922252" lon="7.368097649887204">
        <ele>1542.0899999999999</ele>
        <time>2012-07-07T08:49:05Z</time>
      </trkpt>
      <trkpt lat="46.195777980610728" lon="7.368156239390373">
        <ele>1544.5</ele>
        <time>2012-07-07T08:49:11Z</time>
      </trkpt>
      <trkpt lat="46.195804635062814" lon="7.368151126429439">
        <ele>1545.46</ele>
        <time>2012-07-07T08:49:13Z</time>
      </trkpt>
      <trkpt lat="46.195817375555634" lon="7.368157161399722">
        <ele>1545.9400000000001</ele>
        <time>2012-07-07T08:49:14Z</time>
      </trkpt>
      <trkpt lat="46.19587479159236" lon="7.368191024288535">
        <ele>1547.3800000000001</ele>
        <time>2012-07-07T08:49:19Z</time>
      </trkpt>
      <trkpt lat="46.195886693894863" lon="7.36819907091558">
        <ele>1547.3800000000001</ele>
        <time>2012-07-07T08:49:20Z</time>
      </trkpt>
      <trkpt lat="46.195896500721574" lon="7.368209548294544">
        <ele>1547.3800000000001</ele>
        <time>2012-07-07T08:49:21Z</time>
      </trkpt>
      <trkpt lat="46.195929441601038" lon="7.368258330971003">
        <ele>1548.8199999999999</ele>
        <time>2012-07-07T08:49:25Z</time>
      </trkpt>
      <trkpt lat="46.195964813232422" lon="7.36828213557601">
        <ele>1549.3</ele>
        <time>2012-07-07T08:49:27Z</time>
      </trkpt>
      <trkpt lat="46.196105629205704" lon="7.368629314005375">
        <ele>1546.9000000000001</ele>
        <time>2012-07-07T08:49:44Z</time>
      </trkpt>
      <trkpt lat="46.195969507098198" lon="7.368876747786999">
        <ele>1550.74</ele>
        <time>2012-07-07T08:49:59Z</time>
      </trkpt>
      <trkpt lat="46.19586699642241" lon="7.368818996474147">
        <ele>1551.71</ele>
        <time>2012-07-07T08:50:07Z</time>
      </trkpt>
      <trkpt lat="46.195671698078513" lon="7.368585895746946">
        <ele>1555.55</ele>
        <time>2012-07-07T08:50:22Z</time>
      </trkpt>
      <trkpt lat="46.195527194067836" lon="7.368428148329258">
        <ele>1559.8800000000001</ele>
        <time>2012-07-07T08:50:33Z</time>
      </trkpt>
      <trkpt lat="46.195388222113252" lon="7.368212230503559">
        <ele>1562.76</ele>
        <time>2012-07-07T08:50:43Z</time>
      </trkpt>
      <trkpt lat="46.195344971492887" lon="7.368036964908242">
        <ele>1567.0899999999999</ele>
        <time>2012-07-07T08:50:50Z</time>
      </trkpt>
      <trkpt lat="46.195290070027113" lon="7.367906710132957">
        <ele>1570.45</ele>
        <time>2012-07-07T08:50:55Z</time>
      </trkpt>
      <trkpt lat="46.19527087546885" lon="7.367793889716268">
        <ele>1572.8499999999999</ele>
        <time>2012-07-07T08:50:59Z</time>
      </trkpt>
      <trkpt lat="46.195213627070189" lon="7.367612337693572">
        <ele>1570.9300000000001</ele>
        <time>2012-07-07T08:51:06Z</time>
      </trkpt>
      <trkpt lat="46.195121174678206" lon="7.367387367412448">
        <ele>1569.49</ele>
        <time>2012-07-07T08:51:14Z</time>
      </trkpt>
      <trkpt lat="46.195056131109595" lon="7.367125097662211">
        <ele>1571.4100000000001</ele>
        <time>2012-07-07T08:51:25Z</time>
      </trkpt>
      <trkpt lat="46.195003408938646" lon="7.366953603923321">
        <ele>1570.45</ele>
        <time>2012-07-07T08:51:32Z</time>
      </trkpt>
      <trkpt lat="46.194981364533305" lon="7.36653869971633">
        <ele>1570.45</ele>
        <time>2012-07-07T08:51:45Z</time>
      </trkpt>
      <trkpt lat="46.19498698040843" lon="7.366471979767084">
        <ele>1570.45</ele>
        <time>2012-07-07T08:51:47Z</time>
      </trkpt>
      <trkpt lat="46.194902155548334" lon="7.36620887182653">
        <ele>1566.6099999999999</ele>
        <time>2012-07-07T08:51:57Z</time>
      </trkpt>
      <trkpt lat="46.194897964596748" lon="7.36608917824924">
        <ele>1565.1600000000001</ele>
        <time>2012-07-07T08:52:01Z</time>
      </trkpt>
      <trkpt lat="46.194901820272207" lon="7.365745855495334">
        <ele>1565.6400000000001</ele>
        <time>2012-07-07T08:52:12Z</time>
      </trkpt>
      <trkpt lat="46.194907771423459" lon="7.365719703957439">
        <ele>1566.1199999999999</ele>
        <time>2012-07-07T08:52:13Z</time>
      </trkpt>
      <trkpt lat="46.19490928016603" lon="7.365664634853602">
        <ele>1566.6099999999999</ele>
        <time>2012-07-07T08:52:15Z</time>
      </trkpt>
      <trkpt lat="46.19492051191628" lon="7.365538403391838">
        <ele>1568.05</ele>
        <time>2012-07-07T08:52:19Z</time>
      </trkpt>
      <trkpt lat="46.194937443360686" lon="7.365393312647939">
        <ele>1568.05</ele>
        <time>2012-07-07T08:52:24Z</time>
      </trkpt>
      <trkpt lat="46.194958565756679" lon="7.365205474197865">
        <ele>1569.49</ele>
        <time>2012-07-07T08:52:30Z</time>
      </trkpt>
      <trkpt lat="46.19482914917171" lon="7.364737093448639">
        <ele>1570.9300000000001</ele>
        <time>2012-07-07T08:52:43Z</time>
      </trkpt>
      <trkpt lat="46.194766284897923" lon="7.364511284977198">
        <ele>1569.49</ele>
        <time>2012-07-07T08:52:49Z</time>
      </trkpt>
      <trkpt lat="46.194733344018459" lon="7.364037875086069">
        <ele>1573.8199999999999</ele>
        <time>2012-07-07T08:53:01Z</time>
      </trkpt>
      <trkpt lat="46.194577692076564" lon="7.36366605386138">
        <ele>1578.6199999999999</ele>
        <time>2012-07-07T08:53:16Z</time>
      </trkpt>
      <trkpt lat="46.194368144497275" lon="7.363372435793281">
        <ele>1580.54</ele>
        <time>2012-07-07T08:53:32Z</time>
      </trkpt>
      <trkpt lat="46.194173851981759" lon="7.363137407228351">
        <ele>1581.51</ele>
        <time>2012-07-07T08:53:45Z</time>
      </trkpt>
      <trkpt lat="46.194136887788773" lon="7.363076638430357">
        <ele>1581.99</ele>
        <time>2012-07-07T08:53:48Z</time>
      </trkpt>
      <trkpt lat="46.194033036008477" lon="7.362718647345901">
        <ele>1581.99</ele>
        <time>2012-07-07T08:54:01Z</time>
      </trkpt>
      <trkpt lat="46.193940751254559" lon="7.362364260479808">
        <ele>1579.0999999999999</ele>
        <time>2012-07-07T08:54:12Z</time>
      </trkpt>
      <trkpt lat="46.193910324946046" lon="7.36211028881371">
        <ele>1578.1400000000001</ele>
        <time>2012-07-07T08:54:20Z</time>
      </trkpt>
      <trkpt lat="46.193818878382444" lon="7.361815413460136">
        <ele>1581.51</ele>
        <time>2012-07-07T08:54:30Z</time>
      </trkpt>
      <trkpt lat="46.193756936118007" lon="7.361378129571676">
        <ele>1589.6800000000001</ele>
        <time>2012-07-07T08:54:43Z</time>
      </trkpt>
      <trkpt lat="46.193669680505991" lon="7.361046625301242">
        <ele>1598.8099999999999</ele>
        <time>2012-07-07T08:54:55Z</time>
      </trkpt>
      <trkpt lat="46.193664567545056" lon="7.361019216477871">
        <ele>1599.77</ele>
        <time>2012-07-07T08:54:56Z</time>
      </trkpt>
      <trkpt lat="46.193628860637546" lon="7.360879573971033">
        <ele>1604.0999999999999</ele>
        <time>2012-07-07T08:55:01Z</time>
      </trkpt>
      <trkpt lat="46.193426353856921" lon="7.360551087185741">
        <ele>1608.9000000000001</ele>
        <time>2012-07-07T08:55:14Z</time>
      </trkpt>
      <trkpt lat="46.193240359425545" lon="7.360209105536342">
        <ele>1608.9000000000001</ele>
        <time>2012-07-07T08:55:24Z</time>
      </trkpt>
      <trkpt lat="46.193203143775463" lon="7.359796715900302">
        <ele>1606.02</ele>
        <time>2012-07-07T08:55:35Z</time>
      </trkpt>
      <trkpt lat="46.19302611798048" lon="7.359478119760752">
        <ele>1605.54</ele>
        <time>2012-07-07T08:55:47Z</time>
      </trkpt>
      <trkpt lat="46.192946908995509" lon="7.359003704041243">
        <ele>1600.73</ele>
        <time>2012-07-07T08:56:00Z</time>
      </trkpt>
      <trkpt lat="46.192864095792174" lon="7.358656106516719">
        <ele>1600.25</ele>
        <time>2012-07-07T08:56:11Z</time>
      </trkpt>
      <trkpt lat="46.192792011424899" lon="7.358441697433591">
        <ele>1601.6900000000001</ele>
        <time>2012-07-07T08:56:18Z</time>
      </trkpt>
      <trkpt lat="46.192704001441598" lon="7.358259810134769">
        <ele>1602.6600000000001</ele>
        <time>2012-07-07T08:56:25Z</time>
      </trkpt>
      <trkpt lat="46.19257559068501" lon="7.357970299199224">
        <ele>1603.6199999999999</ele>
        <time>2012-07-07T08:56:34Z</time>
      </trkpt>
      <trkpt lat="46.192509457468987" lon="7.357825795188546">
        <ele>1606.02</ele>
        <time>2012-07-07T08:56:39Z</time>
      </trkpt>
      <trkpt lat="46.192307118326426" lon="7.357337046414614">
        <ele>1611.3099999999999</ele>
        <time>2012-07-07T08:56:52Z</time>
      </trkpt>
      <trkpt lat="46.192456483840942" lon="7.356829270720482">
        <ele>1609.8599999999999</ele>
        <time>2012-07-07T08:57:06Z</time>
      </trkpt>
      <trkpt lat="46.192481378093362" lon="7.356371534988284">
        <ele>1609.3800000000001</ele>
        <time>2012-07-07T08:57:18Z</time>
      </trkpt>
      <trkpt lat="46.19239286519587" lon="7.356083281338215">
        <ele>1612.75</ele>
        <time>2012-07-07T08:57:26Z</time>
      </trkpt>
      <trkpt lat="46.192295970395207" lon="7.355761667713523">
        <ele>1618.04</ele>
        <time>2012-07-07T08:57:36Z</time>
      </trkpt>
      <trkpt lat="46.192453969269991" lon="7.355166636407375">
        <ele>1621.4000000000001</ele>
        <time>2012-07-07T08:57:51Z</time>
      </trkpt>
      <trkpt lat="46.192399235442281" lon="7.35468216240406">
        <ele>1618.04</ele>
        <time>2012-07-07T08:58:03Z</time>
      </trkpt>
      <trkpt lat="46.192256156355143" lon="7.35414806753397">
        <ele>1618.04</ele>
        <time>2012-07-07T08:58:18Z</time>
      </trkpt>
      <trkpt lat="46.192140486091375" lon="7.353856796398759">
        <ele>1620.9200000000001</ele>
        <time>2012-07-07T08:58:30Z</time>
      </trkpt>
      <trkpt lat="46.192128164693713" lon="7.353851515799761">
        <ele>1620.9200000000001</ele>
        <time>2012-07-07T08:58:31Z</time>
      </trkpt>
      <trkpt lat="46.192116178572178" lon="7.353844977915287">
        <ele>1621.4000000000001</ele>
        <time>2012-07-07T08:58:32Z</time>
      </trkpt>
      <trkpt lat="46.192103605717421" lon="7.353845732286573">
        <ele>1621.8800000000001</ele>
        <time>2012-07-07T08:58:33Z</time>
      </trkpt>
      <trkpt lat="46.192088853567839" lon="7.35384413972497">
        <ele>1621.8800000000001</ele>
        <time>2012-07-07T08:58:34Z</time>
      </trkpt>
      <trkpt lat="46.192078962922096" lon="7.353839697316289">
        <ele>1621.8800000000001</ele>
        <time>2012-07-07T08:58:35Z</time>
      </trkpt>
      <trkpt lat="46.192070078104734" lon="7.353834249079227">
        <ele>1622.3599999999999</ele>
        <time>2012-07-07T08:58:36Z</time>
      </trkpt>
      <trkpt lat="46.19206010363996" lon="7.353842630982399">
        <ele>1621.8800000000001</ele>
        <time>2012-07-07T08:58:39Z</time>
      </trkpt>
      <trkpt lat="46.192033616825938" lon="7.353842044249177">
        <ele>1622.3599999999999</ele>
        <time>2012-07-07T08:58:43Z</time>
      </trkpt>
      <trkpt lat="46.19202297180891" lon="7.353832069784403">
        <ele>1622.8399999999999</ele>
        <time>2012-07-07T08:58:44Z</time>
      </trkpt>
      <trkpt lat="46.191898081451654" lon="7.353746825829148">
        <ele>1626.6900000000001</ele>
        <time>2012-07-07T08:58:58Z</time>
      </trkpt>
      <trkpt lat="46.1918128374964" lon="7.353728637099266">
        <ele>1630.05</ele>
        <time>2012-07-07T08:59:09Z</time>
      </trkpt>
      <trkpt lat="46.191730359569192" lon="7.353800134733319">
        <ele>1637.26</ele>
        <time>2012-07-07T08:59:23Z</time>
      </trkpt>
      <trkpt lat="46.191707476973534" lon="7.353813629597426">
        <ele>1638.7</ele>
        <time>2012-07-07T08:59:26Z</time>
      </trkpt>
      <trkpt lat="46.191651234403253" lon="7.353845648467541">
        <ele>1643.03</ele>
        <time>2012-07-07T08:59:34Z</time>
      </trkpt>
      <trkpt lat="46.191618125885725" lon="7.353995433077216">
        <ele>1648.8</ele>
        <time>2012-07-07T08:59:50Z</time>
      </trkpt>
      <trkpt lat="46.191592644900084" lon="7.354043880477548">
        <ele>1650.72</ele>
        <time>2012-07-07T08:59:58Z</time>
      </trkpt>
      <trkpt lat="46.191590800881386" lon="7.354071959853172">
        <ele>1650.24</ele>
        <time>2012-07-07T09:00:00Z</time>
      </trkpt>
      <trkpt lat="46.191581999883056" lon="7.354258289560676">
        <ele>1649.76</ele>
        <time>2012-07-07T09:00:10Z</time>
      </trkpt>
      <trkpt lat="46.191595494747162" lon="7.354300282895565">
        <ele>1649.76</ele>
        <time>2012-07-07T09:00:12Z</time>
      </trkpt>
      <trkpt lat="46.191607061773539" lon="7.354539753869176">
        <ele>1651.6800000000001</ele>
        <time>2012-07-07T09:00:23Z</time>
      </trkpt>
      <trkpt lat="46.191617706790566" lon="7.354674786329269">
        <ele>1653.5999999999999</ele>
        <time>2012-07-07T09:00:30Z</time>
      </trkpt>
      <trkpt lat="46.191632626578212" lon="7.354727340862155">
        <ele>1654.0899999999999</ele>
        <time>2012-07-07T09:00:33Z</time>
      </trkpt>
      <trkpt lat="46.191636230796576" lon="7.354843430221081">
        <ele>1654.0899999999999</ele>
        <time>2012-07-07T09:00:39Z</time>
      </trkpt>
      <trkpt lat="46.191614856943488" lon="7.354960860684514">
        <ele>1653.5999999999999</ele>
        <time>2012-07-07T09:00:45Z</time>
      </trkpt>
      <trkpt lat="46.191611336544156" lon="7.35499681904912">
        <ele>1653.1199999999999</ele>
        <time>2012-07-07T09:00:47Z</time>
      </trkpt>
      <trkpt lat="46.191594656556845" lon="7.355060940608382">
        <ele>1653.5999999999999</ele>
        <time>2012-07-07T09:00:51Z</time>
      </trkpt>
      <trkpt lat="46.191574456170201" lon="7.355147190392017">
        <ele>1655.05</ele>
        <time>2012-07-07T09:00:56Z</time>
      </trkpt>
      <trkpt lat="46.191470688208938" lon="7.355435695499182">
        <ele>1659.3699999999999</ele>
        <time>2012-07-07T09:01:13Z</time>
      </trkpt>
      <trkpt lat="46.191376727074385" lon="7.355737360194325">
        <ele>1656.49</ele>
        <time>2012-07-07T09:01:28Z</time>
      </trkpt>
      <trkpt lat="46.191325262188911" lon="7.35603416338563">
        <ele>1654.0899999999999</ele>
        <time>2012-07-07T09:01:43Z</time>
      </trkpt>
      <trkpt lat="46.191372284665704" lon="7.356174476444721">
        <ele>1656.97</ele>
        <time>2012-07-07T09:01:54Z</time>
      </trkpt>
      <trkpt lat="46.191380582749844" lon="7.356390645727515">
        <ele>1658.8900000000001</ele>
        <time>2012-07-07T09:02:06Z</time>
      </trkpt>
      <trkpt lat="46.191384186968207" lon="7.35645929351449">
        <ele>1659.3699999999999</ele>
        <time>2012-07-07T09:02:10Z</time>
      </trkpt>
      <trkpt lat="46.191398268565536" lon="7.356584519147873">
        <ele>1659.8499999999999</ele>
        <time>2012-07-07T09:02:16Z</time>
      </trkpt>
      <trkpt lat="46.191399106755853" lon="7.356824744492769">
        <ele>1664.1800000000001</ele>
        <time>2012-07-07T09:02:29Z</time>
      </trkpt>
      <trkpt lat="46.191398687660694" lon="7.356845699250698">
        <ele>1664.6600000000001</ele>
        <time>2012-07-07T09:02:30Z</time>
      </trkpt>
      <trkpt lat="46.191406985744834" lon="7.356890374794602">
        <ele>1665.1400000000001</ele>
        <time>2012-07-07T09:02:33Z</time>
      </trkpt>
      <trkpt lat="46.191403632983565" lon="7.356979977339506">
        <ele>1666.0999999999999</ele>
        <time>2012-07-07T09:02:37Z</time>
      </trkpt>
      <trkpt lat="46.191325346007943" lon="7.357301842421293">
        <ele>1669.47</ele>
        <time>2012-07-07T09:02:53Z</time>
      </trkpt>
      <trkpt lat="46.19128561578691" lon="7.35735397785902">
        <ele>1668.99</ele>
        <time>2012-07-07T09:02:57Z</time>
      </trkpt>
      <trkpt lat="46.19124848395586" lon="7.357412399724126">
        <ele>1668.51</ele>
        <time>2012-07-07T09:03:01Z</time>
      </trkpt>
      <trkpt lat="46.191219734027982" lon="7.3574932012707">
        <ele>1666.5799999999999</ele>
        <time>2012-07-07T09:03:05Z</time>
      </trkpt>
      <trkpt lat="46.191218476742506" lon="7.357539888471365">
        <ele>1667.0599999999999</ele>
        <time>2012-07-07T09:03:07Z</time>
      </trkpt>
      <trkpt lat="46.191183608025312" lon="7.357640722766519">
        <ele>1667.0599999999999</ele>
        <time>2012-07-07T09:03:14Z</time>
      </trkpt>
      <trkpt lat="46.191112026572227" lon="7.357733761891723">
        <ele>1665.1400000000001</ele>
        <time>2012-07-07T09:03:21Z</time>
      </trkpt>
      <trkpt lat="46.191168269142509" lon="7.358033331111074">
        <ele>1666.5799999999999</ele>
        <time>2012-07-07T09:03:33Z</time>
      </trkpt>
      <trkpt lat="46.191252339631319" lon="7.358293253928423">
        <ele>1670.4300000000001</ele>
        <time>2012-07-07T09:03:46Z</time>
      </trkpt>
      <trkpt lat="46.191284526139498" lon="7.358370535075665">
        <ele>1670.4300000000001</ele>
        <time>2012-07-07T09:03:51Z</time>
      </trkpt>
      <trkpt lat="46.191340181976557" lon="7.358493665233254">
        <ele>1672.3499999999999</ele>
        <time>2012-07-07T09:03:59Z</time>
      </trkpt>
      <trkpt lat="46.191359460353851" lon="7.358561726287007">
        <ele>1673.3099999999999</ele>
        <time>2012-07-07T09:04:03Z</time>
      </trkpt>
      <trkpt lat="46.191397346556187" lon="7.358613442629576">
        <ele>1674.75</ele>
        <time>2012-07-07T09:04:06Z</time>
      </trkpt>
      <trkpt lat="46.191442022100091" lon="7.358964728191495">
        <ele>1681.96</ele>
        <time>2012-07-07T09:04:23Z</time>
      </trkpt>
      <trkpt lat="46.191513184458017" lon="7.359351050108671">
        <ele>1679.5599999999999</ele>
        <time>2012-07-07T09:04:41Z</time>
      </trkpt>
      <trkpt lat="46.191517375409603" lon="7.359402682632208">
        <ele>1678.5999999999999</ele>
        <time>2012-07-07T09:04:44Z</time>
      </trkpt>
      <trkpt lat="46.191578395664692" lon="7.359680710360408">
        <ele>1679.5599999999999</ele>
        <time>2012-07-07T09:04:59Z</time>
      </trkpt>
      <trkpt lat="46.191622233018279" lon="7.359909452497959">
        <ele>1680.52</ele>
        <time>2012-07-07T09:05:10Z</time>
      </trkpt>
      <trkpt lat="46.191641176119447" lon="7.360058482736349">
        <ele>1682.9300000000001</ele>
        <time>2012-07-07T09:05:18Z</time>
      </trkpt>
      <trkpt lat="46.191632207483053" lon="7.360140793025494">
        <ele>1684.3699999999999</ele>
        <time>2012-07-07T09:05:22Z</time>
      </trkpt>
      <trkpt lat="46.191567247733474" lon="7.360278004780412">
        <ele>1685.3299999999999</ele>
        <time>2012-07-07T09:05:31Z</time>
      </trkpt>
      <trkpt lat="46.191571271046996" lon="7.360308598726988">
        <ele>1685.8099999999999</ele>
        <time>2012-07-07T09:05:33Z</time>
      </trkpt>
      <trkpt lat="46.191540341824293" lon="7.360380599275231">
        <ele>1690.1400000000001</ele>
        <time>2012-07-07T09:05:44Z</time>
      </trkpt>
      <trkpt lat="46.191528104245663" lon="7.360393675044179">
        <ele>1691.0999999999999</ele>
        <time>2012-07-07T09:05:48Z</time>
      </trkpt>
      <trkpt lat="46.19157244451344" lon="7.360475482419133">
        <ele>1692.54</ele>
        <time>2012-07-07T09:05:55Z</time>
      </trkpt>
      <trkpt lat="46.191564062610269" lon="7.360558211803436">
        <ele>1695.4200000000001</ele>
        <time>2012-07-07T09:06:01Z</time>
      </trkpt>
      <trkpt lat="46.191550986841321" lon="7.360686203464866">
        <ele>1697.8299999999999</ele>
        <time>2012-07-07T09:06:14Z</time>
      </trkpt>
      <trkpt lat="46.191546879708767" lon="7.360702380537987">
        <ele>1697.8299999999999</ele>
        <time>2012-07-07T09:06:15Z</time>
      </trkpt>
      <trkpt lat="46.191539335995913" lon="7.360770190134645">
        <ele>1697.8299999999999</ele>
        <time>2012-07-07T09:06:19Z</time>
      </trkpt>
      <trkpt lat="46.19154947809875" lon="7.36083347350359">
        <ele>1697.8299999999999</ele>
        <time>2012-07-07T09:06:22Z</time>
      </trkpt>
      <trkpt lat="46.191565571352839" lon="7.361011672765017">
        <ele>1697.3399999999999</ele>
        <time>2012-07-07T09:06:32Z</time>
      </trkpt>
      <trkpt lat="46.191574959084392" lon="7.361119380220771">
        <ele>1696.8599999999999</ele>
        <time>2012-07-07T09:06:37Z</time>
      </trkpt>
      <trkpt lat="46.191612090915442" lon="7.3612991720438">
        <ele>1695.4200000000001</ele>
        <time>2012-07-07T09:06:46Z</time>
      </trkpt>
      <trkpt lat="46.191665064543486" lon="7.361386846750975">
        <ele>1696.8599999999999</ele>
        <time>2012-07-07T09:06:51Z</time>
      </trkpt>
      <trkpt lat="46.191724324598908" lon="7.361564794555306">
        <ele>1697.8299999999999</ele>
        <time>2012-07-07T09:07:00Z</time>
      </trkpt>
      <trkpt lat="46.191729102283716" lon="7.361713657155633">
        <ele>1699.75</ele>
        <time>2012-07-07T09:07:07Z</time>
      </trkpt>
      <trkpt lat="46.191761791706085" lon="7.361982045695186">
        <ele>1700.71</ele>
        <time>2012-07-07T09:07:20Z</time>
      </trkpt>
      <trkpt lat="46.191728264093399" lon="7.36230525188148">
        <ele>1702.1500000000001</ele>
        <time>2012-07-07T09:07:33Z</time>
      </trkpt>
      <trkpt lat="46.191729521378875" lon="7.362351771444082">
        <ele>1702.1500000000001</ele>
        <time>2012-07-07T09:07:35Z</time>
      </trkpt>
      <trkpt lat="46.191709404811263" lon="7.362674055621028">
        <ele>1701.1900000000001</ele>
        <time>2012-07-07T09:07:48Z</time>
      </trkpt>
      <trkpt lat="46.191763635724783" lon="7.362910090014339">
        <ele>1703.5899999999999</ele>
        <time>2012-07-07T09:07:59Z</time>
      </trkpt>
      <trkpt lat="46.191770173609257" lon="7.363070352002978">
        <ele>1706.48</ele>
        <time>2012-07-07T09:08:07Z</time>
      </trkpt>
      <trkpt lat="46.191776124760509" lon="7.363181076943874">
        <ele>1707.4400000000001</ele>
        <time>2012-07-07T09:08:12Z</time>
      </trkpt>
      <trkpt lat="46.191760785877705" lon="7.363495314493775">
        <ele>1711.28</ele>
        <time>2012-07-07T09:08:27Z</time>
      </trkpt>
      <trkpt lat="46.191762629896402" lon="7.363691870123148">
        <ele>1713.21</ele>
        <time>2012-07-07T09:08:36Z</time>
      </trkpt>
      <trkpt lat="46.191749386489391" lon="7.363817850127816">
        <ele>1714.1700000000001</ele>
        <time>2012-07-07T09:08:41Z</time>
      </trkpt>
      <trkpt lat="46.191736059263349" lon="7.363935029134154">
        <ele>1714.1700000000001</ele>
        <time>2012-07-07T09:08:46Z</time>
      </trkpt>
      <trkpt lat="46.191722899675369" lon="7.364135608077049">
        <ele>1713.6900000000001</ele>
        <time>2012-07-07T09:08:56Z</time>
      </trkpt>
      <trkpt lat="46.191661627963185" lon="7.364429058507085">
        <ele>1721.3800000000001</ele>
        <time>2012-07-07T09:09:13Z</time>
      </trkpt>
      <trkpt lat="46.191567583009601" lon="7.364623686298728">
        <ele>1723.3</ele>
        <time>2012-07-07T09:09:26Z</time>
      </trkpt>
      <trkpt lat="46.191436741501093" lon="7.36487296409905">
        <ele>1723.78</ele>
        <time>2012-07-07T09:09:41Z</time>
      </trkpt>
      <trkpt lat="46.191305816173553" lon="7.365223411470652">
        <ele>1724.74</ele>
        <time>2012-07-07T09:09:55Z</time>
      </trkpt>
      <trkpt lat="46.191260889172554" lon="7.36553848721087">
        <ele>1726.1800000000001</ele>
        <time>2012-07-07T09:10:10Z</time>
      </trkpt>
      <trkpt lat="46.191312773153186" lon="7.365807965397835">
        <ele>1729.0699999999999</ele>
        <time>2012-07-07T09:10:24Z</time>
      </trkpt>
      <trkpt lat="46.191316042095423" lon="7.365840403363109">
        <ele>1730.03</ele>
        <time>2012-07-07T09:10:26Z</time>
      </trkpt>
      <trkpt lat="46.191332805901766" lon="7.365875188261271">
        <ele>1730.51</ele>
        <time>2012-07-07T09:10:29Z</time>
      </trkpt>
      <trkpt lat="46.191361304372549" lon="7.365982728078961">
        <ele>1732.9100000000001</ele>
        <time>2012-07-07T09:10:36Z</time>
      </trkpt>
      <trkpt lat="46.191480159759521" lon="7.36627290956676">
        <ele>1735.3199999999999</ele>
        <time>2012-07-07T09:10:50Z</time>
      </trkpt>
      <trkpt lat="46.191557860001922" lon="7.366500729694963">
        <ele>1733.8800000000001</ele>
        <time>2012-07-07T09:10:58Z</time>
      </trkpt>
      <trkpt lat="46.191573534160852" lon="7.366864923387766">
        <ele>1734.8399999999999</ele>
        <time>2012-07-07T09:11:11Z</time>
      </trkpt>
      <trkpt lat="46.191607229411602" lon="7.367076566442847">
        <ele>1737.24</ele>
        <time>2012-07-07T09:11:18Z</time>
      </trkpt>
      <trkpt lat="46.191624579951167" lon="7.367278654128313">
        <ele>1739.6400000000001</ele>
        <time>2012-07-07T09:11:26Z</time>
      </trkpt>
      <trkpt lat="46.191573115065694" lon="7.367656091228128">
        <ele>1744.45</ele>
        <time>2012-07-07T09:11:40Z</time>
      </trkpt>
      <trkpt lat="46.191526679322124" lon="7.367901932448149">
        <ele>1743.49</ele>
        <time>2012-07-07T09:11:48Z</time>
      </trkpt>
      <trkpt lat="46.191417295485735" lon="7.368190689012408">
        <ele>1742.53</ele>
        <time>2012-07-07T09:11:59Z</time>
      </trkpt>
      <trkpt lat="46.191249573603272" lon="7.368393447250128">
        <ele>1742.05</ele>
        <time>2012-07-07T09:12:10Z</time>
      </trkpt>
      <trkpt lat="46.191256614401937" lon="7.368720257654786">
        <ele>1745.8900000000001</ele>
        <time>2012-07-07T09:12:22Z</time>
      </trkpt>
      <trkpt lat="46.19126608595252" lon="7.368894349783659">
        <ele>1748.29</ele>
        <time>2012-07-07T09:12:29Z</time>
      </trkpt>
      <trkpt lat="46.191248735412955" lon="7.369099035859108">
        <ele>1750.22</ele>
        <time>2012-07-07T09:12:39Z</time>
      </trkpt>
      <trkpt lat="46.191151589155197" lon="7.369446381926537">
        <ele>1751.1800000000001</ele>
        <time>2012-07-07T09:12:53Z</time>
      </trkpt>
      <trkpt lat="46.191131724044681" lon="7.369742849841714">
        <ele>1753.0999999999999</ele>
        <time>2012-07-07T09:13:06Z</time>
      </trkpt>
      <trkpt lat="46.191138932481408" lon="7.369923144578934">
        <ele>1755.5</ele>
        <time>2012-07-07T09:13:13Z</time>
      </trkpt>
      <trkpt lat="46.19112434796989" lon="7.370090950280428">
        <ele>1755.99</ele>
        <time>2012-07-07T09:13:20Z</time>
      </trkpt>
      <trkpt lat="46.191097609698772" lon="7.370528653264046">
        <ele>1757.9100000000001</ele>
        <time>2012-07-07T09:13:37Z</time>
      </trkpt>
      <trkpt lat="46.191030135378242" lon="7.370866779237986">
        <ele>1757.9100000000001</ele>
        <time>2012-07-07T09:13:50Z</time>
      </trkpt>
      <trkpt lat="46.191054694354534" lon="7.371205072849989">
        <ele>1760.79</ele>
        <time>2012-07-07T09:14:04Z</time>
      </trkpt>
      <trkpt lat="46.191059974953532" lon="7.371594496071339">
        <ele>1763.6800000000001</ele>
        <time>2012-07-07T09:14:19Z</time>
      </trkpt>
      <trkpt lat="46.191052934154868" lon="7.371698934584856">
        <ele>1764.6400000000001</ele>
        <time>2012-07-07T09:14:23Z</time>
      </trkpt>
      <trkpt lat="46.191043294966221" lon="7.372033456340432">
        <ele>1763.6800000000001</ele>
        <time>2012-07-07T09:14:36Z</time>
      </trkpt>
      <trkpt lat="46.191042205318809" lon="7.372056422755122">
        <ele>1763.2</ele>
        <time>2012-07-07T09:14:37Z</time>
      </trkpt>
      <trkpt lat="46.191037511453032" lon="7.372374515980482">
        <ele>1764.1600000000001</ele>
        <time>2012-07-07T09:14:50Z</time>
      </trkpt>
      <trkpt lat="46.191050922498107" lon="7.372642569243908">
        <ele>1765.5999999999999</ele>
        <time>2012-07-07T09:15:01Z</time>
      </trkpt>
      <trkpt lat="46.19101345539093" lon="7.372837029397488">
        <ele>1764.6400000000001</ele>
        <time>2012-07-07T09:15:10Z</time>
      </trkpt>
      <trkpt lat="46.191012030467391" lon="7.372915986925364">
        <ele>1764.1600000000001</ele>
        <time>2012-07-07T09:15:13Z</time>
      </trkpt>
      <trkpt lat="46.19105058722198" lon="7.373137855902314">
        <ele>1763.2</ele>
        <time>2012-07-07T09:15:23Z</time>
      </trkpt>
      <trkpt lat="46.191058969125152" lon="7.37343423999846">
        <ele>1766.0799999999999</ele>
        <time>2012-07-07T09:15:35Z</time>
      </trkpt>
      <trkpt lat="46.191059304401278" lon="7.373460307717323">
        <ele>1766.5599999999999</ele>
        <time>2012-07-07T09:15:36Z</time>
      </trkpt>
      <trkpt lat="46.191084366291761" lon="7.37386716529727">
        <ele>1770.8900000000001</ele>
        <time>2012-07-07T09:15:50Z</time>
      </trkpt>
      <trkpt lat="46.191083611920476" lon="7.373889461159706">
        <ele>1771.3699999999999</ele>
        <time>2012-07-07T09:15:51Z</time>
      </trkpt>
      <trkpt lat="46.191084031015635" lon="7.373913014307618">
        <ele>1771.8499999999999</ele>
        <time>2012-07-07T09:15:52Z</time>
      </trkpt>
      <trkpt lat="46.191083863377571" lon="7.373939668759704">
        <ele>1772.8099999999999</ele>
        <time>2012-07-07T09:15:53Z</time>
      </trkpt>
      <trkpt lat="46.191083192825317" lon="7.373966574668884">
        <ele>1773.29</ele>
        <time>2012-07-07T09:15:54Z</time>
      </trkpt>
      <trkpt lat="46.191083025187254" lon="7.373993145301938">
        <ele>1774.25</ele>
        <time>2012-07-07T09:15:55Z</time>
      </trkpt>
      <trkpt lat="46.191082186996937" lon="7.374015860259533">
        <ele>1774.73</ele>
        <time>2012-07-07T09:15:56Z</time>
      </trkpt>
      <trkpt lat="46.190981017425656" lon="7.374252146109939">
        <ele>1775.21</ele>
        <time>2012-07-07T09:16:07Z</time>
      </trkpt>
      <trkpt lat="46.190974228084087" lon="7.37427368760109">
        <ele>1775.21</ele>
        <time>2012-07-07T09:16:08Z</time>
      </trkpt>
      <trkpt lat="46.190961403772235" lon="7.374290116131306">
        <ele>1775.21</ele>
        <time>2012-07-07T09:16:09Z</time>
      </trkpt>
      <trkpt lat="46.190942628309131" lon="7.374304365366697">
        <ele>1775.21</ele>
        <time>2012-07-07T09:16:10Z</time>
      </trkpt>
      <trkpt lat="46.190932486206293" lon="7.374327164143324">
        <ele>1775.21</ele>
        <time>2012-07-07T09:16:11Z</time>
      </trkpt>
      <trkpt lat="46.190795945003629" lon="7.374565713107586">
        <ele>1775.6900000000001</ele>
        <time>2012-07-07T09:16:23Z</time>
      </trkpt>
      <trkpt lat="46.190697457641363" lon="7.374773751944304">
        <ele>1778.0999999999999</ele>
        <time>2012-07-07T09:16:32Z</time>
      </trkpt>
      <trkpt lat="46.190688908100128" lon="7.374794622883201">
        <ele>1778.5799999999999</ele>
        <time>2012-07-07T09:16:33Z</time>
      </trkpt>
      <trkpt lat="46.190683543682098" lon="7.374819433316588">
        <ele>1779.0599999999999</ele>
        <time>2012-07-07T09:16:34Z</time>
      </trkpt>
      <trkpt lat="46.190681867301464" lon="7.374848099425435">
        <ele>1779.54</ele>
        <time>2012-07-07T09:16:35Z</time>
      </trkpt>
      <trkpt lat="46.190680861473083" lon="7.374872658401728">
        <ele>1780.02</ele>
        <time>2012-07-07T09:16:36Z</time>
      </trkpt>
      <trkpt lat="46.190681951120496" lon="7.37489671446383">
        <ele>1780.5</ele>
        <time>2012-07-07T09:16:37Z</time>
      </trkpt>
      <trkpt lat="46.19068656116724" lon="7.374920938163996">
        <ele>1780.98</ele>
        <time>2012-07-07T09:16:38Z</time>
      </trkpt>
      <trkpt lat="46.190688740462065" lon="7.374946335330606">
        <ele>1780.98</ele>
        <time>2012-07-07T09:16:39Z</time>
      </trkpt>
      <trkpt lat="46.190690919756889" lon="7.374968798831105">
        <ele>1780.98</ele>
        <time>2012-07-07T09:16:40Z</time>
      </trkpt>
      <trkpt lat="46.190707348287106" lon="7.375092348083854">
        <ele>1781.46</ele>
        <time>2012-07-07T09:16:45Z</time>
      </trkpt>
      <trkpt lat="46.190699217841029" lon="7.375111039727926">
        <ele>1781.46</ele>
        <time>2012-07-07T09:16:46Z</time>
      </trkpt>
      <trkpt lat="46.190694691613317" lon="7.375138783827424">
        <ele>1781.46</ele>
        <time>2012-07-07T09:16:47Z</time>
      </trkpt>
      <trkpt lat="46.190692931413651" lon="7.375165857374668">
        <ele>1781.46</ele>
        <time>2012-07-07T09:16:48Z</time>
      </trkpt>
      <trkpt lat="46.190690081566572" lon="7.375191086903215">
        <ele>1781.46</ele>
        <time>2012-07-07T09:16:49Z</time>
      </trkpt>
      <trkpt lat="46.190687650814652" lon="7.375216232612729">
        <ele>1781.9400000000001</ele>
        <time>2012-07-07T09:16:50Z</time>
      </trkpt>
      <trkpt lat="46.190685722976923" lon="7.375242467969656">
        <ele>1782.4200000000001</ele>
        <time>2012-07-07T09:16:51Z</time>
      </trkpt>
      <trkpt lat="46.190678514540195" lon="7.375260824337602">
        <ele>1782.4200000000001</ele>
        <time>2012-07-07T09:16:52Z</time>
      </trkpt>
      <trkpt lat="46.190675077959895" lon="7.375285383313894">
        <ele>1782.9000000000001</ele>
        <time>2012-07-07T09:16:53Z</time>
      </trkpt>
      <trkpt lat="46.190671054646373" lon="7.375304577872157">
        <ele>1783.3800000000001</ele>
        <time>2012-07-07T09:16:54Z</time>
      </trkpt>
      <trkpt lat="46.190667534247041" lon="7.375322682783008">
        <ele>1783.3800000000001</ele>
        <time>2012-07-07T09:16:55Z</time>
      </trkpt>
      <trkpt lat="46.190666276961565" lon="7.37534430809319">
        <ele>1783.8599999999999</ele>
        <time>2012-07-07T09:16:56Z</time>
      </trkpt>
      <trkpt lat="46.190664516761899" lon="7.375367358326912">
        <ele>1784.3399999999999</ele>
        <time>2012-07-07T09:16:57Z</time>
      </trkpt>
      <trkpt lat="46.190664013847709" lon="7.375391833484173">
        <ele>1784.8199999999999</ele>
        <time>2012-07-07T09:16:58Z</time>
      </trkpt>
      <trkpt lat="46.190643142908812" lon="7.375581013038755">
        <ele>1787.71</ele>
        <time>2012-07-07T09:17:06Z</time>
      </trkpt>
      <trkpt lat="46.190637359395623" lon="7.375599201768637">
        <ele>1787.71</ele>
        <time>2012-07-07T09:17:07Z</time>
      </trkpt>
      <trkpt lat="46.190630905330181" lon="7.375616300851107">
        <ele>1788.1900000000001</ele>
        <time>2012-07-07T09:17:08Z</time>
      </trkpt>
      <trkpt lat="46.190625121816993" lon="7.375629125162959">
        <ele>1789.1500000000001</ele>
        <time>2012-07-07T09:17:09Z</time>
      </trkpt>
      <trkpt lat="46.190624702721834" lon="7.375642284750938">
        <ele>1789.6300000000001</ele>
        <time>2012-07-07T09:17:10Z</time>
      </trkpt>
      <trkpt lat="46.190623193979263" lon="7.375659886747599">
        <ele>1790.1099999999999</ele>
        <time>2012-07-07T09:17:11Z</time>
      </trkpt>
      <trkpt lat="46.190622858703136" lon="7.375684529542923">
        <ele>1790.1099999999999</ele>
        <time>2012-07-07T09:17:12Z</time>
      </trkpt>
      <trkpt lat="46.190625624731183" lon="7.375720404088497">
        <ele>1790.1099999999999</ele>
        <time>2012-07-07T09:17:13Z</time>
      </trkpt>
      <trkpt lat="46.190624199807644" lon="7.375754686072469">
        <ele>1790.1099999999999</ele>
        <time>2012-07-07T09:17:14Z</time>
      </trkpt>
      <trkpt lat="46.19061472825706" lon="7.375826602801681">
        <ele>1789.1500000000001</ele>
        <time>2012-07-07T09:17:17Z</time>
      </trkpt>
      <trkpt lat="46.190606933087111" lon="7.375845797359943">
        <ele>1788.6700000000001</ele>
        <time>2012-07-07T09:17:18Z</time>
      </trkpt>
      <trkpt lat="46.190601903945208" lon="7.375864656642079">
        <ele>1788.6700000000001</ele>
        <time>2012-07-07T09:17:19Z</time>
      </trkpt>
      <trkpt lat="46.190618667751551" lon="7.375952834263444">
        <ele>1788.1900000000001</ele>
        <time>2012-07-07T09:17:23Z</time>
      </trkpt>
      <trkpt lat="46.190640795975924" lon="7.37599709071219">
        <ele>1787.71</ele>
        <time>2012-07-07T09:17:25Z</time>
      </trkpt>
      <trkpt lat="46.19064649567008" lon="7.376020979136229">
        <ele>1787.71</ele>
        <time>2012-07-07T09:17:26Z</time>
      </trkpt>
      <trkpt lat="46.190654709935188" lon="7.376040341332555">
        <ele>1788.1900000000001</ele>
        <time>2012-07-07T09:17:27Z</time>
      </trkpt>
      <trkpt lat="46.190665354952216" lon="7.376069761812687">
        <ele>1788.6700000000001</ele>
        <time>2012-07-07T09:17:28Z</time>
      </trkpt>
      <trkpt lat="46.190700475126505" lon="7.376165315508843">
        <ele>1788.6700000000001</ele>
        <time>2012-07-07T09:17:34Z</time>
      </trkpt>
      <trkpt lat="46.190717993304133" lon="7.3761813249439">
        <ele>1789.1500000000001</ele>
        <time>2012-07-07T09:17:35Z</time>
      </trkpt>
      <trkpt lat="46.190742552280426" lon="7.376219294965267">
        <ele>1789.1500000000001</ele>
        <time>2012-07-07T09:17:37Z</time>
      </trkpt>
      <trkpt lat="46.190754706040025" lon="7.376255169510841">
        <ele>1789.6300000000001</ele>
        <time>2012-07-07T09:17:38Z</time>
      </trkpt>
      <trkpt lat="46.19076669216156" lon="7.376287188380957">
        <ele>1789.6300000000001</ele>
        <time>2012-07-07T09:17:39Z</time>
      </trkpt>
      <trkpt lat="46.190777756273746" lon="7.376311244443059">
        <ele>1790.1099999999999</ele>
        <time>2012-07-07T09:17:40Z</time>
      </trkpt>
      <trkpt lat="46.190788820385933" lon="7.376327756792307">
        <ele>1790.5899999999999</ele>
        <time>2012-07-07T09:17:41Z</time>
      </trkpt>
      <trkpt lat="46.19079896248877" lon="7.376345358788967">
        <ele>1791.0699999999999</ele>
        <time>2012-07-07T09:17:42Z</time>
      </trkpt>
      <trkpt lat="46.190804829820991" lon="7.376362960785627">
        <ele>1791.55</ele>
        <time>2012-07-07T09:17:43Z</time>
      </trkpt>
      <trkpt lat="46.19080726057291" lon="7.376382071524859">
        <ele>1791.55</ele>
        <time>2012-07-07T09:17:44Z</time>
      </trkpt>
      <trkpt lat="46.190809356048703" lon="7.376399505883455">
        <ele>1791.0699999999999</ele>
        <time>2012-07-07T09:17:45Z</time>
      </trkpt>
      <trkpt lat="46.190809356048703" lon="7.376419119536877">
        <ele>1791.0699999999999</ele>
        <time>2012-07-07T09:17:46Z</time>
      </trkpt>
      <trkpt lat="46.190811200067401" lon="7.376437056809664">
        <ele>1791.0699999999999</ele>
        <time>2012-07-07T09:17:47Z</time>
      </trkpt>
      <trkpt lat="46.190819917246699" lon="7.376457508653402">
        <ele>1791.55</ele>
        <time>2012-07-07T09:17:48Z</time>
      </trkpt>
      <trkpt lat="46.190828215330839" lon="7.376478714868426">
        <ele>1791.0699999999999</ele>
        <time>2012-07-07T09:17:49Z</time>
      </trkpt>
      <trkpt lat="46.190833579748869" lon="7.3765042796731">
        <ele>1791.0699999999999</ele>
        <time>2012-07-07T09:17:50Z</time>
      </trkpt>
      <trkpt lat="46.190837016329169" lon="7.376528587192297">
        <ele>1791.0699999999999</ele>
        <time>2012-07-07T09:17:51Z</time>
      </trkpt>
      <trkpt lat="46.19083559140563" lon="7.376550128683448">
        <ele>1791.0699999999999</ele>
        <time>2012-07-07T09:17:52Z</time>
      </trkpt>
      <trkpt lat="46.190845398232341" lon="7.376583488658071">
        <ele>1791.0699999999999</ele>
        <time>2012-07-07T09:17:54Z</time>
      </trkpt>
      <trkpt lat="46.190850427374244" lon="7.376602767035365">
        <ele>1791.0699999999999</ele>
        <time>2012-07-07T09:17:55Z</time>
      </trkpt>
      <trkpt lat="46.190851433202624" lon="7.37662598490715">
        <ele>1791.0699999999999</ele>
        <time>2012-07-07T09:17:56Z</time>
      </trkpt>
      <trkpt lat="46.190856629982591" lon="7.376651214435697">
        <ele>1791.55</ele>
        <time>2012-07-07T09:17:57Z</time>
      </trkpt>
      <trkpt lat="46.190862078219652" lon="7.376669654622674">
        <ele>1791.55</ele>
        <time>2012-07-07T09:17:58Z</time>
      </trkpt>
      <trkpt lat="46.190870460122824" lon="7.376685161143541">
        <ele>1792.03</ele>
        <time>2012-07-07T09:17:59Z</time>
      </trkpt>
      <trkpt lat="46.190879344940186" lon="7.376699997112155">
        <ele>1792.03</ele>
        <time>2012-07-07T09:18:00Z</time>
      </trkpt>
      <trkpt lat="46.190890409052372" lon="7.376712486147881">
        <ele>1792.52</ele>
        <time>2012-07-07T09:18:01Z</time>
      </trkpt>
      <trkpt lat="46.190905328840017" lon="7.376719862222672">
        <ele>1793</ele>
        <time>2012-07-07T09:18:02Z</time>
      </trkpt>
      <trkpt lat="46.190922595560551" lon="7.376729920506477">
        <ele>1793.48</ele>
        <time>2012-07-07T09:18:03Z</time>
      </trkpt>
      <trkpt lat="46.190937515348196" lon="7.376746600493789">
        <ele>1793.96</ele>
        <time>2012-07-07T09:18:04Z</time>
      </trkpt>
      <trkpt lat="46.190950591117144" lon="7.376764370128512">
        <ele>1794.4400000000001</ele>
        <time>2012-07-07T09:18:05Z</time>
      </trkpt>
      <trkpt lat="46.190962409600616" lon="7.376780966296792">
        <ele>1794.4400000000001</ele>
        <time>2012-07-07T09:18:06Z</time>
      </trkpt>
      <trkpt lat="46.190973725169897" lon="7.376798233017325">
        <ele>1794.9200000000001</ele>
        <time>2012-07-07T09:18:07Z</time>
      </trkpt>
      <trkpt lat="46.191087299957871" lon="7.376963775604963">
        <ele>1795.4000000000001</ele>
        <time>2012-07-07T09:18:13Z</time>
      </trkpt>
      <trkpt lat="46.191113870590925" lon="7.377023454755545">
        <ele>1795.4000000000001</ele>
        <time>2012-07-07T09:18:14Z</time>
      </trkpt>
      <trkpt lat="46.191221075132489" lon="7.377329729497433">
        <ele>1793</ele>
        <time>2012-07-07T09:18:22Z</time>
      </trkpt>
      <trkpt lat="46.191231133416295" lon="7.377364514395595">
        <ele>1793</ele>
        <time>2012-07-07T09:18:23Z</time>
      </trkpt>
      <trkpt lat="46.191237084567547" lon="7.377397622913122">
        <ele>1792.52</ele>
        <time>2012-07-07T09:18:24Z</time>
      </trkpt>
      <trkpt lat="46.191242365166545" lon="7.377424025908113">
        <ele>1792.52</ele>
        <time>2012-07-07T09:18:25Z</time>
      </trkpt>
      <trkpt lat="46.191246807575226" lon="7.377448920160532">
        <ele>1792.03</ele>
        <time>2012-07-07T09:18:26Z</time>
      </trkpt>
      <trkpt lat="46.191253932192922" lon="7.377477334812284">
        <ele>1792.03</ele>
        <time>2012-07-07T09:18:27Z</time>
      </trkpt>
      <trkpt lat="46.191261056810617" lon="7.377504324540496">
        <ele>1792.03</ele>
        <time>2012-07-07T09:18:28Z</time>
      </trkpt>
      <trkpt lat="46.191269103437662" lon="7.377529302611947">
        <ele>1792.03</ele>
        <time>2012-07-07T09:18:29Z</time>
      </trkpt>
      <trkpt lat="46.191273713484406" lon="7.377563333138824">
        <ele>1792.03</ele>
        <time>2012-07-07T09:18:30Z</time>
      </trkpt>
      <trkpt lat="46.191275389865041" lon="7.377602057531476">
        <ele>1791.55</ele>
        <time>2012-07-07T09:18:31Z</time>
      </trkpt>
      <trkpt lat="46.191279916092753" lon="7.377646816894412">
        <ele>1791.0699999999999</ele>
        <time>2012-07-07T09:18:32Z</time>
      </trkpt>
      <trkpt lat="46.191293746232986" lon="7.377842366695404">
        <ele>1789.6300000000001</ele>
        <time>2012-07-07T09:18:36Z</time>
      </trkpt>
      <trkpt lat="46.191272875294089" lon="7.37804395146668">
        <ele>1788.6700000000001</ele>
        <time>2012-07-07T09:18:40Z</time>
      </trkpt>
      <trkpt lat="46.191281424835324" lon="7.37810991704464">
        <ele>1788.1900000000001</ele>
        <time>2012-07-07T09:18:41Z</time>
      </trkpt>
      <trkpt lat="46.19129047729075" lon="7.378165405243635">
        <ele>1788.1900000000001</ele>
        <time>2012-07-07T09:18:42Z</time>
      </trkpt>
      <trkpt lat="46.191317047923803" lon="7.378248553723097">
        <ele>1787.71</ele>
        <time>2012-07-07T09:18:44Z</time>
      </trkpt>
      <trkpt lat="46.1913379188627" lon="7.378286691382527">
        <ele>1787.23</ele>
        <time>2012-07-07T09:18:45Z</time>
      </trkpt>
      <trkpt lat="46.191355185583234" lon="7.378323236480355">
        <ele>1787.23</ele>
        <time>2012-07-07T09:18:46Z</time>
      </trkpt>
      <trkpt lat="46.191369350999594" lon="7.378399092704058">
        <ele>1787.23</ele>
        <time>2012-07-07T09:18:48Z</time>
      </trkpt>
      <trkpt lat="46.19136574678123" lon="7.378442427143455">
        <ele>1787.23</ele>
        <time>2012-07-07T09:18:49Z</time>
      </trkpt>
      <trkpt lat="46.191372368484735" lon="7.378650298342109">
        <ele>1784.8199999999999</ele>
        <time>2012-07-07T09:18:54Z</time>
      </trkpt>
      <trkpt lat="46.191379157826304" lon="7.378689190372825">
        <ele>1784.3399999999999</ele>
        <time>2012-07-07T09:18:55Z</time>
      </trkpt>
      <trkpt lat="46.191388377919793" lon="7.378718862310052">
        <ele>1783.8599999999999</ele>
        <time>2012-07-07T09:18:56Z</time>
      </trkpt>
      <trkpt lat="46.191400783136487" lon="7.378742918372154">
        <ele>1783.3800000000001</ele>
        <time>2012-07-07T09:18:57Z</time>
      </trkpt>
      <trkpt lat="46.191410422325134" lon="7.378766555339098">
        <ele>1782.9000000000001</ele>
        <time>2012-07-07T09:18:58Z</time>
      </trkpt>
      <trkpt lat="46.191419390961528" lon="7.378794802352786">
        <ele>1782.9000000000001</ele>
        <time>2012-07-07T09:18:59Z</time>
      </trkpt>
      <trkpt lat="46.191430371254683" lon="7.378828413784504">
        <ele>1782.4200000000001</ele>
        <time>2012-07-07T09:19:00Z</time>
      </trkpt>
      <trkpt lat="46.191472699865699" lon="7.378941653296351">
        <ele>1782.4200000000001</ele>
        <time>2012-07-07T09:19:02Z</time>
      </trkpt>
      <trkpt lat="46.191490301862359" lon="7.379011055454612">
        <ele>1782.9000000000001</ele>
        <time>2012-07-07T09:19:03Z</time>
      </trkpt>
      <trkpt lat="46.191506562754512" lon="7.379078026860952">
        <ele>1782.9000000000001</ele>
        <time>2012-07-07T09:19:04Z</time>
      </trkpt>
      <trkpt lat="46.191519889980555" lon="7.379145165905356">
        <ele>1782.9000000000001</ele>
        <time>2012-07-07T09:19:05Z</time>
      </trkpt>
      <trkpt lat="46.191524919122458" lon="7.37921473570168">
        <ele>1782.9000000000001</ele>
        <time>2012-07-07T09:19:06Z</time>
      </trkpt>
      <trkpt lat="46.191523913294077" lon="7.379278605803847">
        <ele>1782.4200000000001</ele>
        <time>2012-07-07T09:19:07Z</time>
      </trkpt>
      <trkpt lat="46.191611085087061" lon="7.379610612988472">
        <ele>1783.8599999999999</ele>
        <time>2012-07-07T09:19:15Z</time>
      </trkpt>
      <trkpt lat="46.191620221361518" lon="7.379627544432879">
        <ele>1784.3399999999999</ele>
        <time>2012-07-07T09:19:16Z</time>
      </trkpt>
      <trkpt lat="46.19162960909307" lon="7.379656042903662">
        <ele>1784.8199999999999</ele>
        <time>2012-07-07T09:19:17Z</time>
      </trkpt>
      <trkpt lat="46.191635224968195" lon="7.37968378700316">
        <ele>1785.3099999999999</ele>
        <time>2012-07-07T09:19:18Z</time>
      </trkpt>
      <trkpt lat="46.191638326272368" lon="7.379708429798484">
        <ele>1785.79</ele>
        <time>2012-07-07T09:19:19Z</time>
      </trkpt>
      <trkpt lat="46.191627597436309" lon="7.380051501095295">
        <ele>1784.8199999999999</ele>
        <time>2012-07-07T09:19:30Z</time>
      </trkpt>
      <trkpt lat="46.191641511395574" lon="7.380075808614492">
        <ele>1784.8199999999999</ele>
        <time>2012-07-07T09:19:31Z</time>
      </trkpt>
      <trkpt lat="46.191654754802585" lon="7.380106570199132">
        <ele>1784.8199999999999</ele>
        <time>2012-07-07T09:19:32Z</time>
      </trkpt>
      <trkpt lat="46.191678894683719" lon="7.380161555483937">
        <ele>1784.8199999999999</ele>
        <time>2012-07-07T09:19:34Z</time>
      </trkpt>
      <trkpt lat="46.191684510558844" lon="7.3801841866225">
        <ele>1784.8199999999999</ele>
        <time>2012-07-07T09:19:35Z</time>
      </trkpt>
      <trkpt lat="46.191694904118776" lon="7.380205225199461">
        <ele>1784.8199999999999</ele>
        <time>2012-07-07T09:19:36Z</time>
      </trkpt>
      <trkpt lat="46.191710494458675" lon="7.38022425211966">
        <ele>1785.3099999999999</ele>
        <time>2012-07-07T09:19:37Z</time>
      </trkpt>
      <trkpt lat="46.191727090626955" lon="7.380238249897957">
        <ele>1785.79</ele>
        <time>2012-07-07T09:19:38Z</time>
      </trkpt>
      <trkpt lat="46.191741591319442" lon="7.380252499133349">
        <ele>1786.27</ele>
        <time>2012-07-07T09:19:39Z</time>
      </trkpt>
      <trkpt lat="46.191876120865345" lon="7.380411587655544">
        <ele>1790.5899999999999</ele>
        <time>2012-07-07T09:19:50Z</time>
      </trkpt>
      <trkpt lat="46.191925154998899" lon="7.380550056695938">
        <ele>1789.6300000000001</ele>
        <time>2012-07-07T09:19:54Z</time>
      </trkpt>
      <trkpt lat="46.191921466961503" lon="7.380592217668891">
        <ele>1789.6300000000001</ele>
        <time>2012-07-07T09:19:55Z</time>
      </trkpt>
      <trkpt lat="46.191916270181537" lon="7.380630020052195">
        <ele>1789.1500000000001</ele>
        <time>2012-07-07T09:19:56Z</time>
      </trkpt>
      <trkpt lat="46.191920042037964" lon="7.380669247359037">
        <ele>1789.1500000000001</ele>
        <time>2012-07-07T09:19:57Z</time>
      </trkpt>
      <trkpt lat="46.191920125856996" lon="7.380719790235162">
        <ele>1788.6700000000001</ele>
        <time>2012-07-07T09:19:58Z</time>
      </trkpt>
      <trkpt lat="46.191923981532454" lon="7.380777793005109">
        <ele>1787.71</ele>
        <time>2012-07-07T09:19:59Z</time>
      </trkpt>
      <trkpt lat="46.191933285444975" lon="7.380826575681567">
        <ele>1787.71</ele>
        <time>2012-07-07T09:20:00Z</time>
      </trkpt>
      <trkpt lat="46.191951474174857" lon="7.380967140197754">
        <ele>1784.8199999999999</ele>
        <time>2012-07-07T09:20:04Z</time>
      </trkpt>
      <trkpt lat="46.191934123635292" lon="7.38101726397872">
        <ele>1782.9000000000001</ele>
        <time>2012-07-07T09:20:07Z</time>
      </trkpt>
      <trkpt lat="46.191769000142813" lon="7.381330663338304">
        <ele>1780.5</ele>
        <time>2012-07-07T09:20:18Z</time>
      </trkpt>
      <trkpt lat="46.191695993766189" lon="7.381508443504572">
        <ele>1780.02</ele>
        <time>2012-07-07T09:20:21Z</time>
      </trkpt>
      <trkpt lat="46.191681241616607" lon="7.381577091291547">
        <ele>1779.54</ele>
        <time>2012-07-07T09:20:22Z</time>
      </trkpt>
      <trkpt lat="46.191667746752501" lon="7.38164565525949">
        <ele>1779.0599999999999</ele>
        <time>2012-07-07T09:20:23Z</time>
      </trkpt>
      <trkpt lat="46.191638829186559" lon="7.381707932800055">
        <ele>1779.0599999999999</ele>
        <time>2012-07-07T09:20:24Z</time>
      </trkpt>
      <trkpt lat="46.191605301573873" lon="7.38175462000072">
        <ele>1778.5799999999999</ele>
        <time>2012-07-07T09:20:25Z</time>
      </trkpt>
      <trkpt lat="46.191563978791237" lon="7.381811449304223">
        <ele>1778.5799999999999</ele>
        <time>2012-07-07T09:20:27Z</time>
      </trkpt>
      <trkpt lat="46.191377062350512" lon="7.382122417911887">
        <ele>1779.0599999999999</ele>
        <time>2012-07-07T09:20:34Z</time>
      </trkpt>
      <trkpt lat="46.19132517836988" lon="7.38214697688818">
        <ele>1778.0999999999999</ele>
        <time>2012-07-07T09:20:36Z</time>
      </trkpt>
      <trkpt lat="46.191221578046679" lon="7.382321991026402">
        <ele>1778.0999999999999</ele>
        <time>2012-07-07T09:20:44Z</time>
      </trkpt>
      <trkpt lat="46.191204059869051" lon="7.38235367462039">
        <ele>1778.5799999999999</ele>
        <time>2012-07-07T09:20:49Z</time>
      </trkpt>
      <trkpt lat="46.191063076257706" lon="7.382535310462117">
        <ele>1780.5</ele>
        <time>2012-07-07T09:20:59Z</time>
      </trkpt>
      <trkpt lat="46.191045138984919" lon="7.38256230019033">
        <ele>1780.98</ele>
        <time>2012-07-07T09:21:00Z</time>
      </trkpt>
      <trkpt lat="46.191001804545522" lon="7.382661290466785">
        <ele>1780.5</ele>
        <time>2012-07-07T09:21:06Z</time>
      </trkpt>
      <trkpt lat="46.190957464277744" lon="7.382706049829722">
        <ele>1782.9000000000001</ele>
        <time>2012-07-07T09:21:12Z</time>
      </trkpt>
      <trkpt lat="46.190939946100116" lon="7.382721640169621">
        <ele>1782.9000000000001</ele>
        <time>2012-07-07T09:21:13Z</time>
      </trkpt>
      <trkpt lat="46.190920919179916" lon="7.382740918546915">
        <ele>1783.3800000000001</ele>
        <time>2012-07-07T09:21:14Z</time>
      </trkpt>
      <trkpt lat="46.190908178687096" lon="7.382760364562273">
        <ele>1783.3800000000001</ele>
        <time>2012-07-07T09:21:15Z</time>
      </trkpt>
      <trkpt lat="46.190892336890101" lon="7.382779140025377">
        <ele>1783.3800000000001</ele>
        <time>2012-07-07T09:21:16Z</time>
      </trkpt>
      <trkpt lat="46.190873058512807" lon="7.382795484736562">
        <ele>1783.8599999999999</ele>
        <time>2012-07-07T09:21:17Z</time>
      </trkpt>
      <trkpt lat="46.190856629982591" lon="7.382804537191987">
        <ele>1783.8599999999999</ele>
        <time>2012-07-07T09:21:18Z</time>
      </trkpt>
      <trkpt lat="46.190831232815981" lon="7.382823983207345">
        <ele>1784.3399999999999</ele>
        <time>2012-07-07T09:21:20Z</time>
      </trkpt>
      <trkpt lat="46.190689327195287" lon="7.38295080140233">
        <ele>1785.3099999999999</ele>
        <time>2012-07-07T09:21:32Z</time>
      </trkpt>
      <trkpt lat="46.190576674416661" lon="7.383062951266766">
        <ele>1786.27</ele>
        <time>2012-07-07T09:21:40Z</time>
      </trkpt>
      <trkpt lat="46.190568543970585" lon="7.383081307634711">
        <ele>1786.27</ele>
        <time>2012-07-07T09:21:41Z</time>
      </trkpt>
      <trkpt lat="46.190555635839701" lon="7.383096478879452">
        <ele>1786.75</ele>
        <time>2012-07-07T09:21:42Z</time>
      </trkpt>
      <trkpt lat="46.190542979165912" lon="7.383111901581287">
        <ele>1787.23</ele>
        <time>2012-07-07T09:21:43Z</time>
      </trkpt>
      <trkpt lat="46.190525209531188" lon="7.383126402273774">
        <ele>1787.71</ele>
        <time>2012-07-07T09:21:44Z</time>
      </trkpt>
      <trkpt lat="46.190320523455739" lon="7.383332848548889">
        <ele>1787.23</ele>
        <time>2012-07-07T09:21:57Z</time>
      </trkpt>
      <trkpt lat="46.19023310020566" lon="7.383451033383608">
        <ele>1786.75</ele>
        <time>2012-07-07T09:22:09Z</time>
      </trkpt>
      <trkpt lat="46.190205356106162" lon="7.383531918749213">
        <ele>1788.1900000000001</ele>
        <time>2012-07-07T09:22:19Z</time>
      </trkpt>
      <trkpt lat="46.190177276730537" lon="7.383563769981265">
        <ele>1788.1900000000001</ele>
        <time>2012-07-07T09:22:21Z</time>
      </trkpt>
      <trkpt lat="46.190162524580956" lon="7.383580198511481">
        <ele>1788.1900000000001</ele>
        <time>2012-07-07T09:22:22Z</time>
      </trkpt>
      <trkpt lat="46.190022882074118" lon="7.383709950372577">
        <ele>1786.75</ele>
        <time>2012-07-07T09:22:33Z</time>
      </trkpt>
      <trkpt lat="46.190010476857424" lon="7.383723109960556">
        <ele>1786.75</ele>
        <time>2012-07-07T09:22:34Z</time>
      </trkpt>
      <trkpt lat="46.189908385276794" lon="7.383848587051034">
        <ele>1787.23</ele>
        <time>2012-07-07T09:22:44Z</time>
      </trkpt>
      <trkpt lat="46.189841330051422" lon="7.383949672803283">
        <ele>1787.23</ele>
        <time>2012-07-07T09:22:50Z</time>
      </trkpt>
      <trkpt lat="46.18982557207346" lon="7.3839798476547">
        <ele>1787.71</ele>
        <time>2012-07-07T09:22:51Z</time>
      </trkpt>
      <trkpt lat="46.189804784953594" lon="7.384019242599607">
        <ele>1787.71</ele>
        <time>2012-07-07T09:22:52Z</time>
      </trkpt>
      <trkpt lat="46.189779387786984" lon="7.384055033326149">
        <ele>1787.71</ele>
        <time>2012-07-07T09:22:53Z</time>
      </trkpt>
      <trkpt lat="46.189754661172628" lon="7.384089650586247">
        <ele>1787.71</ele>
        <time>2012-07-07T09:22:54Z</time>
      </trkpt>
      <trkpt lat="46.189741250127554" lon="7.384107084944844">
        <ele>1787.71</ele>
        <time>2012-07-07T09:22:55Z</time>
      </trkpt>
      <trkpt lat="46.189717445522547" lon="7.38411127589643">
        <ele>1787.71</ele>
        <time>2012-07-07T09:22:56Z</time>
      </trkpt>
      <trkpt lat="46.189685594290495" lon="7.384109096601605">
        <ele>1788.1900000000001</ele>
        <time>2012-07-07T09:22:57Z</time>
      </trkpt>
      <trkpt lat="46.189654413610697" lon="7.38411320373416">
        <ele>1788.1900000000001</ele>
        <time>2012-07-07T09:22:58Z</time>
      </trkpt>
      <trkpt lat="46.189474789425731" lon="7.384062660858035">
        <ele>1788.1900000000001</ele>
        <time>2012-07-07T09:23:07Z</time>
      </trkpt>
      <trkpt lat="46.189441848546267" lon="7.384068025276065">
        <ele>1788.6700000000001</ele>
        <time>2012-07-07T09:23:08Z</time>
      </trkpt>
      <trkpt lat="46.189402369782329" lon="7.384083196520805">
        <ele>1788.6700000000001</ele>
        <time>2012-07-07T09:23:09Z</time>
      </trkpt>
      <trkpt lat="46.189371775835752" lon="7.384103145450354">
        <ele>1789.1500000000001</ele>
        <time>2012-07-07T09:23:10Z</time>
      </trkpt>
      <trkpt lat="46.189343361184001" lon="7.384120244532824">
        <ele>1788.6700000000001</ele>
        <time>2012-07-07T09:23:11Z</time>
      </trkpt>
      <trkpt lat="46.189191397279501" lon="7.384251253679395">
        <ele>1788.1900000000001</ele>
        <time>2012-07-07T09:23:15Z</time>
      </trkpt>
      <trkpt lat="46.189144877716899" lon="7.384285368025303">
        <ele>1788.1900000000001</ele>
        <time>2012-07-07T09:23:16Z</time>
      </trkpt>
      <trkpt lat="46.188883781433105" lon="7.384448144584894">
        <ele>1786.75</ele>
        <time>2012-07-07T09:23:26Z</time>
      </trkpt>
      <trkpt lat="46.188680939376354" lon="7.3845359031111">
        <ele>1786.27</ele>
        <time>2012-07-07T09:23:36Z</time>
      </trkpt>
      <trkpt lat="46.188579937443137" lon="7.384512769058347">
        <ele>1787.23</ele>
        <time>2012-07-07T09:23:40Z</time>
      </trkpt>
      <trkpt lat="46.188558395951986" lon="7.384519726037979">
        <ele>1786.75</ele>
        <time>2012-07-07T09:23:41Z</time>
      </trkpt>
      <trkpt lat="46.188533417880535" lon="7.384529868140817">
        <ele>1786.75</ele>
        <time>2012-07-07T09:23:42Z</time>
      </trkpt>
      <trkpt lat="46.188506344333291" lon="7.384545961394906">
        <ele>1786.75</ele>
        <time>2012-07-07T09:23:43Z</time>
      </trkpt>
      <trkpt lat="46.188480108976364" lon="7.384569346904755">
        <ele>1787.23</ele>
        <time>2012-07-07T09:23:44Z</time>
      </trkpt>
      <trkpt lat="46.188454208895564" lon="7.384592816233635">
        <ele>1787.71</ele>
        <time>2012-07-07T09:23:45Z</time>
      </trkpt>
      <trkpt lat="46.188316326588392" lon="7.384692644700408">
        <ele>1790.1099999999999</ele>
        <time>2012-07-07T09:23:49Z</time>
      </trkpt>
      <trkpt lat="46.188183054327965" lon="7.384786689653993">
        <ele>1791.55</ele>
        <time>2012-07-07T09:23:52Z</time>
      </trkpt>
      <trkpt lat="46.188137456774712" lon="7.384808314964175">
        <ele>1791.55</ele>
        <time>2012-07-07T09:23:53Z</time>
      </trkpt>
      <trkpt lat="46.188090518116951" lon="7.384829102084041">
        <ele>1792.03</ele>
        <time>2012-07-07T09:23:54Z</time>
      </trkpt>
      <trkpt lat="46.188043076545" lon="7.384859947487712">
        <ele>1792.03</ele>
        <time>2012-07-07T09:23:55Z</time>
      </trkpt>
      <trkpt lat="46.187999323010445" lon="7.384897414594889">
        <ele>1792.03</ele>
        <time>2012-07-07T09:23:56Z</time>
      </trkpt>
      <trkpt lat="46.187822883948684" lon="7.385069495067">
        <ele>1792.03</ele>
        <time>2012-07-07T09:24:00Z</time>
      </trkpt>
      <trkpt lat="46.187783321365714" lon="7.385120373219252">
        <ele>1791.55</ele>
        <time>2012-07-07T09:24:01Z</time>
      </trkpt>
      <trkpt lat="46.187742920592427" lon="7.385166306048632">
        <ele>1791.55</ele>
        <time>2012-07-07T09:24:02Z</time>
      </trkpt>
      <trkpt lat="46.187636302784085" lon="7.385285999625921">
        <ele>1791.55</ele>
        <time>2012-07-07T09:24:05Z</time>
      </trkpt>
      <trkpt lat="46.187599338591099" lon="7.385326568037272">
        <ele>1791.55</ele>
        <time>2012-07-07T09:24:06Z</time>
      </trkpt>
      <trkpt lat="46.187399094924331" lon="7.385539636015892">
        <ele>1791.0699999999999</ele>
        <time>2012-07-07T09:24:11Z</time>
      </trkpt>
      <trkpt lat="46.187261128798127" lon="7.385657569393516">
        <ele>1789.6300000000001</ele>
        <time>2012-07-07T09:24:14Z</time>
      </trkpt>
      <trkpt lat="46.187217459082603" lon="7.38568170927465">
        <ele>1789.1500000000001</ele>
        <time>2012-07-07T09:24:15Z</time>
      </trkpt>
      <trkpt lat="46.18717378936708" lon="7.385694533586502">
        <ele>1788.6700000000001</ele>
        <time>2012-07-07T09:24:16Z</time>
      </trkpt>
      <trkpt lat="46.187086366117001" lon="7.38569738343358">
        <ele>1787.71</ele>
        <time>2012-07-07T09:24:18Z</time>
      </trkpt>
      <trkpt lat="46.187046971172094" lon="7.385693108662963">
        <ele>1787.71</ele>
        <time>2012-07-07T09:24:19Z</time>
      </trkpt>
      <trkpt lat="46.187009420245886" lon="7.385693360120058">
        <ele>1787.23</ele>
        <time>2012-07-07T09:24:20Z</time>
      </trkpt>
      <trkpt lat="46.186900539323688" lon="7.385772485285997">
        <ele>1786.27</ele>
        <time>2012-07-07T09:24:24Z</time>
      </trkpt>
      <trkpt lat="46.18687522597611" lon="7.385797463357449">
        <ele>1785.79</ele>
        <time>2012-07-07T09:24:25Z</time>
      </trkpt>
      <trkpt lat="46.186849158257246" lon="7.385819926857948">
        <ele>1785.79</ele>
        <time>2012-07-07T09:24:26Z</time>
      </trkpt>
      <trkpt lat="46.186823761090636" lon="7.385844402015209">
        <ele>1785.79</ele>
        <time>2012-07-07T09:24:27Z</time>
      </trkpt>
      <trkpt lat="46.186799118295312" lon="7.385870888829231">
        <ele>1785.79</ele>
        <time>2012-07-07T09:24:28Z</time>
      </trkpt>
      <trkpt lat="46.186776235699654" lon="7.38589427433908">
        <ele>1785.79</ele>
        <time>2012-07-07T09:24:29Z</time>
      </trkpt>
      <trkpt lat="46.186519162729383" lon="7.386195519939065">
        <ele>1786.27</ele>
        <time>2012-07-07T09:24:42Z</time>
      </trkpt>
      <trkpt lat="46.186157483607531" lon="7.386312447488308">
        <ele>1786.27</ele>
        <time>2012-07-07T09:24:58Z</time>
      </trkpt>
      <trkpt lat="46.185906194150448" lon="7.386215385049582">
        <ele>1787.71</ele>
        <time>2012-07-07T09:25:09Z</time>
      </trkpt>
      <trkpt lat="46.185526745393872" lon="7.386121675372124">
        <ele>1791.0699999999999</ele>
        <time>2012-07-07T09:25:25Z</time>
      </trkpt>
      <trkpt lat="46.185224913060665" lon="7.38604431040585">
        <ele>1793.48</ele>
        <time>2012-07-07T09:25:37Z</time>
      </trkpt>
      <trkpt lat="46.184866083785892" lon="7.386064929887652">
        <ele>1794.9200000000001</ele>
        <time>2012-07-07T09:25:49Z</time>
      </trkpt>
      <trkpt lat="46.184658547863364" lon="7.386094098910689">
        <ele>1794.9200000000001</ele>
        <time>2012-07-07T09:25:54Z</time>
      </trkpt>
      <trkpt lat="46.183730671182275" lon="7.386304149404168">
        <ele>1794.4400000000001</ele>
        <time>2012-07-07T09:26:12Z</time>
      </trkpt>
      <trkpt lat="46.183227756991982" lon="7.386294007301331">
        <ele>1796.3599999999999</ele>
        <time>2012-07-07T09:26:22Z</time>
      </trkpt>
      <trkpt lat="46.182575728744268" lon="7.386210272088647">
        <ele>1800.21</ele>
        <time>2012-07-07T09:26:38Z</time>
      </trkpt>
      <trkpt lat="46.182409850880504" lon="7.386187305673957">
        <ele>1800.6900000000001</ele>
        <time>2012-07-07T09:26:42Z</time>
      </trkpt>
      <trkpt lat="46.182367438450456" lon="7.386180097237229">
        <ele>1801.1700000000001</ele>
        <time>2012-07-07T09:26:43Z</time>
      </trkpt>
      <trkpt lat="46.181979943066835" lon="7.386159645393491">
        <ele>1801.6500000000001</ele>
        <time>2012-07-07T09:26:52Z</time>
      </trkpt>
      <trkpt lat="46.181565206497908" lon="7.386284871026874">
        <ele>1797.3199999999999</ele>
        <time>2012-07-07T09:27:01Z</time>
      </trkpt>
      <trkpt lat="46.180846625939012" lon="7.386489976197481">
        <ele>1793.96</ele>
        <time>2012-07-07T09:27:13Z</time>
      </trkpt>
      <trkpt lat="46.180559126660228" lon="7.386538172140718">
        <ele>1793.96</ele>
        <time>2012-07-07T09:27:17Z</time>
      </trkpt>
      <trkpt lat="46.180425267666578" lon="7.386542530730367">
        <ele>1793.48</ele>
        <time>2012-07-07T09:27:19Z</time>
      </trkpt>
      <trkpt lat="46.180361397564411" lon="7.386564826592803">
        <ele>1793.48</ele>
        <time>2012-07-07T09:27:20Z</time>
      </trkpt>
      <trkpt lat="46.180298281833529" lon="7.386584021151066">
        <ele>1793.48</ele>
        <time>2012-07-07T09:27:21Z</time>
      </trkpt>
      <trkpt lat="46.179950097575784" lon="7.386647891253233">
        <ele>1795.4000000000001</ele>
        <time>2012-07-07T09:27:29Z</time>
      </trkpt>
      <trkpt lat="46.179873570799828" lon="7.386614698916674">
        <ele>1797.8</ele>
        <time>2012-07-07T09:27:34Z</time>
      </trkpt>
      <trkpt lat="46.179865440353751" lon="7.386608077213168">
        <ele>1798.76</ele>
        <time>2012-07-07T09:27:35Z</time>
      </trkpt>
      <trkpt lat="46.179788075387478" lon="7.386556109413505">
        <ele>1800.21</ele>
        <time>2012-07-07T09:27:42Z</time>
      </trkpt>
      <trkpt lat="46.179776592180133" lon="7.386552421376109">
        <ele>1800.21</ele>
        <time>2012-07-07T09:27:43Z</time>
      </trkpt>
      <trkpt lat="46.179765611886978" lon="7.386550242081285">
        <ele>1800.6900000000001</ele>
        <time>2012-07-07T09:27:44Z</time>
      </trkpt>
      <trkpt lat="46.179755218327045" lon="7.386544207111001">
        <ele>1800.6900000000001</ele>
        <time>2012-07-07T09:27:45Z</time>
      </trkpt>
      <trkpt lat="46.179743567481637" lon="7.386536998674274">
        <ele>1800.6900000000001</ele>
        <time>2012-07-07T09:27:46Z</time>
      </trkpt>
      <trkpt lat="46.179731581360102" lon="7.38653146661818">
        <ele>1800.6900000000001</ele>
        <time>2012-07-07T09:27:47Z</time>
      </trkpt>
      <trkpt lat="46.179718170315027" lon="7.386523336172104">
        <ele>1800.6900000000001</ele>
        <time>2012-07-07T09:27:48Z</time>
      </trkpt>
      <trkpt lat="46.179477525874972" lon="7.386444713920355">
        <ele>1801.1700000000001</ele>
        <time>2012-07-07T09:28:04Z</time>
      </trkpt>
      <trkpt lat="46.179246604442596" lon="7.386317141354084">
        <ele>1804.05</ele>
        <time>2012-07-07T09:28:18Z</time>
      </trkpt>
      <trkpt lat="46.178978886455297" lon="7.38624363206327">
        <ele>1806.45</ele>
        <time>2012-07-07T09:28:32Z</time>
      </trkpt>
      <trkpt lat="46.17873371578753" lon="7.386142630130053">
        <ele>1809.8199999999999</ele>
        <time>2012-07-07T09:28:46Z</time>
      </trkpt>
      <trkpt lat="46.1783985234797" lon="7.385958731174469">
        <ele>1813.6600000000001</ele>
        <time>2012-07-07T09:29:04Z</time>
      </trkpt>
      <trkpt lat="46.178181516006589" lon="7.38587373867631">
        <ele>1817.51</ele>
        <time>2012-07-07T09:29:20Z</time>
      </trkpt>
      <trkpt lat="46.178091829642653" lon="7.385837780311704">
        <ele>1818.95</ele>
        <time>2012-07-07T09:29:27Z</time>
      </trkpt>
      <trkpt lat="46.177873564884067" lon="7.385752284899354">
        <ele>1821.3499999999999</ele>
        <time>2012-07-07T09:29:43Z</time>
      </trkpt>
      <trkpt lat="46.177773149684072" lon="7.385731330141425">
        <ele>1823.28</ele>
        <time>2012-07-07T09:29:50Z</time>
      </trkpt>
      <trkpt lat="46.177524626255035" lon="7.385802157223225">
        <ele>1825.6800000000001</ele>
        <time>2012-07-07T09:30:08Z</time>
      </trkpt>
      <trkpt lat="46.177423959597945" lon="7.385857561603189">
        <ele>1826.6400000000001</ele>
        <time>2012-07-07T09:30:16Z</time>
      </trkpt>
      <trkpt lat="46.177334189414978" lon="7.385934591293335">
        <ele>1829.05</ele>
        <time>2012-07-07T09:30:24Z</time>
      </trkpt>
      <trkpt lat="46.177185159176588" lon="7.386002400889993">
        <ele>1832.8900000000001</ele>
        <time>2012-07-07T09:30:37Z</time>
      </trkpt>
      <trkpt lat="46.176962284371257" lon="7.385927299037576">
        <ele>1835.29</ele>
        <time>2012-07-07T09:30:54Z</time>
      </trkpt>
      <trkpt lat="46.17677335627377" lon="7.385816909372807">
        <ele>1836.74</ele>
        <time>2012-07-07T09:31:09Z</time>
      </trkpt>
      <trkpt lat="46.176700014621019" lon="7.385758487507701">
        <ele>1837.7</ele>
        <time>2012-07-07T09:31:15Z</time>
      </trkpt>
      <trkpt lat="46.176519216969609" lon="7.385604679584503">
        <ele>1841.0599999999999</ele>
        <time>2012-07-07T09:31:30Z</time>
      </trkpt>
      <trkpt lat="46.176428524777293" lon="7.385528320446611">
        <ele>1842.5</ele>
        <time>2012-07-07T09:31:38Z</time>
      </trkpt>
      <trkpt lat="46.176381083205342" lon="7.385471910238266">
        <ele>1844.4300000000001</ele>
        <time>2012-07-07T09:31:43Z</time>
      </trkpt>
      <trkpt lat="46.176296761259437" lon="7.385404435917735">
        <ele>1845.8699999999999</ele>
        <time>2012-07-07T09:31:51Z</time>
      </trkpt>
      <trkpt lat="46.176206488162279" lon="7.38524341955781">
        <ele>1849.71</ele>
        <time>2012-07-07T09:32:06Z</time>
      </trkpt>
      <trkpt lat="46.176144545897841" lon="7.385070333257318">
        <ele>1854.52</ele>
        <time>2012-07-07T09:32:24Z</time>
      </trkpt>
      <trkpt lat="46.176112778484821" lon="7.38495709374547">
        <ele>1855.96</ele>
        <time>2012-07-07T09:32:34Z</time>
      </trkpt>
      <trkpt lat="46.176054859533906" lon="7.38471083343029">
        <ele>1859.3299999999999</ele>
        <time>2012-07-07T09:32:52Z</time>
      </trkpt>
      <trkpt lat="46.176037676632404" lon="7.384519474580884">
        <ele>1863.1700000000001</ele>
        <time>2012-07-07T09:33:10Z</time>
      </trkpt>
      <trkpt lat="46.176022002473474" lon="7.384437415748835">
        <ele>1864.1300000000001</ele>
        <time>2012-07-07T09:33:27Z</time>
      </trkpt>
      <trkpt lat="46.176024684682488" lon="7.38434873521328">
        <ele>1867.02</ele>
        <time>2012-07-07T09:33:44Z</time>
      </trkpt>
      <trkpt lat="46.17600766941905" lon="7.384210098534823">
        <ele>1870.3800000000001</ele>
        <time>2012-07-07T09:33:58Z</time>
      </trkpt>
      <trkpt lat="46.176017057150602" lon="7.384179336950183">
        <ele>1870.3800000000001</ele>
        <time>2012-07-07T09:34:01Z</time>
      </trkpt>
      <trkpt lat="46.176220737397671" lon="7.384089399129152">
        <ele>1873.27</ele>
        <time>2012-07-07T09:34:15Z</time>
      </trkpt>
      <trkpt lat="46.176529359072447" lon="7.384157963097096">
        <ele>1874.23</ele>
        <time>2012-07-07T09:34:26Z</time>
      </trkpt>
      <trkpt lat="46.176585098728538" lon="7.384169697761536">
        <ele>1873.75</ele>
        <time>2012-07-07T09:34:27Z</time>
      </trkpt>
      <trkpt lat="46.177263865247369" lon="7.38428813405335">
        <ele>1869.4200000000001</ele>
        <time>2012-07-07T09:34:36Z</time>
      </trkpt>
      <trkpt lat="46.177555806934834" lon="7.384392404928803">
        <ele>1865.5799999999999</ele>
        <time>2012-07-07T09:34:40Z</time>
      </trkpt>
      <trkpt lat="46.178574124351144" lon="7.384948879480362">
        <ele>1856.9200000000001</ele>
        <time>2012-07-07T09:34:52Z</time>
      </trkpt>
      <trkpt lat="46.179705178365111" lon="7.385044684633613">
        <ele>1851.6400000000001</ele>
        <time>2012-07-07T09:35:03Z</time>
      </trkpt>
      <trkpt lat="46.180578656494617" lon="7.38498542457819">
        <ele>1851.6400000000001</ele>
        <time>2012-07-07T09:35:13Z</time>
      </trkpt>
      <trkpt lat="46.180692063644528" lon="7.384977797046304">
        <ele>1851.6400000000001</ele>
        <time>2012-07-07T09:35:15Z</time>
      </trkpt>
      <trkpt lat="46.180784264579415" lon="7.384828347712755">
        <ele>1850.1900000000001</ele>
        <time>2012-07-07T09:35:22Z</time>
      </trkpt>
      <trkpt lat="46.180699020624161" lon="7.384819043800235">
        <ele>1850.1900000000001</ele>
        <time>2012-07-07T09:35:25Z</time>
      </trkpt>
      <trkpt lat="46.180600533261895" lon="7.384833628311753">
        <ele>1849.71</ele>
        <time>2012-07-07T09:35:28Z</time>
      </trkpt>
      <trkpt lat="46.180216139182448" lon="7.384797753766179">
        <ele>1849.23</ele>
        <time>2012-07-07T09:35:38Z</time>
      </trkpt>
      <trkpt lat="46.180200548842549" lon="7.384762717410922">
        <ele>1849.23</ele>
        <time>2012-07-07T09:35:39Z</time>
      </trkpt>
      <trkpt lat="46.180197112262249" lon="7.384722148999572">
        <ele>1849.71</ele>
        <time>2012-07-07T09:35:40Z</time>
      </trkpt>
      <trkpt lat="46.180230220779777" lon="7.384460885077715">
        <ele>1850.6800000000001</ele>
        <time>2012-07-07T09:35:47Z</time>
      </trkpt>
      <trkpt lat="46.180251929908991" lon="7.384441774338484">
        <ele>1851.1600000000001</ele>
        <time>2012-07-07T09:35:48Z</time>
      </trkpt>
      <trkpt lat="46.180269531905651" lon="7.384426854550839">
        <ele>1851.1600000000001</ele>
        <time>2012-07-07T09:35:49Z</time>
      </trkpt>
      <trkpt lat="46.180284535512328" lon="7.384415036067367">
        <ele>1851.6400000000001</ele>
        <time>2012-07-07T09:35:50Z</time>
      </trkpt>
      <trkpt lat="46.180305909365416" lon="7.384408665820956">
        <ele>1852.1199999999999</ele>
        <time>2012-07-07T09:35:51Z</time>
      </trkpt>
      <trkpt lat="46.180331390351057" lon="7.384409168735147">
        <ele>1852.1199999999999</ele>
        <time>2012-07-07T09:35:52Z</time>
      </trkpt>
      <trkpt lat="46.180353853851557" lon="7.384410090744495">
        <ele>1853.0799999999999</ele>
        <time>2012-07-07T09:35:53Z</time>
      </trkpt>
      <trkpt lat="46.180377909913659" lon="7.384409252554178">
        <ele>1853.5599999999999</ele>
        <time>2012-07-07T09:35:54Z</time>
      </trkpt>
      <trkpt lat="46.180579662322998" lon="7.384247398003936">
        <ele>1859.3299999999999</ele>
        <time>2012-07-07T09:36:06Z</time>
      </trkpt>
      <trkpt lat="46.180594833567739" lon="7.384230298921466">
        <ele>1859.3299999999999</ele>
        <time>2012-07-07T09:36:07Z</time>
      </trkpt>
      <trkpt lat="46.180607993155718" lon="7.384215211495757">
        <ele>1859.3299999999999</ele>
        <time>2012-07-07T09:36:08Z</time>
      </trkpt>
      <trkpt lat="46.180845703929663" lon="7.384084118530154">
        <ele>1863.6500000000001</ele>
        <time>2012-07-07T09:36:25Z</time>
      </trkpt>
      <trkpt lat="46.180858863517642" lon="7.384079173207283">
        <ele>1863.6500000000001</ele>
        <time>2012-07-07T09:36:26Z</time>
      </trkpt>
      <trkpt lat="46.180872526019812" lon="7.384074395522475">
        <ele>1864.1300000000001</ele>
        <time>2012-07-07T09:36:27Z</time>
      </trkpt>
      <trkpt lat="46.180887026712298" lon="7.384070875123143">
        <ele>1864.1300000000001</ele>
        <time>2012-07-07T09:36:28Z</time>
      </trkpt>
      <trkpt lat="46.180900521576405" lon="7.384066684171557">
        <ele>1864.6099999999999</ele>
        <time>2012-07-07T09:36:29Z</time>
      </trkpt>
      <trkpt lat="46.180915106087923" lon="7.384063834324479">
        <ele>1864.6099999999999</ele>
        <time>2012-07-07T09:36:30Z</time>
      </trkpt>
      <trkpt lat="46.180942179635167" lon="7.384048076346517">
        <ele>1864.6099999999999</ele>
        <time>2012-07-07T09:36:32Z</time>
      </trkpt>
      <trkpt lat="46.180952657014132" lon="7.384037096053362">
        <ele>1864.6099999999999</ele>
        <time>2012-07-07T09:36:33Z</time>
      </trkpt>
      <trkpt lat="46.180965565145016" lon="7.384028295055032">
        <ele>1865.0899999999999</ele>
        <time>2012-07-07T09:36:34Z</time>
      </trkpt>
      <trkpt lat="46.180981155484915" lon="7.384024607017636">
        <ele>1865.0899999999999</ele>
        <time>2012-07-07T09:36:35Z</time>
      </trkpt>
      <trkpt lat="46.180996494367719" lon="7.384022930637002">
        <ele>1865.0899999999999</ele>
        <time>2012-07-07T09:36:36Z</time>
      </trkpt>
      <trkpt lat="46.181012587621808" lon="7.384022092446685">
        <ele>1865.0899999999999</ele>
        <time>2012-07-07T09:36:37Z</time>
      </trkpt>
      <trkpt lat="46.181225320324302" lon="7.384109012782574">
        <ele>1866.54</ele>
        <time>2012-07-07T09:36:49Z</time>
      </trkpt>
      <trkpt lat="46.181441238150001" lon="7.383963419124484">
        <ele>1869.9000000000001</ele>
        <time>2012-07-07T09:37:02Z</time>
      </trkpt>
      <trkpt lat="46.181586077436805" lon="7.383961994200945">
        <ele>1868.46</ele>
        <time>2012-07-07T09:37:08Z</time>
      </trkpt>
      <trkpt lat="46.181624801829457" lon="7.38395637832582">
        <ele>1868.9400000000001</ele>
        <time>2012-07-07T09:37:09Z</time>
      </trkpt>
      <trkpt lat="46.181663861498237" lon="7.383943051099777">
        <ele>1868.46</ele>
        <time>2012-07-07T09:37:10Z</time>
      </trkpt>
      <trkpt lat="46.181704765185714" lon="7.383924778550863">
        <ele>1868.9400000000001</ele>
        <time>2012-07-07T09:37:11Z</time>
      </trkpt>
      <trkpt lat="46.181742064654827" lon="7.383904661983252">
        <ele>1868.9400000000001</ele>
        <time>2012-07-07T09:37:12Z</time>
      </trkpt>
      <trkpt lat="46.181889334693551" lon="7.383855795487762">
        <ele>1868.9400000000001</ele>
        <time>2012-07-07T09:37:16Z</time>
      </trkpt>
      <trkpt lat="46.181991845369339" lon="7.383863003924489">
        <ele>1868.9400000000001</ele>
        <time>2012-07-07T09:37:18Z</time>
      </trkpt>
      <trkpt lat="46.182070048525929" lon="7.38386400975287">
        <ele>1868.9400000000001</ele>
        <time>2012-07-07T09:37:19Z</time>
      </trkpt>
      <trkpt lat="46.182147664949298" lon="7.383846743032336">
        <ele>1869.4200000000001</ele>
        <time>2012-07-07T09:37:20Z</time>
      </trkpt>
      <trkpt lat="46.182728027924895" lon="7.38371062092483">
        <ele>1867.5</ele>
        <time>2012-07-07T09:37:30Z</time>
      </trkpt>
      <trkpt lat="46.183000607416034" lon="7.383615653961897">
        <ele>1868.46</ele>
        <time>2012-07-07T09:37:38Z</time>
      </trkpt>
      <trkpt lat="46.183019047603011" lon="7.383585395291448">
        <ele>1868.9400000000001</ele>
        <time>2012-07-07T09:37:39Z</time>
      </trkpt>
      <trkpt lat="46.183033464476466" lon="7.383551867678762">
        <ele>1868.9400000000001</ele>
        <time>2012-07-07T09:37:40Z</time>
      </trkpt>
      <trkpt lat="46.183044025674462" lon="7.383520854637027">
        <ele>1868.46</ele>
        <time>2012-07-07T09:37:41Z</time>
      </trkpt>
      <trkpt lat="46.183052910491824" lon="7.383497636765242">
        <ele>1868.46</ele>
        <time>2012-07-07T09:37:42Z</time>
      </trkpt>
      <trkpt lat="46.183061292394996" lon="7.383477436378598">
        <ele>1868.46</ele>
        <time>2012-07-07T09:37:43Z</time>
      </trkpt>
      <trkpt lat="46.183146201074123" lon="7.383421193808317">
        <ele>1868.46</ele>
        <time>2012-07-07T09:37:50Z</time>
      </trkpt>
      <trkpt lat="46.18334099650383" lon="7.383464276790619">
        <ele>1870.3800000000001</ele>
        <time>2012-07-07T09:38:00Z</time>
      </trkpt>
      <trkpt lat="46.183365136384964" lon="7.383460672572255">
        <ele>1870.8599999999999</ele>
        <time>2012-07-07T09:38:01Z</time>
      </trkpt>
      <trkpt lat="46.183387767523527" lon="7.383456649258733">
        <ele>1871.3399999999999</ele>
        <time>2012-07-07T09:38:02Z</time>
      </trkpt>
      <trkpt lat="46.183422384783626" lon="7.383443657308817">
        <ele>1871.8199999999999</ele>
        <time>2012-07-07T09:38:04Z</time>
      </trkpt>
      <trkpt lat="46.18342406116426" lon="7.383421948179603">
        <ele>1872.3</ele>
        <time>2012-07-07T09:38:05Z</time>
      </trkpt>
      <trkpt lat="46.183372847735882" lon="7.383404597640038">
        <ele>1871.8199999999999</ele>
        <time>2012-07-07T09:38:07Z</time>
      </trkpt>
      <trkpt lat="46.183335045352578" lon="7.383403088897467">
        <ele>1872.3</ele>
        <time>2012-07-07T09:38:08Z</time>
      </trkpt>
      <trkpt lat="46.183297662064433" lon="7.383403675630689">
        <ele>1871.8199999999999</ele>
        <time>2012-07-07T09:38:09Z</time>
      </trkpt>
      <trkpt lat="46.183259105309844" lon="7.383408369496465">
        <ele>1871.8199999999999</ele>
        <time>2012-07-07T09:38:10Z</time>
      </trkpt>
      <trkpt lat="46.183218620717525" lon="7.38341448828578">
        <ele>1871.8199999999999</ele>
        <time>2012-07-07T09:38:11Z</time>
      </trkpt>
      <trkpt lat="46.183147542178631" lon="7.383382301777601">
        <ele>1870.3800000000001</ele>
        <time>2012-07-07T09:38:18Z</time>
      </trkpt>
      <trkpt lat="46.183153493329883" lon="7.383377943187952">
        <ele>1869.9000000000001</ele>
        <time>2012-07-07T09:38:20Z</time>
      </trkpt>
      <trkpt lat="46.183160366490483" lon="7.383364113047719">
        <ele>1869.9000000000001</ele>
        <time>2012-07-07T09:38:21Z</time>
      </trkpt>
      <trkpt lat="46.183161959052086" lon="7.383343493565917">
        <ele>1869.9000000000001</ele>
        <time>2012-07-07T09:38:22Z</time>
      </trkpt>
      <trkpt lat="46.183207640424371" lon="7.383246850222349">
        <ele>1872.3</ele>
        <time>2012-07-07T09:38:34Z</time>
      </trkpt>
      <trkpt lat="46.183279389515519" lon="7.383154984563589">
        <ele>1874.23</ele>
        <time>2012-07-07T09:38:48Z</time>
      </trkpt>
      <trkpt lat="46.183300847187638" lon="7.383118439465761">
        <ele>1874.23</ele>
        <time>2012-07-07T09:38:52Z</time>
      </trkpt>
      <trkpt lat="46.183317024260759" lon="7.383099915459752">
        <ele>1874.23</ele>
        <time>2012-07-07T09:38:53Z</time>
      </trkpt>
      <trkpt lat="46.18332683108747" lon="7.383080888539553">
        <ele>1874.23</ele>
        <time>2012-07-07T09:38:54Z</time>
      </trkpt>
      <trkpt lat="46.183333285152912" lon="7.383061274886131">
        <ele>1875.1900000000001</ele>
        <time>2012-07-07T09:38:55Z</time>
      </trkpt>
      <trkpt lat="46.1833874322474" lon="7.382925236597657">
        <ele>1879.51</ele>
        <time>2012-07-07T09:39:07Z</time>
      </trkpt>
      <trkpt lat="46.183395814150572" lon="7.3828867636621">
        <ele>1880.48</ele>
        <time>2012-07-07T09:39:10Z</time>
      </trkpt>
      <trkpt lat="46.183439483866096" lon="7.382784504443407">
        <ele>1880.96</ele>
        <time>2012-07-07T09:39:20Z</time>
      </trkpt>
      <trkpt lat="46.183470664545894" lon="7.382679227739573">
        <ele>1881.4400000000001</ele>
        <time>2012-07-07T09:39:28Z</time>
      </trkpt>
      <trkpt lat="46.183471083641052" lon="7.382650729268789">
        <ele>1881.9200000000001</ele>
        <time>2012-07-07T09:39:33Z</time>
      </trkpt>
      <trkpt lat="46.183546101674438" lon="7.382551906630397">
        <ele>1884.3199999999999</ele>
        <time>2012-07-07T09:39:45Z</time>
      </trkpt>
      <trkpt lat="46.183594800531864" lon="7.382486443966627">
        <ele>1883.8399999999999</ele>
        <time>2012-07-07T09:39:51Z</time>
      </trkpt>
      <trkpt lat="46.183651126921177" lon="7.382462974637747">
        <ele>1884.3199999999999</ele>
        <time>2012-07-07T09:39:56Z</time>
      </trkpt>
      <trkpt lat="46.183679373934865" lon="7.382472781464458">
        <ele>1884.3199999999999</ele>
        <time>2012-07-07T09:39:59Z</time>
      </trkpt>
      <trkpt lat="46.183810131624341" lon="7.382435062900186">
        <ele>1887.6900000000001</ele>
        <time>2012-07-07T09:40:08Z</time>
      </trkpt>
      <trkpt lat="46.183980284258723" lon="7.382223168388009">
        <ele>1887.21</ele>
        <time>2012-07-07T09:40:20Z</time>
      </trkpt>
      <trkpt lat="46.184073323383927" lon="7.382149240002036">
        <ele>1889.1300000000001</ele>
        <time>2012-07-07T09:40:27Z</time>
      </trkpt>
      <trkpt lat="46.184181617572904" lon="7.382104145362973">
        <ele>1893.45</ele>
        <time>2012-07-07T09:40:39Z</time>
      </trkpt>
      <trkpt lat="46.184412287548184" lon="7.382048740983009">
        <ele>1899.7</ele>
        <time>2012-07-07T09:40:53Z</time>
      </trkpt>
      <trkpt lat="46.18460850790143" lon="7.381909182295203">
        <ele>1905.95</ele>
        <time>2012-07-07T09:41:03Z</time>
      </trkpt>
      <trkpt lat="46.184816546738148" lon="7.381722433492541">
        <ele>1908.3499999999999</ele>
        <time>2012-07-07T09:41:17Z</time>
      </trkpt>
      <trkpt lat="46.185033386573195" lon="7.381563596427441">
        <ele>1912.2</ele>
        <time>2012-07-07T09:41:32Z</time>
      </trkpt>
      <trkpt lat="46.18523245677352" lon="7.381414901465178">
        <ele>1915.5599999999999</ele>
        <time>2012-07-07T09:41:47Z</time>
      </trkpt>
      <trkpt lat="46.185307558625937" lon="7.381336614489555">
        <ele>1917.01</ele>
        <time>2012-07-07T09:41:54Z</time>
      </trkpt>
      <trkpt lat="46.185355000197887" lon="7.3812444973737">
        <ele>1918.9300000000001</ele>
        <time>2012-07-07T09:42:06Z</time>
      </trkpt>
      <trkpt lat="46.18527939543128" lon="7.381116840988398">
        <ele>1917.49</ele>
        <time>2012-07-07T09:42:38Z</time>
      </trkpt>
      <trkpt lat="46.185251483693719" lon="7.381136789917946">
        <ele>1913.1600000000001</ele>
        <time>2012-07-07T09:43:13Z</time>
      </trkpt>
      <trkpt lat="46.18554568849504" lon="7.381174424663186">
        <ele>1919.8900000000001</ele>
        <time>2012-07-07T09:43:26Z</time>
      </trkpt>
      <trkpt lat="46.185561362653971" lon="7.381106531247497">
        <ele>1920.3699999999999</ele>
        <time>2012-07-07T09:43:30Z</time>
      </trkpt>
      <trkpt lat="46.185561697930098" lon="7.381081720814109">
        <ele>1920.8499999999999</ele>
        <time>2012-07-07T09:43:31Z</time>
      </trkpt>
      <trkpt lat="46.185554824769497" lon="7.381057580932975">
        <ele>1921.3299999999999</ele>
        <time>2012-07-07T09:43:32Z</time>
      </trkpt>
      <trkpt lat="46.185543844476342" lon="7.381039308384061">
        <ele>1921.3299999999999</ele>
        <time>2012-07-07T09:43:33Z</time>
      </trkpt>
      <trkpt lat="46.185530936345458" lon="7.381022963672876">
        <ele>1921.3299999999999</ele>
        <time>2012-07-07T09:43:34Z</time>
      </trkpt>
      <trkpt lat="46.185518112033606" lon="7.381006618961692">
        <ele>1921.8099999999999</ele>
        <time>2012-07-07T09:43:35Z</time>
      </trkpt>
      <trkpt lat="46.185305463150144" lon="7.38087359815836">
        <ele>1925.6600000000001</ele>
        <time>2012-07-07T09:43:48Z</time>
      </trkpt>
      <trkpt lat="46.185014359652996" lon="7.380824312567711">
        <ele>1927.5799999999999</ele>
        <time>2012-07-07T09:44:04Z</time>
      </trkpt>
      <trkpt lat="46.18480883538723" lon="7.380823222920299">
        <ele>1934.3099999999999</ele>
        <time>2012-07-07T09:44:16Z</time>
      </trkpt>
      <trkpt lat="46.1845738068223" lon="7.38082867115736">
        <ele>1933.8299999999999</ele>
        <time>2012-07-07T09:44:30Z</time>
      </trkpt>
      <trkpt lat="46.184276835992932" lon="7.380894972011447">
        <ele>1936.23</ele>
        <time>2012-07-07T09:44:48Z</time>
      </trkpt>
      <trkpt lat="46.184094529598951" lon="7.380647119134665">
        <ele>1935.75</ele>
        <time>2012-07-07T09:45:03Z</time>
      </trkpt>
      <trkpt lat="46.183923119679093" lon="7.380361463874579">
        <ele>1937.1900000000001</ele>
        <time>2012-07-07T09:45:19Z</time>
      </trkpt>
      <trkpt lat="46.183709381148219" lon="7.380033563822508">
        <ele>1938.6400000000001</ele>
        <time>2012-07-07T09:45:37Z</time>
      </trkpt>
      <trkpt lat="46.183486254885793" lon="7.379860980436206">
        <ele>1937.1900000000001</ele>
        <time>2012-07-07T09:45:53Z</time>
      </trkpt>
      <trkpt lat="46.183280311524868" lon="7.379713794216514">
        <ele>1935.75</ele>
        <time>2012-07-07T09:46:07Z</time>
      </trkpt>
      <trkpt lat="46.183006726205349" lon="7.379458649083972">
        <ele>1934.3099999999999</ele>
        <time>2012-07-07T09:46:25Z</time>
      </trkpt>
      <trkpt lat="46.182742528617382" lon="7.379382457584143">
        <ele>1935.27</ele>
        <time>2012-07-07T09:46:40Z</time>
      </trkpt>
      <trkpt lat="46.182446898892522" lon="7.379435766488314">
        <ele>1937.6700000000001</ele>
        <time>2012-07-07T09:46:57Z</time>
      </trkpt>
      <trkpt lat="46.18218052200973" lon="7.379526793956757">
        <ele>1940.5599999999999</ele>
        <time>2012-07-07T09:47:13Z</time>
      </trkpt>
      <trkpt lat="46.181909199804068" lon="7.379618994891644">
        <ele>1942</ele>
        <time>2012-07-07T09:47:29Z</time>
      </trkpt>
      <trkpt lat="46.181670902296901" lon="7.379696695134044">
        <ele>1944.4000000000001</ele>
        <time>2012-07-07T09:47:43Z</time>
      </trkpt>
      <trkpt lat="46.181338727474213" lon="7.379749082028866">
        <ele>1948.73</ele>
        <time>2012-07-07T09:48:03Z</time>
      </trkpt>
      <trkpt lat="46.181068997830153" lon="7.379605583846569">
        <ele>1953.0599999999999</ele>
        <time>2012-07-07T09:48:22Z</time>
      </trkpt>
      <trkpt lat="46.180849811062217" lon="7.379566021263599">
        <ele>1954.98</ele>
        <time>2012-07-07T09:48:36Z</time>
      </trkpt>
      <trkpt lat="46.180601539090276" lon="7.379524782299995">
        <ele>1956.9000000000001</ele>
        <time>2012-07-07T09:48:52Z</time>
      </trkpt>
      <trkpt lat="46.180358463898301" lon="7.379442304372788">
        <ele>1961.23</ele>
        <time>2012-07-07T09:49:08Z</time>
      </trkpt>
      <trkpt lat="46.180122680962086" lon="7.379331914708018">
        <ele>1965.0699999999999</ele>
        <time>2012-07-07T09:49:24Z</time>
      </trkpt>
      <trkpt lat="46.179928053170443" lon="7.379213562235236">
        <ele>1966.03</ele>
        <time>2012-07-07T09:49:38Z</time>
      </trkpt>
      <trkpt lat="46.179722361266613" lon="7.378930756822228">
        <ele>1968.9200000000001</ele>
        <time>2012-07-07T09:49:56Z</time>
      </trkpt>
      <trkpt lat="46.179545670747757" lon="7.378740236163139">
        <ele>1970.8399999999999</ele>
        <time>2012-07-07T09:50:11Z</time>
      </trkpt>
      <trkpt lat="46.179341487586498" lon="7.378547703847289">
        <ele>1973.24</ele>
        <time>2012-07-07T09:50:27Z</time>
      </trkpt>
      <trkpt lat="46.179131437093019" lon="7.378377970308065">
        <ele>1975.1700000000001</ele>
        <time>2012-07-07T09:50:42Z</time>
      </trkpt>
      <trkpt lat="46.178896157070994" lon="7.378262970596552">
        <ele>1976.6099999999999</ele>
        <time>2012-07-07T09:50:55Z</time>
      </trkpt>
      <trkpt lat="46.178655596449971" lon="7.378092985600233">
        <ele>1979.97</ele>
        <time>2012-07-07T09:51:08Z</time>
      </trkpt>
      <trkpt lat="46.178510505706072" lon="7.377845216542482">
        <ele>1982.3800000000001</ele>
        <time>2012-07-07T09:51:20Z</time>
      </trkpt>
      <trkpt lat="46.178334653377533" lon="7.377644637599587">
        <ele>1984.78</ele>
        <time>2012-07-07T09:51:34Z</time>
      </trkpt>
      <trkpt lat="46.178076574578881" lon="7.377404663711786">
        <ele>1988.6199999999999</ele>
        <time>2012-07-07T09:51:52Z</time>
      </trkpt>
      <trkpt lat="46.177738951519132" lon="7.377270553261042">
        <ele>1991.99</ele>
        <time>2012-07-07T09:52:12Z</time>
      </trkpt>
      <trkpt lat="46.177462013438344" lon="7.377166617661715">
        <ele>1994.8699999999999</ele>
        <time>2012-07-07T09:52:28Z</time>
      </trkpt>
      <trkpt lat="46.177258919924498" lon="7.376954555511475">
        <ele>1997.28</ele>
        <time>2012-07-07T09:52:43Z</time>
      </trkpt>
      <trkpt lat="46.177056916058064" lon="7.376597486436367">
        <ele>2002.0799999999999</ele>
        <time>2012-07-07T09:53:02Z</time>
      </trkpt>
      <trkpt lat="46.176803112030029" lon="7.376435967162252">
        <ele>2004.97</ele>
        <time>2012-07-07T09:53:18Z</time>
      </trkpt>
      <trkpt lat="46.176453502848744" lon="7.376394057646394">
        <ele>2006.4100000000001</ele>
        <time>2012-07-07T09:53:36Z</time>
      </trkpt>
      <trkpt lat="46.176433218643069" lon="7.376386765390635">
        <ele>2006.8900000000001</ele>
        <time>2012-07-07T09:53:37Z</time>
      </trkpt>
      <trkpt lat="46.176464818418026" lon="7.376247625797987">
        <ele>2008.3299999999999</ele>
        <time>2012-07-07T09:53:45Z</time>
      </trkpt>
      <trkpt lat="46.176506895571947" lon="7.376260031014681">
        <ele>2008.8099999999999</ele>
        <time>2012-07-07T09:53:47Z</time>
      </trkpt>
      <trkpt lat="46.176827922463417" lon="7.376162298023701">
        <ele>2013.1400000000001</ele>
        <time>2012-07-07T09:54:03Z</time>
      </trkpt>
      <trkpt lat="46.177122546359897" lon="7.376003125682473">
        <ele>2016.5</ele>
        <time>2012-07-07T09:54:19Z</time>
      </trkpt>
      <trkpt lat="46.177379619330168" lon="7.37590229138732">
        <ele>2020.8299999999999</ele>
        <time>2012-07-07T09:54:32Z</time>
      </trkpt>
      <trkpt lat="46.177495624870062" lon="7.375866752117872">
        <ele>2021.79</ele>
        <time>2012-07-07T09:54:38Z</time>
      </trkpt>
      <trkpt lat="46.177841546013951" lon="7.375616133213043">
        <ele>2025.6400000000001</ele>
        <time>2012-07-07T09:54:57Z</time>
      </trkpt>
      <trkpt lat="46.178192915394902" lon="7.375361993908882">
        <ele>2027.0799999999999</ele>
        <time>2012-07-07T09:55:15Z</time>
      </trkpt>
      <trkpt lat="46.178505811840296" lon="7.375347996130586">
        <ele>2029.48</ele>
        <time>2012-07-07T09:55:30Z</time>
      </trkpt>
      <trkpt lat="46.178754754364491" lon="7.375264260917902">
        <ele>2033.3299999999999</ele>
        <time>2012-07-07T09:55:43Z</time>
      </trkpt>
      <trkpt lat="46.178763387724757" lon="7.375235510990024">
        <ele>2033.3299999999999</ele>
        <time>2012-07-07T09:55:44Z</time>
      </trkpt>
      <trkpt lat="46.178767494857311" lon="7.37520600669086">
        <ele>2033.8099999999999</ele>
        <time>2012-07-07T09:55:45Z</time>
      </trkpt>
      <trkpt lat="46.178763723000884" lon="7.37517817877233">
        <ele>2033.8099999999999</ele>
        <time>2012-07-07T09:55:46Z</time>
      </trkpt>
      <trkpt lat="46.178753413259983" lon="7.375152027234435">
        <ele>2034.29</ele>
        <time>2012-07-07T09:55:47Z</time>
      </trkpt>
      <trkpt lat="46.178739415481687" lon="7.375135850161314">
        <ele>2034.29</ele>
        <time>2012-07-07T09:55:48Z</time>
      </trkpt>
      <trkpt lat="46.178724747151136" lon="7.37512394785881">
        <ele>2034.29</ele>
        <time>2012-07-07T09:55:49Z</time>
      </trkpt>
      <trkpt lat="46.178707480430603" lon="7.375111123546958">
        <ele>2034.29</ele>
        <time>2012-07-07T09:55:50Z</time>
      </trkpt>
      <trkpt lat="46.178689626976848" lon="7.375097712501884">
        <ele>2034.29</ele>
        <time>2012-07-07T09:55:51Z</time>
      </trkpt>
      <trkpt lat="46.178405229002237" lon="7.374938540160656">
        <ele>2036.21</ele>
        <time>2012-07-07T09:56:06Z</time>
      </trkpt>
      <trkpt lat="46.178064923733473" lon="7.374808117747307">
        <ele>2040.05</ele>
        <time>2012-07-07T09:56:23Z</time>
      </trkpt>
      <trkpt lat="46.177713386714458" lon="7.374742068350315">
        <ele>2043.9000000000001</ele>
        <time>2012-07-07T09:56:40Z</time>
      </trkpt>
      <trkpt lat="46.177344163879752" lon="7.374696973711252">
        <ele>2048.23</ele>
        <time>2012-07-07T09:56:58Z</time>
      </trkpt>
      <trkpt lat="46.177344582974911" lon="7.374667301774025">
        <ele>2048.71</ele>
        <time>2012-07-07T09:56:59Z</time>
      </trkpt>
      <trkpt lat="46.177352126687765" lon="7.374639138579369">
        <ele>2048.71</ele>
        <time>2012-07-07T09:57:00Z</time>
      </trkpt>
      <trkpt lat="46.177365956827998" lon="7.374617597088218">
        <ele>2049.1900000000001</ele>
        <time>2012-07-07T09:57:01Z</time>
      </trkpt>
      <trkpt lat="46.177382888272405" lon="7.37460209056735">
        <ele>2049.1900000000001</ele>
        <time>2012-07-07T09:57:02Z</time>
      </trkpt>
      <trkpt lat="46.177402585744858" lon="7.37459035590291">
        <ele>2049.6700000000001</ele>
        <time>2012-07-07T09:57:03Z</time>
      </trkpt>
      <trkpt lat="46.177423289045691" lon="7.374583901837468">
        <ele>2049.6700000000001</ele>
        <time>2012-07-07T09:57:04Z</time>
      </trkpt>
      <trkpt lat="46.177446004003286" lon="7.374578285962343">
        <ele>2050.1500000000001</ele>
        <time>2012-07-07T09:57:05Z</time>
      </trkpt>
      <trkpt lat="46.177716907113791" lon="7.374394219368696">
        <ele>2053.9899999999998</ele>
        <time>2012-07-07T09:57:20Z</time>
      </trkpt>
      <trkpt lat="46.178009351715446" lon="7.374202525243163">
        <ele>2057.3600000000001</ele>
        <time>2012-07-07T09:57:36Z</time>
      </trkpt>
      <trkpt lat="46.178311854600906" lon="7.374115604907274">
        <ele>2060.7199999999998</ele>
        <time>2012-07-07T09:57:52Z</time>
      </trkpt>
      <trkpt lat="46.178574627265334" lon="7.37399130128324">
        <ele>2064.5700000000002</ele>
        <time>2012-07-07T09:58:06Z</time>
      </trkpt>
      <trkpt lat="46.178815020248294" lon="7.37376943230629">
        <ele>2068.4099999999999</ele>
        <time>2012-07-07T09:58:19Z</time>
      </trkpt>
      <trkpt lat="46.179089527577162" lon="7.373604224994779">
        <ele>2072.7399999999998</ele>
        <time>2012-07-07T09:58:38Z</time>
      </trkpt>
      <trkpt lat="46.179338973015547" lon="7.373611181974411">
        <ele>2076.0999999999999</ele>
        <time>2012-07-07T09:58:54Z</time>
      </trkpt>
      <trkpt lat="46.179597554728389" lon="7.373500792309642">
        <ele>2078.5100000000002</ele>
        <time>2012-07-07T09:59:10Z</time>
      </trkpt>
      <trkpt lat="46.179772987961769" lon="7.37312545068562">
        <ele>2080.4299999999998</ele>
        <time>2012-07-07T09:59:26Z</time>
      </trkpt>
      <trkpt lat="46.179929561913013" lon="7.372767878696322">
        <ele>2083.79</ele>
        <time>2012-07-07T09:59:41Z</time>
      </trkpt>
      <trkpt lat="46.180131230503321" lon="7.372585739940405">
        <ele>2086.1999999999998</ele>
        <time>2012-07-07T09:59:54Z</time>
      </trkpt>
      <trkpt lat="46.180401463061571" lon="7.372517175972462">
        <ele>2090.04</ele>
        <time>2012-07-07T10:00:10Z</time>
      </trkpt>
      <trkpt lat="46.180534735321999" lon="7.372445343062282">
        <ele>2091.9699999999998</ele>
        <time>2012-07-07T10:00:19Z</time>
      </trkpt>
      <trkpt lat="46.180548816919327" lon="7.372373258695006">
        <ele>2091.9699999999998</ele>
        <time>2012-07-07T10:00:22Z</time>
      </trkpt>
      <trkpt lat="46.18044538423419" lon="7.372217103838921">
        <ele>2094.3699999999999</ele>
        <time>2012-07-07T10:00:31Z</time>
      </trkpt>
      <trkpt lat="46.180181605741382" lon="7.371957935392857">
        <ele>2096.77</ele>
        <time>2012-07-07T10:00:48Z</time>
      </trkpt>
      <trkpt lat="46.179894022643566" lon="7.371691893786192">
        <ele>2099.6599999999999</ele>
        <time>2012-07-07T10:01:03Z</time>
      </trkpt>
      <trkpt lat="46.179832331836224" lon="7.371360054239631">
        <ele>2101.5799999999999</ele>
        <time>2012-07-07T10:01:15Z</time>
      </trkpt>
      <trkpt lat="46.179932747036219" lon="7.371214041486383">
        <ele>2101.5799999999999</ele>
        <time>2012-07-07T10:01:28Z</time>
      </trkpt>
      <trkpt lat="46.179972141981125" lon="7.371166180819273">
        <ele>2101.5799999999999</ele>
        <time>2012-07-07T10:01:32Z</time>
      </trkpt>
      <trkpt lat="46.17998362518847" lon="7.371163247153163">
        <ele>2102.0599999999999</ele>
        <time>2012-07-07T10:01:33Z</time>
      </trkpt>
      <trkpt lat="46.179996784776449" lon="7.371161067858338">
        <ele>2101.5799999999999</ele>
        <time>2012-07-07T10:01:34Z</time>
      </trkpt>
      <trkpt lat="46.180009189993143" lon="7.37116115167737">
        <ele>2101.5799999999999</ele>
        <time>2012-07-07T10:01:35Z</time>
      </trkpt>
      <trkpt lat="46.180022349581122" lon="7.371161403134465">
        <ele>2101.5799999999999</ele>
        <time>2012-07-07T10:01:36Z</time>
      </trkpt>
      <trkpt lat="46.180035676807165" lon="7.371158637106419">
        <ele>2102.0599999999999</ele>
        <time>2012-07-07T10:01:37Z</time>
      </trkpt>
      <trkpt lat="46.180046321824193" lon="7.371154697611928">
        <ele>2102.54</ele>
        <time>2012-07-07T10:01:38Z</time>
      </trkpt>
      <trkpt lat="46.180116645991802" lon="7.37118755467236">
        <ele>2104.9400000000001</ele>
        <time>2012-07-07T10:01:50Z</time>
      </trkpt>
      <trkpt lat="46.180114885792136" lon="7.371236756443977">
        <ele>2106.3899999999999</ele>
        <time>2012-07-07T10:01:57Z</time>
      </trkpt>
      <trkpt lat="46.180104576051235" lon="7.371280677616596">
        <ele>2106.3899999999999</ele>
        <time>2012-07-07T10:02:17Z</time>
      </trkpt>
      <trkpt lat="46.180090913549066" lon="7.371265757828951">
        <ele>2102.54</ele>
        <time>2012-07-07T10:03:03Z</time>
      </trkpt>
      <trkpt lat="46.180105246603489" lon="7.371302135288715">
        <ele>2103.02</ele>
        <time>2012-07-07T10:03:33Z</time>
      </trkpt>
      <trkpt lat="46.180106839165092" lon="7.371284700930119">
        <ele>2103.98</ele>
        <time>2012-07-07T10:04:10Z</time>
      </trkpt>
      <trkpt lat="46.180114550516009" lon="7.3712925799191">
        <ele>2104.9400000000001</ele>
        <time>2012-07-07T10:04:48Z</time>
      </trkpt>
      <trkpt lat="46.18010968901217" lon="7.371290987357497">
        <ele>2104.46</ele>
        <time>2012-07-07T10:05:43Z</time>
      </trkpt>
      <trkpt lat="46.180100468918681" lon="7.371271206066012">
        <ele>2103.5</ele>
        <time>2012-07-07T10:06:19Z</time>
      </trkpt>
      <trkpt lat="46.18012142367661" lon="7.371279923245311">
        <ele>2106.3899999999999</ele>
        <time>2012-07-07T10:06:43Z</time>
      </trkpt>
      <trkpt lat="46.180122513324022" lon="7.371284449473023">
        <ele>2104.9400000000001</ele>
        <time>2012-07-07T10:07:16Z</time>
      </trkpt>
      <trkpt lat="46.180124273523688" lon="7.371288472786546">
        <ele>2104.46</ele>
        <time>2012-07-07T10:07:57Z</time>
      </trkpt>
      <trkpt lat="46.180109772831202" lon="7.371291490271688">
        <ele>2103.5</ele>
        <time>2012-07-07T10:08:35Z</time>
      </trkpt>
      <trkpt lat="46.180111113935709" lon="7.371284952387214">
        <ele>2105.4200000000001</ele>
        <time>2012-07-07T10:09:12Z</time>
      </trkpt>
      <trkpt lat="46.180110024288297" lon="7.371285287663341">
        <ele>2103.98</ele>
        <time>2012-07-07T10:09:41Z</time>
      </trkpt>
      <trkpt lat="46.180118741467595" lon="7.371301967650652">
        <ele>2104.46</ele>
        <time>2012-07-07T10:10:14Z</time>
      </trkpt>
      <trkpt lat="46.180119244381785" lon="7.371311187744141">
        <ele>2105.4200000000001</ele>
        <time>2012-07-07T10:10:54Z</time>
      </trkpt>
      <trkpt lat="46.18011555634439" lon="7.371296100318432">
        <ele>2107.8299999999999</ele>
        <time>2012-07-07T10:11:43Z</time>
      </trkpt>
      <trkpt lat="46.180111281573772" lon="7.371283611282706">
        <ele>2105.9099999999999</ele>
        <time>2012-07-07T10:12:14Z</time>
      </trkpt>
      <trkpt lat="46.180100385099649" lon="7.371276151388884">
        <ele>2103.5</ele>
        <time>2012-07-07T10:12:41Z</time>
      </trkpt>
      <trkpt lat="46.180089404806495" lon="7.37126181833446">
        <ele>2104.46</ele>
        <time>2012-07-07T10:13:09Z</time>
      </trkpt>
      <trkpt lat="46.180108683183789" lon="7.371281096711755">
        <ele>2103.98</ele>
        <time>2012-07-07T10:13:41Z</time>
      </trkpt>
      <trkpt lat="46.180114634335041" lon="7.371282605454326">
        <ele>2105.9099999999999</ele>
        <time>2012-07-07T10:14:19Z</time>
      </trkpt>
      <trkpt lat="46.180106587707996" lon="7.371297776699066">
        <ele>2103.02</ele>
        <time>2012-07-07T10:15:07Z</time>
      </trkpt>
      <trkpt lat="46.180096948519349" lon="7.371276989579201">
        <ele>2103.98</ele>
        <time>2012-07-07T10:15:43Z</time>
      </trkpt>
      <trkpt lat="46.180094350129366" lon="7.371267098933458">
        <ele>2104.9400000000001</ele>
        <time>2012-07-07T10:16:20Z</time>
      </trkpt>
      <trkpt lat="46.180076412856579" lon="7.371237426996231">
        <ele>2103.5</ele>
        <time>2012-07-07T10:16:47Z</time>
      </trkpt>
      <trkpt lat="46.180102396756411" lon="7.371290232986212">
        <ele>2103.98</ele>
        <time>2012-07-07T10:17:26Z</time>
      </trkpt>
      <trkpt lat="46.180110443383455" lon="7.37129794433713">
        <ele>2103.98</ele>
        <time>2012-07-07T10:18:12Z</time>
      </trkpt>
      <trkpt lat="46.180091751739383" lon="7.371293753385544">
        <ele>2104.9400000000001</ele>
        <time>2012-07-07T10:19:00Z</time>
      </trkpt>
      <trkpt lat="46.180105330422521" lon="7.371282270178199">
        <ele>2104.46</ele>
        <time>2012-07-07T10:19:31Z</time>
      </trkpt>
      <trkpt lat="46.180106000974774" lon="7.371291490271688">
        <ele>2103.5</ele>
        <time>2012-07-07T10:20:19Z</time>
      </trkpt>
      <trkpt lat="46.180118154734373" lon="7.371298028156161">
        <ele>2104.46</ele>
        <time>2012-07-07T10:21:09Z</time>
      </trkpt>
      <trkpt lat="46.180120250210166" lon="7.371306829154491">
        <ele>2103.5</ele>
        <time>2012-07-07T10:21:44Z</time>
      </trkpt>
      <trkpt lat="46.180119747295976" lon="7.371309846639633">
        <ele>2103.02</ele>
        <time>2012-07-07T10:22:12Z</time>
      </trkpt>
      <trkpt lat="46.180125027894974" lon="7.371325101703405">
        <ele>2101.5799999999999</ele>
        <time>2012-07-07T10:22:38Z</time>
      </trkpt>
      <trkpt lat="46.180118909105659" lon="7.371299620717764">
        <ele>2102.54</ele>
        <time>2012-07-07T10:23:04Z</time>
      </trkpt>
      <trkpt lat="46.180119579657912" lon="7.371309930458665">
        <ele>2103.98</ele>
        <time>2012-07-07T10:23:37Z</time>
      </trkpt>
      <trkpt lat="46.180123519152403" lon="7.371322503313422">
        <ele>2102.54</ele>
        <time>2012-07-07T10:24:11Z</time>
      </trkpt>
      <trkpt lat="46.180126368999481" lon="7.371325772255659">
        <ele>2103.02</ele>
        <time>2012-07-07T10:24:42Z</time>
      </trkpt>
      <trkpt lat="46.180126201361418" lon="7.371321329846978">
        <ele>2103.5</ele>
        <time>2012-07-07T10:25:09Z</time>
      </trkpt>
      <trkpt lat="46.180111784487963" lon="7.371322503313422">
        <ele>2101.0999999999999</ele>
        <time>2012-07-07T10:25:55Z</time>
      </trkpt>
      <trkpt lat="46.180122932419181" lon="7.371335495263338">
        <ele>2101.5799999999999</ele>
        <time>2012-07-07T10:26:19Z</time>
      </trkpt>
      <trkpt lat="46.180108180269599" lon="7.371286377310753">
        <ele>2102.0599999999999</ele>
        <time>2012-07-07T10:26:58Z</time>
      </trkpt>
      <trkpt lat="46.180099463090301" lon="7.371301548555493">
        <ele>2102.54</ele>
        <time>2012-07-07T10:27:37Z</time>
      </trkpt>
      <trkpt lat="46.180105414241552" lon="7.371297860518098">
        <ele>2103.5</ele>
        <time>2012-07-07T10:28:04Z</time>
      </trkpt>
      <trkpt lat="46.180115640163422" lon="7.371279252693057">
        <ele>2102.0599999999999</ele>
        <time>2012-07-07T10:28:44Z</time>
      </trkpt>
      <trkpt lat="46.180101810023189" lon="7.371275899931788">
        <ele>2103.02</ele>
        <time>2012-07-07T10:29:40Z</time>
      </trkpt>
      <trkpt lat="46.180099798366427" lon="7.371287047863007">
        <ele>2103.5</ele>
        <time>2012-07-07T10:30:17Z</time>
      </trkpt>
      <trkpt lat="46.180121507495642" lon="7.371309846639633">
        <ele>2104.46</ele>
        <time>2012-07-07T10:30:51Z</time>
      </trkpt>
      <trkpt lat="46.180125027894974" lon="7.371316384524107">
        <ele>2104.46</ele>
        <time>2012-07-07T10:31:46Z</time>
      </trkpt>
      <trkpt lat="46.180128464475274" lon="7.371314959600568">
        <ele>2104.46</ele>
        <time>2012-07-07T10:32:34Z</time>
      </trkpt>
      <trkpt lat="46.180129302665591" lon="7.37131898291409">
        <ele>2104.9400000000001</ele>
        <time>2012-07-07T10:32:37Z</time>
      </trkpt>
      <trkpt lat="46.180164674296975" lon="7.371279001235962">
        <ele>2104.9400000000001</ele>
        <time>2012-07-07T10:32:41Z</time>
      </trkpt>
      <trkpt lat="46.180167607963085" lon="7.371237426996231">
        <ele>2104.9400000000001</ele>
        <time>2012-07-07T10:32:44Z</time>
      </trkpt>
      <trkpt lat="46.180082531645894" lon="7.371105831116438">
        <ele>2102.54</ele>
        <time>2012-07-07T10:32:58Z</time>
      </trkpt>
      <trkpt lat="46.180093009024858" lon="7.370941461995244">
        <ele>2102.54</ele>
        <time>2012-07-07T10:33:02Z</time>
      </trkpt>
      <trkpt lat="46.180107090622187" lon="7.37090215086937">
        <ele>2102.54</ele>
        <time>2012-07-07T10:33:03Z</time>
      </trkpt>
      <trkpt lat="46.180121339857578" lon="7.37085772678256">
        <ele>2102.54</ele>
        <time>2012-07-07T10:33:04Z</time>
      </trkpt>
      <trkpt lat="46.18013072758913" lon="7.370810955762863">
        <ele>2102.54</ele>
        <time>2012-07-07T10:33:05Z</time>
      </trkpt>
      <trkpt lat="46.180137516930699" lon="7.370766196399927">
        <ele>2102.54</ele>
        <time>2012-07-07T10:33:06Z</time>
      </trkpt>
      <trkpt lat="46.180146066471934" lon="7.370723113417625">
        <ele>2102.54</ele>
        <time>2012-07-07T10:33:07Z</time>
      </trkpt>
      <trkpt lat="46.180272130295634" lon="7.370397225022316">
        <ele>2104.46</ele>
        <time>2012-07-07T10:33:19Z</time>
      </trkpt>
      <trkpt lat="46.180362403392792" lon="7.370155910030007">
        <ele>2107.3499999999999</ele>
        <time>2012-07-07T10:33:33Z</time>
      </trkpt>
      <trkpt lat="46.180368522182107" lon="7.370109809562564">
        <ele>2107.3499999999999</ele>
        <time>2012-07-07T10:33:35Z</time>
      </trkpt>
      <trkpt lat="46.180368438363075" lon="7.370084999129176">
        <ele>2106.8699999999999</ele>
        <time>2012-07-07T10:33:36Z</time>
      </trkpt>
      <trkpt lat="46.180369947105646" lon="7.37005926668644">
        <ele>2106.8699999999999</ele>
        <time>2012-07-07T10:33:37Z</time>
      </trkpt>
      <trkpt lat="46.18037112057209" lon="7.370031690225005">
        <ele>2107.3499999999999</ele>
        <time>2012-07-07T10:33:38Z</time>
      </trkpt>
      <trkpt lat="46.180371036753058" lon="7.370004197582603">
        <ele>2107.3499999999999</ele>
        <time>2012-07-07T10:33:39Z</time>
      </trkpt>
      <trkpt lat="46.180421998724341" lon="7.369730612263084">
        <ele>2108.79</ele>
        <time>2012-07-07T10:33:49Z</time>
      </trkpt>
      <trkpt lat="46.180445635691285" lon="7.369672358036041">
        <ele>2108.3099999999999</ele>
        <time>2012-07-07T10:33:50Z</time>
      </trkpt>
      <trkpt lat="46.180605981498957" lon="7.369290729984641">
        <ele>2107.8299999999999</ele>
        <time>2012-07-07T10:34:00Z</time>
      </trkpt>
      <trkpt lat="46.18085827678442" lon="7.368751270696521">
        <ele>2109.27</ele>
        <time>2012-07-07T10:34:17Z</time>
      </trkpt>
      <trkpt lat="46.180892642587423" lon="7.368366038426757">
        <ele>2110.71</ele>
        <time>2012-07-07T10:34:29Z</time>
      </trkpt>
      <trkpt lat="46.180863473564386" lon="7.367960019037128">
        <ele>2114.0799999999999</ele>
        <time>2012-07-07T10:34:48Z</time>
      </trkpt>
      <trkpt lat="46.180828688666224" lon="7.36751452088356">
        <ele>2114.0799999999999</ele>
        <time>2012-07-07T10:35:02Z</time>
      </trkpt>
      <trkpt lat="46.180958775803447" lon="7.36710749566555">
        <ele>2113.5999999999999</ele>
        <time>2012-07-07T10:35:14Z</time>
      </trkpt>
      <trkpt lat="46.180979311466217" lon="7.367023173719645">
        <ele>2113.1199999999999</ele>
        <time>2012-07-07T10:35:16Z</time>
      </trkpt>
      <trkpt lat="46.180972019210458" lon="7.366985287517309">
        <ele>2112.6300000000001</ele>
        <time>2012-07-07T10:35:17Z</time>
      </trkpt>
      <trkpt lat="46.180958524346352" lon="7.366962321102619">
        <ele>2112.6300000000001</ele>
        <time>2012-07-07T10:35:18Z</time>
      </trkpt>
      <trkpt lat="46.180923404172063" lon="7.36694865860045">
        <ele>2113.1199999999999</ele>
        <time>2012-07-07T10:35:20Z</time>
      </trkpt>
      <trkpt lat="46.180659122765064" lon="7.366968188434839">
        <ele>2117.4400000000001</ele>
        <time>2012-07-07T10:35:37Z</time>
      </trkpt>
      <trkpt lat="46.180493580177426" lon="7.367006577551365">
        <ele>2121.77</ele>
        <time>2012-07-07T10:35:51Z</time>
      </trkpt>
      <trkpt lat="46.180313033983111" lon="7.367057707160711">
        <ele>2125.1300000000001</ele>
        <time>2012-07-07T10:36:06Z</time>
      </trkpt>
      <trkpt lat="46.180114299058914" lon="7.367155775427818">
        <ele>2128.5</ele>
        <time>2012-07-07T10:36:23Z</time>
      </trkpt>
      <trkpt lat="46.17989863269031" lon="7.367127193138003">
        <ele>2130.4200000000001</ele>
        <time>2012-07-07T10:36:37Z</time>
      </trkpt>
      <trkpt lat="46.179690342396498" lon="7.366910437121987">
        <ele>2131.8600000000001</ele>
        <time>2012-07-07T10:36:50Z</time>
      </trkpt>
      <trkpt lat="46.179677182808518" lon="7.366814380511642">
        <ele>2132.3400000000001</ele>
        <time>2012-07-07T10:36:53Z</time>
      </trkpt>
      <trkpt lat="46.179680954664946" lon="7.366783199831843">
        <ele>2132.3400000000001</ele>
        <time>2012-07-07T10:36:54Z</time>
      </trkpt>
      <trkpt lat="46.179684307426214" lon="7.366752019152045">
        <ele>2132.3400000000001</ele>
        <time>2012-07-07T10:36:55Z</time>
      </trkpt>
      <trkpt lat="46.179686570540071" lon="7.366720670834184">
        <ele>2131.8600000000001</ele>
        <time>2012-07-07T10:36:56Z</time>
      </trkpt>
      <trkpt lat="46.179685229435563" lon="7.366688568145037">
        <ele>2131.8600000000001</ele>
        <time>2012-07-07T10:36:57Z</time>
      </trkpt>
      <trkpt lat="46.179690090939403" lon="7.366663673892617">
        <ele>2131.8600000000001</ele>
        <time>2012-07-07T10:36:58Z</time>
      </trkpt>
      <trkpt lat="46.179701825603843" lon="7.366646490991116">
        <ele>2131.8600000000001</ele>
        <time>2012-07-07T10:36:59Z</time>
      </trkpt>
      <trkpt lat="46.179716410115361" lon="7.366630733013153">
        <ele>2131.8600000000001</ele>
        <time>2012-07-07T10:37:01Z</time>
      </trkpt>
      <trkpt lat="46.179724540561438" lon="7.366624027490616">
        <ele>2131.8600000000001</ele>
        <time>2012-07-07T10:37:02Z</time>
      </trkpt>
      <trkpt lat="46.179738957434893" lon="7.366572394967079">
        <ele>2131.3800000000001</ele>
        <time>2012-07-07T10:37:06Z</time>
      </trkpt>
      <trkpt lat="46.17974272929132" lon="7.366555295884609">
        <ele>2130.9000000000001</ele>
        <time>2012-07-07T10:37:07Z</time>
      </trkpt>
      <trkpt lat="46.179712722077966" lon="7.366163190454245">
        <ele>2128.98</ele>
        <time>2012-07-07T10:37:17Z</time>
      </trkpt>
      <trkpt lat="46.179694198071957" lon="7.365988427773118">
        <ele>2128.5</ele>
        <time>2012-07-07T10:37:20Z</time>
      </trkpt>
      <trkpt lat="46.179693695157766" lon="7.365923719480634">
        <ele>2128.02</ele>
        <time>2012-07-07T10:37:21Z</time>
      </trkpt>
      <trkpt lat="46.179687241092324" lon="7.365855239331722">
        <ele>2128.02</ele>
        <time>2012-07-07T10:37:22Z</time>
      </trkpt>
      <trkpt lat="46.179673494771123" lon="7.365784160792828">
        <ele>2127.5300000000002</ele>
        <time>2012-07-07T10:37:23Z</time>
      </trkpt>
      <trkpt lat="46.179659413173795" lon="7.365712746977806">
        <ele>2127.0500000000002</ele>
        <time>2012-07-07T10:37:24Z</time>
      </trkpt>
      <trkpt lat="46.179649690166116" lon="7.365641668438911">
        <ele>2126.5700000000002</ele>
        <time>2012-07-07T10:37:25Z</time>
      </trkpt>
      <trkpt lat="46.179646588861942" lon="7.365573523566127">
        <ele>2126.0900000000001</ele>
        <time>2012-07-07T10:37:26Z</time>
      </trkpt>
      <trkpt lat="46.179652372375131" lon="7.365512084215879">
        <ele>2125.6100000000001</ele>
        <time>2012-07-07T10:37:27Z</time>
      </trkpt>
      <trkpt lat="46.179671315476298" lon="7.365464055910707">
        <ele>2125.1300000000001</ele>
        <time>2012-07-07T10:37:28Z</time>
      </trkpt>
      <trkpt lat="46.179698640480638" lon="7.365428851917386">
        <ele>2124.6500000000001</ele>
        <time>2012-07-07T10:37:29Z</time>
      </trkpt>
      <trkpt lat="46.179733760654926" lon="7.365409238263965">
        <ele>2124.1700000000001</ele>
        <time>2012-07-07T10:37:30Z</time>
      </trkpt>
      <trkpt lat="46.179773574694991" lon="7.365404041483998">
        <ele>2124.1700000000001</ele>
        <time>2012-07-07T10:37:31Z</time>
      </trkpt>
      <trkpt lat="46.179816070944071" lon="7.365409908816218">
        <ele>2123.6900000000001</ele>
        <time>2012-07-07T10:37:32Z</time>
      </trkpt>
      <trkpt lat="46.179856806993484" lon="7.365418458357453">
        <ele>2123.21</ele>
        <time>2012-07-07T10:37:33Z</time>
      </trkpt>
      <trkpt lat="46.179894777014852" lon="7.365424744784832">
        <ele>2122.73</ele>
        <time>2012-07-07T10:37:34Z</time>
      </trkpt>
      <trkpt lat="46.180038023740053" lon="7.365463050082326">
        <ele>2121.29</ele>
        <time>2012-07-07T10:37:37Z</time>
      </trkpt>
      <trkpt lat="46.180084375664592" lon="7.365492805838585">
        <ele>2120.8099999999999</ele>
        <time>2012-07-07T10:37:38Z</time>
      </trkpt>
      <trkpt lat="46.180129889398813" lon="7.365538151934743">
        <ele>2119.8400000000001</ele>
        <time>2012-07-07T10:37:39Z</time>
      </trkpt>
      <trkpt lat="46.180360559374094" lon="7.365766642615199">
        <ele>2116.48</ele>
        <time>2012-07-07T10:37:43Z</time>
      </trkpt>
      <trkpt lat="46.180423675104976" lon="7.365808803588152">
        <ele>2115.52</ele>
        <time>2012-07-07T10:37:44Z</time>
      </trkpt>
      <trkpt lat="46.180867245420814" lon="7.366144498810172">
        <ele>2108.79</ele>
        <time>2012-07-07T10:37:53Z</time>
      </trkpt>
      <trkpt lat="46.180917369201779" lon="7.366168051958084">
        <ele>2108.3099999999999</ele>
        <time>2012-07-07T10:37:54Z</time>
      </trkpt>
      <trkpt lat="46.180972354486585" lon="7.366176098585129">
        <ele>2107.3499999999999</ele>
        <time>2012-07-07T10:37:55Z</time>
      </trkpt>
      <trkpt lat="46.181098753586411" lon="7.366174254566431">
        <ele>2106.3899999999999</ele>
        <time>2012-07-07T10:37:57Z</time>
      </trkpt>
      <trkpt lat="46.181289944797754" lon="7.366125388070941">
        <ele>2104.46</ele>
        <time>2012-07-07T10:38:00Z</time>
      </trkpt>
      <trkpt lat="46.181335961446166" lon="7.366090184077621">
        <ele>2103.98</ele>
        <time>2012-07-07T10:38:01Z</time>
      </trkpt>
      <trkpt lat="46.181367980316281" lon="7.366037461906672">
        <ele>2103.02</ele>
        <time>2012-07-07T10:38:02Z</time>
      </trkpt>
      <trkpt lat="46.181387845426798" lon="7.365972837433219">
        <ele>2102.0599999999999</ele>
        <time>2012-07-07T10:38:03Z</time>
      </trkpt>
      <trkpt lat="46.181393461301923" lon="7.365897735580802">
        <ele>2101.5799999999999</ele>
        <time>2012-07-07T10:38:04Z</time>
      </trkpt>
      <trkpt lat="46.181383486837149" lon="7.365815341472626">
        <ele>2101.0999999999999</ele>
        <time>2012-07-07T10:38:05Z</time>
      </trkpt>
      <trkpt lat="46.181363789364696" lon="7.365730684250593">
        <ele>2100.1399999999999</ele>
        <time>2012-07-07T10:38:06Z</time>
      </trkpt>
      <trkpt lat="46.181343086063862" lon="7.365640494972467">
        <ele>2099.6599999999999</ele>
        <time>2012-07-07T10:38:07Z</time>
      </trkpt>
      <trkpt lat="46.181285250931978" lon="7.365447375923395">
        <ele>2098.21</ele>
        <time>2012-07-07T10:38:09Z</time>
      </trkpt>
      <trkpt lat="46.181205622851849" lon="7.36523455940187">
        <ele>2096.29</ele>
        <time>2012-07-07T10:38:11Z</time>
      </trkpt>
      <trkpt lat="46.181037146598101" lon="7.364590242505074">
        <ele>2089.5599999999999</ele>
        <time>2012-07-07T10:38:17Z</time>
      </trkpt>
      <trkpt lat="46.181003283709288" lon="7.364508267492056">
        <ele>2088.5999999999999</ele>
        <time>2012-07-07T10:38:18Z</time>
      </trkpt>
      <trkpt lat="46.180951232090592" lon="7.364388573914766">
        <ele>2086.6799999999998</ele>
        <time>2012-07-07T10:38:20Z</time>
      </trkpt>
      <trkpt lat="46.180944107472897" lon="7.364325542002916">
        <ele>2086.1999999999998</ele>
        <time>2012-07-07T10:38:21Z</time>
      </trkpt>
      <trkpt lat="46.180953998118639" lon="7.364258905872703">
        <ele>2085.2399999999998</ele>
        <time>2012-07-07T10:38:22Z</time>
      </trkpt>
      <trkpt lat="46.180980652570724" lon="7.364201908931136">
        <ele>2084.7600000000002</ele>
        <time>2012-07-07T10:38:23Z</time>
      </trkpt>
      <trkpt lat="46.181023316457868" lon="7.3641537129879">
        <ele>2083.79</ele>
        <time>2012-07-07T10:38:24Z</time>
      </trkpt>
      <trkpt lat="46.181081486865878" lon="7.364117419347167">
        <ele>2083.3099999999999</ele>
        <time>2012-07-07T10:38:25Z</time>
      </trkpt>
      <trkpt lat="46.181146949529648" lon="7.364085735753179">
        <ele>2082.8299999999999</ele>
        <time>2012-07-07T10:38:26Z</time>
      </trkpt>
      <trkpt lat="46.181380385532975" lon="7.364020692184568">
        <ele>2080.4299999999998</ele>
        <time>2012-07-07T10:38:29Z</time>
      </trkpt>
      <trkpt lat="46.181472083553672" lon="7.364020021632314">
        <ele>2079.4699999999998</ele>
        <time>2012-07-07T10:38:30Z</time>
      </trkpt>
      <trkpt lat="46.181569648906589" lon="7.364034354686737">
        <ele>2078.5100000000002</ele>
        <time>2012-07-07T10:38:31Z</time>
      </trkpt>
      <trkpt lat="46.181661179289222" lon="7.364057991653681">
        <ele>2077.5500000000002</ele>
        <time>2012-07-07T10:38:32Z</time>
      </trkpt>
      <trkpt lat="46.181739633902907" lon="7.364093279466033">
        <ele>2076.5900000000001</ele>
        <time>2012-07-07T10:38:33Z</time>
      </trkpt>
      <trkpt lat="46.181811802089214" lon="7.364142816513777">
        <ele>2075.6199999999999</ele>
        <time>2012-07-07T10:38:34Z</time>
      </trkpt>
      <trkpt lat="46.181878857314587" lon="7.364211631938815">
        <ele>2075.1399999999999</ele>
        <time>2012-07-07T10:38:35Z</time>
      </trkpt>
      <trkpt lat="46.181937362998724" lon="7.36429494805634">
        <ele>2074.1799999999998</ele>
        <time>2012-07-07T10:38:36Z</time>
      </trkpt>
      <trkpt lat="46.181989246979356" lon="7.364373486489058">
        <ele>2073.2199999999998</ele>
        <time>2012-07-07T10:38:37Z</time>
      </trkpt>
      <trkpt lat="46.182040963321924" lon="7.364439368247986">
        <ele>2072.2600000000002</ele>
        <time>2012-07-07T10:38:38Z</time>
      </trkpt>
      <trkpt lat="46.182099552825093" lon="7.364481445401907">
        <ele>2071.3000000000002</ele>
        <time>2012-07-07T10:38:39Z</time>
      </trkpt>
      <trkpt lat="46.182156968861818" lon="7.364491336047649">
        <ele>2070.8200000000002</ele>
        <time>2012-07-07T10:38:40Z</time>
      </trkpt>
      <trkpt lat="46.182203572243452" lon="7.364464178681374">
        <ele>2069.8600000000001</ele>
        <time>2012-07-07T10:38:41Z</time>
      </trkpt>
      <trkpt lat="46.182229639962316" lon="7.364415060728788">
        <ele>2069.3800000000001</ele>
        <time>2012-07-07T10:38:42Z</time>
      </trkpt>
      <trkpt lat="46.182231651619077" lon="7.364353872835636">
        <ele>2068.8899999999999</ele>
        <time>2012-07-07T10:38:43Z</time>
      </trkpt>
      <trkpt lat="46.182210361585021" lon="7.364286817610264">
        <ele>2068.4099999999999</ele>
        <time>2012-07-07T10:38:44Z</time>
      </trkpt>
      <trkpt lat="46.182170128449798" lon="7.364221438765526">
        <ele>2067.4499999999998</ele>
        <time>2012-07-07T10:38:45Z</time>
      </trkpt>
      <trkpt lat="46.182127380743623" lon="7.364149186760187">
        <ele>2066.9699999999998</ele>
        <time>2012-07-07T10:38:46Z</time>
      </trkpt>
      <trkpt lat="46.182097205892205" lon="7.364061344414949">
        <ele>2066.4899999999998</ele>
        <time>2012-07-07T10:38:47Z</time>
      </trkpt>
      <trkpt lat="46.18208228610456" lon="7.363968892022967">
        <ele>2065.5300000000002</ele>
        <time>2012-07-07T10:38:48Z</time>
      </trkpt>
      <trkpt lat="46.182077508419752" lon="7.363881217315793">
        <ele>2065.0500000000002</ele>
        <time>2012-07-07T10:38:49Z</time>
      </trkpt>
      <trkpt lat="46.182079520076513" lon="7.363798152655363">
        <ele>2064.5700000000002</ele>
        <time>2012-07-07T10:38:50Z</time>
      </trkpt>
      <trkpt lat="46.182089578360319" lon="7.36371885985136">
        <ele>2064.0900000000001</ele>
        <time>2012-07-07T10:38:51Z</time>
      </trkpt>
      <trkpt lat="46.18209988810122" lon="7.363645350560546">
        <ele>2063.6100000000001</ele>
        <time>2012-07-07T10:38:52Z</time>
      </trkpt>
      <trkpt lat="46.18212184868753" lon="7.363443011417985">
        <ele>2062.1700000000001</ele>
        <time>2012-07-07T10:38:55Z</time>
      </trkpt>
      <trkpt lat="46.182119837030768" lon="7.363376375287771">
        <ele>2061.1999999999998</ele>
        <time>2012-07-07T10:38:56Z</time>
      </trkpt>
      <trkpt lat="46.182110114023089" lon="7.363313175737858">
        <ele>2060.7199999999998</ele>
        <time>2012-07-07T10:38:57Z</time>
      </trkpt>
      <trkpt lat="46.182071808725595" lon="7.363181998953223">
        <ele>2059.2800000000002</ele>
        <time>2012-07-07T10:38:59Z</time>
      </trkpt>
      <trkpt lat="46.182040963321924" lon="7.363109327852726">
        <ele>2058.8000000000002</ele>
        <time>2012-07-07T10:39:00Z</time>
      </trkpt>
      <trkpt lat="46.182000227272511" lon="7.363034812733531">
        <ele>2058.3200000000002</ele>
        <time>2012-07-07T10:39:01Z</time>
      </trkpt>
      <trkpt lat="46.181950103491545" lon="7.362958369776607">
        <ele>2057.3600000000001</ele>
        <time>2012-07-07T10:39:02Z</time>
      </trkpt>
      <trkpt lat="46.181891262531281" lon="7.36288477666676">
        <ele>2056.4000000000001</ele>
        <time>2012-07-07T10:39:03Z</time>
      </trkpt>
      <trkpt lat="46.181820351630449" lon="7.362817469984293">
        <ele>2055.9200000000001</ele>
        <time>2012-07-07T10:39:04Z</time>
      </trkpt>
      <trkpt lat="46.181742316111922" lon="7.362758880481124">
        <ele>2054.96</ele>
        <time>2012-07-07T10:39:05Z</time>
      </trkpt>
      <trkpt lat="46.181658916175365" lon="7.362704901024699">
        <ele>2053.9899999999998</ele>
        <time>2012-07-07T10:39:06Z</time>
      </trkpt>
      <trkpt lat="46.181569313630462" lon="7.362657459452748">
        <ele>2053.0300000000002</ele>
        <time>2012-07-07T10:39:07Z</time>
      </trkpt>
      <trkpt lat="46.181476274505258" lon="7.362614460289478">
        <ele>2052.0700000000002</ele>
        <time>2012-07-07T10:39:08Z</time>
      </trkpt>
      <trkpt lat="46.181007558479905" lon="7.362356716766954">
        <ele>2045.3399999999999</ele>
        <time>2012-07-07T10:39:13Z</time>
      </trkpt>
      <trkpt lat="46.180575555190444" lon="7.361985146999359">
        <ele>2039.0899999999999</ele>
        <time>2012-07-07T10:39:19Z</time>
      </trkpt>
      <trkpt lat="46.180504392832518" lon="7.361948685720563">
        <ele>2038.1300000000001</ele>
        <time>2012-07-07T10:39:20Z</time>
      </trkpt>
      <trkpt lat="46.180426189675927" lon="7.36192898824811">
        <ele>2037.1700000000001</ele>
        <time>2012-07-07T10:39:21Z</time>
      </trkpt>
      <trkpt lat="46.180342705920339" lon="7.361925384029746">
        <ele>2036.21</ele>
        <time>2012-07-07T10:39:22Z</time>
      </trkpt>
      <trkpt lat="46.180251678451896" lon="7.361929072067142">
        <ele>2034.77</ele>
        <time>2012-07-07T10:39:23Z</time>
      </trkpt>
      <trkpt lat="46.180154616013169" lon="7.361941561102867">
        <ele>2033.8099999999999</ele>
        <time>2012-07-07T10:39:24Z</time>
      </trkpt>
      <trkpt lat="46.180058224126697" lon="7.361966706812382">
        <ele>2032.3599999999999</ele>
        <time>2012-07-07T10:39:25Z</time>
      </trkpt>
      <trkpt lat="46.179963340982795" lon="7.361987913027406">
        <ele>2031.4000000000001</ele>
        <time>2012-07-07T10:39:26Z</time>
      </trkpt>
      <trkpt lat="46.179761840030551" lon="7.3620003182441">
        <ele>2029</ele>
        <time>2012-07-07T10:39:28Z</time>
      </trkpt>
      <trkpt lat="46.179542317986488" lon="7.361977016553283">
        <ele>2026.5999999999999</ele>
        <time>2012-07-07T10:39:30Z</time>
      </trkpt>
      <trkpt lat="46.179425558075309" lon="7.361947009339929">
        <ele>2025.6400000000001</ele>
        <time>2012-07-07T10:39:31Z</time>
      </trkpt>
      <trkpt lat="46.178700774908066" lon="7.36167979426682">
        <ele>2016.5</ele>
        <time>2012-07-07T10:39:38Z</time>
      </trkpt>
      <trkpt lat="46.17846691980958" lon="7.36162019893527">
        <ele>2013.6199999999999</ele>
        <time>2012-07-07T10:39:41Z</time>
      </trkpt>
      <trkpt lat="46.178392739966512" lon="7.36162019893527">
        <ele>2013.1400000000001</ele>
        <time>2012-07-07T10:39:42Z</time>
      </trkpt>
      <trkpt lat="46.178324511274695" lon="7.361632604151964">
        <ele>2012.1800000000001</ele>
        <time>2012-07-07T10:39:43Z</time>
      </trkpt>
      <trkpt lat="46.178261144086719" lon="7.361650122329593">
        <ele>2011.22</ele>
        <time>2012-07-07T10:39:44Z</time>
      </trkpt>
      <trkpt lat="46.178199537098408" lon="7.361670322716236">
        <ele>2009.77</ele>
        <time>2012-07-07T10:39:45Z</time>
      </trkpt>
      <trkpt lat="46.17809752933681" lon="7.361716674640775">
        <ele>2007.8499999999999</ele>
        <time>2012-07-07T10:39:47Z</time>
      </trkpt>
      <trkpt lat="46.178012788295746" lon="7.361771492287517">
        <ele>2006.8900000000001</ele>
        <time>2012-07-07T10:39:49Z</time>
      </trkpt>
      <trkpt lat="46.177623448893428" lon="7.361920857802033">
        <ele>2009.77</ele>
        <time>2012-07-07T10:40:02Z</time>
      </trkpt>
      <trkpt lat="46.177196307107806" lon="7.36216451972723">
        <ele>2010.73</ele>
        <time>2012-07-07T10:40:18Z</time>
      </trkpt>
      <trkpt lat="46.176875699311495" lon="7.362260743975639">
        <ele>2011.7</ele>
        <time>2012-07-07T10:40:32Z</time>
      </trkpt>
      <trkpt lat="46.176577303558588" lon="7.362237190827727">
        <ele>2013.1400000000001</ele>
        <time>2012-07-07T10:40:47Z</time>
      </trkpt>
      <trkpt lat="46.176321152597666" lon="7.362234173342586">
        <ele>2014.0999999999999</ele>
        <time>2012-07-07T10:41:00Z</time>
      </trkpt>
      <trkpt lat="46.175991240888834" lon="7.362188491970301">
        <ele>2015.54</ele>
        <time>2012-07-07T10:41:17Z</time>
      </trkpt>
      <trkpt lat="46.175656216219068" lon="7.362011466175318">
        <ele>2016.5</ele>
        <time>2012-07-07T10:41:36Z</time>
      </trkpt>
      <trkpt lat="46.175384474918246" lon="7.361916918307543">
        <ele>2017.9400000000001</ele>
        <time>2012-07-07T10:41:52Z</time>
      </trkpt>
      <trkpt lat="46.175141986459494" lon="7.361861849203706">
        <ele>2018.9100000000001</ele>
        <time>2012-07-07T10:42:05Z</time>
      </trkpt>
      <trkpt lat="46.174811236560345" lon="7.361754477024078">
        <ele>2019.8699999999999</ele>
        <time>2012-07-07T10:42:20Z</time>
      </trkpt>
      <trkpt lat="46.174554415047169" lon="7.361813904717565">
        <ele>2021.3099999999999</ele>
        <time>2012-07-07T10:42:34Z</time>
      </trkpt>
      <trkpt lat="46.174316285178065" lon="7.361926389858127">
        <ele>2023.71</ele>
        <time>2012-07-07T10:42:50Z</time>
      </trkpt>
      <trkpt lat="46.174058122560382" lon="7.361933011561632">
        <ele>2025.1500000000001</ele>
        <time>2012-07-07T10:43:06Z</time>
      </trkpt>
      <trkpt lat="46.173826865851879" lon="7.36204675398767">
        <ele>2027.0799999999999</ele>
        <time>2012-07-07T10:43:20Z</time>
      </trkpt>
      <trkpt lat="46.173509862273932" lon="7.361931754276156">
        <ele>2046.78</ele>
        <time>2012-07-07T10:43:34Z</time>
      </trkpt>
      <trkpt lat="46.173493852838874" lon="7.361925048753619">
        <ele>2049.1900000000001</ele>
        <time>2012-07-07T10:43:35Z</time>
      </trkpt>
      <trkpt lat="46.173477089032531" lon="7.361919684335589">
        <ele>2050.6300000000001</ele>
        <time>2012-07-07T10:43:36Z</time>
      </trkpt>
      <trkpt lat="46.173455798998475" lon="7.36191775649786">
        <ele>2051.5900000000001</ele>
        <time>2012-07-07T10:43:37Z</time>
      </trkpt>
      <trkpt lat="46.173434508964419" lon="7.361915912479162">
        <ele>2052.5500000000002</ele>
        <time>2012-07-07T10:43:38Z</time>
      </trkpt>
      <trkpt lat="46.173147093504667" lon="7.361773923039436">
        <ele>2057.3600000000001</ele>
        <time>2012-07-07T10:43:54Z</time>
      </trkpt>
      <trkpt lat="46.172990016639233" lon="7.361519616097212">
        <ele>2060.2399999999998</ele>
        <time>2012-07-07T10:44:07Z</time>
      </trkpt>
      <trkpt lat="46.172778876498342" lon="7.361308811232448">
        <ele>2061.6799999999998</ele>
        <time>2012-07-07T10:44:21Z</time>
      </trkpt>
      <trkpt lat="46.172589780762792" lon="7.361128935590386">
        <ele>2063.6100000000001</ele>
        <time>2012-07-07T10:44:34Z</time>
      </trkpt>
      <trkpt lat="46.17257310077548" lon="7.361120218411088">
        <ele>2064.0900000000001</ele>
        <time>2012-07-07T10:44:35Z</time>
      </trkpt>
      <trkpt lat="46.17255600169301" lon="7.361111752688885">
        <ele>2064.0900000000001</ele>
        <time>2012-07-07T10:44:36Z</time>
      </trkpt>
      <trkpt lat="46.172465728595853" lon="7.36105727031827">
        <ele>2066.4899999999998</ele>
        <time>2012-07-07T10:44:42Z</time>
      </trkpt>
      <trkpt lat="46.172450473532081" lon="7.361054504290223">
        <ele>2066.4899999999998</ele>
        <time>2012-07-07T10:44:43Z</time>
      </trkpt>
      <trkpt lat="46.172435050830245" lon="7.361052241176367">
        <ele>2066.9699999999998</ele>
        <time>2012-07-07T10:44:44Z</time>
      </trkpt>
      <trkpt lat="46.172277722507715" lon="7.361032459884882">
        <ele>2068.8899999999999</ele>
        <time>2012-07-07T10:44:58Z</time>
      </trkpt>
      <trkpt lat="46.172265904024243" lon="7.361035225912929">
        <ele>2066.4899999999998</ele>
        <time>2012-07-07T10:45:25Z</time>
      </trkpt>
      <trkpt lat="46.172339245676994" lon="7.361030951142311">
        <ele>2068.4099999999999</ele>
        <time>2012-07-07T10:46:05Z</time>
      </trkpt>
      <trkpt lat="46.172282919287682" lon="7.361069843173027">
        <ele>2069.8600000000001</ele>
        <time>2012-07-07T10:46:37Z</time>
      </trkpt>
      <trkpt lat="46.172236735001206" lon="7.361042518168688">
        <ele>2070.8200000000002</ele>
        <time>2012-07-07T10:47:02Z</time>
      </trkpt>
      <trkpt lat="46.172106396406889" lon="7.361013600602746">
        <ele>2072.7399999999998</ele>
        <time>2012-07-07T10:47:14Z</time>
      </trkpt>
      <trkpt lat="46.171791320666671" lon="7.361003374680877">
        <ele>2077.0700000000002</ele>
        <time>2012-07-07T10:47:31Z</time>
      </trkpt>
      <trkpt lat="46.171499462798238" lon="7.361057102680206">
        <ele>2078.5100000000002</ele>
        <time>2012-07-07T10:47:45Z</time>
      </trkpt>
      <trkpt lat="46.17121079005301" lon="7.361283162608743">
        <ele>2078.9899999999998</ele>
        <time>2012-07-07T10:48:01Z</time>
      </trkpt>
      <trkpt lat="46.170961344614625" lon="7.361394977197051">
        <ele>2082.3499999999999</ele>
        <time>2012-07-07T10:48:15Z</time>
      </trkpt>
      <trkpt lat="46.170696057379246" lon="7.361434791237116">
        <ele>2083.3099999999999</ele>
        <time>2012-07-07T10:48:29Z</time>
      </trkpt>
      <trkpt lat="46.170382406562567" lon="7.36134217120707">
        <ele>2086.6799999999998</ele>
        <time>2012-07-07T10:48:45Z</time>
      </trkpt>
      <trkpt lat="46.170052830129862" lon="7.361294813454151">
        <ele>2090.04</ele>
        <time>2012-07-07T10:49:02Z</time>
      </trkpt>
      <trkpt lat="46.169733814895153" lon="7.361272936686873">
        <ele>2093.4099999999999</ele>
        <time>2012-07-07T10:49:18Z</time>
      </trkpt>
      <trkpt lat="46.169463163241744" lon="7.361204624176025">
        <ele>2093.8899999999999</ele>
        <time>2012-07-07T10:49:32Z</time>
      </trkpt>
      <trkpt lat="46.169167617335916" lon="7.360973870381713">
        <ele>2098.6999999999998</ele>
        <time>2012-07-07T10:49:49Z</time>
      </trkpt>
      <trkpt lat="46.168904844671488" lon="7.360731046646833">
        <ele>2102.0599999999999</ele>
        <time>2012-07-07T10:50:06Z</time>
      </trkpt>
      <trkpt lat="46.168606951832771" lon="7.360528120771051">
        <ele>2105.9099999999999</ele>
        <time>2012-07-07T10:50:24Z</time>
      </trkpt>
      <trkpt lat="46.168331019580364" lon="7.360316477715969">
        <ele>2110.23</ele>
        <time>2012-07-07T10:50:41Z</time>
      </trkpt>
      <trkpt lat="46.168048046529293" lon="7.360086310654879">
        <ele>2113.1199999999999</ele>
        <time>2012-07-07T10:50:58Z</time>
      </trkpt>
      <trkpt lat="46.167701287195086" lon="7.359996037557721">
        <ele>2115.52</ele>
        <time>2012-07-07T10:51:16Z</time>
      </trkpt>
      <trkpt lat="46.167322089895606" lon="7.359948847442865">
        <ele>2118.4000000000001</ele>
        <time>2012-07-07T10:51:35Z</time>
      </trkpt>
      <trkpt lat="46.167041379958391" lon="7.360033504664898">
        <ele>2119.3600000000001</ele>
        <time>2012-07-07T10:51:50Z</time>
      </trkpt>
      <trkpt lat="46.166826635599136" lon="7.360056806355715">
        <ele>2121.77</ele>
        <time>2012-07-07T10:52:02Z</time>
      </trkpt>
      <trkpt lat="46.166527988389134" lon="7.359945913776755">
        <ele>2125.6100000000001</ele>
        <time>2012-07-07T10:52:19Z</time>
      </trkpt>
      <trkpt lat="46.166255995631218" lon="7.359724715352058">
        <ele>2128.5</ele>
        <time>2012-07-07T10:52:36Z</time>
      </trkpt>
      <trkpt lat="46.165957180783153" lon="7.359405448660255">
        <ele>2131.8600000000001</ele>
        <time>2012-07-07T10:52:56Z</time>
      </trkpt>
      <trkpt lat="46.165730198845267" lon="7.359162960201502">
        <ele>2134.7399999999998</ele>
        <time>2012-07-07T10:53:13Z</time>
      </trkpt>
      <trkpt lat="46.165446974337101" lon="7.359035136178136">
        <ele>2137.6300000000001</ele>
        <time>2012-07-07T10:53:31Z</time>
      </trkpt>
      <trkpt lat="46.165119912475348" lon="7.359023736789823">
        <ele>2140.5100000000002</ele>
        <time>2012-07-07T10:53:49Z</time>
      </trkpt>
      <trkpt lat="46.164847332984209" lon="7.35907394438982">
        <ele>2143.8800000000001</ele>
        <time>2012-07-07T10:54:04Z</time>
      </trkpt>
      <trkpt lat="46.164537202566862" lon="7.359015103429556">
        <ele>2147.7199999999998</ele>
        <time>2012-07-07T10:54:21Z</time>
      </trkpt>
      <trkpt lat="46.164194131270051" lon="7.358858026564121">
        <ele>2151.0900000000001</ele>
        <time>2012-07-07T10:54:40Z</time>
      </trkpt>
      <trkpt lat="46.163865141570568" lon="7.358728358522058">
        <ele>2153.4899999999998</ele>
        <time>2012-07-07T10:54:58Z</time>
      </trkpt>
      <trkpt lat="46.163720050826669" lon="7.358646132051945">
        <ele>2154.9299999999998</ele>
        <time>2012-07-07T10:55:06Z</time>
      </trkpt>
      <trkpt lat="46.163701023906469" lon="7.358638336881995">
        <ele>2154.9299999999998</ele>
        <time>2012-07-07T10:55:07Z</time>
      </trkpt>
      <trkpt lat="46.163684511557221" lon="7.358622997999191">
        <ele>2155.4099999999999</ele>
        <time>2012-07-07T10:55:08Z</time>
      </trkpt>
      <trkpt lat="46.163670681416988" lon="7.35860388725996">
        <ele>2155.4099999999999</ele>
        <time>2012-07-07T10:55:09Z</time>
      </trkpt>
      <trkpt lat="46.163657940924168" lon="7.358584608882666">
        <ele>2155.8899999999999</ele>
        <time>2012-07-07T10:55:10Z</time>
      </trkpt>
      <trkpt lat="46.163507485762239" lon="7.358275903388858">
        <ele>2158.3000000000002</ele>
        <time>2012-07-07T10:55:26Z</time>
      </trkpt>
      <trkpt lat="46.163396593183279" lon="7.3580043297261">
        <ele>2160.6999999999998</ele>
        <time>2012-07-07T10:55:40Z</time>
      </trkpt>
      <trkpt lat="46.1632832698524" lon="7.357771480455995">
        <ele>2162.6199999999999</ele>
        <time>2012-07-07T10:55:53Z</time>
      </trkpt>
      <trkpt lat="46.163229960948229" lon="7.357468223199248">
        <ele>2165.0300000000002</ele>
        <time>2012-07-07T10:56:06Z</time>
      </trkpt>
      <trkpt lat="46.163207748904824" lon="7.357048792764545">
        <ele>2165.5100000000002</ele>
        <time>2012-07-07T10:56:21Z</time>
      </trkpt>
      <trkpt lat="46.163152847439051" lon="7.356494413688779">
        <ele>2166.4699999999998</ele>
        <time>2012-07-07T10:56:38Z</time>
      </trkpt>
      <trkpt lat="46.163143962621689" lon="7.356084287166596">
        <ele>2168.8699999999999</ele>
        <time>2012-07-07T10:56:52Z</time>
      </trkpt>
      <trkpt lat="46.163250748068094" lon="7.355864513665438">
        <ele>2170.3099999999999</ele>
        <time>2012-07-07T10:57:05Z</time>
      </trkpt>
      <trkpt lat="46.163305817171931" lon="7.355772564187646">
        <ele>2172.7199999999998</ele>
        <time>2012-07-07T10:57:12Z</time>
      </trkpt>
      <trkpt lat="46.163331549614668" lon="7.355605512857437">
        <ele>2175.1199999999999</ele>
        <time>2012-07-07T10:57:20Z</time>
      </trkpt>
      <trkpt lat="46.163338338956237" lon="7.355585731565952">
        <ele>2175.1199999999999</ele>
        <time>2012-07-07T10:57:21Z</time>
      </trkpt>
      <trkpt lat="46.163341104984283" lon="7.355564190074801">
        <ele>2175.1199999999999</ele>
        <time>2012-07-07T10:57:22Z</time>
      </trkpt>
      <trkpt lat="46.16336390376091" lon="7.355218436568975">
        <ele>2176.0799999999999</ele>
        <time>2012-07-07T10:57:35Z</time>
      </trkpt>
      <trkpt lat="46.163546210154891" lon="7.354634469375014">
        <ele>2177.52</ele>
        <time>2012-07-07T10:57:49Z</time>
      </trkpt>
      <trkpt lat="46.163720553740859" lon="7.35396190546453">
        <ele>2178.9699999999998</ele>
        <time>2012-07-07T10:58:02Z</time>
      </trkpt>
      <trkpt lat="46.163734048604965" lon="7.35389837063849">
        <ele>2178.48</ele>
        <time>2012-07-07T10:58:03Z</time>
      </trkpt>
      <trkpt lat="46.163755841553211" lon="7.353837937116623">
        <ele>2178.48</ele>
        <time>2012-07-07T10:58:04Z</time>
      </trkpt>
      <trkpt lat="46.16378509439528" lon="7.353783035650849">
        <ele>2178.48</ele>
        <time>2012-07-07T10:58:05Z</time>
      </trkpt>
      <trkpt lat="46.163817951455712" lon="7.353728888556361">
        <ele>2178.48</ele>
        <time>2012-07-07T10:58:06Z</time>
      </trkpt>
      <trkpt lat="46.164148030802608" lon="7.352956999093294">
        <ele>2178</ele>
        <time>2012-07-07T10:58:19Z</time>
      </trkpt>
      <trkpt lat="46.16431868635118" lon="7.352288709953427">
        <ele>2178</ele>
        <time>2012-07-07T10:58:29Z</time>
      </trkpt>
      <trkpt lat="46.164329666644335" lon="7.352212266996503">
        <ele>2178</ele>
        <time>2012-07-07T10:58:30Z</time>
      </trkpt>
      <trkpt lat="46.164336120709777" lon="7.352135740220547">
        <ele>2178</ele>
        <time>2012-07-07T10:58:31Z</time>
      </trkpt>
      <trkpt lat="46.164336120709777" lon="7.352059381082654">
        <ele>2178</ele>
        <time>2012-07-07T10:58:32Z</time>
      </trkpt>
      <trkpt lat="46.16433234885335" lon="7.351982016116381">
        <ele>2178</ele>
        <time>2012-07-07T10:58:33Z</time>
      </trkpt>
      <trkpt lat="46.164331091567874" lon="7.351906411349773">
        <ele>2178.48</ele>
        <time>2012-07-07T10:58:34Z</time>
      </trkpt>
      <trkpt lat="46.164386747404933" lon="7.350786337628961">
        <ele>2178</ele>
        <time>2012-07-07T10:58:49Z</time>
      </trkpt>
      <trkpt lat="46.164392698556185" lon="7.350707212463021">
        <ele>2178.48</ele>
        <time>2012-07-07T10:58:50Z</time>
      </trkpt>
      <trkpt lat="46.16440518759191" lon="7.350316364318132">
        <ele>2178.48</ele>
        <time>2012-07-07T10:58:55Z</time>
      </trkpt>
      <trkpt lat="46.16441834717989" lon="7.35024050809443">
        <ele>2178.9699999999998</ele>
        <time>2012-07-07T10:58:56Z</time>
      </trkpt>
      <trkpt lat="46.164436200633645" lon="7.35016674734652">
        <ele>2178.9699999999998</ele>
        <time>2012-07-07T10:58:57Z</time>
      </trkpt>
      <trkpt lat="46.164458328858018" lon="7.35009491443634">
        <ele>2178.9699999999998</ele>
        <time>2012-07-07T10:58:58Z</time>
      </trkpt>
      <trkpt lat="46.164485402405262" lon="7.350025763735175">
        <ele>2178.9699999999998</ele>
        <time>2012-07-07T10:58:59Z</time>
      </trkpt>
      <trkpt lat="46.164512978866696" lon="7.349957283586264">
        <ele>2179.4499999999998</ele>
        <time>2012-07-07T10:59:00Z</time>
      </trkpt>
      <trkpt lat="46.164538878947496" lon="7.349889557808638">
        <ele>2179.4499999999998</ele>
        <time>2012-07-07T10:59:01Z</time>
      </trkpt>
      <trkpt lat="46.164561426267028" lon="7.349818898364902">
        <ele>2179.4499999999998</ele>
        <time>2012-07-07T10:59:02Z</time>
      </trkpt>
      <trkpt lat="46.164674498140812" lon="7.349329814314842">
        <ele>2178.9699999999998</ele>
        <time>2012-07-07T10:59:08Z</time>
      </trkpt>
      <trkpt lat="46.164678437635303" lon="7.349249264225364">
        <ele>2178.48</ele>
        <time>2012-07-07T10:59:09Z</time>
      </trkpt>
      <trkpt lat="46.164670307189226" lon="7.349175587296486">
        <ele>2178.48</ele>
        <time>2012-07-07T10:59:10Z</time>
      </trkpt>
      <trkpt lat="46.164652369916439" lon="7.349103335291147">
        <ele>2178.9699999999998</ele>
        <time>2012-07-07T10:59:11Z</time>
      </trkpt>
      <trkpt lat="46.164631750434637" lon="7.34903410077095">
        <ele>2178.9699999999998</ele>
        <time>2012-07-07T10:59:12Z</time>
      </trkpt>
      <trkpt lat="46.164606185629964" lon="7.348967464640737">
        <ele>2178.48</ele>
        <time>2012-07-07T10:59:13Z</time>
      </trkpt>
      <trkpt lat="46.164570227265358" lon="7.348906444385648">
        <ele>2178.48</ele>
        <time>2012-07-07T10:59:14Z</time>
      </trkpt>
      <trkpt lat="46.1645283177495" lon="7.348853973671794">
        <ele>2178.48</ele>
        <time>2012-07-07T10:59:15Z</time>
      </trkpt>
      <trkpt lat="46.16433042101562" lon="7.348597822710872">
        <ele>2176.5599999999999</ele>
        <time>2012-07-07T10:59:19Z</time>
      </trkpt>
      <trkpt lat="46.16426638327539" lon="7.348535126075149">
        <ele>2175.5999999999999</ele>
        <time>2012-07-07T10:59:20Z</time>
      </trkpt>
      <trkpt lat="46.164191029965878" lon="7.348484750837088">
        <ele>2174.6399999999999</ele>
        <time>2012-07-07T10:59:21Z</time>
      </trkpt>
      <trkpt lat="46.164107546210289" lon="7.348452061414719">
        <ele>2174.1599999999999</ele>
        <time>2012-07-07T10:59:22Z</time>
      </trkpt>
      <trkpt lat="46.164021547883749" lon="7.348435884341598">
        <ele>2173.1999999999998</ele>
        <time>2012-07-07T10:59:23Z</time>
      </trkpt>
      <trkpt lat="46.163934962823987" lon="7.348426077514887">
        <ele>2172.7199999999998</ele>
        <time>2012-07-07T10:59:24Z</time>
      </trkpt>
      <trkpt lat="46.163353845477104" lon="7.348369164392352">
        <ele>2175.5999999999999</ele>
        <time>2012-07-07T10:59:33Z</time>
      </trkpt>
      <trkpt lat="46.163249909877777" lon="7.348367990925908">
        <ele>2176.5599999999999</ele>
        <time>2012-07-07T10:59:35Z</time>
      </trkpt>
      <trkpt lat="46.163196098059416" lon="7.34836564399302">
        <ele>2176.5599999999999</ele>
        <time>2012-07-07T10:59:36Z</time>
      </trkpt>
      <trkpt lat="46.163010438904166" lon="7.348346868529916">
        <ele>2175.5999999999999</ele>
        <time>2012-07-07T10:59:39Z</time>
      </trkpt>
      <trkpt lat="46.162940114736557" lon="7.348351562395692">
        <ele>2175.1199999999999</ele>
        <time>2012-07-07T10:59:40Z</time>
      </trkpt>
      <trkpt lat="46.162868030369282" lon="7.348365057259798">
        <ele>2175.1199999999999</ele>
        <time>2012-07-07T10:59:41Z</time>
      </trkpt>
      <trkpt lat="46.162793515250087" lon="7.348376624286175">
        <ele>2175.1199999999999</ele>
        <time>2012-07-07T10:59:42Z</time>
      </trkpt>
      <trkpt lat="46.162719000130892" lon="7.348373690620065">
        <ele>2175.1199999999999</ele>
        <time>2012-07-07T10:59:43Z</time>
      </trkpt>
      <trkpt lat="46.162649430334568" lon="7.348352065309882">
        <ele>2175.1199999999999</ele>
        <time>2012-07-07T10:59:44Z</time>
      </trkpt>
      <trkpt lat="46.162583213299513" lon="7.348317112773657">
        <ele>2175.5999999999999</ele>
        <time>2012-07-07T10:59:45Z</time>
      </trkpt>
      <trkpt lat="46.162102092057467" lon="7.348041348159313">
        <ele>2178.48</ele>
        <time>2012-07-07T10:59:53Z</time>
      </trkpt>
      <trkpt lat="46.16181249730289" lon="7.347844457253814">
        <ele>2181.8499999999999</ele>
        <time>2012-07-07T11:00:04Z</time>
      </trkpt>
      <trkpt lat="46.161300279200077" lon="7.347774300724268">
        <ele>2183.29</ele>
        <time>2012-07-07T11:00:22Z</time>
      </trkpt>
      <trkpt lat="46.161178238689899" lon="7.347750496119261">
        <ele>2183.77</ele>
        <time>2012-07-07T11:00:27Z</time>
      </trkpt>
      <trkpt lat="46.161162480711937" lon="7.347734654322267">
        <ele>2184.25</ele>
        <time>2012-07-07T11:00:28Z</time>
      </trkpt>
      <trkpt lat="46.16114848293364" lon="7.347717136144638">
        <ele>2184.25</ele>
        <time>2012-07-07T11:00:29Z</time>
      </trkpt>
      <trkpt lat="46.161140771582723" lon="7.347696432843804">
        <ele>2184.73</ele>
        <time>2012-07-07T11:00:30Z</time>
      </trkpt>
      <trkpt lat="46.161137837916613" lon="7.347671957686544">
        <ele>2184.73</ele>
        <time>2012-07-07T11:00:31Z</time>
      </trkpt>
      <trkpt lat="46.161136496812105" lon="7.347644716501236">
        <ele>2185.21</ele>
        <time>2012-07-07T11:00:32Z</time>
      </trkpt>
      <trkpt lat="46.16113624535501" lon="7.347615379840136">
        <ele>2185.21</ele>
        <time>2012-07-07T11:00:33Z</time>
      </trkpt>
      <trkpt lat="46.161032561212778" lon="7.347325617447496">
        <ele>2188.0999999999999</ele>
        <time>2012-07-07T11:00:47Z</time>
      </trkpt>
      <trkpt lat="46.160756796598434" lon="7.34708740375936">
        <ele>2192.4200000000001</ele>
        <time>2012-07-07T11:01:05Z</time>
      </trkpt>
      <trkpt lat="46.160538028925657" lon="7.346855979412794">
        <ele>2193.8699999999999</ele>
        <time>2012-07-07T11:01:21Z</time>
      </trkpt>
      <trkpt lat="46.160308783873916" lon="7.346588931977749">
        <ele>2196.75</ele>
        <time>2012-07-07T11:01:39Z</time>
      </trkpt>
      <trkpt lat="46.160107031464577" lon="7.346411487087607">
        <ele>2199.6300000000001</ele>
        <time>2012-07-07T11:01:53Z</time>
      </trkpt>
      <trkpt lat="46.159879043698311" lon="7.346156090497971">
        <ele>2202.52</ele>
        <time>2012-07-07T11:02:11Z</time>
      </trkpt>
      <trkpt lat="46.159947942942381" lon="7.345767254009843">
        <ele>2200.1100000000001</ele>
        <time>2012-07-07T11:02:22Z</time>
      </trkpt>
      <trkpt lat="46.159967053681612" lon="7.345693074166775">
        <ele>2199.1500000000001</ele>
        <time>2012-07-07T11:02:23Z</time>
      </trkpt>
      <trkpt lat="46.159981889650226" lon="7.345604309812188">
        <ele>2198.6700000000001</ele>
        <time>2012-07-07T11:02:24Z</time>
      </trkpt>
      <trkpt lat="46.159991612657905" lon="7.345503140240908">
        <ele>2197.23</ele>
        <time>2012-07-07T11:02:25Z</time>
      </trkpt>
      <trkpt lat="46.159994546324015" lon="7.34538990072906">
        <ele>2196.27</ele>
        <time>2012-07-07T11:02:26Z</time>
      </trkpt>
      <trkpt lat="46.159984236583114" lon="7.344902660697699">
        <ele>2191.46</ele>
        <time>2012-07-07T11:02:30Z</time>
      </trkpt>
      <trkpt lat="46.159948697313666" lon="7.344540059566498">
        <ele>2188.0999999999999</ele>
        <time>2012-07-07T11:02:33Z</time>
      </trkpt>
      <trkpt lat="46.159946350380778" lon="7.344409972429276">
        <ele>2187.1399999999999</ele>
        <time>2012-07-07T11:02:34Z</time>
      </trkpt>
      <trkpt lat="46.159935370087624" lon="7.344145523384213">
        <ele>2184.25</ele>
        <time>2012-07-07T11:02:36Z</time>
      </trkpt>
      <trkpt lat="46.159915421158075" lon="7.344020549207926">
        <ele>2183.29</ele>
        <time>2012-07-07T11:02:37Z</time>
      </trkpt>
      <trkpt lat="46.159772258251905" lon="7.343394672498107">
        <ele>2176.5599999999999</ele>
        <time>2012-07-07T11:02:42Z</time>
      </trkpt>
      <trkpt lat="46.159730264917016" lon="7.343286043033004">
        <ele>2175.1199999999999</ele>
        <time>2012-07-07T11:02:43Z</time>
      </trkpt>
      <trkpt lat="46.159681817516685" lon="7.343184286728501">
        <ele>2174.1599999999999</ele>
        <time>2012-07-07T11:02:44Z</time>
      </trkpt>
      <trkpt lat="46.159574864432216" lon="7.342962166294456">
        <ele>2171.27</ele>
        <time>2012-07-07T11:02:47Z</time>
      </trkpt>
      <trkpt lat="46.159561285749078" lon="7.342896116897464">
        <ele>2170.79</ele>
        <time>2012-07-07T11:02:48Z</time>
      </trkpt>
      <trkpt lat="46.15956723690033" lon="7.342831743881106">
        <ele>2170.79</ele>
        <time>2012-07-07T11:02:49Z</time>
      </trkpt>
      <trkpt lat="46.15959313698113" lon="7.342769717797637">
        <ele>2170.3099999999999</ele>
        <time>2012-07-07T11:02:50Z</time>
      </trkpt>
      <trkpt lat="46.159623563289642" lon="7.342697130516172">
        <ele>2169.8299999999999</ele>
        <time>2012-07-07T11:02:51Z</time>
      </trkpt>
      <trkpt lat="46.159648289903998" lon="7.342604091390967">
        <ele>2169.3499999999999</ele>
        <time>2012-07-07T11:02:52Z</time>
      </trkpt>
      <trkpt lat="46.159665053710341" lon="7.342495881021023">
        <ele>2168.8699999999999</ele>
        <time>2012-07-07T11:02:53Z</time>
      </trkpt>
      <trkpt lat="46.159675782546401" lon="7.342383898794651">
        <ele>2167.9099999999999</ele>
        <time>2012-07-07T11:02:54Z</time>
      </trkpt>
      <trkpt lat="46.159708723425865" lon="7.342074606567621">
        <ele>2168.3899999999999</ele>
        <time>2012-07-07T11:02:57Z</time>
      </trkpt>
      <trkpt lat="46.159610319882631" lon="7.341842679306865">
        <ele>2169.8299999999999</ele>
        <time>2012-07-07T11:03:01Z</time>
      </trkpt>
      <trkpt lat="46.159246964380145" lon="7.341495668515563">
        <ele>2174.6399999999999</ele>
        <time>2012-07-07T11:03:16Z</time>
      </trkpt>
      <trkpt lat="46.158922165632248" lon="7.341322582215071">
        <ele>2178</ele>
        <time>2012-07-07T11:03:29Z</time>
      </trkpt>
      <trkpt lat="46.158635253086686" lon="7.341334903612733">
        <ele>2181.3699999999999</ele>
        <time>2012-07-07T11:03:44Z</time>
      </trkpt>
      <trkpt lat="46.158527294173837" lon="7.341354936361313">
        <ele>2182.3299999999999</ele>
        <time>2012-07-07T11:03:54Z</time>
      </trkpt>
      <trkpt lat="46.158193526789546" lon="7.341401036828756">
        <ele>2186.1799999999998</ele>
        <time>2012-07-07T11:04:11Z</time>
      </trkpt>
      <trkpt lat="46.157842157408595" lon="7.341295424848795">
        <ele>2188.0999999999999</ele>
        <time>2012-07-07T11:04:28Z</time>
      </trkpt>
      <trkpt lat="46.157526914030313" lon="7.340925196185708">
        <ele>2192.4200000000001</ele>
        <time>2012-07-07T11:04:45Z</time>
      </trkpt>
      <trkpt lat="46.157248970121145" lon="7.340507190674543">
        <ele>2194.8299999999999</ele>
        <time>2012-07-07T11:05:02Z</time>
      </trkpt>
      <trkpt lat="46.157039338722825" lon="7.340166382491589">
        <ele>2199.1500000000001</ele>
        <time>2012-07-07T11:05:16Z</time>
      </trkpt>
      <trkpt lat="46.15692526102066" lon="7.339646285399795">
        <ele>2202.04</ele>
        <time>2012-07-07T11:05:32Z</time>
      </trkpt>
      <trkpt lat="46.156825935468078" lon="7.339111687615514">
        <ele>2203.48</ele>
        <time>2012-07-07T11:05:49Z</time>
      </trkpt>
      <trkpt lat="46.156715545803308" lon="7.338862409815192">
        <ele>2204.9200000000001</ele>
        <time>2012-07-07T11:05:58Z</time>
      </trkpt>
      <trkpt lat="46.15658369846642" lon="7.338484218344092">
        <ele>2207.3200000000002</ele>
        <time>2012-07-07T11:06:13Z</time>
      </trkpt>
      <trkpt lat="46.156421760097146" lon="7.33837952837348">
        <ele>2210.21</ele>
        <time>2012-07-07T11:06:26Z</time>
      </trkpt>
      <trkpt lat="46.156373061239719" lon="7.338734082877636">
        <ele>2211.6500000000001</ele>
        <time>2012-07-07T11:06:41Z</time>
      </trkpt>
      <trkpt lat="46.156370546668768" lon="7.338758809491992">
        <ele>2211.6500000000001</ele>
        <time>2012-07-07T11:06:42Z</time>
      </trkpt>
      <trkpt lat="46.156372642144561" lon="7.338806921616197">
        <ele>2211.6500000000001</ele>
        <time>2012-07-07T11:06:44Z</time>
      </trkpt>
      <trkpt lat="46.15641949698329" lon="7.339098863303661">
        <ele>2214.0500000000002</ele>
        <time>2012-07-07T11:06:57Z</time>
      </trkpt>
      <trkpt lat="46.156381694599986" lon="7.339223334565759">
        <ele>2214.5300000000002</ele>
        <time>2012-07-07T11:07:03Z</time>
      </trkpt>
      <trkpt lat="46.156308772042394" lon="7.339661959558725">
        <ele>2216.9400000000001</ele>
        <time>2012-07-07T11:07:21Z</time>
      </trkpt>
      <trkpt lat="46.156375324353576" lon="7.340007713064551">
        <ele>2219.3400000000001</ele>
        <time>2012-07-07T11:07:36Z</time>
      </trkpt>
      <trkpt lat="46.156390579417348" lon="7.340317759662867">
        <ele>2219.3400000000001</ele>
        <time>2012-07-07T11:07:48Z</time>
      </trkpt>
      <trkpt lat="46.156374486163259" lon="7.340385066345334">
        <ele>2219.8200000000002</ele>
        <time>2012-07-07T11:07:51Z</time>
      </trkpt>
      <trkpt lat="46.156319165602326" lon="7.340400908142328">
        <ele>2220.7800000000002</ele>
        <time>2012-07-07T11:07:55Z</time>
      </trkpt>
      <trkpt lat="46.156278513371944" lon="7.340332176536322">
        <ele>2221.7399999999998</ele>
        <time>2012-07-07T11:07:59Z</time>
      </trkpt>
      <trkpt lat="46.15610827691853" lon="7.33991576358676">
        <ele>2226.0700000000002</ele>
        <time>2012-07-07T11:08:19Z</time>
      </trkpt>
      <trkpt lat="46.15596947260201" lon="7.339664474129677">
        <ele>2229.9200000000001</ele>
        <time>2012-07-07T11:08:32Z</time>
      </trkpt>
      <trkpt lat="46.155808120965958" lon="7.339427014812827">
        <ele>2232.3200000000002</ele>
        <time>2012-07-07T11:08:47Z</time>
      </trkpt>
      <trkpt lat="46.155796805396676" lon="7.33932944945991">
        <ele>2231.3600000000001</ele>
        <time>2012-07-07T11:08:51Z</time>
      </trkpt>
      <trkpt lat="46.155835445970297" lon="7.339082434773445">
        <ele>2230.8800000000001</ele>
        <time>2012-07-07T11:08:57Z</time>
      </trkpt>
      <trkpt lat="46.155808204784989" lon="7.33901085332036">
        <ele>2230.8800000000001</ele>
        <time>2012-07-07T11:08:59Z</time>
      </trkpt>
      <trkpt lat="46.155614415183663" lon="7.3386116232723">
        <ele>2230.8800000000001</ele>
        <time>2012-07-07T11:09:12Z</time>
      </trkpt>
      <trkpt lat="46.155399587005377" lon="7.338560996577144">
        <ele>2234.2399999999998</ele>
        <time>2012-07-07T11:09:24Z</time>
      </trkpt>
      <trkpt lat="46.155345188453794" lon="7.338580274954438">
        <ele>2236.1599999999999</ele>
        <time>2012-07-07T11:09:28Z</time>
      </trkpt>
      <trkpt lat="46.155201103538275" lon="7.338371649384499">
        <ele>2240.4899999999998</ele>
        <time>2012-07-07T11:09:44Z</time>
      </trkpt>
      <trkpt lat="46.155014270916581" lon="7.338181464001536">
        <ele>2243.3699999999999</ele>
        <time>2012-07-07T11:10:01Z</time>
      </trkpt>
      <trkpt lat="46.154778404161334" lon="7.338129077106714">
        <ele>2247.2199999999998</ele>
        <time>2012-07-07T11:10:19Z</time>
      </trkpt>
      <trkpt lat="46.154521331191063" lon="7.33809957280755">
        <ele>2251.54</ele>
        <time>2012-07-07T11:10:38Z</time>
      </trkpt>
      <trkpt lat="46.154315723106265" lon="7.338173752650619">
        <ele>2253.9499999999998</ele>
        <time>2012-07-07T11:10:53Z</time>
      </trkpt>
      <trkpt lat="46.15433894097805" lon="7.338497964665294">
        <ele>2257.79</ele>
        <time>2012-07-07T11:11:09Z</time>
      </trkpt>
      <trkpt lat="46.154346987605095" lon="7.338578682392836">
        <ele>2259.2399999999998</ele>
        <time>2012-07-07T11:11:13Z</time>
      </trkpt>
      <trkpt lat="46.154344892129302" lon="7.338862828910351">
        <ele>2260.6799999999998</ele>
        <time>2012-07-07T11:11:27Z</time>
      </trkpt>
      <trkpt lat="46.154341120272875" lon="7.338884873315692">
        <ele>2261.1599999999999</ele>
        <time>2012-07-07T11:11:28Z</time>
      </trkpt>
      <trkpt lat="46.154257049784064" lon="7.339344369247556">
        <ele>2263.0799999999999</ele>
        <time>2012-07-07T11:11:46Z</time>
      </trkpt>
      <trkpt lat="46.154091255739331" lon="7.339667910709977">
        <ele>2266.4499999999998</ele>
        <time>2012-07-07T11:12:03Z</time>
      </trkpt>
      <trkpt lat="46.153881959617138" lon="7.339780731126666">
        <ele>2269.8099999999999</ele>
        <time>2012-07-07T11:12:18Z</time>
      </trkpt>
      <trkpt lat="46.153606195002794" lon="7.339939149096608">
        <ele>2275.0999999999999</ele>
        <time>2012-07-07T11:12:37Z</time>
      </trkpt>
      <trkpt lat="46.153490357100964" lon="7.340050376951695">
        <ele>2277.02</ele>
        <time>2012-07-07T11:12:46Z</time>
      </trkpt>
      <trkpt lat="46.153476862236857" lon="7.340059345588088">
        <ele>2277.02</ele>
        <time>2012-07-07T11:12:47Z</time>
      </trkpt>
      <trkpt lat="46.153461104258895" lon="7.340070409700275">
        <ele>2276.54</ele>
        <time>2012-07-07T11:12:48Z</time>
      </trkpt>
      <trkpt lat="46.153439311310649" lon="7.340081641450524">
        <ele>2276.54</ele>
        <time>2012-07-07T11:12:49Z</time>
      </trkpt>
      <trkpt lat="46.153416344895959" lon="7.340088933706284">
        <ele>2276.54</ele>
        <time>2012-07-07T11:12:50Z</time>
      </trkpt>
      <trkpt lat="46.153388936072588" lon="7.340092454105616">
        <ele>2276.0599999999999</ele>
        <time>2012-07-07T11:12:51Z</time>
      </trkpt>
      <trkpt lat="46.153355659916997" lon="7.340096728876233">
        <ele>2276.0599999999999</ele>
        <time>2012-07-07T11:12:52Z</time>
      </trkpt>
      <trkpt lat="46.153317773714662" lon="7.340100919827819">
        <ele>2275.5799999999999</ele>
        <time>2012-07-07T11:12:53Z</time>
      </trkpt>
      <trkpt lat="46.153276534751058" lon="7.34010586515069">
        <ele>2275.5799999999999</ele>
        <time>2012-07-07T11:12:54Z</time>
      </trkpt>
      <trkpt lat="46.153232362121344" lon="7.34011466614902">
        <ele>2275.0999999999999</ele>
        <time>2012-07-07T11:12:55Z</time>
      </trkpt>
      <trkpt lat="46.153137311339378" lon="7.340135285630822">
        <ele>2274.1399999999999</ele>
        <time>2012-07-07T11:12:57Z</time>
      </trkpt>
      <trkpt lat="46.153084170073271" lon="7.340142074972391">
        <ele>2273.6599999999999</ele>
        <time>2012-07-07T11:12:58Z</time>
      </trkpt>
      <trkpt lat="46.153025748208165" lon="7.340155066922307">
        <ele>2273.1700000000001</ele>
        <time>2012-07-07T11:12:59Z</time>
      </trkpt>
      <trkpt lat="46.152965314686298" lon="7.340173926204443">
        <ele>2272.6900000000001</ele>
        <time>2012-07-07T11:13:00Z</time>
      </trkpt>
      <trkpt lat="46.152901193127036" lon="7.340198568999767">
        <ele>2272.21</ele>
        <time>2012-07-07T11:13:01Z</time>
      </trkpt>
      <trkpt lat="46.152757108211517" lon="7.340248441323638">
        <ele>2271.25</ele>
        <time>2012-07-07T11:13:03Z</time>
      </trkpt>
      <trkpt lat="46.152677815407515" lon="7.340258248150349">
        <ele>2270.29</ele>
        <time>2012-07-07T11:13:04Z</time>
      </trkpt>
      <trkpt lat="46.152419233694673" lon="7.340259421616793">
        <ele>2267.4099999999999</ele>
        <time>2012-07-07T11:13:07Z</time>
      </trkpt>
      <trkpt lat="46.152327368035913" lon="7.340279873460531">
        <ele>2266.4499999999998</ele>
        <time>2012-07-07T11:13:08Z</time>
      </trkpt>
      <trkpt lat="46.152038862928748" lon="7.340359082445502">
        <ele>2264.52</ele>
        <time>2012-07-07T11:13:11Z</time>
      </trkpt>
      <trkpt lat="46.151945237070322" lon="7.3403609264642">
        <ele>2264.04</ele>
        <time>2012-07-07T11:13:12Z</time>
      </trkpt>
      <trkpt lat="46.151852868497372" lon="7.340347012504935">
        <ele>2263.0799999999999</ele>
        <time>2012-07-07T11:13:13Z</time>
      </trkpt>
      <trkpt lat="46.151761589571834" lon="7.340316502377391">
        <ele>2262.5999999999999</ele>
        <time>2012-07-07T11:13:14Z</time>
      </trkpt>
      <trkpt lat="46.151672825217247" lon="7.340274509042501">
        <ele>2262.1199999999999</ele>
        <time>2012-07-07T11:13:15Z</time>
      </trkpt>
      <trkpt lat="46.151583809405565" lon="7.340229330584407">
        <ele>2261.6399999999999</ele>
        <time>2012-07-07T11:13:16Z</time>
      </trkpt>
      <trkpt lat="46.151492446660995" lon="7.34018943272531">
        <ele>2260.6799999999998</ele>
        <time>2012-07-07T11:13:17Z</time>
      </trkpt>
      <trkpt lat="46.150787612423301" lon="7.339964043349028">
        <ele>2254.9099999999999</ele>
        <time>2012-07-07T11:13:25Z</time>
      </trkpt>
      <trkpt lat="46.149765606969595" lon="7.340026069432497">
        <ele>2245.3000000000002</ele>
        <time>2012-07-07T11:13:36Z</time>
      </trkpt>
      <trkpt lat="46.148846028372645" lon="7.339751143008471">
        <ele>2236.6399999999999</ele>
        <time>2012-07-07T11:13:46Z</time>
      </trkpt>
      <trkpt lat="46.148611418902874" lon="7.339658355340362">
        <ele>2234.2399999999998</ele>
        <time>2012-07-07T11:13:49Z</time>
      </trkpt>
      <trkpt lat="46.148533131927252" lon="7.339610997587442">
        <ele>2233.7600000000002</ele>
        <time>2012-07-07T11:13:50Z</time>
      </trkpt>
      <trkpt lat="46.148043964058161" lon="7.339207576587796">
        <ele>2228.4699999999998</ele>
        <time>2012-07-07T11:13:56Z</time>
      </trkpt>
      <trkpt lat="46.14795008674264" lon="7.339160637930036">
        <ele>2227.9899999999998</ele>
        <time>2012-07-07T11:13:57Z</time>
      </trkpt>
      <trkpt lat="46.147606763988733" lon="7.338988725095987">
        <ele>2224.6300000000001</ele>
        <time>2012-07-07T11:14:01Z</time>
      </trkpt>
      <trkpt lat="46.147536942735314" lon="7.338931644335389">
        <ele>2224.1500000000001</ele>
        <time>2012-07-07T11:14:02Z</time>
      </trkpt>
      <trkpt lat="46.147314738482237" lon="7.338728718459606">
        <ele>2221.7399999999998</ele>
        <time>2012-07-07T11:14:05Z</time>
      </trkpt>
      <trkpt lat="46.146990191191435" lon="7.338457815349102">
        <ele>2218.8600000000001</ele>
        <time>2012-07-07T11:14:09Z</time>
      </trkpt>
      <trkpt lat="46.146857505664229" lon="7.338309623301029">
        <ele>2217.9000000000001</ele>
        <time>2012-07-07T11:14:11Z</time>
      </trkpt>
      <trkpt lat="46.146787097677588" lon="7.338254638016224">
        <ele>2216.9400000000001</ele>
        <time>2012-07-07T11:14:12Z</time>
      </trkpt>
      <trkpt lat="46.14670897834003" lon="7.338216667994857">
        <ele>2216.46</ele>
        <time>2012-07-07T11:14:13Z</time>
      </trkpt>
      <trkpt lat="46.146391304209828" lon="7.338134022429586">
        <ele>2214.5300000000002</ele>
        <time>2012-07-07T11:14:17Z</time>
      </trkpt>
      <trkpt lat="46.146323494613171" lon="7.33816210180521">
        <ele>2214.0500000000002</ele>
        <time>2012-07-07T11:14:18Z</time>
      </trkpt>
      <trkpt lat="46.146263899281621" lon="7.338226223364472">
        <ele>2213.5700000000002</ele>
        <time>2012-07-07T11:14:19Z</time>
      </trkpt>
      <trkpt lat="46.146216038614511" lon="7.338315490633249">
        <ele>2212.6100000000001</ele>
        <time>2012-07-07T11:14:20Z</time>
      </trkpt>
      <trkpt lat="46.146172536537051" lon="7.338407440111041">
        <ele>2212.1300000000001</ele>
        <time>2012-07-07T11:14:21Z</time>
      </trkpt>
      <trkpt lat="46.146125597879291" lon="7.338487319648266">
        <ele>2211.6500000000001</ele>
        <time>2012-07-07T11:14:22Z</time>
      </trkpt>
      <trkpt lat="46.146078072488308" lon="7.338551944121718">
        <ele>2211.1700000000001</ele>
        <time>2012-07-07T11:14:23Z</time>
      </trkpt>
      <trkpt lat="46.146027697250247" lon="7.338593099266291">
        <ele>2211.1700000000001</ele>
        <time>2012-07-07T11:14:24Z</time>
      </trkpt>
      <trkpt lat="46.145977489650249" lon="7.338598882779479">
        <ele>2210.6900000000001</ele>
        <time>2012-07-07T11:14:25Z</time>
      </trkpt>
      <trkpt lat="46.145933400839567" lon="7.33857105486095">
        <ele>2210.6900000000001</ele>
        <time>2012-07-07T11:14:26Z</time>
      </trkpt>
      <trkpt lat="46.145900879055262" lon="7.338516740128398">
        <ele>2210.21</ele>
        <time>2012-07-07T11:14:27Z</time>
      </trkpt>
      <trkpt lat="46.14587833173573" lon="7.338448511436582">
        <ele>2209.73</ele>
        <time>2012-07-07T11:14:28Z</time>
      </trkpt>
      <trkpt lat="46.145857376977801" lon="7.338371900841594">
        <ele>2209.25</ele>
        <time>2012-07-07T11:14:29Z</time>
      </trkpt>
      <trkpt lat="46.145828627049923" lon="7.338291937485337">
        <ele>2208.77</ele>
        <time>2012-07-07T11:14:30Z</time>
      </trkpt>
      <trkpt lat="46.14575226791203" lon="7.338126813992858">
        <ele>2207.3200000000002</ele>
        <time>2012-07-07T11:14:32Z</time>
      </trkpt>
      <trkpt lat="46.145704323425889" lon="7.338043246418238">
        <ele>2206.3600000000001</ele>
        <time>2012-07-07T11:14:33Z</time>
      </trkpt>
      <trkpt lat="46.145597705617547" lon="7.337864795699716">
        <ele>2204.9200000000001</ele>
        <time>2012-07-07T11:14:35Z</time>
      </trkpt>
      <trkpt lat="46.145558729767799" lon="7.337768403813243">
        <ele>2203.96</ele>
        <time>2012-07-07T11:14:36Z</time>
      </trkpt>
      <trkpt lat="46.145492093637586" lon="7.337586265057325">
        <ele>2202.52</ele>
        <time>2012-07-07T11:14:38Z</time>
      </trkpt>
      <trkpt lat="46.145442975685" lon="7.337512169033289">
        <ele>2202.04</ele>
        <time>2012-07-07T11:14:39Z</time>
      </trkpt>
      <trkpt lat="46.145385727286339" lon="7.33744720928371">
        <ele>2201.0799999999999</ele>
        <time>2012-07-07T11:14:40Z</time>
      </trkpt>
      <trkpt lat="46.145219346508384" lon="7.337263058871031">
        <ele>2199.1500000000001</ele>
        <time>2012-07-07T11:14:43Z</time>
      </trkpt>
      <trkpt lat="46.145163187757134" lon="7.33723372220993">
        <ele>2198.6700000000001</ele>
        <time>2012-07-07T11:14:44Z</time>
      </trkpt>
      <trkpt lat="46.145099988207221" lon="7.337229866534472">
        <ele>2197.71</ele>
        <time>2012-07-07T11:14:45Z</time>
      </trkpt>
      <trkpt lat="46.145033687353134" lon="7.33725031837821">
        <ele>2197.23</ele>
        <time>2012-07-07T11:14:46Z</time>
      </trkpt>
      <trkpt lat="46.144965877756476" lon="7.337274122983217">
        <ele>2196.75</ele>
        <time>2012-07-07T11:14:47Z</time>
      </trkpt>
      <trkpt lat="46.144893374294043" lon="7.337279403582215">
        <ele>2195.79</ele>
        <time>2012-07-07T11:14:48Z</time>
      </trkpt>
      <trkpt lat="46.144820032641292" lon="7.33727085404098">
        <ele>2194.8299999999999</ele>
        <time>2012-07-07T11:14:49Z</time>
      </trkpt>
      <trkpt lat="46.144749289378524" lon="7.337268171831965">
        <ele>2194.3499999999999</ele>
        <time>2012-07-07T11:14:50Z</time>
      </trkpt>
      <trkpt lat="46.144685000181198" lon="7.337287114933133">
        <ele>2193.3899999999999</ele>
        <time>2012-07-07T11:14:51Z</time>
      </trkpt>
      <trkpt lat="46.144636552780867" lon="7.337326928973198">
        <ele>2192.9000000000001</ele>
        <time>2012-07-07T11:14:52Z</time>
      </trkpt>
      <trkpt lat="46.144601851701736" lon="7.337378058582544">
        <ele>2192.4200000000001</ele>
        <time>2012-07-07T11:14:53Z</time>
      </trkpt>
      <trkpt lat="46.144569581374526" lon="7.337423488497734">
        <ele>2191.46</ele>
        <time>2012-07-07T11:14:54Z</time>
      </trkpt>
      <trkpt lat="46.144540915265679" lon="7.337458021938801">
        <ele>2190.98</ele>
        <time>2012-07-07T11:14:55Z</time>
      </trkpt>
      <trkpt lat="46.144478973001242" lon="7.337512671947479">
        <ele>2190.5</ele>
        <time>2012-07-07T11:14:57Z</time>
      </trkpt>
      <trkpt lat="46.144433291628957" lon="7.337531447410584">
        <ele>2190.02</ele>
        <time>2012-07-07T11:14:58Z</time>
      </trkpt>
      <trkpt lat="46.144381323829293" lon="7.337542343884707">
        <ele>2189.54</ele>
        <time>2012-07-07T11:14:59Z</time>
      </trkpt>
      <trkpt lat="46.14432642236352" lon="7.337531112134457">
        <ele>2189.0599999999999</ele>
        <time>2012-07-07T11:15:00Z</time>
      </trkpt>
      <trkpt lat="46.144274789839983" lon="7.337502194568515">
        <ele>2188.5799999999999</ele>
        <time>2012-07-07T11:15:01Z</time>
      </trkpt>
      <trkpt lat="46.144234137609601" lon="7.337454920634627">
        <ele>2188.0999999999999</ele>
        <time>2012-07-07T11:15:02Z</time>
      </trkpt>
      <trkpt lat="46.144206393510103" lon="7.337392223998904">
        <ele>2187.6199999999999</ele>
        <time>2012-07-07T11:15:03Z</time>
      </trkpt>
      <trkpt lat="46.144189294427633" lon="7.337319888174534">
        <ele>2187.1399999999999</ele>
        <time>2012-07-07T11:15:04Z</time>
      </trkpt>
      <trkpt lat="46.144180493429303" lon="7.33724101446569">
        <ele>2187.1399999999999</ele>
        <time>2012-07-07T11:15:05Z</time>
      </trkpt>
      <trkpt lat="46.144174207001925" lon="7.337160632014275">
        <ele>2187.1399999999999</ele>
        <time>2012-07-07T11:15:06Z</time>
      </trkpt>
      <trkpt lat="46.144165908917785" lon="7.337085278704763">
        <ele>2186.6599999999999</ele>
        <time>2012-07-07T11:15:07Z</time>
      </trkpt>
      <trkpt lat="46.144052082672715" lon="7.33643819577992">
        <ele>2187.1399999999999</ele>
        <time>2012-07-07T11:15:18Z</time>
      </trkpt>
      <trkpt lat="46.144030541181564" lon="7.33635219745338">
        <ele>2186.6599999999999</ele>
        <time>2012-07-07T11:15:21Z</time>
      </trkpt>
      <trkpt lat="46.144028026610613" lon="7.336326884105802">
        <ele>2186.6599999999999</ele>
        <time>2012-07-07T11:15:23Z</time>
      </trkpt>
      <trkpt lat="46.144038839265704" lon="7.336384383961558">
        <ele>2186.6599999999999</ele>
        <time>2012-07-07T11:15:28Z</time>
      </trkpt>
      <trkpt lat="46.144096842035651" lon="7.336305007338524">
        <ele>2185.6900000000001</ele>
        <time>2012-07-07T11:15:31Z</time>
      </trkpt>
      <trkpt lat="46.144110504537821" lon="7.336250944063067">
        <ele>2185.6900000000001</ele>
        <time>2012-07-07T11:15:32Z</time>
      </trkpt>
      <trkpt lat="46.144144283607602" lon="7.336131837219">
        <ele>2184.73</ele>
        <time>2012-07-07T11:15:34Z</time>
      </trkpt>
      <trkpt lat="46.144170686602592" lon="7.336071403697133">
        <ele>2184.25</ele>
        <time>2012-07-07T11:15:35Z</time>
      </trkpt>
      <trkpt lat="46.144198263064027" lon="7.336011808365583">
        <ele>2183.77</ele>
        <time>2012-07-07T11:15:36Z</time>
      </trkpt>
      <trkpt lat="46.144222235307097" lon="7.335950117558241">
        <ele>2182.8099999999999</ele>
        <time>2012-07-07T11:15:37Z</time>
      </trkpt>
      <trkpt lat="46.144241346046329" lon="7.335892869159579">
        <ele>2182.3299999999999</ele>
        <time>2012-07-07T11:15:38Z</time>
      </trkpt>
      <trkpt lat="46.144255511462688" lon="7.33584743924439">
        <ele>2181.8499999999999</ele>
        <time>2012-07-07T11:15:39Z</time>
      </trkpt>
      <trkpt lat="46.144269090145826" lon="7.335809301584959">
        <ele>2181.3699999999999</ele>
        <time>2012-07-07T11:15:40Z</time>
      </trkpt>
      <trkpt lat="46.144377803429961" lon="7.335407892242074">
        <ele>2176.0799999999999</ele>
        <time>2012-07-07T11:15:50Z</time>
      </trkpt>
      <trkpt lat="46.144398925825953" lon="7.33534125611186">
        <ele>2175.5999999999999</ele>
        <time>2012-07-07T11:15:51Z</time>
      </trkpt>
      <trkpt lat="46.144417366012931" lon="7.33526699244976">
        <ele>2175.1199999999999</ele>
        <time>2012-07-07T11:15:52Z</time>
      </trkpt>
      <trkpt lat="46.144457347691059" lon="7.335117375478149">
        <ele>2174.1599999999999</ele>
        <time>2012-07-07T11:15:54Z</time>
      </trkpt>
      <trkpt lat="46.144482493400574" lon="7.335041267797351">
        <ele>2173.6799999999998</ele>
        <time>2012-07-07T11:15:55Z</time>
      </trkpt>
      <trkpt lat="46.144500430673361" lon="7.334969434887171">
        <ele>2172.7199999999998</ele>
        <time>2012-07-07T11:15:56Z</time>
      </trkpt>
      <trkpt lat="46.144512416794896" lon="7.33489852398634">
        <ele>2172.2399999999998</ele>
        <time>2012-07-07T11:15:57Z</time>
      </trkpt>
      <trkpt lat="46.144518284127116" lon="7.334825601428747">
        <ele>2171.27</ele>
        <time>2012-07-07T11:15:58Z</time>
      </trkpt>
      <trkpt lat="46.144520966336131" lon="7.33475343324244">
        <ele>2170.79</ele>
        <time>2012-07-07T11:15:59Z</time>
      </trkpt>
      <trkpt lat="46.144517613574862" lon="7.334459815174341">
        <ele>2168.8699999999999</ele>
        <time>2012-07-07T11:16:03Z</time>
      </trkpt>
      <trkpt lat="46.144524570554495" lon="7.334315897896886">
        <ele>2168.3899999999999</ele>
        <time>2012-07-07T11:16:05Z</time>
      </trkpt>
      <trkpt lat="46.144531862810254" lon="7.33424180187285">
        <ele>2168.3899999999999</ele>
        <time>2012-07-07T11:16:06Z</time>
      </trkpt>
      <trkpt lat="46.144525492563844" lon="7.334169633686543">
        <ele>2167.9099999999999</ele>
        <time>2012-07-07T11:16:07Z</time>
      </trkpt>
      <trkpt lat="46.144507806748152" lon="7.334099812433124">
        <ele>2167.4299999999998</ele>
        <time>2012-07-07T11:16:08Z</time>
      </trkpt>
      <trkpt lat="46.144482241943479" lon="7.3340302426368">
        <ele>2166.9499999999998</ele>
        <time>2012-07-07T11:16:09Z</time>
      </trkpt>
      <trkpt lat="46.144448546692729" lon="7.333962768316269">
        <ele>2166.4699999999998</ele>
        <time>2012-07-07T11:16:10Z</time>
      </trkpt>
      <trkpt lat="46.144412588328123" lon="7.333902083337307">
        <ele>2165.5100000000002</ele>
        <time>2012-07-07T11:16:11Z</time>
      </trkpt>
      <trkpt lat="46.144376043230295" lon="7.333852043375373">
        <ele>2165.0300000000002</ele>
        <time>2012-07-07T11:16:12Z</time>
      </trkpt>
      <trkpt lat="46.144337151199579" lon="7.333816336467862">
        <ele>2164.5500000000002</ele>
        <time>2012-07-07T11:16:13Z</time>
      </trkpt>
      <trkpt lat="46.144157275557518" lon="7.333691110834479">
        <ele>2162.1399999999999</ele>
        <time>2012-07-07T11:16:18Z</time>
      </trkpt>
      <trkpt lat="46.144122406840324" lon="7.33365791849792">
        <ele>2161.6599999999999</ele>
        <time>2012-07-07T11:16:19Z</time>
      </trkpt>
      <trkpt lat="46.144086364656687" lon="7.333624474704266">
        <ele>2161.6599999999999</ele>
        <time>2012-07-07T11:16:20Z</time>
      </trkpt>
      <trkpt lat="46.143661988899112" lon="7.333185179159045">
        <ele>2157.8200000000002</ele>
        <time>2012-07-07T11:16:30Z</time>
      </trkpt>
      <trkpt lat="46.143623683601618" lon="7.333154082298279">
        <ele>2157.3400000000001</ele>
        <time>2012-07-07T11:16:31Z</time>
      </trkpt>
      <trkpt lat="46.143545396625996" lon="7.333091720938683">
        <ele>2156.8600000000001</ele>
        <time>2012-07-07T11:16:33Z</time>
      </trkpt>
      <trkpt lat="46.143506839871407" lon="7.33306179754436">
        <ele>2156.3699999999999</ele>
        <time>2012-07-07T11:16:34Z</time>
      </trkpt>
      <trkpt lat="46.143472725525498" lon="7.333027347922325">
        <ele>2155.4099999999999</ele>
        <time>2012-07-07T11:16:35Z</time>
      </trkpt>
      <trkpt lat="46.143446071073413" lon="7.332988791167736">
        <ele>2155.4099999999999</ele>
        <time>2012-07-07T11:16:36Z</time>
      </trkpt>
      <trkpt lat="46.143430648371577" lon="7.332944283261895">
        <ele>2154.4499999999998</ele>
        <time>2012-07-07T11:16:37Z</time>
      </trkpt>
      <trkpt lat="46.14342981018126" lon="7.332893908023834">
        <ele>2154.4499999999998</ele>
        <time>2012-07-07T11:16:38Z</time>
      </trkpt>
      <trkpt lat="46.14344053901732" lon="7.332850573584437">
        <ele>2153.9699999999998</ele>
        <time>2012-07-07T11:16:39Z</time>
      </trkpt>
      <trkpt lat="46.143461912870407" lon="7.3328214045614">
        <ele>2153.4899999999998</ele>
        <time>2012-07-07T11:16:40Z</time>
      </trkpt>
      <trkpt lat="46.143489824607968" lon="7.332812938839197">
        <ele>2153.0100000000002</ele>
        <time>2012-07-07T11:16:41Z</time>
      </trkpt>
      <trkpt lat="46.143519664183259" lon="7.332827104255557">
        <ele>2152.5300000000002</ele>
        <time>2012-07-07T11:16:42Z</time>
      </trkpt>
      <trkpt lat="46.143547911196947" lon="7.332856440916657">
        <ele>2152.0500000000002</ele>
        <time>2012-07-07T11:16:43Z</time>
      </trkpt>
      <trkpt lat="46.14357934333384" lon="7.332891309633851">
        <ele>2152.0500000000002</ele>
        <time>2012-07-07T11:16:44Z</time>
      </trkpt>
      <trkpt lat="46.143621001392603" lon="7.332925256341696">
        <ele>2151.5700000000002</ele>
        <time>2012-07-07T11:16:45Z</time>
      </trkpt>
      <trkpt lat="46.143670035526156" lon="7.332964483648539">
        <ele>2151.0900000000001</ele>
        <time>2012-07-07T11:16:46Z</time>
      </trkpt>
      <trkpt lat="46.143725272268057" lon="7.333009913563728">
        <ele>2150.6100000000001</ele>
        <time>2012-07-07T11:16:47Z</time>
      </trkpt>
      <trkpt lat="46.143786879256368" lon="7.333053667098284">
        <ele>2149.6500000000001</ele>
        <time>2012-07-07T11:16:48Z</time>
      </trkpt>
      <trkpt lat="46.143898107111454" lon="7.333118626847863">
        <ele>2148.6799999999998</ele>
        <time>2012-07-07T11:16:50Z</time>
      </trkpt>
      <trkpt lat="46.144172865897417" lon="7.333223735913634">
        <ele>2145.8000000000002</ele>
        <time>2012-07-07T11:16:55Z</time>
      </trkpt>
      <trkpt lat="46.144219888374209" lon="7.333259861916304">
        <ele>2145.3200000000002</ele>
        <time>2012-07-07T11:16:56Z</time>
      </trkpt>
      <trkpt lat="46.144267162308097" lon="7.333298251032829">
        <ele>2144.8400000000001</ele>
        <time>2012-07-07T11:16:57Z</time>
      </trkpt>
      <trkpt lat="46.144316783174872" lon="7.333324402570725">
        <ele>2144.8400000000001</ele>
        <time>2012-07-07T11:16:58Z</time>
      </trkpt>
      <trkpt lat="46.14436405710876" lon="7.333334879949689">
        <ele>2144.8400000000001</ele>
        <time>2012-07-07T11:16:59Z</time>
      </trkpt>
      <trkpt lat="46.144408816471696" lon="7.333336472511292">
        <ele>2145.3200000000002</ele>
        <time>2012-07-07T11:17:00Z</time>
      </trkpt>
      <trkpt lat="46.14459321834147" lon="7.333335969597101">
        <ele>2145.3200000000002</ele>
        <time>2012-07-07T11:17:04Z</time>
      </trkpt>
      <trkpt lat="46.144641498103738" lon="7.333355164155364">
        <ele>2144.8400000000001</ele>
        <time>2012-07-07T11:17:05Z</time>
      </trkpt>
      <trkpt lat="46.144685754552484" lon="7.333387266844511">
        <ele>2144.3600000000001</ele>
        <time>2012-07-07T11:17:06Z</time>
      </trkpt>
      <trkpt lat="46.14472514949739" lon="7.333419369533658">
        <ele>2143.8800000000001</ele>
        <time>2012-07-07T11:17:07Z</time>
      </trkpt>
      <trkpt lat="46.144764292985201" lon="7.333441246300936">
        <ele>2143.4000000000001</ele>
        <time>2012-07-07T11:17:08Z</time>
      </trkpt>
      <trkpt lat="46.144802095368505" lon="7.333448706194758">
        <ele>2142.9200000000001</ele>
        <time>2012-07-07T11:17:09Z</time>
      </trkpt>
      <trkpt lat="46.14483654499054" lon="7.333455914631486">
        <ele>2142.4400000000001</ele>
        <time>2012-07-07T11:17:10Z</time>
      </trkpt>
      <trkpt lat="46.14487124606967" lon="7.333472762256861">
        <ele>2142.4400000000001</ele>
        <time>2012-07-07T11:17:11Z</time>
      </trkpt>
      <trkpt lat="46.144907539710402" lon="7.333501596003771">
        <ele>2141.9499999999998</ele>
        <time>2012-07-07T11:17:12Z</time>
      </trkpt>
      <trkpt lat="46.14494601264596" lon="7.333539482206106">
        <ele>2141.9499999999998</ele>
        <time>2012-07-07T11:17:13Z</time>
      </trkpt>
      <trkpt lat="46.14516394212842" lon="7.333731930702925">
        <ele>2139.5500000000002</ele>
        <time>2012-07-07T11:17:17Z</time>
      </trkpt>
      <trkpt lat="46.145320348441601" lon="7.333835447207093">
        <ele>2136.6700000000001</ele>
        <time>2012-07-07T11:17:20Z</time>
      </trkpt>
      <trkpt lat="46.145357647910714" lon="7.333879033103585">
        <ele>2135.71</ele>
        <time>2012-07-07T11:17:21Z</time>
      </trkpt>
      <trkpt lat="46.145381201058626" lon="7.333935359492898">
        <ele>2135.23</ele>
        <time>2012-07-07T11:17:22Z</time>
      </trkpt>
      <trkpt lat="46.145384470000863" lon="7.334000822156668">
        <ele>2134.7399999999998</ele>
        <time>2012-07-07T11:17:23Z</time>
      </trkpt>
      <trkpt lat="46.145374495536089" lon="7.334072822704911">
        <ele>2133.7800000000002</ele>
        <time>2012-07-07T11:17:24Z</time>
      </trkpt>
      <trkpt lat="46.145354798063636" lon="7.334319083020091">
        <ele>2132.3400000000001</ele>
        <time>2012-07-07T11:17:27Z</time>
      </trkpt>
      <trkpt lat="46.145321438089013" lon="7.334804814308882">
        <ele>2129.9400000000001</ele>
        <time>2012-07-07T11:17:34Z</time>
      </trkpt>
      <trkpt lat="46.145320683717728" lon="7.334860637784004">
        <ele>2129.46</ele>
        <time>2012-07-07T11:17:35Z</time>
      </trkpt>
      <trkpt lat="46.145340297371149" lon="7.334895087406039">
        <ele>2128.98</ele>
        <time>2012-07-07T11:17:36Z</time>
      </trkpt>
      <trkpt lat="46.145366029813886" lon="7.33489559032023">
        <ele>2128.5</ele>
        <time>2012-07-07T11:17:37Z</time>
      </trkpt>
      <trkpt lat="46.145382458344102" lon="7.334876647219062">
        <ele>2128.5</ele>
        <time>2012-07-07T11:17:38Z</time>
      </trkpt>
      <trkpt lat="46.14537893794477" lon="7.334916377440095">
        <ele>2128.5</ele>
        <time>2012-07-07T11:17:47Z</time>
      </trkpt>
      <trkpt lat="46.145377177745104" lon="7.334891734644771">
        <ele>2128.02</ele>
        <time>2012-07-07T11:17:55Z</time>
      </trkpt>
      <trkpt lat="46.145379776135087" lon="7.334867678582668">
        <ele>2128.5</ele>
        <time>2012-07-07T11:17:56Z</time>
      </trkpt>
      <trkpt lat="46.145384889096022" lon="7.334833899512887">
        <ele>2128.02</ele>
        <time>2012-07-07T11:17:57Z</time>
      </trkpt>
      <trkpt lat="46.14539016969502" lon="7.334791654720902">
        <ele>2128.02</ele>
        <time>2012-07-07T11:17:58Z</time>
      </trkpt>
      <trkpt lat="46.145398886874318" lon="7.334742285311222">
        <ele>2127.5300000000002</ele>
        <time>2012-07-07T11:17:59Z</time>
      </trkpt>
      <trkpt lat="46.145411878824234" lon="7.33468696475029">
        <ele>2127.5300000000002</ele>
        <time>2012-07-07T11:18:00Z</time>
      </trkpt>
      <trkpt lat="46.145457308739424" lon="7.334520919248462">
        <ele>2126.0900000000001</ele>
        <time>2012-07-07T11:18:03Z</time>
      </trkpt>
      <trkpt lat="46.14547717384994" lon="7.334461994469166">
        <ele>2125.6100000000001</ele>
        <time>2012-07-07T11:18:04Z</time>
      </trkpt>
      <trkpt lat="46.145521430298686" lon="7.334339199587703">
        <ele>2124.1700000000001</ele>
        <time>2012-07-07T11:18:06Z</time>
      </trkpt>
      <trkpt lat="46.145548922941089" lon="7.334276167675853">
        <ele>2123.6900000000001</ele>
        <time>2012-07-07T11:18:07Z</time>
      </trkpt>
      <trkpt lat="46.145582534372807" lon="7.334215650334954">
        <ele>2122.73</ele>
        <time>2012-07-07T11:18:08Z</time>
      </trkpt>
      <trkpt lat="46.145626120269299" lon="7.334165358915925">
        <ele>2122.25</ele>
        <time>2012-07-07T11:18:09Z</time>
      </trkpt>
      <trkpt lat="46.145670125260949" lon="7.334120096638799">
        <ele>2121.29</ele>
        <time>2012-07-07T11:18:10Z</time>
      </trkpt>
      <trkpt lat="46.145751345902681" lon="7.33402244746685">
        <ele>2119.3600000000001</ele>
        <time>2012-07-07T11:18:12Z</time>
      </trkpt>
      <trkpt lat="46.145782861858606" lon="7.333957571536303">
        <ele>2118.8800000000001</ele>
        <time>2012-07-07T11:18:13Z</time>
      </trkpt>
      <trkpt lat="46.145801469683647" lon="7.333883391693234">
        <ele>2117.9200000000001</ele>
        <time>2012-07-07T11:18:14Z</time>
      </trkpt>
      <trkpt lat="46.145808175206184" lon="7.333802422508597">
        <ele>2117.4400000000001</ele>
        <time>2012-07-07T11:18:15Z</time>
      </trkpt>
      <trkpt lat="46.145807588472962" lon="7.333716172724962">
        <ele>2116.48</ele>
        <time>2012-07-07T11:18:16Z</time>
      </trkpt>
      <trkpt lat="46.145804990082979" lon="7.333629671484232">
        <ele>2116</ele>
        <time>2012-07-07T11:18:17Z</time>
      </trkpt>
      <trkpt lat="46.145798452198505" lon="7.33354602009058">
        <ele>2115.04</ele>
        <time>2012-07-07T11:18:18Z</time>
      </trkpt>
      <trkpt lat="46.145777329802513" lon="7.333473348990083">
        <ele>2114.5599999999999</ele>
        <time>2012-07-07T11:18:19Z</time>
      </trkpt>
      <trkpt lat="46.145639531314373" lon="7.33331342227757">
        <ele>2111.1900000000001</ele>
        <time>2012-07-07T11:18:22Z</time>
      </trkpt>
      <trkpt lat="46.145326886326075" lon="7.332997592166066">
        <ele>2105.9099999999999</ele>
        <time>2012-07-07T11:18:29Z</time>
      </trkpt>
      <trkpt lat="46.145241977646947" lon="7.332916790619493">
        <ele>2104.46</ele>
        <time>2012-07-07T11:18:31Z</time>
      </trkpt>
      <trkpt lat="46.144859427586198" lon="7.332426868379116">
        <ele>2095.8099999999999</ele>
        <time>2012-07-07T11:18:40Z</time>
      </trkpt>
      <trkpt lat="46.144748786464334" lon="7.332208855077624">
        <ele>2092.4499999999998</ele>
        <time>2012-07-07T11:18:43Z</time>
      </trkpt>
      <trkpt lat="46.144615765661001" lon="7.332042558118701">
        <ele>2089.5599999999999</ele>
        <time>2012-07-07T11:18:46Z</time>
      </trkpt>
      <trkpt lat="46.144489785656333" lon="7.331926552578807">
        <ele>2087.1599999999999</ele>
        <time>2012-07-07T11:18:49Z</time>
      </trkpt>
      <trkpt lat="46.144377719610929" lon="7.331794705241919">
        <ele>2084.7600000000002</ele>
        <time>2012-07-07T11:18:52Z</time>
      </trkpt>
      <trkpt lat="46.144165238365531" lon="7.331505697220564">
        <ele>2080.9099999999999</ele>
        <time>2012-07-07T11:18:59Z</time>
      </trkpt>
      <trkpt lat="46.144039006903768" lon="7.331351973116398">
        <ele>2078.5100000000002</ele>
        <time>2012-07-07T11:19:03Z</time>
      </trkpt>
      <trkpt lat="46.143973963335156" lon="7.331233704462647">
        <ele>2077.0700000000002</ele>
        <time>2012-07-07T11:19:05Z</time>
      </trkpt>
      <trkpt lat="46.143791824579239" lon="7.331037484109402">
        <ele>2074.6599999999999</ele>
        <time>2012-07-07T11:19:09Z</time>
      </trkpt>
      <trkpt lat="46.14342050626874" lon="7.330652922391892">
        <ele>2067.9299999999998</ele>
        <time>2012-07-07T11:19:18Z</time>
      </trkpt>
      <trkpt lat="46.143369963392615" lon="7.330608079209924">
        <ele>2066.9699999999998</ele>
        <time>2012-07-07T11:19:20Z</time>
      </trkpt>
      <trkpt lat="46.143300393596292" lon="7.330569187179208">
        <ele>2065.5300000000002</ele>
        <time>2012-07-07T11:19:28Z</time>
      </trkpt>
      <trkpt lat="46.143284384161234" lon="7.330548651516438">
        <ele>2065.5300000000002</ele>
        <time>2012-07-07T11:19:47Z</time>
      </trkpt>
      <trkpt lat="46.143223531544209" lon="7.330535408109427">
        <ele>2065.0500000000002</ele>
        <time>2012-07-07T11:19:49Z</time>
      </trkpt>
      <trkpt lat="46.143020270392299" lon="7.330476567149162">
        <ele>2063.1300000000001</ele>
        <time>2012-07-07T11:19:53Z</time>
      </trkpt>
      <trkpt lat="46.142743164673448" lon="7.330085719004273">
        <ele>2060.2399999999998</ele>
        <time>2012-07-07T11:20:00Z</time>
      </trkpt>
      <trkpt lat="46.142748529091477" lon="7.33001422137022">
        <ele>2059.7600000000002</ele>
        <time>2012-07-07T11:20:01Z</time>
      </trkpt>
      <trkpt lat="46.142759844660759" lon="7.329873573035002">
        <ele>2059.2800000000002</ele>
        <time>2012-07-07T11:20:03Z</time>
      </trkpt>
      <trkpt lat="46.142654316499829" lon="7.329568807035685">
        <ele>2056.8800000000001</ele>
        <time>2012-07-07T11:20:07Z</time>
      </trkpt>
      <trkpt lat="46.142554320394993" lon="7.329443078488112">
        <ele>2055.4400000000001</ele>
        <time>2012-07-07T11:20:09Z</time>
      </trkpt>
      <trkpt lat="46.14242666400969" lon="7.329256162047386">
        <ele>2053.5100000000002</ele>
        <time>2012-07-07T11:20:12Z</time>
      </trkpt>
      <trkpt lat="46.14220286719501" lon="7.329084416851401">
        <ele>2050.6300000000001</ele>
        <time>2012-07-07T11:20:16Z</time>
      </trkpt>
      <trkpt lat="46.141866585239768" lon="7.328790966421366">
        <ele>2046.78</ele>
        <time>2012-07-07T11:20:22Z</time>
      </trkpt>
      <trkpt lat="46.141462661325932" lon="7.328435825183988">
        <ele>2041.02</ele>
        <time>2012-07-07T11:20:31Z</time>
      </trkpt>
      <trkpt lat="46.141386469826102" lon="7.328303307294846">
        <ele>2039.0899999999999</ele>
        <time>2012-07-07T11:20:33Z</time>
      </trkpt>
      <trkpt lat="46.141116907820106" lon="7.328105662018061">
        <ele>2035.73</ele>
        <time>2012-07-07T11:20:38Z</time>
      </trkpt>
      <trkpt lat="46.140885651111603" lon="7.327942131087184">
        <ele>2033.3299999999999</ele>
        <time>2012-07-07T11:20:42Z</time>
      </trkpt>
      <trkpt lat="46.140605611726642" lon="7.32774012722075">
        <ele>2029.96</ele>
        <time>2012-07-07T11:20:48Z</time>
      </trkpt>
      <trkpt lat="46.140352729707956" lon="7.327707353979349">
        <ele>2027.0799999999999</ele>
        <time>2012-07-07T11:20:52Z</time>
      </trkpt>
      <trkpt lat="46.140248123556376" lon="7.327668964862824">
        <ele>2026.1199999999999</ele>
        <time>2012-07-07T11:20:54Z</time>
      </trkpt>
      <trkpt lat="46.140175787732005" lon="7.327592941001058">
        <ele>2025.1500000000001</ele>
        <time>2012-07-07T11:20:56Z</time>
      </trkpt>
      <trkpt lat="46.139943692833185" lon="7.327035376802087">
        <ele>2022.75</ele>
        <time>2012-07-07T11:21:05Z</time>
      </trkpt>
      <trkpt lat="46.139679495245218" lon="7.326566996052861">
        <ele>2022.27</ele>
        <time>2012-07-07T11:21:17Z</time>
      </trkpt>
      <trkpt lat="46.139458632096648" lon="7.326394664123654">
        <ele>2024.6700000000001</ele>
        <time>2012-07-07T11:21:27Z</time>
      </trkpt>
      <trkpt lat="46.139116985723376" lon="7.326540006324649">
        <ele>2025.6400000000001</ele>
        <time>2012-07-07T11:21:39Z</time>
      </trkpt>
      <trkpt lat="46.138755138963461" lon="7.326421905308962">
        <ele>2025.6400000000001</ele>
        <time>2012-07-07T11:21:50Z</time>
      </trkpt>
      <trkpt lat="46.138712475076318" lon="7.326412182301283">
        <ele>2025.6400000000001</ele>
        <time>2012-07-07T11:21:51Z</time>
      </trkpt>
      <trkpt lat="46.138524301350117" lon="7.326417043805122">
        <ele>2024.1900000000001</ele>
        <time>2012-07-07T11:21:55Z</time>
      </trkpt>
      <trkpt lat="46.138019878417253" lon="7.326327692717314">
        <ele>2022.27</ele>
        <time>2012-07-07T11:22:06Z</time>
      </trkpt>
      <trkpt lat="46.137792225927114" lon="7.326237000524998">
        <ele>2021.3099999999999</ele>
        <time>2012-07-07T11:22:11Z</time>
      </trkpt>
      <trkpt lat="46.137427277863026" lon="7.325984789058566">
        <ele>2018.9100000000001</ele>
        <time>2012-07-07T11:22:17Z</time>
      </trkpt>
      <trkpt lat="46.137147406116128" lon="7.32591119594872">
        <ele>2015.0599999999999</ele>
        <time>2012-07-07T11:22:21Z</time>
      </trkpt>
      <trkpt lat="46.136811291798949" lon="7.32586769387126">
        <ele>2009.29</ele>
        <time>2012-07-07T11:22:26Z</time>
      </trkpt>
      <trkpt lat="46.136531084775925" lon="7.3256273008883">
        <ele>2004.97</ele>
        <time>2012-07-07T11:22:31Z</time>
      </trkpt>
      <trkpt lat="46.136394208297133" lon="7.325353296473622">
        <ele>2001.1199999999999</ele>
        <time>2012-07-07T11:22:35Z</time>
      </trkpt>
      <trkpt lat="46.135999420657754" lon="7.324795061722398">
        <ele>1992.47</ele>
        <time>2012-07-07T11:22:45Z</time>
      </trkpt>
      <trkpt lat="46.135934125632048" lon="7.324706800282002">
        <ele>1990.55</ele>
        <time>2012-07-07T11:22:47Z</time>
      </trkpt>
      <trkpt lat="46.13586338236928" lon="7.32463488355279">
        <ele>1988.6199999999999</ele>
        <time>2012-07-07T11:22:49Z</time>
      </trkpt>
      <trkpt lat="46.135630616918206" lon="7.324546705931425">
        <ele>1984.3</ele>
        <time>2012-07-07T11:22:54Z</time>
      </trkpt>
      <trkpt lat="46.135376812890172" lon="7.324379151687026">
        <ele>1979.97</ele>
        <time>2012-07-07T11:22:59Z</time>
      </trkpt>
      <trkpt lat="46.135153016075492" lon="7.324257446452975">
        <ele>1976.1300000000001</ele>
        <time>2012-07-07T11:23:03Z</time>
      </trkpt>
      <trkpt lat="46.134779853746295" lon="7.324029039591551">
        <ele>1969.4000000000001</ele>
        <time>2012-07-07T11:23:12Z</time>
      </trkpt>
      <trkpt lat="46.134523535147309" lon="7.323823934420943">
        <ele>1965.0699999999999</ele>
        <time>2012-07-07T11:23:18Z</time>
      </trkpt>
      <trkpt lat="46.134414486587048" lon="7.323763500899077">
        <ele>1963.1500000000001</ele>
        <time>2012-07-07T11:23:20Z</time>
      </trkpt>
      <trkpt lat="46.13422304391861" lon="7.323696445673704">
        <ele>1959.3</ele>
        <time>2012-07-07T11:23:26Z</time>
      </trkpt>
      <trkpt lat="46.133946273475885" lon="7.323770122602582">
        <ele>1955.9400000000001</ele>
        <time>2012-07-07T11:23:36Z</time>
      </trkpt>
      <trkpt lat="46.13364402204752" lon="7.323595359921455">
        <ele>1952.0899999999999</ele>
        <time>2012-07-07T11:23:44Z</time>
      </trkpt>
      <trkpt lat="46.133501278236508" lon="7.323540961369872">
        <ele>1949.6900000000001</ele>
        <time>2012-07-07T11:23:47Z</time>
      </trkpt>
      <trkpt lat="46.133396420627832" lon="7.323504667729139">
        <ele>1948.25</ele>
        <time>2012-07-07T11:23:49Z</time>
      </trkpt>
      <trkpt lat="46.133164828643203" lon="7.323416909202933">
        <ele>1945.3599999999999</ele>
        <time>2012-07-07T11:23:54Z</time>
      </trkpt>
      <trkpt lat="46.132944719865918" lon="7.323358571156859">
        <ele>1942.96</ele>
        <time>2012-07-07T11:23:59Z</time>
      </trkpt>
      <trkpt lat="46.132715977728367" lon="7.323159417137504">
        <ele>1939.5999999999999</ele>
        <time>2012-07-07T11:24:05Z</time>
      </trkpt>
      <trkpt lat="46.132575329393148" lon="7.323032012209296">
        <ele>1937.1900000000001</ele>
        <time>2012-07-07T11:24:09Z</time>
      </trkpt>
      <trkpt lat="46.132547250017524" lon="7.322917599231005">
        <ele>1935.27</ele>
        <time>2012-07-07T11:24:16Z</time>
      </trkpt>
      <trkpt lat="46.132530402392149" lon="7.322925478219986">
        <ele>1937.1900000000001</ele>
        <time>2012-07-07T11:24:41Z</time>
      </trkpt>
      <trkpt lat="46.132539622485638" lon="7.322900835424662">
        <ele>1938.1600000000001</ele>
        <time>2012-07-07T11:25:01Z</time>
      </trkpt>
      <trkpt lat="46.132527301087976" lon="7.322893124073744">
        <ele>1938.1600000000001</ele>
        <time>2012-07-07T11:25:24Z</time>
      </trkpt>
      <trkpt lat="46.132542472332716" lon="7.322883065789938">
        <ele>1937.6700000000001</ele>
        <time>2012-07-07T11:25:36Z</time>
      </trkpt>
      <trkpt lat="46.132660321891308" lon="7.322895973920822">
        <ele>1937.1900000000001</ele>
        <time>2012-07-07T11:25:42Z</time>
      </trkpt>
      <trkpt lat="46.132797617465258" lon="7.322844425216317">
        <ele>1935.27</ele>
        <time>2012-07-07T11:25:46Z</time>
      </trkpt>
      <trkpt lat="46.132881604135036" lon="7.322847526520491">
        <ele>1934.3099999999999</ele>
        <time>2012-07-07T11:25:48Z</time>
      </trkpt>
      <trkpt lat="46.133074723184109" lon="7.322883736342192">
        <ele>1931.4300000000001</ele>
        <time>2012-07-07T11:25:52Z</time>
      </trkpt>
      <trkpt lat="46.13316373899579" lon="7.32287585735321">
        <ele>1929.98</ele>
        <time>2012-07-07T11:25:54Z</time>
      </trkpt>
      <trkpt lat="46.133261304348707" lon="7.322890358045697">
        <ele>1928.0599999999999</ele>
        <time>2012-07-07T11:25:56Z</time>
      </trkpt>
      <trkpt lat="46.133405808359385" lon="7.322906870394945">
        <ele>1925.6600000000001</ele>
        <time>2012-07-07T11:25:59Z</time>
      </trkpt>
      <trkpt lat="46.133591048419476" lon="7.322879796847701">
        <ele>1921.8099999999999</ele>
        <time>2012-07-07T11:26:03Z</time>
      </trkpt>
      <trkpt lat="46.133927246555686" lon="7.323070485144854">
        <ele>1916.04</ele>
        <time>2012-07-07T11:26:11Z</time>
      </trkpt>
      <trkpt lat="46.134136961773038" lon="7.322867307811976">
        <ele>1914.5999999999999</ele>
        <time>2012-07-07T11:26:18Z</time>
      </trkpt>
      <trkpt lat="46.134331924840808" lon="7.322780136018992">
        <ele>1913.1600000000001</ele>
        <time>2012-07-07T11:26:22Z</time>
      </trkpt>
      <trkpt lat="46.134808100759983" lon="7.322803940623999">
        <ele>1904.99</ele>
        <time>2012-07-07T11:26:31Z</time>
      </trkpt>
      <trkpt lat="46.135047236457467" lon="7.322771670296788">
        <ele>1899.22</ele>
        <time>2012-07-07T11:26:36Z</time>
      </trkpt>
      <trkpt lat="46.135176904499531" lon="7.322767898440361">
        <ele>1895.3800000000001</ele>
        <time>2012-07-07T11:26:39Z</time>
      </trkpt>
      <trkpt lat="46.135383266955614" lon="7.322759851813316">
        <ele>1890.0899999999999</ele>
        <time>2012-07-07T11:26:43Z</time>
      </trkpt>
      <trkpt lat="46.135489046573639" lon="7.322708638384938">
        <ele>1887.6900000000001</ele>
        <time>2012-07-07T11:26:45Z</time>
      </trkpt>
      <trkpt lat="46.135635646060109" lon="7.322530103847385">
        <ele>1883.8399999999999</ele>
        <time>2012-07-07T11:26:48Z</time>
      </trkpt>
      <trkpt lat="46.135983914136887" lon="7.321749664843082">
        <ele>1877.1099999999999</ele>
        <time>2012-07-07T11:26:57Z</time>
      </trkpt>
      <trkpt lat="46.136270575225353" lon="7.321469206362963">
        <ele>1872.79</ele>
        <time>2012-07-07T11:27:03Z</time>
      </trkpt>
      <trkpt lat="46.136574586853385" lon="7.321265861392021">
        <ele>1868.46</ele>
        <time>2012-07-07T11:27:12Z</time>
      </trkpt>
      <trkpt lat="46.136498562991619" lon="7.321195956319571">
        <ele>1865.5799999999999</ele>
        <time>2012-07-07T11:27:19Z</time>
      </trkpt>
      <trkpt lat="46.136154653504491" lon="7.321107108145952">
        <ele>1862.6900000000001</ele>
        <time>2012-07-07T11:27:26Z</time>
      </trkpt>
      <trkpt lat="46.135917864739895" lon="7.321093361824751">
        <ele>1860.29</ele>
        <time>2012-07-07T11:27:30Z</time>
      </trkpt>
      <trkpt lat="46.135347308591008" lon="7.321382286027074">
        <ele>1855.48</ele>
        <time>2012-07-07T11:27:38Z</time>
      </trkpt>
      <trkpt lat="46.13502636551857" lon="7.321689398959279">
        <ele>1851.6400000000001</ele>
        <time>2012-07-07T11:27:43Z</time>
      </trkpt>
      <trkpt lat="46.134763341397047" lon="7.321787802502513">
        <ele>1848.75</ele>
        <time>2012-07-07T11:27:47Z</time>
      </trkpt>
      <trkpt lat="46.134544238448143" lon="7.321741450577974">
        <ele>1847.3099999999999</ele>
        <time>2012-07-07T11:27:50Z</time>
      </trkpt>
      <trkpt lat="46.134216841310263" lon="7.321509355679154">
        <ele>1845.8699999999999</ele>
        <time>2012-07-07T11:27:56Z</time>
      </trkpt>
      <trkpt lat="46.133993966504931" lon="7.32169434428215">
        <ele>1843.95</ele>
        <time>2012-07-07T11:28:01Z</time>
      </trkpt>
      <trkpt lat="46.133751394227147" lon="7.321385303512216">
        <ele>1841.0599999999999</ele>
        <time>2012-07-07T11:28:07Z</time>
      </trkpt>
      <trkpt lat="46.133425254374743" lon="7.32116611674428">
        <ele>1837.22</ele>
        <time>2012-07-07T11:28:12Z</time>
      </trkpt>
      <trkpt lat="46.133197685703635" lon="7.321028150618076">
        <ele>1835.77</ele>
        <time>2012-07-07T11:28:15Z</time>
      </trkpt>
      <trkpt lat="46.133008506149054" lon="7.320866882801056">
        <ele>1833.8499999999999</ele>
        <time>2012-07-07T11:28:18Z</time>
      </trkpt>
      <trkpt lat="46.132694520056248" lon="7.320741657167673">
        <ele>1830.49</ele>
        <time>2012-07-07T11:28:22Z</time>
      </trkpt>
      <trkpt lat="46.132323453202844" lon="7.320481901988387">
        <ele>1825.2</ele>
        <time>2012-07-07T11:28:29Z</time>
      </trkpt>
      <trkpt lat="46.132247848436236" lon="7.320178728550673">
        <ele>1822.3199999999999</ele>
        <time>2012-07-07T11:28:32Z</time>
      </trkpt>
      <trkpt lat="46.132169980555773" lon="7.319990135729313">
        <ele>1820.3900000000001</ele>
        <time>2012-07-07T11:28:34Z</time>
      </trkpt>
      <trkpt lat="46.13197099417448" lon="7.319539692252874">
        <ele>1816.0699999999999</ele>
        <time>2012-07-07T11:28:39Z</time>
      </trkpt>
      <trkpt lat="46.131789358332753" lon="7.318984642624855">
        <ele>1810.78</ele>
        <time>2012-07-07T11:28:44Z</time>
      </trkpt>
      <trkpt lat="46.131581738591194" lon="7.318612989038229">
        <ele>1805.97</ele>
        <time>2012-07-07T11:28:48Z</time>
      </trkpt>
      <trkpt lat="46.130893919616938" lon="7.318080570548773">
        <ele>1797.3199999999999</ele>
        <time>2012-07-07T11:28:57Z</time>
      </trkpt>
      <trkpt lat="46.130764754489064" lon="7.317967833951116">
        <ele>1794.9200000000001</ele>
        <time>2012-07-07T11:28:59Z</time>
      </trkpt>
      <trkpt lat="46.13053341396153" lon="7.317861299961805">
        <ele>1792.52</ele>
        <time>2012-07-07T11:29:02Z</time>
      </trkpt>
      <trkpt lat="46.130365021526814" lon="7.317826095968485">
        <ele>1790.5899999999999</ele>
        <time>2012-07-07T11:29:04Z</time>
      </trkpt>
      <trkpt lat="46.130207860842347" lon="7.317768009379506">
        <ele>1789.6300000000001</ele>
        <time>2012-07-07T11:29:06Z</time>
      </trkpt>
      <trkpt lat="46.1301273945719" lon="7.317728446796536">
        <ele>1788.6700000000001</ele>
        <time>2012-07-07T11:29:07Z</time>
      </trkpt>
      <trkpt lat="46.13004432991147" lon="7.317698271945119">
        <ele>1787.71</ele>
        <time>2012-07-07T11:29:08Z</time>
      </trkpt>
      <trkpt lat="46.12995489500463" lon="7.31767094694078">
        <ele>1786.75</ele>
        <time>2012-07-07T11:29:09Z</time>
      </trkpt>
      <trkpt lat="46.129866130650043" lon="7.31764898635447">
        <ele>1785.79</ele>
        <time>2012-07-07T11:29:10Z</time>
      </trkpt>
      <trkpt lat="46.129784407094121" lon="7.317636581137776">
        <ele>1784.8199999999999</ele>
        <time>2012-07-07T11:29:11Z</time>
      </trkpt>
      <trkpt lat="46.129711149260402" lon="7.317634150385857">
        <ele>1783.8599999999999</ele>
        <time>2012-07-07T11:29:12Z</time>
      </trkpt>
      <trkpt lat="46.12964266911149" lon="7.317641694098711">
        <ele>1783.3800000000001</ele>
        <time>2012-07-07T11:29:13Z</time>
      </trkpt>
      <trkpt lat="46.129580810666084" lon="7.317659296095371">
        <ele>1782.9000000000001</ele>
        <time>2012-07-07T11:29:14Z</time>
      </trkpt>
      <trkpt lat="46.129528842866421" lon="7.317684357985854">
        <ele>1782.4200000000001</ele>
        <time>2012-07-07T11:29:15Z</time>
      </trkpt>
      <trkpt lat="46.129487352445722" lon="7.317714616656303">
        <ele>1781.9400000000001</ele>
        <time>2012-07-07T11:29:16Z</time>
      </trkpt>
      <trkpt lat="46.129453321918845" lon="7.317726518958807">
        <ele>1781.46</ele>
        <time>2012-07-07T11:29:17Z</time>
      </trkpt>
      <trkpt lat="46.129428846761584" lon="7.317710760980845">
        <ele>1780.98</ele>
        <time>2012-07-07T11:29:18Z</time>
      </trkpt>
      <trkpt lat="46.129444856196642" lon="7.317648734897375">
        <ele>1780.5</ele>
        <time>2012-07-07T11:29:20Z</time>
      </trkpt>
      <trkpt lat="46.129471259191632" lon="7.317626606673002">
        <ele>1780.5</ele>
        <time>2012-07-07T11:29:21Z</time>
      </trkpt>
      <trkpt lat="46.129504619166255" lon="7.317613195627928">
        <ele>1780.5</ele>
        <time>2012-07-07T11:29:22Z</time>
      </trkpt>
      <trkpt lat="46.129540912806988" lon="7.317597102373838">
        <ele>1780.02</ele>
        <time>2012-07-07T11:29:23Z</time>
      </trkpt>
      <trkpt lat="46.129580391570926" lon="7.31757715344429">
        <ele>1780.02</ele>
        <time>2012-07-07T11:29:24Z</time>
      </trkpt>
      <trkpt lat="46.130306599661708" lon="7.317197788506746">
        <ele>1778.5799999999999</ele>
        <time>2012-07-07T11:29:37Z</time>
      </trkpt>
      <trkpt lat="46.130376001819968" lon="7.317194938659668">
        <ele>1778.5799999999999</ele>
        <time>2012-07-07T11:29:38Z</time>
      </trkpt>
      <trkpt lat="46.130447667092085" lon="7.317204494029284">
        <ele>1778.5799999999999</ele>
        <time>2012-07-07T11:29:39Z</time>
      </trkpt>
      <trkpt lat="46.130520422011614" lon="7.317226957529783">
        <ele>1778.0999999999999</ele>
        <time>2012-07-07T11:29:40Z</time>
      </trkpt>
      <trkpt lat="46.130590746179223" lon="7.317262496799231">
        <ele>1778.0999999999999</ele>
        <time>2012-07-07T11:29:41Z</time>
      </trkpt>
      <trkpt lat="46.130661237984896" lon="7.317305915057659">
        <ele>1777.6099999999999</ele>
        <time>2012-07-07T11:29:42Z</time>
      </trkpt>
      <trkpt lat="46.130735417827964" lon="7.317346818745136">
        <ele>1777.6099999999999</ele>
        <time>2012-07-07T11:29:43Z</time>
      </trkpt>
      <trkpt lat="46.130813369527459" lon="7.317375065758824">
        <ele>1777.1300000000001</ele>
        <time>2012-07-07T11:29:44Z</time>
      </trkpt>
      <trkpt lat="46.130892913788557" lon="7.317388309165835">
        <ele>1777.1300000000001</ele>
        <time>2012-07-07T11:29:45Z</time>
      </trkpt>
      <trkpt lat="46.131643932312727" lon="7.317577069625258">
        <ele>1772.3299999999999</ele>
        <time>2012-07-07T11:29:55Z</time>
      </trkpt>
      <trkpt lat="46.13244247622788" lon="7.317937156185508">
        <ele>1765.1199999999999</ele>
        <time>2012-07-07T11:30:04Z</time>
      </trkpt>
      <trkpt lat="46.132544232532382" lon="7.318022567778826">
        <ele>1764.1600000000001</ele>
        <time>2012-07-07T11:30:05Z</time>
      </trkpt>
      <trkpt lat="46.133491052314639" lon="7.318767551332712">
        <ele>1752.1400000000001</ele>
        <time>2012-07-07T11:30:14Z</time>
      </trkpt>
      <trkpt lat="46.133596329018474" lon="7.318791355937719">
        <ele>1751.1800000000001</ele>
        <time>2012-07-07T11:30:15Z</time>
      </trkpt>
      <trkpt lat="46.133699007332325" lon="7.318800240755081">
        <ele>1750.22</ele>
        <time>2012-07-07T11:30:16Z</time>
      </trkpt>
      <trkpt lat="46.133795734494925" lon="7.318787164986134">
        <ele>1749.26</ele>
        <time>2012-07-07T11:30:17Z</time>
      </trkpt>
      <trkpt lat="46.133892377838492" lon="7.318747686222196">
        <ele>1748.29</ele>
        <time>2012-07-07T11:30:18Z</time>
      </trkpt>
      <trkpt lat="46.13398851826787" lon="7.318695718422532">
        <ele>1747.3299999999999</ele>
        <time>2012-07-07T11:30:19Z</time>
      </trkpt>
      <trkpt lat="46.134080803021789" lon="7.318636123090982">
        <ele>1746.8499999999999</ele>
        <time>2012-07-07T11:30:20Z</time>
      </trkpt>
      <trkpt lat="46.134168980643153" lon="7.318555489182472">
        <ele>1746.8499999999999</ele>
        <time>2012-07-07T11:30:21Z</time>
      </trkpt>
      <trkpt lat="46.134253218770027" lon="7.318458678200841">
        <ele>1746.3699999999999</ele>
        <time>2012-07-07T11:30:22Z</time>
      </trkpt>
      <trkpt lat="46.134332846850157" lon="7.318349545821548">
        <ele>1746.3699999999999</ele>
        <time>2012-07-07T11:30:23Z</time>
      </trkpt>
      <trkpt lat="46.134409960359335" lon="7.31823580339551">
        <ele>1745.8900000000001</ele>
        <time>2012-07-07T11:30:24Z</time>
      </trkpt>
      <trkpt lat="46.134639121592045" lon="7.317921733483672">
        <ele>1744.45</ele>
        <time>2012-07-07T11:30:27Z</time>
      </trkpt>
      <trkpt lat="46.134726209565997" lon="7.317832969129086">
        <ele>1743.97</ele>
        <time>2012-07-07T11:30:28Z</time>
      </trkpt>
      <trkpt lat="46.135093420743942" lon="7.317443797364831">
        <ele>1741.5699999999999</ele>
        <time>2012-07-07T11:30:33Z</time>
      </trkpt>
      <trkpt lat="46.135158045217395" lon="7.317407000809908">
        <ele>1741.0799999999999</ele>
        <time>2012-07-07T11:30:34Z</time>
      </trkpt>
      <trkpt lat="46.135225938633084" lon="7.317383699119091">
        <ele>1741.0799999999999</ele>
        <time>2012-07-07T11:30:35Z</time>
      </trkpt>
      <trkpt lat="46.135290060192347" lon="7.317345477640629">
        <ele>1740.5999999999999</ele>
        <time>2012-07-07T11:30:36Z</time>
      </trkpt>
      <trkpt lat="46.135344207286835" lon="7.317280601710081">
        <ele>1740.5999999999999</ele>
        <time>2012-07-07T11:30:37Z</time>
      </trkpt>
      <trkpt lat="46.135394917801023" lon="7.317205751314759">
        <ele>1740.1199999999999</ele>
        <time>2012-07-07T11:30:38Z</time>
      </trkpt>
      <trkpt lat="46.135456692427397" lon="7.317130398005247">
        <ele>1740.1199999999999</ele>
        <time>2012-07-07T11:30:39Z</time>
      </trkpt>
      <trkpt lat="46.135983914136887" lon="7.316538048908114">
        <ele>1739.6400000000001</ele>
        <time>2012-07-07T11:30:47Z</time>
      </trkpt>
      <trkpt lat="46.136176865547895" lon="7.31622850522399">
        <ele>1739.1600000000001</ele>
        <time>2012-07-07T11:30:51Z</time>
      </trkpt>
      <trkpt lat="46.136219948530197" lon="7.316177375614643">
        <ele>1739.1600000000001</ele>
        <time>2012-07-07T11:30:52Z</time>
      </trkpt>
      <trkpt lat="46.136266132816672" lon="7.316144183278084">
        <ele>1739.1600000000001</ele>
        <time>2012-07-07T11:30:53Z</time>
      </trkpt>
      <trkpt lat="46.136314077302814" lon="7.316126246005297">
        <ele>1739.1600000000001</ele>
        <time>2012-07-07T11:30:54Z</time>
      </trkpt>
      <trkpt lat="46.136361937969923" lon="7.316122138872743">
        <ele>1739.1600000000001</ele>
        <time>2012-07-07T11:30:55Z</time>
      </trkpt>
      <trkpt lat="46.136406445875764" lon="7.316129431128502">
        <ele>1739.1600000000001</ele>
        <time>2012-07-07T11:30:56Z</time>
      </trkpt>
      <trkpt lat="46.136451875790954" lon="7.316140495240688">
        <ele>1739.6400000000001</ele>
        <time>2012-07-07T11:30:57Z</time>
      </trkpt>
      <trkpt lat="46.137020504102111" lon="7.316321795806289">
        <ele>1741.0799999999999</ele>
        <time>2012-07-07T11:31:10Z</time>
      </trkpt>
      <trkpt lat="46.137753752991557" lon="7.316236803308129">
        <ele>1740.1199999999999</ele>
        <time>2012-07-07T11:31:25Z</time>
      </trkpt>
      <trkpt lat="46.13781058229506" lon="7.316256584599614">
        <ele>1740.1199999999999</ele>
        <time>2012-07-07T11:31:26Z</time>
      </trkpt>
      <trkpt lat="46.137867579236627" lon="7.316288352012634">
        <ele>1740.1199999999999</ele>
        <time>2012-07-07T11:31:27Z</time>
      </trkpt>
      <trkpt lat="46.138168405741453" lon="7.316482728347182">
        <ele>1738.6800000000001</ele>
        <time>2012-07-07T11:31:32Z</time>
      </trkpt>
      <trkpt lat="46.138238813728094" lon="7.316503347828984">
        <ele>1738.2</ele>
        <time>2012-07-07T11:31:33Z</time>
      </trkpt>
      <trkpt lat="46.138310311362147" lon="7.316512484103441">
        <ele>1738.2</ele>
        <time>2012-07-07T11:31:34Z</time>
      </trkpt>
      <trkpt lat="46.138459425419569" lon="7.316508796066046">
        <ele>1737.72</ele>
        <time>2012-07-07T11:31:36Z</time>
      </trkpt>
      <trkpt lat="46.138534108176827" lon="7.316492451354861">
        <ele>1737.24</ele>
        <time>2012-07-07T11:31:37Z</time>
      </trkpt>
      <trkpt lat="46.138608120381832" lon="7.316465545445681">
        <ele>1737.24</ele>
        <time>2012-07-07T11:31:38Z</time>
      </trkpt>
      <trkpt lat="46.138679953292012" lon="7.316422127187252">
        <ele>1737.24</ele>
        <time>2012-07-07T11:31:39Z</time>
      </trkpt>
      <trkpt lat="46.138749774545431" lon="7.31636487878859">
        <ele>1737.24</ele>
        <time>2012-07-07T11:31:40Z</time>
      </trkpt>
      <trkpt lat="46.138815823942423" lon="7.316295811906457">
        <ele>1737.24</ele>
        <time>2012-07-07T11:31:41Z</time>
      </trkpt>
      <trkpt lat="46.138878772035241" lon="7.316213166341186">
        <ele>1737.24</ele>
        <time>2012-07-07T11:31:42Z</time>
      </trkpt>
      <trkpt lat="46.139137521386147" lon="7.315805302932859">
        <ele>1735.3199999999999</ele>
        <time>2012-07-07T11:31:46Z</time>
      </trkpt>
      <trkpt lat="46.139191836118698" lon="7.315670102834702">
        <ele>1734.8399999999999</ele>
        <time>2012-07-07T11:31:47Z</time>
      </trkpt>
      <trkpt lat="46.13935855217278" lon="7.315247571095824">
        <ele>1733.3900000000001</ele>
        <time>2012-07-07T11:31:50Z</time>
      </trkpt>
      <trkpt lat="46.139437677338719" lon="7.315140618011355">
        <ele>1733.3900000000001</ele>
        <time>2012-07-07T11:31:51Z</time>
      </trkpt>
      <trkpt lat="46.139534823596478" lon="7.315059984102845">
        <ele>1733.3900000000001</ele>
        <time>2012-07-07T11:31:52Z</time>
      </trkpt>
      <trkpt lat="46.139645213261247" lon="7.315014721825719">
        <ele>1733.3900000000001</ele>
        <time>2012-07-07T11:31:53Z</time>
      </trkpt>
      <trkpt lat="46.139764487743378" lon="7.315006339922547">
        <ele>1733.3900000000001</ele>
        <time>2012-07-07T11:31:54Z</time>
      </trkpt>
      <trkpt lat="46.139888036996126" lon="7.315034419298172">
        <ele>1733.8800000000001</ele>
        <time>2012-07-07T11:31:55Z</time>
      </trkpt>
      <trkpt lat="46.140010496601462" lon="7.315088147297502">
        <ele>1733.8800000000001</ele>
        <time>2012-07-07T11:31:56Z</time>
      </trkpt>
      <trkpt lat="46.140130776911974" lon="7.315162075683475">
        <ele>1733.8800000000001</ele>
        <time>2012-07-07T11:31:57Z</time>
      </trkpt>
      <trkpt lat="46.14024787209928" lon="7.315260646864772">
        <ele>1733.8800000000001</ele>
        <time>2012-07-07T11:31:58Z</time>
      </trkpt>
      <trkpt lat="46.140355411916971" lon="7.315386040136218">
        <ele>1733.8800000000001</ele>
        <time>2012-07-07T11:31:59Z</time>
      </trkpt>
      <trkpt lat="46.140474015846848" lon="7.315550493076444">
        <ele>1731.47</ele>
        <time>2012-07-07T11:32:00Z</time>
      </trkpt>
      <trkpt lat="46.140578035265207" lon="7.315731458365917">
        <ele>1729.55</ele>
        <time>2012-07-07T11:32:01Z</time>
      </trkpt>
      <trkpt lat="46.140664201229811" lon="7.315912507474423">
        <ele>1727.6300000000001</ele>
        <time>2012-07-07T11:32:02Z</time>
      </trkpt>
      <trkpt lat="46.140743913128972" lon="7.316069919615984">
        <ele>1725.22</ele>
        <time>2012-07-07T11:32:03Z</time>
      </trkpt>
      <trkpt lat="46.140820439904928" lon="7.316196151077747">
        <ele>1723.78</ele>
        <time>2012-07-07T11:32:04Z</time>
      </trkpt>
      <trkpt lat="46.140945749357343" lon="7.316382564604282">
        <ele>1720.4200000000001</ele>
        <time>2012-07-07T11:32:06Z</time>
      </trkpt>
      <trkpt lat="46.141344141215086" lon="7.316869217902422">
        <ele>1709.8399999999999</ele>
        <time>2012-07-07T11:32:13Z</time>
      </trkpt>
      <trkpt lat="46.141400299966335" lon="7.31694239191711">
        <ele>1708.4000000000001</ele>
        <time>2012-07-07T11:32:14Z</time>
      </trkpt>
      <trkpt lat="46.141464924439788" lon="7.317001400515437">
        <ele>1706.96</ele>
        <time>2012-07-07T11:32:15Z</time>
      </trkpt>
      <trkpt lat="46.141538349911571" lon="7.317025121301413">
        <ele>1706</ele>
        <time>2012-07-07T11:32:16Z</time>
      </trkpt>
      <trkpt lat="46.141616720706224" lon="7.317012213170528">
        <ele>1704.55</ele>
        <time>2012-07-07T11:32:17Z</time>
      </trkpt>
      <trkpt lat="46.141693331301212" lon="7.316970303654671">
        <ele>1703.5899999999999</ele>
        <time>2012-07-07T11:32:18Z</time>
      </trkpt>
      <trkpt lat="46.141766337677836" lon="7.316901404410601">
        <ele>1702.1500000000001</ele>
        <time>2012-07-07T11:32:19Z</time>
      </trkpt>
      <trkpt lat="46.141836829483509" lon="7.316820183768868">
        <ele>1701.1900000000001</ele>
        <time>2012-07-07T11:32:20Z</time>
      </trkpt>
      <trkpt lat="46.141908410936594" lon="7.316741645336151">
        <ele>1700.23</ele>
        <time>2012-07-07T11:32:21Z</time>
      </trkpt>
      <trkpt lat="46.142046209424734" lon="7.316602924838662">
        <ele>1699.27</ele>
        <time>2012-07-07T11:32:23Z</time>
      </trkpt>
      <trkpt lat="46.142099602147937" lon="7.31651533395052">
        <ele>1698.79</ele>
        <time>2012-07-07T11:32:24Z</time>
      </trkpt>
      <trkpt lat="46.142143020406365" lon="7.316411230713129">
        <ele>1698.3099999999999</ele>
        <time>2012-07-07T11:32:25Z</time>
      </trkpt>
      <trkpt lat="46.142183924093843" lon="7.31630427762866">
        <ele>1698.3099999999999</ele>
        <time>2012-07-07T11:32:26Z</time>
      </trkpt>
      <trkpt lat="46.142224660143256" lon="7.316209562122822">
        <ele>1697.8299999999999</ele>
        <time>2012-07-07T11:32:27Z</time>
      </trkpt>
      <trkpt lat="46.142328595742583" lon="7.315936395898461">
        <ele>1696.8599999999999</ele>
        <time>2012-07-07T11:32:34Z</time>
      </trkpt>
      <trkpt lat="46.142390621826053" lon="7.315786862745881">
        <ele>1697.8299999999999</ele>
        <time>2012-07-07T11:32:42Z</time>
      </trkpt>
      <trkpt lat="46.14239389076829" lon="7.31576775200665">
        <ele>1697.3399999999999</ele>
        <time>2012-07-07T11:32:43Z</time>
      </trkpt>
      <trkpt lat="46.142398919910192" lon="7.315747383981943">
        <ele>1697.3399999999999</ele>
        <time>2012-07-07T11:32:44Z</time>
      </trkpt>
      <trkpt lat="46.142401937395334" lon="7.315727015957236">
        <ele>1697.3399999999999</ele>
        <time>2012-07-07T11:32:45Z</time>
      </trkpt>
      <trkpt lat="46.142405876889825" lon="7.315706647932529">
        <ele>1697.3399999999999</ele>
        <time>2012-07-07T11:32:46Z</time>
      </trkpt>
      <trkpt lat="46.142409984022379" lon="7.315684100612998">
        <ele>1697.3399999999999</ele>
        <time>2012-07-07T11:32:47Z</time>
      </trkpt>
      <trkpt lat="46.142482906579971" lon="7.315401043742895">
        <ele>1699.27</ele>
        <time>2012-07-07T11:33:02Z</time>
      </trkpt>
      <trkpt lat="46.142529426142573" lon="7.315095691010356">
        <ele>1699.27</ele>
        <time>2012-07-07T11:33:17Z</time>
      </trkpt>
      <trkpt lat="46.142538646236062" lon="7.315051853656769">
        <ele>1698.79</ele>
        <time>2012-07-07T11:33:19Z</time>
      </trkpt>
      <trkpt lat="46.142701422795653" lon="7.314841132611036">
        <ele>1699.75</ele>
        <time>2012-07-07T11:33:34Z</time>
      </trkpt>
      <trkpt lat="46.142853805795312" lon="7.314716074615717">
        <ele>1701.6700000000001</ele>
        <time>2012-07-07T11:33:46Z</time>
      </trkpt>
      <trkpt lat="46.143036112189293" lon="7.314594704657793">
        <ele>1704.55</ele>
        <time>2012-07-07T11:33:59Z</time>
      </trkpt>
      <trkpt lat="46.143049774691463" lon="7.314587077125907">
        <ele>1704.55</ele>
        <time>2012-07-07T11:34:00Z</time>
      </trkpt>
      <trkpt lat="46.14338044077158" lon="7.314610546454787">
        <ele>1704.55</ele>
        <time>2012-07-07T11:34:14Z</time>
      </trkpt>
      <trkpt lat="46.143468534573913" lon="7.314621610566974">
        <ele>1704.0699999999999</ele>
        <time>2012-07-07T11:34:16Z</time>
      </trkpt>
      <trkpt lat="46.144003048539162" lon="7.314683888107538">
        <ele>1698.3099999999999</ele>
        <time>2012-07-07T11:34:24Z</time>
      </trkpt>
      <trkpt lat="46.144081838428974" lon="7.314705513417721">
        <ele>1697.3399999999999</ele>
        <time>2012-07-07T11:34:25Z</time>
      </trkpt>
      <trkpt lat="46.144164819270372" lon="7.314719846472144">
        <ele>1696.8599999999999</ele>
        <time>2012-07-07T11:34:26Z</time>
      </trkpt>
      <trkpt lat="46.1442497279495" lon="7.314724121242762">
        <ele>1695.9000000000001</ele>
        <time>2012-07-07T11:34:27Z</time>
      </trkpt>
      <trkpt lat="46.144334971904755" lon="7.31472353450954">
        <ele>1694.9400000000001</ele>
        <time>2012-07-07T11:34:28Z</time>
      </trkpt>
      <trkpt lat="46.144506633281708" lon="7.314727976918221">
        <ele>1693.02</ele>
        <time>2012-07-07T11:34:30Z</time>
      </trkpt>
      <trkpt lat="46.144820619374514" lon="7.314776508137584">
        <ele>1689.6500000000001</ele>
        <time>2012-07-07T11:34:34Z</time>
      </trkpt>
      <trkpt lat="46.144893458113074" lon="7.31476997025311">
        <ele>1689.1700000000001</ele>
        <time>2012-07-07T11:34:35Z</time>
      </trkpt>
      <trkpt lat="46.14496554248035" lon="7.314750608056784">
        <ele>1688.6900000000001</ele>
        <time>2012-07-07T11:34:36Z</time>
      </trkpt>
      <trkpt lat="46.145034860819578" lon="7.314719930291176">
        <ele>1688.6900000000001</ele>
        <time>2012-07-07T11:34:37Z</time>
      </trkpt>
      <trkpt lat="46.145102670416236" lon="7.314685732126236">
        <ele>1688.6900000000001</ele>
        <time>2012-07-07T11:34:38Z</time>
      </trkpt>
      <trkpt lat="46.145174419507384" lon="7.314662011340261">
        <ele>1688.6900000000001</ele>
        <time>2012-07-07T11:34:39Z</time>
      </trkpt>
      <trkpt lat="46.145253209397197" lon="7.31464977376163">
        <ele>1688.6900000000001</ele>
        <time>2012-07-07T11:34:40Z</time>
      </trkpt>
      <trkpt lat="46.145336274057627" lon="7.314641727134585">
        <ele>1688.21</ele>
        <time>2012-07-07T11:34:41Z</time>
      </trkpt>
      <trkpt lat="46.145499385893345" lon="7.314618341624737">
        <ele>1688.21</ele>
        <time>2012-07-07T11:34:43Z</time>
      </trkpt>
      <trkpt lat="46.145573984831572" lon="7.314590681344271">
        <ele>1688.21</ele>
        <time>2012-07-07T11:34:44Z</time>
      </trkpt>
      <trkpt lat="46.145646153017879" lon="7.314545502886176">
        <ele>1688.21</ele>
        <time>2012-07-07T11:34:45Z</time>
      </trkpt>
      <trkpt lat="46.145711615681648" lon="7.314492780715227">
        <ele>1687.73</ele>
        <time>2012-07-07T11:34:46Z</time>
      </trkpt>
      <trkpt lat="46.14576886408031" lon="7.314444081857801">
        <ele>1687.73</ele>
        <time>2012-07-07T11:34:47Z</time>
      </trkpt>
      <trkpt lat="46.145862909033895" lon="7.314363783225417">
        <ele>1687.73</ele>
        <time>2012-07-07T11:34:49Z</time>
      </trkpt>
      <trkpt lat="46.145903645083308" lon="7.314340816810727">
        <ele>1688.21</ele>
        <time>2012-07-07T11:34:50Z</time>
      </trkpt>
      <trkpt lat="46.145945722237229" lon="7.314326986670494">
        <ele>1687.73</ele>
        <time>2012-07-07T11:34:51Z</time>
      </trkpt>
      <trkpt lat="46.14598779939115" lon="7.314319610595703">
        <ele>1688.21</ele>
        <time>2012-07-07T11:34:52Z</time>
      </trkpt>
      <trkpt lat="46.146024679765105" lon="7.314313827082515">
        <ele>1688.21</ele>
        <time>2012-07-07T11:34:53Z</time>
      </trkpt>
      <trkpt lat="46.146059548482299" lon="7.314307875931263">
        <ele>1688.21</ele>
        <time>2012-07-07T11:34:54Z</time>
      </trkpt>
      <trkpt lat="46.146162562072277" lon="7.314240653067827">
        <ele>1688.21</ele>
        <time>2012-07-07T11:34:57Z</time>
      </trkpt>
      <trkpt lat="46.147148525342345" lon="7.313697086647153">
        <ele>1683.8900000000001</ele>
        <time>2012-07-07T11:35:30Z</time>
      </trkpt>
      <trkpt lat="46.147206276655197" lon="7.313659284263849">
        <ele>1682.4400000000001</ele>
        <time>2012-07-07T11:35:31Z</time>
      </trkpt>
      <trkpt lat="46.147398641332984" lon="7.313539423048496">
        <ele>1681</ele>
        <time>2012-07-07T11:35:35Z</time>
      </trkpt>
      <trkpt lat="46.147445579990745" lon="7.313501201570034">
        <ele>1681</ele>
        <time>2012-07-07T11:35:36Z</time>
      </trkpt>
      <trkpt lat="46.147501487284899" lon="7.313471529632807">
        <ele>1681</ele>
        <time>2012-07-07T11:35:37Z</time>
      </trkpt>
      <trkpt lat="46.147602321580052" lon="7.313443785533309">
        <ele>1680.04</ele>
        <time>2012-07-07T11:35:39Z</time>
      </trkpt>
      <trkpt lat="46.147657474502921" lon="7.313444875180721">
        <ele>1679.5599999999999</ele>
        <time>2012-07-07T11:35:40Z</time>
      </trkpt>
      <trkpt lat="46.147709442302585" lon="7.313465159386396">
        <ele>1679.5599999999999</ele>
        <time>2012-07-07T11:35:41Z</time>
      </trkpt>
      <trkpt lat="46.147756464779377" lon="7.313490640372038">
        <ele>1678.5999999999999</ele>
        <time>2012-07-07T11:35:42Z</time>
      </trkpt>
      <trkpt lat="46.147796111181378" lon="7.313518468290567">
        <ele>1678.1199999999999</ele>
        <time>2012-07-07T11:35:43Z</time>
      </trkpt>
      <trkpt lat="46.147836847230792" lon="7.313549565151334">
        <ele>1677.6400000000001</ele>
        <time>2012-07-07T11:35:44Z</time>
      </trkpt>
      <trkpt lat="46.147885210812092" lon="7.313571441918612">
        <ele>1676.2</ele>
        <time>2012-07-07T11:35:45Z</time>
      </trkpt>
      <trkpt lat="46.147938016802073" lon="7.313585188239813">
        <ele>1675.23</ele>
        <time>2012-07-07T11:35:46Z</time>
      </trkpt>
      <trkpt lat="46.147993756458163" lon="7.31359189376235">
        <ele>1674.75</ele>
        <time>2012-07-07T11:35:47Z</time>
      </trkpt>
      <trkpt lat="46.148052932694554" lon="7.313589127734304">
        <ele>1674.75</ele>
        <time>2012-07-07T11:35:48Z</time>
      </trkpt>
      <trkpt lat="46.148112779483199" lon="7.313576554879546">
        <ele>1674.75</ele>
        <time>2012-07-07T11:35:49Z</time>
      </trkpt>
      <trkpt lat="46.148168770596385" lon="7.313552163541317">
        <ele>1674.27</ele>
        <time>2012-07-07T11:35:50Z</time>
      </trkpt>
      <trkpt lat="46.148224594071507" lon="7.313520815223455">
        <ele>1674.27</ele>
        <time>2012-07-07T11:35:51Z</time>
      </trkpt>
      <trkpt lat="46.14828041754663" lon="7.313485946506262">
        <ele>1674.27</ele>
        <time>2012-07-07T11:35:52Z</time>
      </trkpt>
      <trkpt lat="46.148332469165325" lon="7.313442947342992">
        <ele>1674.27</ele>
        <time>2012-07-07T11:35:53Z</time>
      </trkpt>
      <trkpt lat="46.148386280983686" lon="7.313394919037819">
        <ele>1674.27</ele>
        <time>2012-07-07T11:35:54Z</time>
      </trkpt>
      <trkpt lat="46.148442104458809" lon="7.31335049495101">
        <ele>1674.27</ele>
        <time>2012-07-07T11:35:55Z</time>
      </trkpt>
      <trkpt lat="46.148541010916233" lon="7.31325670145452">
        <ele>1674.27</ele>
        <time>2012-07-07T11:35:57Z</time>
      </trkpt>
      <trkpt lat="46.148582668974996" lon="7.313198279589415">
        <ele>1674.27</ele>
        <time>2012-07-07T11:35:58Z</time>
      </trkpt>
      <trkpt lat="46.148648466914892" lon="7.313109682872891">
        <ele>1673.79</ele>
        <time>2012-07-07T11:36:00Z</time>
      </trkpt>
      <trkpt lat="46.148685682564974" lon="7.313100295141339">
        <ele>1673.79</ele>
        <time>2012-07-07T11:36:01Z</time>
      </trkpt>
      <trkpt lat="46.148723401129246" lon="7.313116891309619">
        <ele>1673.79</ele>
        <time>2012-07-07T11:36:02Z</time>
      </trkpt>
      <trkpt lat="46.148759443312883" lon="7.313150083646178">
        <ele>1673.3099999999999</ele>
        <time>2012-07-07T11:36:03Z</time>
      </trkpt>
      <trkpt lat="46.148796575143933" lon="7.313194088637829">
        <ele>1672.8299999999999</ele>
        <time>2012-07-07T11:36:04Z</time>
      </trkpt>
      <trkpt lat="46.14883597008884" lon="7.31324446387589">
        <ele>1672.3499999999999</ele>
        <time>2012-07-07T11:36:05Z</time>
      </trkpt>
      <trkpt lat="46.148875616490841" lon="7.313294168561697">
        <ele>1671.8699999999999</ele>
        <time>2012-07-07T11:36:06Z</time>
      </trkpt>
      <trkpt lat="46.14892297424376" lon="7.313336497172713">
        <ele>1671.8699999999999</ele>
        <time>2012-07-07T11:36:07Z</time>
      </trkpt>
      <trkpt lat="46.148976283147931" lon="7.313366085290909">
        <ele>1671.8699999999999</ele>
        <time>2012-07-07T11:36:08Z</time>
      </trkpt>
      <trkpt lat="46.149035207927227" lon="7.31338276527822">
        <ele>1671.8699999999999</ele>
        <time>2012-07-07T11:36:09Z</time>
      </trkpt>
      <trkpt lat="46.14909497089684" lon="7.313402211293578">
        <ele>1671.8699999999999</ele>
        <time>2012-07-07T11:36:10Z</time>
      </trkpt>
      <trkpt lat="46.149153979495168" lon="7.313431045040488">
        <ele>1671.3900000000001</ele>
        <time>2012-07-07T11:36:11Z</time>
      </trkpt>
      <trkpt lat="46.149210641160607" lon="7.313468931242824">
        <ele>1670.9100000000001</ele>
        <time>2012-07-07T11:36:12Z</time>
      </trkpt>
      <trkpt lat="46.149263866245747" lon="7.31350195594132">
        <ele>1670.4300000000001</ele>
        <time>2012-07-07T11:36:13Z</time>
      </trkpt>
      <trkpt lat="46.149320024996996" lon="7.313523916527629">
        <ele>1669.95</ele>
        <time>2012-07-07T11:36:14Z</time>
      </trkpt>
      <trkpt lat="46.149381045252085" lon="7.313528610393405">
        <ele>1668.99</ele>
        <time>2012-07-07T11:36:15Z</time>
      </trkpt>
      <trkpt lat="46.149440137669444" lon="7.313510170206428">
        <ele>1668.99</ele>
        <time>2012-07-07T11:36:16Z</time>
      </trkpt>
      <trkpt lat="46.149495542049408" lon="7.313482509925962">
        <ele>1668.99</ele>
        <time>2012-07-07T11:36:17Z</time>
      </trkpt>
      <trkpt lat="46.149550611153245" lon="7.313451245427132">
        <ele>1668.51</ele>
        <time>2012-07-07T11:36:18Z</time>
      </trkpt>
      <trkpt lat="46.149603836238384" lon="7.313415622338653">
        <ele>1668.51</ele>
        <time>2012-07-07T11:36:19Z</time>
      </trkpt>
      <trkpt lat="46.149798128753901" lon="7.313274974003434">
        <ele>1668.02</ele>
        <time>2012-07-07T11:36:23Z</time>
      </trkpt>
      <trkpt lat="46.149847414344549" lon="7.313263909891248">
        <ele>1668.02</ele>
        <time>2012-07-07T11:36:24Z</time>
      </trkpt>
      <trkpt lat="46.150492737069726" lon="7.313077915459871">
        <ele>1667.54</ele>
        <time>2012-07-07T11:36:36Z</time>
      </trkpt>
      <trkpt lat="46.150733549147844" lon="7.312957802787423">
        <ele>1667.54</ele>
        <time>2012-07-07T11:36:40Z</time>
      </trkpt>
      <trkpt lat="46.150920381769538" lon="7.312858141958714">
        <ele>1667.0599999999999</ele>
        <time>2012-07-07T11:36:43Z</time>
      </trkpt>
      <trkpt lat="46.150982407853007" lon="7.312812879681587">
        <ele>1667.0599999999999</ele>
        <time>2012-07-07T11:36:44Z</time>
      </trkpt>
      <trkpt lat="46.151043260470033" lon="7.312755379825831">
        <ele>1667.0599999999999</ele>
        <time>2012-07-07T11:36:45Z</time>
      </trkpt>
      <trkpt lat="46.151294717565179" lon="7.312435526400805">
        <ele>1667.0599999999999</ele>
        <time>2012-07-07T11:36:50Z</time>
      </trkpt>
      <trkpt lat="46.151362778618932" lon="7.312406357377768">
        <ele>1667.0599999999999</ele>
        <time>2012-07-07T11:36:51Z</time>
      </trkpt>
      <trkpt lat="46.15143452771008" lon="7.312393868342042">
        <ele>1666.5799999999999</ele>
        <time>2012-07-07T11:36:52Z</time>
      </trkpt>
      <trkpt lat="46.151567548513412" lon="7.312385234981775">
        <ele>1666.5799999999999</ele>
        <time>2012-07-07T11:36:54Z</time>
      </trkpt>
      <trkpt lat="46.15163829177618" lon="7.312375176697969">
        <ele>1666.5799999999999</ele>
        <time>2012-07-07T11:36:55Z</time>
      </trkpt>
      <trkpt lat="46.151706101372838" lon="7.312365118414164">
        <ele>1666.5799999999999</ele>
        <time>2012-07-07T11:36:56Z</time>
      </trkpt>
      <trkpt lat="46.151771312579513" lon="7.312345337122679">
        <ele>1666.5799999999999</ele>
        <time>2012-07-07T11:36:57Z</time>
      </trkpt>
      <trkpt lat="46.151839038357139" lon="7.312323376536369">
        <ele>1666.5799999999999</ele>
        <time>2012-07-07T11:36:58Z</time>
      </trkpt>
      <trkpt lat="46.151910200715065" lon="7.312297141179442">
        <ele>1666.5799999999999</ele>
        <time>2012-07-07T11:36:59Z</time>
      </trkpt>
      <trkpt lat="46.151975579559803" lon="7.312255064025521">
        <ele>1666.5799999999999</ele>
        <time>2012-07-07T11:37:00Z</time>
      </trkpt>
      <trkpt lat="46.152240028604865" lon="7.312055490911007">
        <ele>1667.0599999999999</ele>
        <time>2012-07-07T11:37:04Z</time>
      </trkpt>
      <trkpt lat="46.152806645259261" lon="7.311734966933727">
        <ele>1667.0599999999999</ele>
        <time>2012-07-07T11:37:12Z</time>
      </trkpt>
      <trkpt lat="46.15288183093071" lon="7.311718706041575">
        <ele>1667.0599999999999</ele>
        <time>2012-07-07T11:37:13Z</time>
      </trkpt>
      <trkpt lat="46.152952741831541" lon="7.31171116232872">
        <ele>1667.0599999999999</ele>
        <time>2012-07-07T11:37:14Z</time>
      </trkpt>
      <trkpt lat="46.153020216152072" lon="7.311703367158771">
        <ele>1666.5799999999999</ele>
        <time>2012-07-07T11:37:15Z</time>
      </trkpt>
      <trkpt lat="46.15308903157711" lon="7.311692638322711">
        <ele>1666.5799999999999</ele>
        <time>2012-07-07T11:37:16Z</time>
      </trkpt>
      <trkpt lat="46.153575517237186" lon="7.311578895896673">
        <ele>1665.6199999999999</ele>
        <time>2012-07-07T11:37:23Z</time>
      </trkpt>
      <trkpt lat="46.154305161908269" lon="7.311474960297346">
        <ele>1663.7</ele>
        <time>2012-07-07T11:37:34Z</time>
      </trkpt>
      <trkpt lat="46.154445810243487" lon="7.3114566039294">
        <ele>1663.22</ele>
        <time>2012-07-07T11:37:36Z</time>
      </trkpt>
      <trkpt lat="46.154592745006084" lon="7.311406480148435">
        <ele>1662.74</ele>
        <time>2012-07-07T11:37:38Z</time>
      </trkpt>
      <trkpt lat="46.154673378914595" lon="7.311363816261292">
        <ele>1662.74</ele>
        <time>2012-07-07T11:37:39Z</time>
      </trkpt>
      <trkpt lat="46.1548803281039" lon="7.311287457123399">
        <ele>1661.78</ele>
        <time>2012-07-07T11:37:42Z</time>
      </trkpt>
      <trkpt lat="46.154941683635116" lon="7.311262814328075">
        <ele>1661.3</ele>
        <time>2012-07-07T11:37:43Z</time>
      </trkpt>
      <trkpt lat="46.155123235657811" lon="7.311219228431583">
        <ele>1660.3299999999999</ele>
        <time>2012-07-07T11:37:46Z</time>
      </trkpt>
      <trkpt lat="46.155181238427758" lon="7.311239931732416">
        <ele>1659.8499999999999</ele>
        <time>2012-07-07T11:37:47Z</time>
      </trkpt>
      <trkpt lat="46.155290119349957" lon="7.311288379132748">
        <ele>1658.4100000000001</ele>
        <time>2012-07-07T11:37:49Z</time>
      </trkpt>
      <trkpt lat="46.155350469052792" lon="7.311292989179492">
        <ele>1657.9300000000001</ele>
        <time>2012-07-07T11:37:50Z</time>
      </trkpt>
      <trkpt lat="46.155411740764976" lon="7.311281338334084">
        <ele>1657.45</ele>
        <time>2012-07-07T11:37:51Z</time>
      </trkpt>
      <trkpt lat="46.15547351539135" lon="7.311259461566806">
        <ele>1656.49</ele>
        <time>2012-07-07T11:37:52Z</time>
      </trkpt>
      <trkpt lat="46.155533865094185" lon="7.311238925904036">
        <ele>1656.01</ele>
        <time>2012-07-07T11:37:53Z</time>
      </trkpt>
      <trkpt lat="46.155593125149608" lon="7.311209589242935">
        <ele>1656.01</ele>
        <time>2012-07-07T11:37:54Z</time>
      </trkpt>
      <trkpt lat="46.155648110434413" lon="7.31116583570838">
        <ele>1656.01</ele>
        <time>2012-07-07T11:37:55Z</time>
      </trkpt>
      <trkpt lat="46.15569781512022" lon="7.311106324195862">
        <ele>1655.53</ele>
        <time>2012-07-07T11:37:56Z</time>
      </trkpt>
      <trkpt lat="46.155750704929233" lon="7.311045387759805">
        <ele>1655.53</ele>
        <time>2012-07-07T11:37:57Z</time>
      </trkpt>
      <trkpt lat="46.155811892822385" lon="7.310999035835266">
        <ele>1655.53</ele>
        <time>2012-07-07T11:37:58Z</time>
      </trkpt>
      <trkpt lat="46.155879031866789" lon="7.3109679389745">
        <ele>1655.53</ele>
        <time>2012-07-07T11:37:59Z</time>
      </trkpt>
      <trkpt lat="46.155946254730225" lon="7.310943296179175">
        <ele>1655.53</ele>
        <time>2012-07-07T11:38:00Z</time>
      </trkpt>
      <trkpt lat="46.15601247176528" lon="7.310906834900379">
        <ele>1655.05</ele>
        <time>2012-07-07T11:38:01Z</time>
      </trkpt>
      <trkpt lat="46.156078185886145" lon="7.310868948698044">
        <ele>1655.53</ele>
        <time>2012-07-07T11:38:02Z</time>
      </trkpt>
      <trkpt lat="46.156447911635041" lon="7.310741627588868">
        <ele>1655.53</ele>
        <time>2012-07-07T11:38:08Z</time>
      </trkpt>
      <trkpt lat="46.156510272994637" lon="7.310740957036614">
        <ele>1655.53</ele>
        <time>2012-07-07T11:38:09Z</time>
      </trkpt>
      <trkpt lat="46.156573640182614" lon="7.310740035027266">
        <ele>1655.53</ele>
        <time>2012-07-07T11:38:10Z</time>
      </trkpt>
      <trkpt lat="46.156634157523513" lon="7.310740537941456">
        <ele>1655.53</ele>
        <time>2012-07-07T11:38:11Z</time>
      </trkpt>
      <trkpt lat="46.156693669036031" lon="7.310745567083359">
        <ele>1655.05</ele>
        <time>2012-07-07T11:38:12Z</time>
      </trkpt>
      <trkpt lat="46.156813865527511" lon="7.310762163251638">
        <ele>1654.0899999999999</ele>
        <time>2012-07-07T11:38:14Z</time>
      </trkpt>
      <trkpt lat="46.156933223828673" lon="7.310798624530435">
        <ele>1652.6400000000001</ele>
        <time>2012-07-07T11:38:16Z</time>
      </trkpt>
      <trkpt lat="46.157114105299115" lon="7.310870038345456">
        <ele>1651.6800000000001</ele>
        <time>2012-07-07T11:38:19Z</time>
      </trkpt>
      <trkpt lat="46.157177221029997" lon="7.310886466875672">
        <ele>1651.6800000000001</ele>
        <time>2012-07-07T11:38:20Z</time>
      </trkpt>
      <trkpt lat="46.157296830788255" lon="7.310898536816239">
        <ele>1651.6800000000001</ele>
        <time>2012-07-07T11:38:22Z</time>
      </trkpt>
      <trkpt lat="46.157358605414629" lon="7.310888478532434">
        <ele>1651.2</ele>
        <time>2012-07-07T11:38:23Z</time>
      </trkpt>
      <trkpt lat="46.157558178529143" lon="7.310843635350466">
        <ele>1651.2</ele>
        <time>2012-07-07T11:38:26Z</time>
      </trkpt>
      <trkpt lat="46.157626742497087" lon="7.310841707512736">
        <ele>1651.2</ele>
        <time>2012-07-07T11:38:27Z</time>
      </trkpt>
      <trkpt lat="46.15769530646503" lon="7.310833744704723">
        <ele>1651.2</ele>
        <time>2012-07-07T11:38:28Z</time>
      </trkpt>
      <trkpt lat="46.15776470862329" lon="7.310818238183856">
        <ele>1651.2</ele>
        <time>2012-07-07T11:38:29Z</time>
      </trkpt>
      <trkpt lat="46.157835368067026" lon="7.310797115787864">
        <ele>1651.2</ele>
        <time>2012-07-07T11:38:30Z</time>
      </trkpt>
      <trkpt lat="46.158355046063662" lon="7.310595866292715">
        <ele>1651.2</ele>
        <time>2012-07-07T11:38:38Z</time>
      </trkpt>
      <trkpt lat="46.158420089632273" lon="7.310574157163501">
        <ele>1651.2</ele>
        <time>2012-07-07T11:38:39Z</time>
      </trkpt>
      <trkpt lat="46.158487815409899" lon="7.310541970655322">
        <ele>1651.2</ele>
        <time>2012-07-07T11:38:40Z</time>
      </trkpt>
      <trkpt lat="46.158619662746787" lon="7.310476927086711">
        <ele>1650.72</ele>
        <time>2012-07-07T11:38:42Z</time>
      </trkpt>
      <trkpt lat="46.158686634153128" lon="7.310456307604909">
        <ele>1650.72</ele>
        <time>2012-07-07T11:38:43Z</time>
      </trkpt>
      <trkpt lat="46.158828623592854" lon="7.310417583212256">
        <ele>1650.24</ele>
        <time>2012-07-07T11:38:45Z</time>
      </trkpt>
      <trkpt lat="46.158895930275321" lon="7.310383720323443">
        <ele>1649.76</ele>
        <time>2012-07-07T11:38:46Z</time>
      </trkpt>
      <trkpt lat="46.159113105386496" lon="7.310267295688391">
        <ele>1649.28</ele>
        <time>2012-07-07T11:38:49Z</time>
      </trkpt>
      <trkpt lat="46.159196337684989" lon="7.310246843844652">
        <ele>1649.28</ele>
        <time>2012-07-07T11:38:50Z</time>
      </trkpt>
      <trkpt lat="46.15939524024725" lon="7.310213819146156">
        <ele>1649.28</ele>
        <time>2012-07-07T11:38:53Z</time>
      </trkpt>
      <trkpt lat="46.159708639606833" lon="7.310090102255344">
        <ele>1648.8</ele>
        <time>2012-07-07T11:38:58Z</time>
      </trkpt>
      <trkpt lat="46.160561414435506" lon="7.309989267960191">
        <ele>1646.4000000000001</ele>
        <time>2012-07-07T11:39:10Z</time>
      </trkpt>
      <trkpt lat="46.161197349429131" lon="7.309809727594256">
        <ele>1645.9100000000001</ele>
        <time>2012-07-07T11:39:19Z</time>
      </trkpt>
      <trkpt lat="46.161260548979044" lon="7.309779552742839">
        <ele>1645.9100000000001</ele>
        <time>2012-07-07T11:39:20Z</time>
      </trkpt>
      <trkpt lat="46.161319725215435" lon="7.30973856523633">
        <ele>1645.9100000000001</ele>
        <time>2012-07-07T11:39:21Z</time>
      </trkpt>
      <trkpt lat="46.161581994965672" lon="7.309585260227323">
        <ele>1644.95</ele>
        <time>2012-07-07T11:39:25Z</time>
      </trkpt>
      <trkpt lat="46.161656174808741" lon="7.309547625482082">
        <ele>1644.95</ele>
        <time>2012-07-07T11:39:26Z</time>
      </trkpt>
      <trkpt lat="46.161731444299221" lon="7.309520049020648">
        <ele>1644.95</ele>
        <time>2012-07-07T11:39:27Z</time>
      </trkpt>
      <trkpt lat="46.162224719300866" lon="7.309380657970905">
        <ele>1642.55</ele>
        <time>2012-07-07T11:39:34Z</time>
      </trkpt>
      <trkpt lat="46.162290517240763" lon="7.309352159500122">
        <ele>1642.0699999999999</ele>
        <time>2012-07-07T11:39:35Z</time>
      </trkpt>
      <trkpt lat="46.162355728447437" lon="7.309338245540857">
        <ele>1642.0699999999999</ele>
        <time>2012-07-07T11:39:36Z</time>
      </trkpt>
      <trkpt lat="46.162426890805364" lon="7.309346375986934">
        <ele>1641.5899999999999</ele>
        <time>2012-07-07T11:39:37Z</time>
      </trkpt>
      <trkpt lat="46.162497969344258" lon="7.30937696993351">
        <ele>1641.1099999999999</ele>
        <time>2012-07-07T11:39:38Z</time>
      </trkpt>
      <trkpt lat="46.162559324875474" lon="7.309415275231004">
        <ele>1640.6300000000001</ele>
        <time>2012-07-07T11:39:39Z</time>
      </trkpt>
      <trkpt lat="46.162802148610353" lon="7.309548631310463">
        <ele>1638.7</ele>
        <time>2012-07-07T11:39:43Z</time>
      </trkpt>
      <trkpt lat="46.162872221320868" lon="7.309560282155871">
        <ele>1638.22</ele>
        <time>2012-07-07T11:39:44Z</time>
      </trkpt>
      <trkpt lat="46.16294514387846" lon="7.309552570804954">
        <ele>1637.74</ele>
        <time>2012-07-07T11:39:45Z</time>
      </trkpt>
      <trkpt lat="46.163017647340894" lon="7.30952993966639">
        <ele>1637.26</ele>
        <time>2012-07-07T11:39:46Z</time>
      </trkpt>
      <trkpt lat="46.163090486079454" lon="7.309506135061383">
        <ele>1636.78</ele>
        <time>2012-07-07T11:39:47Z</time>
      </trkpt>
      <trkpt lat="46.163163408637047" lon="7.309493059292436">
        <ele>1636.3</ele>
        <time>2012-07-07T11:39:48Z</time>
      </trkpt>
      <trkpt lat="46.163237420842052" lon="7.309488784521818">
        <ele>1635.8199999999999</ele>
        <time>2012-07-07T11:39:49Z</time>
      </trkpt>
      <trkpt lat="46.163312857970595" lon="7.309494903311133">
        <ele>1635.3399999999999</ele>
        <time>2012-07-07T11:39:50Z</time>
      </trkpt>
      <trkpt lat="46.163386534899473" lon="7.309513930231333">
        <ele>1634.8599999999999</ele>
        <time>2012-07-07T11:39:51Z</time>
      </trkpt>
      <trkpt lat="46.163456356152892" lon="7.309539746493101">
        <ele>1634.3800000000001</ele>
        <time>2012-07-07T11:39:52Z</time>
      </trkpt>
      <trkpt lat="46.163523495197296" lon="7.309569586068392">
        <ele>1633.9000000000001</ele>
        <time>2012-07-07T11:39:53Z</time>
      </trkpt>
      <trkpt lat="46.163593735545874" lon="7.309588193893433">
        <ele>1633.9000000000001</ele>
        <time>2012-07-07T11:39:54Z</time>
      </trkpt>
      <trkpt lat="46.163667663931847" lon="7.309593390673399">
        <ele>1633.9000000000001</ele>
        <time>2012-07-07T11:39:55Z</time>
      </trkpt>
      <trkpt lat="46.163742179051042" lon="7.309582661837339">
        <ele>1633.9000000000001</ele>
        <time>2012-07-07T11:39:56Z</time>
      </trkpt>
      <trkpt lat="46.163813676685095" lon="7.309566149488092">
        <ele>1633.9000000000001</ele>
        <time>2012-07-07T11:39:57Z</time>
      </trkpt>
      <trkpt lat="46.163887102156878" lon="7.309558689594269">
        <ele>1633.9000000000001</ele>
        <time>2012-07-07T11:39:58Z</time>
      </trkpt>
      <trkpt lat="46.163965053856373" lon="7.309567155316472">
        <ele>1633.9000000000001</ele>
        <time>2012-07-07T11:39:59Z</time>
      </trkpt>
      <trkpt lat="46.164039736613631" lon="7.309597581624985">
        <ele>1633.4200000000001</ele>
        <time>2012-07-07T11:40:00Z</time>
      </trkpt>
      <trkpt lat="46.16410955786705" lon="7.309646448120475">
        <ele>1633.4200000000001</ele>
        <time>2012-07-07T11:40:01Z</time>
      </trkpt>
      <trkpt lat="46.164177535101771" lon="7.309701098129153">
        <ele>1632.9400000000001</ele>
        <time>2012-07-07T11:40:02Z</time>
      </trkpt>
      <trkpt lat="46.164311645552516" lon="7.309793382883072">
        <ele>1631.98</ele>
        <time>2012-07-07T11:40:04Z</time>
      </trkpt>
      <trkpt lat="46.164387501776218" lon="7.309819282963872">
        <ele>1631.49</ele>
        <time>2012-07-07T11:40:05Z</time>
      </trkpt>
      <trkpt lat="46.164464950561523" lon="7.309830347076058">
        <ele>1631.01</ele>
        <time>2012-07-07T11:40:06Z</time>
      </trkpt>
      <trkpt lat="46.164540136232972" lon="7.309822468087077">
        <ele>1630.53</ele>
        <time>2012-07-07T11:40:07Z</time>
      </trkpt>
      <trkpt lat="46.164612891152501" lon="7.309791371226311">
        <ele>1630.05</ele>
        <time>2012-07-07T11:40:08Z</time>
      </trkpt>
      <trkpt lat="46.164684891700745" lon="7.30974443256855">
        <ele>1630.05</ele>
        <time>2012-07-07T11:40:09Z</time>
      </trkpt>
      <trkpt lat="46.164750605821609" lon="7.309680059552193">
        <ele>1629.5699999999999</ele>
        <time>2012-07-07T11:40:10Z</time>
      </trkpt>
      <trkpt lat="46.164810955524445" lon="7.309595989063382">
        <ele>1629.0899999999999</ele>
        <time>2012-07-07T11:40:11Z</time>
      </trkpt>
      <trkpt lat="46.164867784827948" lon="7.309510158374906">
        <ele>1629.0899999999999</ele>
        <time>2012-07-07T11:40:12Z</time>
      </trkpt>
      <trkpt lat="46.164929140359163" lon="7.309438744559884">
        <ele>1629.0899999999999</ele>
        <time>2012-07-07T11:40:13Z</time>
      </trkpt>
      <trkpt lat="46.164997955784202" lon="7.309388034045696">
        <ele>1629.0899999999999</ele>
        <time>2012-07-07T11:40:14Z</time>
      </trkpt>
      <trkpt lat="46.165073728188872" lon="7.309360792860389">
        <ele>1629.0899999999999</ele>
        <time>2012-07-07T11:40:15Z</time>
      </trkpt>
      <trkpt lat="46.165156457573175" lon="7.309352997690439">
        <ele>1629.0899999999999</ele>
        <time>2012-07-07T11:40:16Z</time>
      </trkpt>
      <trkpt lat="46.165238935500383" lon="7.309361714869738">
        <ele>1629.0899999999999</ele>
        <time>2012-07-07T11:40:17Z</time>
      </trkpt>
      <trkpt lat="46.165321497246623" lon="7.309383507817984">
        <ele>1629.0899999999999</ele>
        <time>2012-07-07T11:40:18Z</time>
      </trkpt>
      <trkpt lat="46.165484944358468" lon="7.309415275231004">
        <ele>1628.1300000000001</ele>
        <time>2012-07-07T11:40:20Z</time>
      </trkpt>
      <trkpt lat="46.165567506104708" lon="7.309413766488433">
        <ele>1628.1300000000001</ele>
        <time>2012-07-07T11:40:21Z</time>
      </trkpt>
      <trkpt lat="46.16564922966063" lon="7.309400858357549">
        <ele>1627.6500000000001</ele>
        <time>2012-07-07T11:40:22Z</time>
      </trkpt>
      <trkpt lat="46.165727181360126" lon="7.309370096772909">
        <ele>1627.6500000000001</ele>
        <time>2012-07-07T11:40:23Z</time>
      </trkpt>
      <trkpt lat="46.165804462507367" lon="7.309326007962227">
        <ele>1627.1700000000001</ele>
        <time>2012-07-07T11:40:24Z</time>
      </trkpt>
      <trkpt lat="46.165883922949433" lon="7.309279153123498">
        <ele>1627.1700000000001</ele>
        <time>2012-07-07T11:40:25Z</time>
      </trkpt>
      <trkpt lat="46.166340820491314" lon="7.308983523398638">
        <ele>1627.1700000000001</ele>
        <time>2012-07-07T11:40:31Z</time>
      </trkpt>
      <trkpt lat="46.166407456621528" lon="7.308904901146889">
        <ele>1626.6900000000001</ele>
        <time>2012-07-07T11:40:32Z</time>
      </trkpt>
      <trkpt lat="46.166612142696977" lon="7.30865235440433">
        <ele>1625.73</ele>
        <time>2012-07-07T11:40:35Z</time>
      </trkpt>
      <trkpt lat="46.166795790195465" lon="7.308450182899833">
        <ele>1624.77</ele>
        <time>2012-07-07T11:40:38Z</time>
      </trkpt>
      <trkpt lat="46.166829569265246" lon="7.308368207886815">
        <ele>1624.28</ele>
        <time>2012-07-07T11:40:39Z</time>
      </trkpt>
      <trkpt lat="46.166847087442875" lon="7.308272570371628">
        <ele>1624.28</ele>
        <time>2012-07-07T11:40:40Z</time>
      </trkpt>
      <trkpt lat="46.166856558993459" lon="7.308168886229396">
        <ele>1623.8</ele>
        <time>2012-07-07T11:40:41Z</time>
      </trkpt>
      <trkpt lat="46.166865527629852" lon="7.308062603697181">
        <ele>1623.8</ele>
        <time>2012-07-07T11:40:42Z</time>
      </trkpt>
      <trkpt lat="46.166880447417498" lon="7.307958751916885">
        <ele>1623.3199999999999</ele>
        <time>2012-07-07T11:40:43Z</time>
      </trkpt>
      <trkpt lat="46.166907353326678" lon="7.307859258726239">
        <ele>1622.8399999999999</ele>
        <time>2012-07-07T11:40:44Z</time>
      </trkpt>
      <trkpt lat="46.166949598118663" lon="7.307768734171987">
        <ele>1622.3599999999999</ele>
        <time>2012-07-07T11:40:45Z</time>
      </trkpt>
      <trkpt lat="46.167001482099295" lon="7.307695979252458">
        <ele>1621.8800000000001</ele>
        <time>2012-07-07T11:40:46Z</time>
      </trkpt>
      <trkpt lat="46.167061496526003" lon="7.307634875178337">
        <ele>1621.8800000000001</ele>
        <time>2012-07-07T11:40:47Z</time>
      </trkpt>
      <trkpt lat="46.167130144312978" lon="7.30758030898869">
        <ele>1621.8800000000001</ele>
        <time>2012-07-07T11:40:48Z</time>
      </trkpt>
      <trkpt lat="46.167198456823826" lon="7.307523814961314">
        <ele>1621.8800000000001</ele>
        <time>2012-07-07T11:40:49Z</time>
      </trkpt>
      <trkpt lat="46.167261237278581" lon="7.307460196316242">
        <ele>1621.8800000000001</ele>
        <time>2012-07-07T11:40:50Z</time>
      </trkpt>
      <trkpt lat="46.167312869802117" lon="7.30739020742476">
        <ele>1621.8800000000001</ele>
        <time>2012-07-07T11:40:51Z</time>
      </trkpt>
      <trkpt lat="46.167357293888927" lon="7.30731544084847">
        <ele>1621.4000000000001</ele>
        <time>2012-07-07T11:40:52Z</time>
      </trkpt>
      <trkpt lat="46.167868003249168" lon="7.306364933028817">
        <ele>1617.5599999999999</ele>
        <time>2012-07-07T11:41:03Z</time>
      </trkpt>
      <trkpt lat="46.167930448427796" lon="7.30629762634635">
        <ele>1617.5599999999999</ele>
        <time>2012-07-07T11:41:04Z</time>
      </trkpt>
      <trkpt lat="46.168000940233469" lon="7.306248592212796">
        <ele>1617.0699999999999</ele>
        <time>2012-07-07T11:41:05Z</time>
      </trkpt>
      <trkpt lat="46.168080903589725" lon="7.306212801486254">
        <ele>1617.0699999999999</ele>
        <time>2012-07-07T11:41:06Z</time>
      </trkpt>
      <trkpt lat="46.168164554983377" lon="7.306183548644185">
        <ele>1616.5899999999999</ele>
        <time>2012-07-07T11:41:07Z</time>
      </trkpt>
      <trkpt lat="46.168489940464497" lon="7.306101154536009">
        <ele>1616.1099999999999</ele>
        <time>2012-07-07T11:41:11Z</time>
      </trkpt>
      <trkpt lat="46.168566299602389" lon="7.30606066994369">
        <ele>1616.1099999999999</ele>
        <time>2012-07-07T11:41:12Z</time>
      </trkpt>
      <trkpt lat="46.168636120855808" lon="7.306002834811807">
        <ele>1616.1099999999999</ele>
        <time>2012-07-07T11:41:13Z</time>
      </trkpt>
      <trkpt lat="46.168698482215405" lon="7.305930834263563">
        <ele>1616.1099999999999</ele>
        <time>2012-07-07T11:41:14Z</time>
      </trkpt>
      <trkpt lat="46.16876034066081" lon="7.305845255032182">
        <ele>1616.1099999999999</ele>
        <time>2012-07-07T11:41:15Z</time>
      </trkpt>
      <trkpt lat="46.168892942368984" lon="7.305677700787783">
        <ele>1616.1099999999999</ele>
        <time>2012-07-07T11:41:17Z</time>
      </trkpt>
      <trkpt lat="46.168963853269815" lon="7.305617183446884">
        <ele>1616.1099999999999</ele>
        <time>2012-07-07T11:41:18Z</time>
      </trkpt>
      <trkpt lat="46.169033506885171" lon="7.30558717623353">
        <ele>1616.5899999999999</ele>
        <time>2012-07-07T11:41:19Z</time>
      </trkpt>
      <trkpt lat="46.169100059196353" lon="7.305583991110325">
        <ele>1616.5899999999999</ele>
        <time>2012-07-07T11:41:20Z</time>
      </trkpt>
      <trkpt lat="46.169154038652778" lon="7.305595558136702">
        <ele>1616.5899999999999</ele>
        <time>2012-07-07T11:41:21Z</time>
      </trkpt>
      <trkpt lat="46.169201899319887" lon="7.30560913681984">
        <ele>1617.0699999999999</ele>
        <time>2012-07-07T11:41:22Z</time>
      </trkpt>
      <trkpt lat="46.169246155768633" lon="7.305617686361074">
        <ele>1617.0699999999999</ele>
        <time>2012-07-07T11:41:23Z</time>
      </trkpt>
      <trkpt lat="46.169533403590322" lon="7.305563371628523">
        <ele>1622.8399999999999</ele>
        <time>2012-07-07T11:41:34Z</time>
      </trkpt>
      <trkpt lat="46.169767929241061" lon="7.305248295888305">
        <ele>1623.3199999999999</ele>
        <time>2012-07-07T11:41:47Z</time>
      </trkpt>
      <trkpt lat="46.169997341930866" lon="7.304948894307017">
        <ele>1628.1300000000001</ele>
        <time>2012-07-07T11:42:03Z</time>
      </trkpt>
      <trkpt lat="46.170182749629021" lon="7.304739514365792">
        <ele>1633.9000000000001</ele>
        <time>2012-07-07T11:42:15Z</time>
      </trkpt>
      <trkpt lat="46.170383160933852" lon="7.304392168298364">
        <ele>1637.26</ele>
        <time>2012-07-07T11:42:32Z</time>
      </trkpt>
      <trkpt lat="46.17046220228076" lon="7.304191589355469">
        <ele>1637.74</ele>
        <time>2012-07-07T11:42:44Z</time>
      </trkpt>
      <trkpt lat="46.170607460662723" lon="7.303970390930772">
        <ele>1640.1500000000001</ele>
        <time>2012-07-07T11:42:58Z</time>
      </trkpt>
      <trkpt lat="46.17073436267674" lon="7.303720694035292">
        <ele>1641.5899999999999</ele>
        <time>2012-07-07T11:43:12Z</time>
      </trkpt>
      <trkpt lat="46.170876016840339" lon="7.303469739854336">
        <ele>1643.99</ele>
        <time>2012-07-07T11:43:28Z</time>
      </trkpt>
      <trkpt lat="46.170893786475062" lon="7.30343914590776">
        <ele>1643.99</ele>
        <time>2012-07-07T11:43:30Z</time>
      </trkpt>
      <trkpt lat="46.17090342566371" lon="7.303420873358846">
        <ele>1644.47</ele>
        <time>2012-07-07T11:43:31Z</time>
      </trkpt>
      <trkpt lat="46.170992609113455" lon="7.303048800677061">
        <ele>1644.47</ele>
        <time>2012-07-07T11:43:51Z</time>
      </trkpt>
      <trkpt lat="46.171017000451684" lon="7.30289775878191">
        <ele>1645.9100000000001</ele>
        <time>2012-07-07T11:43:59Z</time>
      </trkpt>
      <trkpt lat="46.171021275222301" lon="7.302869176492095">
        <ele>1645.9100000000001</ele>
        <time>2012-07-07T11:44:01Z</time>
      </trkpt>
      <trkpt lat="46.171116242185235" lon="7.30263389647007">
        <ele>1648.8</ele>
        <time>2012-07-07T11:44:15Z</time>
      </trkpt>
      <trkpt lat="46.171122528612614" lon="7.30261629447341">
        <ele>1648.8</ele>
        <time>2012-07-07T11:44:16Z</time>
      </trkpt>
      <trkpt lat="46.171129988506436" lon="7.302598860114813">
        <ele>1648.8</ele>
        <time>2012-07-07T11:44:17Z</time>
      </trkpt>
      <trkpt lat="46.171264350414276" lon="7.302376320585609">
        <ele>1652.1600000000001</ele>
        <time>2012-07-07T11:44:32Z</time>
      </trkpt>
      <trkpt lat="46.171364011242986" lon="7.302097538486123">
        <ele>1655.05</ele>
        <time>2012-07-07T11:44:48Z</time>
      </trkpt>
      <trkpt lat="46.171370716765523" lon="7.302080104127526">
        <ele>1655.05</ele>
        <time>2012-07-07T11:44:49Z</time>
      </trkpt>
      <trkpt lat="46.171450512483716" lon="7.301780115813017">
        <ele>1657.9300000000001</ele>
        <time>2012-07-07T11:45:05Z</time>
      </trkpt>
      <trkpt lat="46.171476412564516" lon="7.301714569330216">
        <ele>1658.8900000000001</ele>
        <time>2012-07-07T11:45:09Z</time>
      </trkpt>
      <trkpt lat="46.171535840258002" lon="7.301487419754267">
        <ele>1661.78</ele>
        <time>2012-07-07T11:45:22Z</time>
      </trkpt>
      <trkpt lat="46.171538773924112" lon="7.30146755464375">
        <ele>1662.26</ele>
        <time>2012-07-07T11:45:23Z</time>
      </trkpt>
      <trkpt lat="46.17154355160892" lon="7.301448276266456">
        <ele>1662.26</ele>
        <time>2012-07-07T11:45:24Z</time>
      </trkpt>
      <trkpt lat="46.171544389799237" lon="7.30142941698432">
        <ele>1662.26</ele>
        <time>2012-07-07T11:45:25Z</time>
      </trkpt>
      <trkpt lat="46.171545814722776" lon="7.301410557702184">
        <ele>1662.74</ele>
        <time>2012-07-07T11:45:26Z</time>
      </trkpt>
      <trkpt lat="46.171547407284379" lon="7.30139228515327">
        <ele>1663.22</ele>
        <time>2012-07-07T11:45:27Z</time>
      </trkpt>
      <trkpt lat="46.171547323465347" lon="7.301371246576309">
        <ele>1663.22</ele>
        <time>2012-07-07T11:45:28Z</time>
      </trkpt>
      <trkpt lat="46.171548664569855" lon="7.301355488598347">
        <ele>1663.7</ele>
        <time>2012-07-07T11:45:29Z</time>
      </trkpt>
      <trkpt lat="46.17154841311276" lon="7.301332354545593">
        <ele>1663.7</ele>
        <time>2012-07-07T11:45:30Z</time>
      </trkpt>
      <trkpt lat="46.171548832207918" lon="7.301313327625394">
        <ele>1664.1800000000001</ele>
        <time>2012-07-07T11:45:31Z</time>
      </trkpt>
      <trkpt lat="46.17154891602695" lon="7.301295390352607">
        <ele>1664.1800000000001</ele>
        <time>2012-07-07T11:45:32Z</time>
      </trkpt>
      <trkpt lat="46.17152645252645" lon="7.30121249333024">
        <ele>1664.1800000000001</ele>
        <time>2012-07-07T11:45:38Z</time>
      </trkpt>
      <trkpt lat="46.171509269624949" lon="7.301147365942597">
        <ele>1665.1400000000001</ele>
        <time>2012-07-07T11:45:51Z</time>
      </trkpt>
      <trkpt lat="46.171505749225616" lon="7.301152981817722">
        <ele>1665.1400000000001</ele>
        <time>2012-07-07T11:45:58Z</time>
      </trkpt>
      <trkpt lat="46.171541707590222" lon="7.300915271043778">
        <ele>1668.51</ele>
        <time>2012-07-07T11:46:10Z</time>
      </trkpt>
      <trkpt lat="46.171577582135797" lon="7.300790129229426">
        <ele>1671.3900000000001</ele>
        <time>2012-07-07T11:46:16Z</time>
      </trkpt>
      <trkpt lat="46.17158655077219" lon="7.300717290490866">
        <ele>1673.3099999999999</ele>
        <time>2012-07-07T11:46:19Z</time>
      </trkpt>
      <trkpt lat="46.171629214659333" lon="7.300596255809069">
        <ele>1675.72</ele>
        <time>2012-07-07T11:46:25Z</time>
      </trkpt>
      <trkpt lat="46.17169794626534" lon="7.30047756806016">
        <ele>1678.5999999999999</ele>
        <time>2012-07-07T11:46:32Z</time>
      </trkpt>
      <trkpt lat="46.171839097514749" lon="7.300212532281876">
        <ele>1681</ele>
        <time>2012-07-07T11:46:48Z</time>
      </trkpt>
      <trkpt lat="46.171929454430938" lon="7.300073811784387">
        <ele>1682.4400000000001</ele>
        <time>2012-07-07T11:46:58Z</time>
      </trkpt>
      <trkpt lat="46.172014949843287" lon="7.299982029944658">
        <ele>1683.4100000000001</ele>
        <time>2012-07-07T11:47:06Z</time>
      </trkpt>
      <trkpt lat="46.172164566814899" lon="7.299868119880557">
        <ele>1686.29</ele>
        <time>2012-07-07T11:47:18Z</time>
      </trkpt>
      <trkpt lat="46.172356177121401" lon="7.299745408818126">
        <ele>1686.29</ele>
        <time>2012-07-07T11:47:29Z</time>
      </trkpt>
      <trkpt lat="46.172394314780831" lon="7.299716826528311">
        <ele>1686.29</ele>
        <time>2012-07-07T11:47:30Z</time>
      </trkpt>
      <trkpt lat="46.172433625906706" lon="7.299674246460199">
        <ele>1685.8099999999999</ele>
        <time>2012-07-07T11:47:31Z</time>
      </trkpt>
      <trkpt lat="46.172474781051278" lon="7.299619764089584">
        <ele>1685.3299999999999</ele>
        <time>2012-07-07T11:47:32Z</time>
      </trkpt>
      <trkpt lat="46.172679634764791" lon="7.2992994915694">
        <ele>1683.8900000000001</ele>
        <time>2012-07-07T11:47:37Z</time>
      </trkpt>
      <trkpt lat="46.172871664166451" lon="7.298586443066597">
        <ele>1680.04</ele>
        <time>2012-07-07T11:47:46Z</time>
      </trkpt>
      <trkpt lat="46.172880800440907" lon="7.298303805291653">
        <ele>1678.5999999999999</ele>
        <time>2012-07-07T11:47:50Z</time>
      </trkpt>
      <trkpt lat="46.172936875373125" lon="7.297916309908032">
        <ele>1678.1199999999999</ele>
        <time>2012-07-07T11:47:55Z</time>
      </trkpt>
      <trkpt lat="46.172999739646912" lon="7.297526551410556">
        <ele>1679.0799999999999</ele>
        <time>2012-07-07T11:48:00Z</time>
      </trkpt>
      <trkpt lat="46.173028405755758" lon="7.297318009659648">
        <ele>1679.5599999999999</ele>
        <time>2012-07-07T11:48:03Z</time>
      </trkpt>
      <trkpt lat="46.173080122098327" lon="7.296514017507434">
        <ele>1682.9300000000001</ele>
        <time>2012-07-07T11:48:18Z</time>
      </trkpt>
      <trkpt lat="46.173043828457594" lon="7.295899288728833">
        <ele>1684.8499999999999</ele>
        <time>2012-07-07T11:48:32Z</time>
      </trkpt>
      <trkpt lat="46.172928661108017" lon="7.295331750065088">
        <ele>1687.73</ele>
        <time>2012-07-07T11:48:46Z</time>
      </trkpt>
      <trkpt lat="46.172818690538406" lon="7.294894466176629">
        <ele>1688.21</ele>
        <time>2012-07-07T11:48:58Z</time>
      </trkpt>
      <trkpt lat="46.17274216376245" lon="7.294464977458119">
        <ele>1688.21</ele>
        <time>2012-07-07T11:49:09Z</time>
      </trkpt>
      <trkpt lat="46.172678377479315" lon="7.293888218700886">
        <ele>1690.1400000000001</ele>
        <time>2012-07-07T11:49:23Z</time>
      </trkpt>
      <trkpt lat="46.172572430223227" lon="7.293453784659505">
        <ele>1690.1400000000001</ele>
        <time>2012-07-07T11:49:34Z</time>
      </trkpt>
      <trkpt lat="46.172410156577826" lon="7.293017506599426">
        <ele>1693.5</ele>
        <time>2012-07-07T11:49:46Z</time>
      </trkpt>
      <trkpt lat="46.172225335612893" lon="7.292670495808125">
        <ele>1697.3399999999999</ele>
        <time>2012-07-07T11:49:57Z</time>
      </trkpt>
      <trkpt lat="46.171984188258648" lon="7.292274283245206">
        <ele>1701.1900000000001</ele>
        <time>2012-07-07T11:50:10Z</time>
      </trkpt>
      <trkpt lat="46.171899698674679" lon="7.291801040992141">
        <ele>1703.5899999999999</ele>
        <time>2012-07-07T11:50:23Z</time>
      </trkpt>
      <trkpt lat="46.171760726720095" lon="7.291256217285991">
        <ele>1704.0699999999999</ele>
        <time>2012-07-07T11:50:38Z</time>
      </trkpt>
      <trkpt lat="46.171722337603569" lon="7.291151359677315">
        <ele>1704.0699999999999</ele>
        <time>2012-07-07T11:50:41Z</time>
      </trkpt>
      <trkpt lat="46.17162074893713" lon="7.290285425260663">
        <ele>1697.3399999999999</ele>
        <time>2012-07-07T11:50:51Z</time>
      </trkpt>
      <trkpt lat="46.171344062313437" lon="7.289040545001626">
        <ele>1686.77</ele>
        <time>2012-07-07T11:51:03Z</time>
      </trkpt>
      <trkpt lat="46.171306930482388" lon="7.288678698241711">
        <ele>1683.8900000000001</ele>
        <time>2012-07-07T11:51:06Z</time>
      </trkpt>
      <trkpt lat="46.171434167772532" lon="7.288137981668115">
        <ele>1678.1199999999999</ele>
        <time>2012-07-07T11:51:12Z</time>
      </trkpt>
      <trkpt lat="46.171505246311426" lon="7.287955675274134">
        <ele>1676.6800000000001</ele>
        <time>2012-07-07T11:51:14Z</time>
      </trkpt>
      <trkpt lat="46.171580515801907" lon="7.287504812702537">
        <ele>1672.8299999999999</ele>
        <time>2012-07-07T11:51:18Z</time>
      </trkpt>
      <trkpt lat="46.171570038422942" lon="7.287404984235764">
        <ele>1672.3499999999999</ele>
        <time>2012-07-07T11:51:19Z</time>
      </trkpt>
      <trkpt lat="46.171540366485715" lon="7.287237597629428">
        <ele>1670.9100000000001</ele>
        <time>2012-07-07T11:51:21Z</time>
      </trkpt>
      <trkpt lat="46.171562243252993" lon="7.286951774731278">
        <ele>1667.0599999999999</ele>
        <time>2012-07-07T11:51:25Z</time>
      </trkpt>
      <trkpt lat="46.17176097817719" lon="7.285763556137681">
        <ele>1659.8499999999999</ele>
        <time>2012-07-07T11:51:36Z</time>
      </trkpt>
      <trkpt lat="46.171735748648643" lon="7.285051178187132">
        <ele>1656.49</ele>
        <time>2012-07-07T11:51:41Z</time>
      </trkpt>
      <trkpt lat="46.171622090041637" lon="7.284097485244274">
        <ele>1650.24</ele>
        <time>2012-07-07T11:51:47Z</time>
      </trkpt>
      <trkpt lat="46.171627035364509" lon="7.28392188437283">
        <ele>1648.8</ele>
        <time>2012-07-07T11:51:48Z</time>
      </trkpt>
      <trkpt lat="46.171640530228615" lon="7.283744942396879">
        <ele>1647.8399999999999</ele>
        <time>2012-07-07T11:51:49Z</time>
      </trkpt>
      <trkpt lat="46.171668274328113" lon="7.283572359010577">
        <ele>1646.4000000000001</ele>
        <time>2012-07-07T11:51:50Z</time>
      </trkpt>
      <trkpt lat="46.171711189672351" lon="7.283405559137464">
        <ele>1645.4300000000001</ele>
        <time>2012-07-07T11:51:51Z</time>
      </trkpt>
      <trkpt lat="46.171764666214585" lon="7.283243034034967">
        <ele>1644.47</ele>
        <time>2012-07-07T11:51:52Z</time>
      </trkpt>
      <trkpt lat="46.171890310943127" lon="7.282929215580225">
        <ele>1642.0699999999999</ele>
        <time>2012-07-07T11:51:54Z</time>
      </trkpt>
      <trkpt lat="46.172138415277004" lon="7.282503163442016">
        <ele>1638.22</ele>
        <time>2012-07-07T11:51:57Z</time>
      </trkpt>
      <trkpt lat="46.172234639525414" lon="7.282380284741521">
        <ele>1636.78</ele>
        <time>2012-07-07T11:51:58Z</time>
      </trkpt>
      <trkpt lat="46.172415520995855" lon="7.282185405492783">
        <ele>1634.8599999999999</ele>
        <time>2012-07-07T11:52:00Z</time>
      </trkpt>
      <trkpt lat="46.17250906303525" lon="7.282116506248713">
        <ele>1633.4200000000001</ele>
        <time>2012-07-07T11:52:01Z</time>
      </trkpt>
      <trkpt lat="46.172687094658613" lon="7.281997231766582">
        <ele>1631.49</ele>
        <time>2012-07-07T11:52:03Z</time>
      </trkpt>
      <trkpt lat="46.172763956710696" lon="7.281919112429023">
        <ele>1630.53</ele>
        <time>2012-07-07T11:52:04Z</time>
      </trkpt>
      <trkpt lat="46.172826234251261" lon="7.281818194314838">
        <ele>1629.5699999999999</ele>
        <time>2012-07-07T11:52:05Z</time>
      </trkpt>
      <trkpt lat="46.172865210101008" lon="7.281695147976279">
        <ele>1628.6099999999999</ele>
        <time>2012-07-07T11:52:06Z</time>
      </trkpt>
      <trkpt lat="46.172877699136734" lon="7.281557852402329">
        <ele>1627.6500000000001</ele>
        <time>2012-07-07T11:52:07Z</time>
      </trkpt>
      <trkpt lat="46.172867473214865" lon="7.281414018943906">
        <ele>1626.6900000000001</ele>
        <time>2012-07-07T11:52:08Z</time>
      </trkpt>
      <trkpt lat="46.172841740772128" lon="7.281268425285816">
        <ele>1625.25</ele>
        <time>2012-07-07T11:52:09Z</time>
      </trkpt>
      <trkpt lat="46.172809386625886" lon="7.281120903789997">
        <ele>1624.28</ele>
        <time>2012-07-07T11:52:10Z</time>
      </trkpt>
      <trkpt lat="46.17277049459517" lon="7.280976232141256">
        <ele>1623.8</ele>
        <time>2012-07-07T11:52:11Z</time>
      </trkpt>
      <trkpt lat="46.17273386567831" lon="7.280835332348943">
        <ele>1622.8399999999999</ele>
        <time>2012-07-07T11:52:12Z</time>
      </trkpt>
      <trkpt lat="46.172708300873637" lon="7.280688397586346">
        <ele>1621.4000000000001</ele>
        <time>2012-07-07T11:52:13Z</time>
      </trkpt>
      <trkpt lat="46.172697236761451" lon="7.280533164739609">
        <ele>1620.4400000000001</ele>
        <time>2012-07-07T11:52:14Z</time>
      </trkpt>
      <trkpt lat="46.172706624493003" lon="7.280373992398381">
        <ele>1619</ele>
        <time>2012-07-07T11:52:15Z</time>
      </trkpt>
      <trkpt lat="46.172736547887325" lon="7.280218675732613">
        <ele>1618.04</ele>
        <time>2012-07-07T11:52:16Z</time>
      </trkpt>
      <trkpt lat="46.172780385240912" lon="7.280068723484874">
        <ele>1617.0699999999999</ele>
        <time>2012-07-07T11:52:17Z</time>
      </trkpt>
      <trkpt lat="46.172824474051595" lon="7.279918603599072">
        <ele>1616.1099999999999</ele>
        <time>2012-07-07T11:52:18Z</time>
      </trkpt>
      <trkpt lat="46.172853307798505" lon="7.279761862009764">
        <ele>1615.1500000000001</ele>
        <time>2012-07-07T11:52:19Z</time>
      </trkpt>
      <trkpt lat="46.17286135442555" lon="7.279598833993077">
        <ele>1613.71</ele>
        <time>2012-07-07T11:52:20Z</time>
      </trkpt>
      <trkpt lat="46.172853894531727" lon="7.279433039948344">
        <ele>1612.75</ele>
        <time>2012-07-07T11:52:21Z</time>
      </trkpt>
      <trkpt lat="46.172840148210526" lon="7.279267329722643">
        <ele>1611.79</ele>
        <time>2012-07-07T11:52:22Z</time>
      </trkpt>
      <trkpt lat="46.172832772135735" lon="7.279109247028828">
        <ele>1610.8299999999999</ele>
        <time>2012-07-07T11:52:23Z</time>
      </trkpt>
      <trkpt lat="46.172840651124716" lon="7.278958959504962">
        <ele>1609.8599999999999</ele>
        <time>2012-07-07T11:52:24Z</time>
      </trkpt>
      <trkpt lat="46.172870825976133" lon="7.27881470695138">
        <ele>1608.9000000000001</ele>
        <time>2012-07-07T11:52:25Z</time>
      </trkpt>
      <trkpt lat="46.172923212870955" lon="7.278682356700301">
        <ele>1607.9400000000001</ele>
        <time>2012-07-07T11:52:26Z</time>
      </trkpt>
      <trkpt lat="46.172985155135393" lon="7.278569284826517">
        <ele>1606.5</ele>
        <time>2012-07-07T11:52:27Z</time>
      </trkpt>
      <trkpt lat="46.173036200925708" lon="7.278456212952733">
        <ele>1605.54</ele>
        <time>2012-07-07T11:52:28Z</time>
      </trkpt>
      <trkpt lat="46.173056988045573" lon="7.278324281796813">
        <ele>1604.5799999999999</ele>
        <time>2012-07-07T11:52:29Z</time>
      </trkpt>
      <trkpt lat="46.173045421019197" lon="7.278184136375785">
        <ele>1603.6199999999999</ele>
        <time>2012-07-07T11:52:30Z</time>
      </trkpt>
      <trkpt lat="46.173016503453255" lon="7.27804072201252">
        <ele>1602.6600000000001</ele>
        <time>2012-07-07T11:52:31Z</time>
      </trkpt>
      <trkpt lat="46.172980209812522" lon="7.277896469458938">
        <ele>1601.6900000000001</ele>
        <time>2012-07-07T11:52:32Z</time>
      </trkpt>
      <trkpt lat="46.172849871218204" lon="7.27744753472507">
        <ele>1598.8099999999999</ele>
        <time>2012-07-07T11:52:35Z</time>
      </trkpt>
      <trkpt lat="46.172818690538406" lon="7.277282997965813">
        <ele>1597.8499999999999</ele>
        <time>2012-07-07T11:52:36Z</time>
      </trkpt>
      <trkpt lat="46.172806369140744" lon="7.277110833674669">
        <ele>1596.4100000000001</ele>
        <time>2012-07-07T11:52:37Z</time>
      </trkpt>
      <trkpt lat="46.172814918681979" lon="7.276932634413242">
        <ele>1595.45</ele>
        <time>2012-07-07T11:52:38Z</time>
      </trkpt>
      <trkpt lat="46.172840651124716" lon="7.276755860075355">
        <ele>1594</ele>
        <time>2012-07-07T11:52:39Z</time>
      </trkpt>
      <trkpt lat="46.172880381345749" lon="7.27658118121326">
        <ele>1593.04</ele>
        <time>2012-07-07T11:52:40Z</time>
      </trkpt>
      <trkpt lat="46.172922709956765" lon="7.276405328884721">
        <ele>1591.5999999999999</ele>
        <time>2012-07-07T11:52:41Z</time>
      </trkpt>
      <trkpt lat="46.172957913950086" lon="7.276224447414279">
        <ele>1590.6400000000001</ele>
        <time>2012-07-07T11:52:42Z</time>
      </trkpt>
      <trkpt lat="46.172981550917029" lon="7.276040632277727">
        <ele>1589.2</ele>
        <time>2012-07-07T11:52:43Z</time>
      </trkpt>
      <trkpt lat="46.172989429906011" lon="7.275852290913463">
        <ele>1588.24</ele>
        <time>2012-07-07T11:52:44Z</time>
      </trkpt>
      <trkpt lat="46.1729796230793" lon="7.275662608444691">
        <ele>1586.79</ele>
        <time>2012-07-07T11:52:45Z</time>
      </trkpt>
      <trkpt lat="46.172956572845578" lon="7.275473093613982">
        <ele>1585.8299999999999</ele>
        <time>2012-07-07T11:52:46Z</time>
      </trkpt>
      <trkpt lat="46.172923883423209" lon="7.275285758078098">
        <ele>1584.8699999999999</ele>
        <time>2012-07-07T11:52:47Z</time>
      </trkpt>
      <trkpt lat="46.172884656116366" lon="7.275099596008658">
        <ele>1583.4300000000001</ele>
        <time>2012-07-07T11:52:48Z</time>
      </trkpt>
      <trkpt lat="46.172655327245593" lon="7.274014391005039">
        <ele>1575.74</ele>
        <time>2012-07-07T11:52:54Z</time>
      </trkpt>
      <trkpt lat="46.172648370265961" lon="7.273836191743612">
        <ele>1574.3</ele>
        <time>2012-07-07T11:52:55Z</time>
      </trkpt>
      <trkpt lat="46.172549296170473" lon="7.27212049998343">
        <ele>1562.76</ele>
        <time>2012-07-07T11:53:04Z</time>
      </trkpt>
      <trkpt lat="46.172555666416883" lon="7.271917490288615">
        <ele>1561.3199999999999</ele>
        <time>2012-07-07T11:53:05Z</time>
      </trkpt>
      <trkpt lat="46.172572933137417" lon="7.271716995164752">
        <ele>1560.3599999999999</ele>
        <time>2012-07-07T11:53:06Z</time>
      </trkpt>
      <trkpt lat="46.172602856531739" lon="7.271519182249904">
        <ele>1558.9200000000001</ele>
        <time>2012-07-07T11:53:07Z</time>
      </trkpt>
      <trkpt lat="46.17263219319284" lon="7.271321788430214">
        <ele>1557.95</ele>
        <time>2012-07-07T11:53:08Z</time>
      </trkpt>
      <trkpt lat="46.172649879008532" lon="7.271117605268955">
        <ele>1556.51</ele>
        <time>2012-07-07T11:53:09Z</time>
      </trkpt>
      <trkpt lat="46.172643257305026" lon="7.270911326631904">
        <ele>1555.55</ele>
        <time>2012-07-07T11:53:10Z</time>
      </trkpt>
      <trkpt lat="46.172612830996513" lon="7.270709741860628">
        <ele>1554.5899999999999</ele>
        <time>2012-07-07T11:53:11Z</time>
      </trkpt>
      <trkpt lat="46.172576788812876" lon="7.270518383011222">
        <ele>1553.6300000000001</ele>
        <time>2012-07-07T11:53:12Z</time>
      </trkpt>
      <trkpt lat="46.172535130754113" lon="7.270190063863993">
        <ele>1551.22</ele>
        <time>2012-07-07T11:53:14Z</time>
      </trkpt>
      <trkpt lat="46.172547535970807" lon="7.270047152414918">
        <ele>1550.26</ele>
        <time>2012-07-07T11:53:15Z</time>
      </trkpt>
      <trkpt lat="46.172591876238585" lon="7.2699133772403">
        <ele>1548.8199999999999</ele>
        <time>2012-07-07T11:53:16Z</time>
      </trkpt>
      <trkpt lat="46.172659350559115" lon="7.26979024708271">
        <ele>1547.8599999999999</ele>
        <time>2012-07-07T11:53:17Z</time>
      </trkpt>
      <trkpt lat="46.172726489603519" lon="7.269663596525788">
        <ele>1546.9000000000001</ele>
        <time>2012-07-07T11:53:18Z</time>
      </trkpt>
      <trkpt lat="46.172779211774468" lon="7.269515404477716">
        <ele>1545.9400000000001</ele>
        <time>2012-07-07T11:53:19Z</time>
      </trkpt>
      <trkpt lat="46.172816595062613" lon="7.269352711737156">
        <ele>1545.46</ele>
        <time>2012-07-07T11:53:20Z</time>
      </trkpt>
      <trkpt lat="46.172836124897003" lon="7.269184067845345">
        <ele>1544.5</ele>
        <time>2012-07-07T11:53:21Z</time>
      </trkpt>
      <trkpt lat="46.172834448516369" lon="7.26901525631547">
        <ele>1543.53</ele>
        <time>2012-07-07T11:53:22Z</time>
      </trkpt>
      <trkpt lat="46.172818187624216" lon="7.268850551918149">
        <ele>1542.5699999999999</ele>
        <time>2012-07-07T11:53:23Z</time>
      </trkpt>
      <trkpt lat="46.17276219651103" lon="7.267982941120863">
        <ele>1536.3199999999999</ele>
        <time>2012-07-07T11:53:28Z</time>
      </trkpt>
      <trkpt lat="46.172634959220886" lon="7.267068894580007">
        <ele>1531.04</ele>
        <time>2012-07-07T11:53:33Z</time>
      </trkpt>
      <trkpt lat="46.172720622271299" lon="7.266167001798749">
        <ele>1526.23</ele>
        <time>2012-07-07T11:53:38Z</time>
      </trkpt>
      <trkpt lat="46.172708300873637" lon="7.266002800315619">
        <ele>1525.27</ele>
        <time>2012-07-07T11:53:39Z</time>
      </trkpt>
      <trkpt lat="46.172672342509031" lon="7.265847735106945">
        <ele>1524.3099999999999</ele>
        <time>2012-07-07T11:53:40Z</time>
      </trkpt>
      <trkpt lat="46.172616435214877" lon="7.265712367370725">
        <ele>1523.8299999999999</ele>
        <time>2012-07-07T11:53:41Z</time>
      </trkpt>
      <trkpt lat="46.172552481293678" lon="7.265605749562383">
        <ele>1522.8699999999999</ele>
        <time>2012-07-07T11:53:42Z</time>
      </trkpt>
      <trkpt lat="46.172497412189841" lon="7.265518996864557">
        <ele>1522.3900000000001</ele>
        <time>2012-07-07T11:53:43Z</time>
      </trkpt>
      <trkpt lat="46.172471093013883" lon="7.26543752476573">
        <ele>1521.9000000000001</ele>
        <time>2012-07-07T11:53:44Z</time>
      </trkpt>
      <trkpt lat="46.172485593706369" lon="7.265368876978755">
        <ele>1520.9400000000001</ele>
        <time>2012-07-07T11:53:45Z</time>
      </trkpt>
      <trkpt lat="46.172598330304027" lon="7.265452863648534">
        <ele>1518.54</ele>
        <time>2012-07-07T11:53:48Z</time>
      </trkpt>
      <trkpt lat="46.17261853069067" lon="7.265543807297945">
        <ele>1517.5799999999999</ele>
        <time>2012-07-07T11:53:49Z</time>
      </trkpt>
      <trkpt lat="46.17264929227531" lon="7.265643300488591">
        <ele>1517.0999999999999</ele>
        <time>2012-07-07T11:53:50Z</time>
      </trkpt>
      <trkpt lat="46.17269279435277" lon="7.265745308250189">
        <ele>1517.0999999999999</ele>
        <time>2012-07-07T11:53:51Z</time>
      </trkpt>
      <trkpt lat="46.17273973301053" lon="7.265852680429816">
        <ele>1516.6199999999999</ele>
        <time>2012-07-07T11:53:52Z</time>
      </trkpt>
      <trkpt lat="46.173267122358084" lon="7.267226725816727">
        <ele>1509.4100000000001</ele>
        <time>2012-07-07T11:54:02Z</time>
      </trkpt>
      <trkpt lat="46.173756709322333" lon="7.26851879619062">
        <ele>1501.24</ele>
        <time>2012-07-07T11:54:10Z</time>
      </trkpt>
      <trkpt lat="46.173791913315654" lon="7.268702946603298">
        <ele>1500.27</ele>
        <time>2012-07-07T11:54:11Z</time>
      </trkpt>
      <trkpt lat="46.173813287168741" lon="7.268893048167229">
        <ele>1499.3099999999999</ele>
        <time>2012-07-07T11:54:12Z</time>
      </trkpt>
      <trkpt lat="46.173821501433849" lon="7.269088178873062">
        <ele>1498.3499999999999</ele>
        <time>2012-07-07T11:54:13Z</time>
      </trkpt>
      <trkpt lat="46.173821585252881" lon="7.269286494702101">
        <ele>1497.3900000000001</ele>
        <time>2012-07-07T11:54:14Z</time>
      </trkpt>
      <trkpt lat="46.173837846145034" lon="7.269680695608258">
        <ele>1495.47</ele>
        <time>2012-07-07T11:54:16Z</time>
      </trkpt>
      <trkpt lat="46.173870116472244" lon="7.269871467724443">
        <ele>1494.99</ele>
        <time>2012-07-07T11:54:17Z</time>
      </trkpt>
      <trkpt lat="46.173918480053544" lon="7.27005553431809">
        <ele>1494.03</ele>
        <time>2012-07-07T11:54:18Z</time>
      </trkpt>
      <trkpt lat="46.174625661224127" lon="7.271981108933687">
        <ele>1482.01</ele>
        <time>2012-07-07T11:54:29Z</time>
      </trkpt>
      <trkpt lat="46.175305768847466" lon="7.273276699706912">
        <ele>1472.8800000000001</ele>
        <time>2012-07-07T11:54:38Z</time>
      </trkpt>
      <trkpt lat="46.17535388097167" lon="7.273327242583036">
        <ele>1471.9200000000001</ele>
        <time>2012-07-07T11:54:39Z</time>
      </trkpt>
      <trkpt lat="46.175399646162987" lon="7.273324560374022">
        <ele>1471.4400000000001</ele>
        <time>2012-07-07T11:54:40Z</time>
      </trkpt>
      <trkpt lat="46.17542470805347" lon="7.273202938959003">
        <ele>1470.47</ele>
        <time>2012-07-07T11:54:42Z</time>
      </trkpt>
      <trkpt lat="46.175404423847795" lon="7.273135213181377">
        <ele>1469.99</ele>
        <time>2012-07-07T11:54:43Z</time>
      </trkpt>
      <trkpt lat="46.175377434119582" lon="7.273064218461514">
        <ele>1469.51</ele>
        <time>2012-07-07T11:54:44Z</time>
      </trkpt>
      <trkpt lat="46.175350612029433" lon="7.272984338924289">
        <ele>1469.51</ele>
        <time>2012-07-07T11:54:45Z</time>
      </trkpt>
      <trkpt lat="46.17532798089087" lon="7.272894065827131">
        <ele>1469.03</ele>
        <time>2012-07-07T11:54:46Z</time>
      </trkpt>
      <trkpt lat="46.17530501447618" lon="7.272792980074883">
        <ele>1468.55</ele>
        <time>2012-07-07T11:54:47Z</time>
      </trkpt>
      <trkpt lat="46.175274169072509" lon="7.272685607895255">
        <ele>1468.55</ele>
        <time>2012-07-07T11:54:48Z</time>
      </trkpt>
      <trkpt lat="46.17491994984448" lon="7.271749768406153">
        <ele>1463.26</ele>
        <time>2012-07-07T11:54:56Z</time>
      </trkpt>
      <trkpt lat="46.174890697002411" lon="7.271606856957078">
        <ele>1462.78</ele>
        <time>2012-07-07T11:54:57Z</time>
      </trkpt>
      <trkpt lat="46.174842165783048" lon="7.27114275097847">
        <ele>1460.3800000000001</ele>
        <time>2012-07-07T11:55:00Z</time>
      </trkpt>
      <trkpt lat="46.174805453047156" lon="7.270990032702684">
        <ele>1459.4200000000001</ele>
        <time>2012-07-07T11:55:01Z</time>
      </trkpt>
      <trkpt lat="46.174769410863519" lon="7.270846115425229">
        <ele>1458.46</ele>
        <time>2012-07-07T11:55:02Z</time>
      </trkpt>
      <trkpt lat="46.174747701734304" lon="7.270708987489343">
        <ele>1457.5</ele>
        <time>2012-07-07T11:55:03Z</time>
      </trkpt>
      <trkpt lat="46.174746947363019" lon="7.270574625581503">
        <ele>1456.53</ele>
        <time>2012-07-07T11:55:04Z</time>
      </trkpt>
      <trkpt lat="46.174768069759011" lon="7.270445041358471">
        <ele>1455.5699999999999</ele>
        <time>2012-07-07T11:55:05Z</time>
      </trkpt>
      <trkpt lat="46.174798579886556" lon="7.270319648087025">
        <ele>1454.6099999999999</ele>
        <time>2012-07-07T11:55:06Z</time>
      </trkpt>
      <trkpt lat="46.174815846607089" lon="7.270186878740788">
        <ele>1454.1300000000001</ele>
        <time>2012-07-07T11:55:07Z</time>
      </trkpt>
      <trkpt lat="46.174811571836472" lon="7.270052013918757">
        <ele>1453.1700000000001</ele>
        <time>2012-07-07T11:55:08Z</time>
      </trkpt>
      <trkpt lat="46.174782570451498" lon="7.269705506041646">
        <ele>1451.25</ele>
        <time>2012-07-07T11:55:11Z</time>
      </trkpt>
      <trkpt lat="46.174796652048826" lon="7.269595367833972">
        <ele>1450.77</ele>
        <time>2012-07-07T11:55:12Z</time>
      </trkpt>
      <trkpt lat="46.174831604585052" lon="7.269482715055347">
        <ele>1450.29</ele>
        <time>2012-07-07T11:55:13Z</time>
      </trkpt>
      <trkpt lat="46.17490142583847" lon="7.269251625984907">
        <ele>1448.8399999999999</ele>
        <time>2012-07-07T11:55:15Z</time>
      </trkpt>
      <trkpt lat="46.174916680902243" lon="7.269130842760205">
        <ele>1448.3599999999999</ele>
        <time>2012-07-07T11:55:16Z</time>
      </trkpt>
      <trkpt lat="46.174906371161342" lon="7.269010730087757">
        <ele>1447.8800000000001</ele>
        <time>2012-07-07T11:55:17Z</time>
      </trkpt>
      <trkpt lat="46.17487451992929" lon="7.268896400928497">
        <ele>1447.4000000000001</ele>
        <time>2012-07-07T11:55:18Z</time>
      </trkpt>
      <trkpt lat="46.174831436946988" lon="7.268787436187267">
        <ele>1446.9200000000001</ele>
        <time>2012-07-07T11:55:19Z</time>
      </trkpt>
      <trkpt lat="46.174782989546657" lon="7.268678303807974">
        <ele>1446.4400000000001</ele>
        <time>2012-07-07T11:55:20Z</time>
      </trkpt>
      <trkpt lat="46.174684586003423" lon="7.268454087898135">
        <ele>1445.48</ele>
        <time>2012-07-07T11:55:22Z</time>
      </trkpt>
      <trkpt lat="46.174646532163024" lon="7.268329029902816">
        <ele>1445</ele>
        <time>2012-07-07T11:55:23Z</time>
      </trkpt>
      <trkpt lat="46.174617111682892" lon="7.268200451508164">
        <ele>1444.04</ele>
        <time>2012-07-07T11:55:24Z</time>
      </trkpt>
      <trkpt lat="46.174602946266532" lon="7.268075225874782">
        <ele>1443.5599999999999</ele>
        <time>2012-07-07T11:55:25Z</time>
      </trkpt>
      <trkpt lat="46.174604287371039" lon="7.267955867573619">
        <ele>1443.0799999999999</ele>
        <time>2012-07-07T11:55:26Z</time>
      </trkpt>
      <trkpt lat="46.17461116053164" lon="7.267847405746579">
        <ele>1442.5999999999999</ele>
        <time>2012-07-07T11:55:27Z</time>
      </trkpt>
      <trkpt lat="46.17463362403214" lon="7.267682198435068">
        <ele>1441.6300000000001</ele>
        <time>2012-07-07T11:55:29Z</time>
      </trkpt>
      <trkpt lat="46.174660194665194" lon="7.267639869824052">
        <ele>1441.1500000000001</ele>
        <time>2012-07-07T11:55:30Z</time>
      </trkpt>
      <trkpt lat="46.174699757248163" lon="7.267633080482483">
        <ele>1441.1500000000001</ele>
        <time>2012-07-07T11:55:31Z</time>
      </trkpt>
      <trkpt lat="46.174749210476875" lon="7.267658310011029">
        <ele>1440.6700000000001</ele>
        <time>2012-07-07T11:55:32Z</time>
      </trkpt>
      <trkpt lat="46.174796484410763" lon="7.267709271982312">
        <ele>1440.6700000000001</ele>
        <time>2012-07-07T11:55:33Z</time>
      </trkpt>
      <trkpt lat="46.174842333421111" lon="7.267773812636733">
        <ele>1439.71</ele>
        <time>2012-07-07T11:55:34Z</time>
      </trkpt>
      <trkpt lat="46.174883740022779" lon="7.267848076298833">
        <ele>1439.23</ele>
        <time>2012-07-07T11:55:35Z</time>
      </trkpt>
      <trkpt lat="46.174923051148653" lon="7.267933487892151">
        <ele>1438.27</ele>
        <time>2012-07-07T11:55:36Z</time>
      </trkpt>
      <trkpt lat="46.17496688850224" lon="7.268027532845736">
        <ele>1437.3099999999999</ele>
        <time>2012-07-07T11:55:37Z</time>
      </trkpt>
      <trkpt lat="46.17501818574965" lon="7.268126187846065">
        <ele>1435.8699999999999</ele>
        <time>2012-07-07T11:55:38Z</time>
      </trkpt>
      <trkpt lat="46.175076272338629" lon="7.268230123445392">
        <ele>1434.4200000000001</ele>
        <time>2012-07-07T11:55:39Z</time>
      </trkpt>
      <trkpt lat="46.175206694751978" lon="7.268450986593962">
        <ele>1431.0599999999999</ele>
        <time>2012-07-07T11:55:41Z</time>
      </trkpt>
      <trkpt lat="46.17525078356266" lon="7.268582582473755">
        <ele>1430.0999999999999</ele>
        <time>2012-07-07T11:55:42Z</time>
      </trkpt>
      <trkpt lat="46.175278527662158" lon="7.268725326284766">
        <ele>1428.6600000000001</ele>
        <time>2012-07-07T11:55:43Z</time>
      </trkpt>
      <trkpt lat="46.175349354743958" lon="7.269151965156198">
        <ele>1426.73</ele>
        <time>2012-07-07T11:55:46Z</time>
      </trkpt>
      <trkpt lat="46.17558790370822" lon="7.270076824352145">
        <ele>1423.8499999999999</ele>
        <time>2012-07-07T11:55:53Z</time>
      </trkpt>
      <trkpt lat="46.175679434090853" lon="7.270300788804889">
        <ele>1424.3299999999999</ele>
        <time>2012-07-07T11:55:55Z</time>
      </trkpt>
      <trkpt lat="46.17573500610888" lon="7.270392738282681">
        <ele>1424.3299999999999</ele>
        <time>2012-07-07T11:55:56Z</time>
      </trkpt>
      <trkpt lat="46.175795188173652" lon="7.270476054400206">
        <ele>1424.3299999999999</ele>
        <time>2012-07-07T11:55:57Z</time>
      </trkpt>
      <trkpt lat="46.175912199541926" lon="7.270649895071983">
        <ele>1424.3299999999999</ele>
        <time>2012-07-07T11:55:59Z</time>
      </trkpt>
      <trkpt lat="46.176045723259449" lon="7.27094586007297">
        <ele>1424.3299999999999</ele>
        <time>2012-07-07T11:56:02Z</time>
      </trkpt>
      <trkpt lat="46.176069527864456" lon="7.2710513882339">
        <ele>1424.3299999999999</ele>
        <time>2012-07-07T11:56:03Z</time>
      </trkpt>
      <trkpt lat="46.176092242822051" lon="7.271153395995498">
        <ele>1424.3299999999999</ele>
        <time>2012-07-07T11:56:04Z</time>
      </trkpt>
      <trkpt lat="46.176136750727892" lon="7.271235957741737">
        <ele>1423.8499999999999</ele>
        <time>2012-07-07T11:56:05Z</time>
      </trkpt>
      <trkpt lat="46.176199615001678" lon="7.271290188655257">
        <ele>1423.3699999999999</ele>
        <time>2012-07-07T11:56:06Z</time>
      </trkpt>
      <trkpt lat="46.176268262788653" lon="7.271330757066608">
        <ele>1422.8900000000001</ele>
        <time>2012-07-07T11:56:07Z</time>
      </trkpt>
      <trkpt lat="46.176330372691154" lon="7.271378031000495">
        <ele>1422.4100000000001</ele>
        <time>2012-07-07T11:56:08Z</time>
      </trkpt>
      <trkpt lat="46.176377814263105" lon="7.271439637988806">
        <ele>1421.45</ele>
        <time>2012-07-07T11:56:09Z</time>
      </trkpt>
      <trkpt lat="46.176410922780633" lon="7.271508621051908">
        <ele>1420.97</ele>
        <time>2012-07-07T11:56:10Z</time>
      </trkpt>
      <trkpt lat="46.176425172016025" lon="7.271584058180451">
        <ele>1420</ele>
        <time>2012-07-07T11:56:11Z</time>
      </trkpt>
      <trkpt lat="46.176410671323538" lon="7.271665446460247">
        <ele>1419.04</ele>
        <time>2012-07-07T11:56:12Z</time>
      </trkpt>
      <trkpt lat="46.176379239186645" lon="7.271759156137705">
        <ele>1418.0799999999999</ele>
        <time>2012-07-07T11:56:13Z</time>
      </trkpt>
      <trkpt lat="46.176363732665777" lon="7.271866276860237">
        <ele>1416.6400000000001</ele>
        <time>2012-07-07T11:56:14Z</time>
      </trkpt>
      <trkpt lat="46.176381753757596" lon="7.271977756172419">
        <ele>1415.2</ele>
        <time>2012-07-07T11:56:15Z</time>
      </trkpt>
      <trkpt lat="46.176425507292151" lon="7.272090157493949">
        <ele>1413.76</ele>
        <time>2012-07-07T11:56:16Z</time>
      </trkpt>
      <trkpt lat="46.176487198099494" lon="7.272205157205463">
        <ele>1412.3099999999999</ele>
        <time>2012-07-07T11:56:17Z</time>
      </trkpt>
      <trkpt lat="46.176560539752245" lon="7.272314876317978">
        <ele>1410.3900000000001</ele>
        <time>2012-07-07T11:56:18Z</time>
      </trkpt>
      <trkpt lat="46.176637737080455" lon="7.272416381165385">
        <ele>1408.95</ele>
        <time>2012-07-07T11:56:19Z</time>
      </trkpt>
      <trkpt lat="46.176880644634366" lon="7.272733971476555">
        <ele>1405.0999999999999</ele>
        <time>2012-07-07T11:56:22Z</time>
      </trkpt>
      <trkpt lat="46.176963374018669" lon="7.272813683375716">
        <ele>1404.1400000000001</ele>
        <time>2012-07-07T11:56:23Z</time>
      </trkpt>
      <trkpt lat="46.177048534154892" lon="7.272867914289236">
        <ele>1403.6600000000001</ele>
        <time>2012-07-07T11:56:24Z</time>
      </trkpt>
      <trkpt lat="46.177127994596958" lon="7.272902447730303">
        <ele>1403.1800000000001</ele>
        <time>2012-07-07T11:56:25Z</time>
      </trkpt>
      <trkpt lat="46.177196390926838" lon="7.27294284850359">
        <ele>1403.1800000000001</ele>
        <time>2012-07-07T11:56:26Z</time>
      </trkpt>
      <trkpt lat="46.177249783650041" lon="7.273004287853837">
        <ele>1403.1800000000001</ele>
        <time>2012-07-07T11:56:27Z</time>
      </trkpt>
      <trkpt lat="46.177288591861725" lon="7.273082407191396">
        <ele>1403.1800000000001</ele>
        <time>2012-07-07T11:56:28Z</time>
      </trkpt>
      <trkpt lat="46.177316335961223" lon="7.273174775764346">
        <ele>1402.7</ele>
        <time>2012-07-07T11:56:29Z</time>
      </trkpt>
      <trkpt lat="46.17734114639461" lon="7.273271335288882">
        <ele>1402.7</ele>
        <time>2012-07-07T11:56:30Z</time>
      </trkpt>
      <trkpt lat="46.177369309589267" lon="7.273366469889879">
        <ele>1402.7</ele>
        <time>2012-07-07T11:56:31Z</time>
      </trkpt>
      <trkpt lat="46.177404932677746" lon="7.273455234244466">
        <ele>1402.22</ele>
        <time>2012-07-07T11:56:32Z</time>
      </trkpt>
      <trkpt lat="46.177609786391258" lon="7.273865444585681">
        <ele>1402.22</ele>
        <time>2012-07-07T11:56:37Z</time>
      </trkpt>
      <trkpt lat="46.177633004263043" lon="7.273952113464475">
        <ele>1402.22</ele>
        <time>2012-07-07T11:56:38Z</time>
      </trkpt>
      <trkpt lat="46.177643062546849" lon="7.274043560028076">
        <ele>1402.7</ele>
        <time>2012-07-07T11:56:39Z</time>
      </trkpt>
      <trkpt lat="46.177681870758533" lon="7.275201939046383">
        <ele>1399.3399999999999</ele>
        <time>2012-07-07T11:56:49Z</time>
      </trkpt>
      <trkpt lat="46.177750686183572" lon="7.275616005063057">
        <ele>1398.8599999999999</ele>
        <time>2012-07-07T11:56:53Z</time>
      </trkpt>
      <trkpt lat="46.177780358120799" lon="7.275707200169563">
        <ele>1398.3699999999999</ele>
        <time>2012-07-07T11:56:54Z</time>
      </trkpt>
      <trkpt lat="46.17818838916719" lon="7.27682844735682">
        <ele>1392.1300000000001</ele>
        <time>2012-07-07T11:57:04Z</time>
      </trkpt>
      <trkpt lat="46.178371533751488" lon="7.27745097130537">
        <ele>1389.24</ele>
        <time>2012-07-07T11:57:08Z</time>
      </trkpt>
      <trkpt lat="46.178426770493388" lon="7.277589105069637">
        <ele>1388.76</ele>
        <time>2012-07-07T11:57:09Z</time>
      </trkpt>
      <trkpt lat="46.178866317495704" lon="7.279002461582422">
        <ele>1381.55</ele>
        <time>2012-07-07T11:57:19Z</time>
      </trkpt>
      <trkpt lat="46.178904371336102" lon="7.279123580083251">
        <ele>1380.5899999999999</ele>
        <time>2012-07-07T11:57:20Z</time>
      </trkpt>
      <trkpt lat="46.178953573107719" lon="7.279236651957035">
        <ele>1379.1500000000001</ele>
        <time>2012-07-07T11:57:21Z</time>
      </trkpt>
      <trkpt lat="46.17900931276381" lon="7.279340671375394">
        <ele>1377.23</ele>
        <time>2012-07-07T11:57:22Z</time>
      </trkpt>
      <trkpt lat="46.179150212556124" lon="7.279614340513945">
        <ele>1372.9000000000001</ele>
        <time>2012-07-07T11:57:25Z</time>
      </trkpt>
      <trkpt lat="46.179183321073651" lon="7.279732692986727">
        <ele>1371.46</ele>
        <time>2012-07-07T11:57:26Z</time>
      </trkpt>
      <trkpt lat="46.179207377135754" lon="7.27986671961844">
        <ele>1370.02</ele>
        <time>2012-07-07T11:57:27Z</time>
      </trkpt>
      <trkpt lat="46.179232522845268" lon="7.280006781220436">
        <ele>1369.05</ele>
        <time>2012-07-07T11:57:28Z</time>
      </trkpt>
      <trkpt lat="46.179262110963464" lon="7.280152374878526">
        <ele>1367.6099999999999</ele>
        <time>2012-07-07T11:57:29Z</time>
      </trkpt>
      <trkpt lat="46.179444584995508" lon="7.280889730900526">
        <ele>1361.8399999999999</ele>
        <time>2012-07-07T11:57:35Z</time>
      </trkpt>
      <trkpt lat="46.179497139528394" lon="7.280981931835413">
        <ele>1361.3599999999999</ele>
        <time>2012-07-07T11:57:36Z</time>
      </trkpt>
      <trkpt lat="46.179557908326387" lon="7.281064661219716">
        <ele>1360.8800000000001</ele>
        <time>2012-07-07T11:57:37Z</time>
      </trkpt>
      <trkpt lat="46.179618593305349" lon="7.281151246279478">
        <ele>1360.4000000000001</ele>
        <time>2012-07-07T11:57:38Z</time>
      </trkpt>
      <trkpt lat="46.179676093161106" lon="7.281247805804014">
        <ele>1359.4400000000001</ele>
        <time>2012-07-07T11:57:39Z</time>
      </trkpt>
      <trkpt lat="46.17979696020484" lon="7.281466405838728">
        <ele>1357.52</ele>
        <time>2012-07-07T11:57:41Z</time>
      </trkpt>
      <trkpt lat="46.179851442575455" lon="7.281594397500157">
        <ele>1357.04</ele>
        <time>2012-07-07T11:57:42Z</time>
      </trkpt>
      <trkpt lat="46.179994437843561" lon="7.28200594894588">
        <ele>1354.6300000000001</ele>
        <time>2012-07-07T11:57:45Z</time>
      </trkpt>
      <trkpt lat="46.180126452818513" lon="7.282845145091415">
        <ele>1352.23</ele>
        <time>2012-07-07T11:57:51Z</time>
      </trkpt>
      <trkpt lat="46.180147742852569" lon="7.282969700172544">
        <ele>1352.23</ele>
        <time>2012-07-07T11:57:52Z</time>
      </trkpt>
      <trkpt lat="46.180174564942718" lon="7.28308922611177">
        <ele>1352.23</ele>
        <time>2012-07-07T11:57:53Z</time>
      </trkpt>
      <trkpt lat="46.180470362305641" lon="7.284057503566146">
        <ele>1352.71</ele>
        <time>2012-07-07T11:58:02Z</time>
      </trkpt>
      <trkpt lat="46.180486623197794" lon="7.284157332032919">
        <ele>1352.71</ele>
        <time>2012-07-07T11:58:03Z</time>
      </trkpt>
      <trkpt lat="46.180491987615824" lon="7.284259172156453">
        <ele>1352.71</ele>
        <time>2012-07-07T11:58:04Z</time>
      </trkpt>
      <trkpt lat="46.180489808320999" lon="7.28435916826129">
        <ele>1353.1900000000001</ele>
        <time>2012-07-07T11:58:05Z</time>
      </trkpt>
      <trkpt lat="46.180484192445874" lon="7.284455727785826">
        <ele>1353.1900000000001</ele>
        <time>2012-07-07T11:58:06Z</time>
      </trkpt>
      <trkpt lat="46.180474050343037" lon="7.284538624808192">
        <ele>1353.6700000000001</ele>
        <time>2012-07-07T11:58:07Z</time>
      </trkpt>
      <trkpt lat="46.180459633469582" lon="7.284607691690326">
        <ele>1354.1500000000001</ele>
        <time>2012-07-07T11:58:08Z</time>
      </trkpt>
      <trkpt lat="46.180445300415158" lon="7.284665107727051">
        <ele>1355.1199999999999</ele>
        <time>2012-07-07T11:58:09Z</time>
      </trkpt>
      <trkpt lat="46.180437672883272" lon="7.284715985879302">
        <ele>1355.5999999999999</ele>
        <time>2012-07-07T11:58:10Z</time>
      </trkpt>
      <trkpt lat="46.180438427254558" lon="7.284772312268615">
        <ele>1356.0799999999999</ele>
        <time>2012-07-07T11:58:11Z</time>
      </trkpt>
      <trkpt lat="46.180456196889281" lon="7.284835930913687">
        <ele>1356.0799999999999</ele>
        <time>2012-07-07T11:58:12Z</time>
      </trkpt>
      <trkpt lat="46.180487461388111" lon="7.284906255081296">
        <ele>1355.5999999999999</ele>
        <time>2012-07-07T11:58:13Z</time>
      </trkpt>
      <trkpt lat="46.180527526885271" lon="7.28498412296176">
        <ele>1355.1199999999999</ele>
        <time>2012-07-07T11:58:14Z</time>
      </trkpt>
      <trkpt lat="46.180954333394766" lon="7.285819044336677">
        <ele>1349.8299999999999</ele>
        <time>2012-07-07T11:58:22Z</time>
      </trkpt>
      <trkpt lat="46.18098970502615" lon="7.285950221121311">
        <ele>1349.3499999999999</ele>
        <time>2012-07-07T11:58:23Z</time>
      </trkpt>
      <trkpt lat="46.181013844907284" lon="7.286083409562707">
        <ele>1349.3499999999999</ele>
        <time>2012-07-07T11:58:24Z</time>
      </trkpt>
      <trkpt lat="46.18111384101212" lon="7.287530293688178">
        <ele>1347.9100000000001</ele>
        <time>2012-07-07T11:58:36Z</time>
      </trkpt>
      <trkpt lat="46.18148859590292" lon="7.288908949121833">
        <ele>1345.5</ele>
        <time>2012-07-07T11:58:48Z</time>
      </trkpt>
      <trkpt lat="46.181934261694551" lon="7.290134131908417">
        <ele>1344.0599999999999</ele>
        <time>2012-07-07T11:59:00Z</time>
      </trkpt>
      <trkpt lat="46.181994276121259" lon="7.290300764143467">
        <ele>1343.5799999999999</ele>
        <time>2012-07-07T11:59:02Z</time>
      </trkpt>
      <trkpt lat="46.181992348283529" lon="7.290374943986535">
        <ele>1343.5799999999999</ele>
        <time>2012-07-07T11:59:03Z</time>
      </trkpt>
      <trkpt lat="46.181982373818755" lon="7.290445351973176">
        <ele>1343.5799999999999</ele>
        <time>2012-07-07T11:59:04Z</time>
      </trkpt>
      <trkpt lat="46.181988827884197" lon="7.290506204590201">
        <ele>1343.0999999999999</ele>
        <time>2012-07-07T11:59:05Z</time>
      </trkpt>
      <trkpt lat="46.182009279727936" lon="7.290544090792537">
        <ele>1343.0999999999999</ele>
        <time>2012-07-07T11:59:06Z</time>
      </trkpt>
      <trkpt lat="46.182024115696549" lon="7.290561608970165">
        <ele>1343.0999999999999</ele>
        <time>2012-07-07T11:59:07Z</time>
      </trkpt>
      <trkpt lat="46.182025540620089" lon="7.290562195703387">
        <ele>1343.0999999999999</ele>
        <time>2012-07-07T11:59:10Z</time>
      </trkpt>
    </trkseg>
  </trk>

</gpx>